<?xml version="1.0" encoding="UTF-8"?>
<gpx xmlns="http://www.topografix.com/GPX/1/1"
     creator="GpsDump 4.90"
     version="1.1"
     xmlns:xsi="http://www.w3.org/2001/XMLSchema-instance"
     xsi:schemaLocation="http://www.topografix.com/GPX/1/1 http://www.topografix.com/GPX/1/1/gpx.xsd">
  <metadata>
    <link href="http://www.gethome.no/stein.sorensen/">
      <text>GPS dump for www.flightlog.org</text>
    </link>
    <time>2016-09-26T13:16:33Z</time>
    <bounds minlat="36.644819" minlon="-5.422316" maxlat="36.904383" maxlon="-5.111783"/>
  </metadata>
  <trk>
    <name>Track 001</name>
    <trkseg>
      <trkpt lat="36.894886" lon="-5.416317">
        <ele>906.0</ele>
        <time>2016-09-23T14:00:29Z</time>
      </trkpt>
      <trkpt lat="36.894817" lon="-5.416366">
        <ele>902.0</ele>
        <time>2016-09-23T14:00:31Z</time>
      </trkpt>
      <trkpt lat="36.894684" lon="-5.416500">
        <ele>907.0</ele>
        <time>2016-09-23T14:00:34Z</time>
      </trkpt>
      <trkpt lat="36.894551" lon="-5.416567">
        <ele>910.0</ele>
        <time>2016-09-23T14:00:37Z</time>
      </trkpt>
      <trkpt lat="36.894551" lon="-5.416750">
        <ele>919.0</ele>
        <time>2016-09-23T14:00:41Z</time>
      </trkpt>
      <trkpt lat="36.894633" lon="-5.416834">
        <ele>925.0</ele>
        <time>2016-09-23T14:00:44Z</time>
      </trkpt>
      <trkpt lat="36.894653" lon="-5.416966">
        <ele>926.0</ele>
        <time>2016-09-23T14:00:47Z</time>
      </trkpt>
      <trkpt lat="36.894718" lon="-5.417083">
        <ele>927.0</ele>
        <time>2016-09-23T14:00:50Z</time>
      </trkpt>
      <trkpt lat="36.894800" lon="-5.417233">
        <ele>925.0</ele>
        <time>2016-09-23T14:00:53Z</time>
      </trkpt>
      <trkpt lat="36.894800" lon="-5.417417">
        <ele>926.0</ele>
        <time>2016-09-23T14:00:56Z</time>
      </trkpt>
      <trkpt lat="36.894851" lon="-5.417616">
        <ele>925.0</ele>
        <time>2016-09-23T14:00:59Z</time>
      </trkpt>
      <trkpt lat="36.894886" lon="-5.417783">
        <ele>926.0</ele>
        <time>2016-09-23T14:01:02Z</time>
      </trkpt>
      <trkpt lat="36.894886" lon="-5.417983">
        <ele>923.0</ele>
        <time>2016-09-23T14:01:05Z</time>
      </trkpt>
      <trkpt lat="36.894838" lon="-5.418183">
        <ele>921.0</ele>
        <time>2016-09-23T14:01:08Z</time>
      </trkpt>
      <trkpt lat="36.894817" lon="-5.418400">
        <ele>918.0</ele>
        <time>2016-09-23T14:01:11Z</time>
      </trkpt>
      <trkpt lat="36.894800" lon="-5.418633">
        <ele>918.0</ele>
        <time>2016-09-23T14:01:14Z</time>
      </trkpt>
      <trkpt lat="36.894787" lon="-5.418883">
        <ele>916.0</ele>
        <time>2016-09-23T14:01:18Z</time>
      </trkpt>
      <trkpt lat="36.894718" lon="-5.419083">
        <ele>914.0</ele>
        <time>2016-09-23T14:01:21Z</time>
      </trkpt>
      <trkpt lat="36.894667" lon="-5.419250">
        <ele>913.0</ele>
        <time>2016-09-23T14:01:24Z</time>
      </trkpt>
      <trkpt lat="36.894585" lon="-5.419417">
        <ele>914.0</ele>
        <time>2016-09-23T14:01:27Z</time>
      </trkpt>
      <trkpt lat="36.894534" lon="-5.419600">
        <ele>913.0</ele>
        <time>2016-09-23T14:01:30Z</time>
      </trkpt>
      <trkpt lat="36.894401" lon="-5.419750">
        <ele>910.0</ele>
        <time>2016-09-23T14:01:33Z</time>
      </trkpt>
      <trkpt lat="36.894185" lon="-5.419666">
        <ele>908.0</ele>
        <time>2016-09-23T14:01:36Z</time>
      </trkpt>
      <trkpt lat="36.893984" lon="-5.419483">
        <ele>906.0</ele>
        <time>2016-09-23T14:01:39Z</time>
      </trkpt>
      <trkpt lat="36.893817" lon="-5.419217">
        <ele>905.0</ele>
        <time>2016-09-23T14:01:42Z</time>
      </trkpt>
      <trkpt lat="36.893670" lon="-5.418950">
        <ele>902.0</ele>
        <time>2016-09-23T14:01:45Z</time>
      </trkpt>
      <trkpt lat="36.893485" lon="-5.418750">
        <ele>900.0</ele>
        <time>2016-09-23T14:01:48Z</time>
      </trkpt>
      <trkpt lat="36.893301" lon="-5.418567">
        <ele>899.0</ele>
        <time>2016-09-23T14:01:51Z</time>
      </trkpt>
      <trkpt lat="36.893120" lon="-5.418433">
        <ele>897.0</ele>
        <time>2016-09-23T14:01:54Z</time>
      </trkpt>
      <trkpt lat="36.892867" lon="-5.418333">
        <ele>896.0</ele>
        <time>2016-09-23T14:01:58Z</time>
      </trkpt>
      <trkpt lat="36.892669" lon="-5.418266">
        <ele>893.0</ele>
        <time>2016-09-23T14:02:01Z</time>
      </trkpt>
      <trkpt lat="36.892485" lon="-5.418233">
        <ele>891.0</ele>
        <time>2016-09-23T14:02:04Z</time>
      </trkpt>
      <trkpt lat="36.892283" lon="-5.418183">
        <ele>890.0</ele>
        <time>2016-09-23T14:02:07Z</time>
      </trkpt>
      <trkpt lat="36.892085" lon="-5.418249">
        <ele>886.0</ele>
        <time>2016-09-23T14:02:10Z</time>
      </trkpt>
      <trkpt lat="36.891884" lon="-5.418317">
        <ele>886.0</ele>
        <time>2016-09-23T14:02:13Z</time>
      </trkpt>
      <trkpt lat="36.891651" lon="-5.418350">
        <ele>887.0</ele>
        <time>2016-09-23T14:02:16Z</time>
      </trkpt>
      <trkpt lat="36.891501" lon="-5.418450">
        <ele>887.0</ele>
        <time>2016-09-23T14:02:19Z</time>
      </trkpt>
      <trkpt lat="36.891419" lon="-5.418550">
        <ele>883.0</ele>
        <time>2016-09-23T14:02:22Z</time>
      </trkpt>
      <trkpt lat="36.891269" lon="-5.418550">
        <ele>879.0</ele>
        <time>2016-09-23T14:02:25Z</time>
      </trkpt>
      <trkpt lat="36.891115" lon="-5.418567">
        <ele>872.0</ele>
        <time>2016-09-23T14:02:28Z</time>
      </trkpt>
      <trkpt lat="36.891320" lon="-5.418766">
        <ele>867.0</ele>
        <time>2016-09-23T14:02:32Z</time>
      </trkpt>
      <trkpt lat="36.891566" lon="-5.418666">
        <ele>862.0</ele>
        <time>2016-09-23T14:02:35Z</time>
      </trkpt>
      <trkpt lat="36.891768" lon="-5.418583">
        <ele>863.0</ele>
        <time>2016-09-23T14:02:37Z</time>
      </trkpt>
      <trkpt lat="36.892102" lon="-5.418517">
        <ele>860.0</ele>
        <time>2016-09-23T14:02:41Z</time>
      </trkpt>
      <trkpt lat="36.892352" lon="-5.418517">
        <ele>858.0</ele>
        <time>2016-09-23T14:02:44Z</time>
      </trkpt>
      <trkpt lat="36.892621" lon="-5.418500">
        <ele>855.0</ele>
        <time>2016-09-23T14:02:47Z</time>
      </trkpt>
      <trkpt lat="36.892867" lon="-5.418466">
        <ele>853.0</ele>
        <time>2016-09-23T14:02:50Z</time>
      </trkpt>
      <trkpt lat="36.893120" lon="-5.418450">
        <ele>851.0</ele>
        <time>2016-09-23T14:02:53Z</time>
      </trkpt>
      <trkpt lat="36.893352" lon="-5.418450">
        <ele>852.0</ele>
        <time>2016-09-23T14:02:56Z</time>
      </trkpt>
      <trkpt lat="36.893550" lon="-5.418500">
        <ele>856.0</ele>
        <time>2016-09-23T14:02:59Z</time>
      </trkpt>
      <trkpt lat="36.893670" lon="-5.418583">
        <ele>858.0</ele>
        <time>2016-09-23T14:03:02Z</time>
      </trkpt>
      <trkpt lat="36.893817" lon="-5.418733">
        <ele>860.0</ele>
        <time>2016-09-23T14:03:05Z</time>
      </trkpt>
      <trkpt lat="36.893984" lon="-5.418867">
        <ele>856.0</ele>
        <time>2016-09-23T14:03:08Z</time>
      </trkpt>
      <trkpt lat="36.894254" lon="-5.418917">
        <ele>853.0</ele>
        <time>2016-09-23T14:03:11Z</time>
      </trkpt>
      <trkpt lat="36.894520" lon="-5.418850">
        <ele>850.0</ele>
        <time>2016-09-23T14:03:14Z</time>
      </trkpt>
      <trkpt lat="36.894800" lon="-5.418717">
        <ele>848.0</ele>
        <time>2016-09-23T14:03:17Z</time>
      </trkpt>
      <trkpt lat="36.895036" lon="-5.418599">
        <ele>844.0</ele>
        <time>2016-09-23T14:03:20Z</time>
      </trkpt>
      <trkpt lat="36.895302" lon="-5.418500">
        <ele>841.0</ele>
        <time>2016-09-23T14:03:23Z</time>
      </trkpt>
      <trkpt lat="36.895668" lon="-5.418400">
        <ele>837.0</ele>
        <time>2016-09-23T14:03:27Z</time>
      </trkpt>
      <trkpt lat="36.895951" lon="-5.418350">
        <ele>836.0</ele>
        <time>2016-09-23T14:03:30Z</time>
      </trkpt>
      <trkpt lat="36.896217" lon="-5.418350">
        <ele>836.0</ele>
        <time>2016-09-23T14:03:33Z</time>
      </trkpt>
      <trkpt lat="36.896484" lon="-5.418317">
        <ele>839.0</ele>
        <time>2016-09-23T14:03:36Z</time>
      </trkpt>
      <trkpt lat="36.896716" lon="-5.418217">
        <ele>844.0</ele>
        <time>2016-09-23T14:03:39Z</time>
      </trkpt>
      <trkpt lat="36.896969" lon="-5.418083">
        <ele>847.0</ele>
        <time>2016-09-23T14:03:42Z</time>
      </trkpt>
      <trkpt lat="36.897187" lon="-5.417916">
        <ele>852.0</ele>
        <time>2016-09-23T14:03:45Z</time>
      </trkpt>
      <trkpt lat="36.897368" lon="-5.417700">
        <ele>852.0</ele>
        <time>2016-09-23T14:03:48Z</time>
      </trkpt>
      <trkpt lat="36.897566" lon="-5.417517">
        <ele>856.0</ele>
        <time>2016-09-23T14:03:51Z</time>
      </trkpt>
      <trkpt lat="36.897700" lon="-5.417383">
        <ele>853.0</ele>
        <time>2016-09-23T14:03:54Z</time>
      </trkpt>
      <trkpt lat="36.897969" lon="-5.417233">
        <ele>850.0</ele>
        <time>2016-09-23T14:03:57Z</time>
      </trkpt>
      <trkpt lat="36.898150" lon="-5.417050">
        <ele>848.0</ele>
        <time>2016-09-23T14:04:00Z</time>
      </trkpt>
      <trkpt lat="36.898335" lon="-5.416916">
        <ele>840.0</ele>
        <time>2016-09-23T14:04:03Z</time>
      </trkpt>
      <trkpt lat="36.898669" lon="-5.416766">
        <ele>835.0</ele>
        <time>2016-09-23T14:04:07Z</time>
      </trkpt>
      <trkpt lat="36.898885" lon="-5.416700">
        <ele>837.0</ele>
        <time>2016-09-23T14:04:10Z</time>
      </trkpt>
      <trkpt lat="36.899134" lon="-5.416667">
        <ele>840.0</ele>
        <time>2016-09-23T14:04:13Z</time>
      </trkpt>
      <trkpt lat="36.899332" lon="-5.416700">
        <ele>839.0</ele>
        <time>2016-09-23T14:04:16Z</time>
      </trkpt>
      <trkpt lat="36.899516" lon="-5.416783">
        <ele>835.0</ele>
        <time>2016-09-23T14:04:19Z</time>
      </trkpt>
      <trkpt lat="36.899516" lon="-5.416933">
        <ele>831.0</ele>
        <time>2016-09-23T14:04:22Z</time>
      </trkpt>
      <trkpt lat="36.899318" lon="-5.417033">
        <ele>830.0</ele>
        <time>2016-09-23T14:04:25Z</time>
      </trkpt>
      <trkpt lat="36.899185" lon="-5.417184">
        <ele>827.0</ele>
        <time>2016-09-23T14:04:28Z</time>
      </trkpt>
      <trkpt lat="36.899001" lon="-5.417283">
        <ele>824.0</ele>
        <time>2016-09-23T14:04:31Z</time>
      </trkpt>
      <trkpt lat="36.898868" lon="-5.417417">
        <ele>822.0</ele>
        <time>2016-09-23T14:04:34Z</time>
      </trkpt>
      <trkpt lat="36.898769" lon="-5.417533">
        <ele>815.0</ele>
        <time>2016-09-23T14:04:37Z</time>
      </trkpt>
      <trkpt lat="36.898587" lon="-5.417666">
        <ele>810.0</ele>
        <time>2016-09-23T14:04:40Z</time>
      </trkpt>
      <trkpt lat="36.898417" lon="-5.417767">
        <ele>805.0</ele>
        <time>2016-09-23T14:04:43Z</time>
      </trkpt>
      <trkpt lat="36.898236" lon="-5.417883">
        <ele>804.0</ele>
        <time>2016-09-23T14:04:46Z</time>
      </trkpt>
      <trkpt lat="36.898038" lon="-5.417950">
        <ele>802.0</ele>
        <time>2016-09-23T14:04:49Z</time>
      </trkpt>
      <trkpt lat="36.897785" lon="-5.418083">
        <ele>800.0</ele>
        <time>2016-09-23T14:04:53Z</time>
      </trkpt>
      <trkpt lat="36.897618" lon="-5.418200">
        <ele>798.0</ele>
        <time>2016-09-23T14:04:56Z</time>
      </trkpt>
      <trkpt lat="36.897454" lon="-5.418249">
        <ele>796.0</ele>
        <time>2016-09-23T14:04:59Z</time>
      </trkpt>
      <trkpt lat="36.897286" lon="-5.418383">
        <ele>795.0</ele>
        <time>2016-09-23T14:05:02Z</time>
      </trkpt>
      <trkpt lat="36.897136" lon="-5.418483">
        <ele>795.0</ele>
        <time>2016-09-23T14:05:05Z</time>
      </trkpt>
      <trkpt lat="36.896969" lon="-5.418550">
        <ele>795.0</ele>
        <time>2016-09-23T14:05:08Z</time>
      </trkpt>
      <trkpt lat="36.896784" lon="-5.418550">
        <ele>795.0</ele>
        <time>2016-09-23T14:05:11Z</time>
      </trkpt>
      <trkpt lat="36.896603" lon="-5.418550">
        <ele>794.0</ele>
        <time>2016-09-23T14:05:14Z</time>
      </trkpt>
      <trkpt lat="36.896419" lon="-5.418599">
        <ele>798.0</ele>
        <time>2016-09-23T14:05:17Z</time>
      </trkpt>
      <trkpt lat="36.896265" lon="-5.418649">
        <ele>801.0</ele>
        <time>2016-09-23T14:05:20Z</time>
      </trkpt>
      <trkpt lat="36.896067" lon="-5.418717">
        <ele>807.0</ele>
        <time>2016-09-23T14:05:23Z</time>
      </trkpt>
      <trkpt lat="36.895934" lon="-5.418733">
        <ele>806.0</ele>
        <time>2016-09-23T14:05:26Z</time>
      </trkpt>
      <trkpt lat="36.895818" lon="-5.418933">
        <ele>806.0</ele>
        <time>2016-09-23T14:05:30Z</time>
      </trkpt>
      <trkpt lat="36.895886" lon="-5.419100">
        <ele>810.0</ele>
        <time>2016-09-23T14:05:33Z</time>
      </trkpt>
      <trkpt lat="36.895951" lon="-5.419283">
        <ele>819.0</ele>
        <time>2016-09-23T14:05:36Z</time>
      </trkpt>
      <trkpt lat="36.895934" lon="-5.419467">
        <ele>820.0</ele>
        <time>2016-09-23T14:05:39Z</time>
      </trkpt>
      <trkpt lat="36.895886" lon="-5.419666">
        <ele>820.0</ele>
        <time>2016-09-23T14:05:42Z</time>
      </trkpt>
      <trkpt lat="36.895818" lon="-5.419850">
        <ele>822.0</ele>
        <time>2016-09-23T14:05:45Z</time>
      </trkpt>
      <trkpt lat="36.895801" lon="-5.420050">
        <ele>827.0</ele>
        <time>2016-09-23T14:05:48Z</time>
      </trkpt>
      <trkpt lat="36.895736" lon="-5.420266">
        <ele>831.0</ele>
        <time>2016-09-23T14:05:51Z</time>
      </trkpt>
      <trkpt lat="36.895654" lon="-5.420483">
        <ele>834.0</ele>
        <time>2016-09-23T14:05:54Z</time>
      </trkpt>
      <trkpt lat="36.895633" lon="-5.420716">
        <ele>832.0</ele>
        <time>2016-09-23T14:05:57Z</time>
      </trkpt>
      <trkpt lat="36.895787" lon="-5.420900">
        <ele>827.0</ele>
        <time>2016-09-23T14:06:00Z</time>
      </trkpt>
      <trkpt lat="36.895985" lon="-5.420800">
        <ele>824.0</ele>
        <time>2016-09-23T14:06:03Z</time>
      </trkpt>
      <trkpt lat="36.896118" lon="-5.420633">
        <ele>826.0</ele>
        <time>2016-09-23T14:06:06Z</time>
      </trkpt>
      <trkpt lat="36.896187" lon="-5.420366">
        <ele>827.0</ele>
        <time>2016-09-23T14:06:09Z</time>
      </trkpt>
      <trkpt lat="36.896153" lon="-5.420100">
        <ele>827.0</ele>
        <time>2016-09-23T14:06:12Z</time>
      </trkpt>
      <trkpt lat="36.895968" lon="-5.419733">
        <ele>836.0</ele>
        <time>2016-09-23T14:06:16Z</time>
      </trkpt>
      <trkpt lat="36.895835" lon="-5.419483">
        <ele>838.0</ele>
        <time>2016-09-23T14:06:19Z</time>
      </trkpt>
      <trkpt lat="36.895702" lon="-5.419250">
        <ele>841.0</ele>
        <time>2016-09-23T14:06:22Z</time>
      </trkpt>
      <trkpt lat="36.895555" lon="-5.419083">
        <ele>841.0</ele>
        <time>2016-09-23T14:06:25Z</time>
      </trkpt>
      <trkpt lat="36.895350" lon="-5.418950">
        <ele>845.0</ele>
        <time>2016-09-23T14:06:28Z</time>
      </trkpt>
      <trkpt lat="36.895183" lon="-5.418966">
        <ele>849.0</ele>
        <time>2016-09-23T14:06:31Z</time>
      </trkpt>
      <trkpt lat="36.895049" lon="-5.419033">
        <ele>852.0</ele>
        <time>2016-09-23T14:06:34Z</time>
      </trkpt>
      <trkpt lat="36.895019" lon="-5.419183">
        <ele>850.0</ele>
        <time>2016-09-23T14:06:37Z</time>
      </trkpt>
      <trkpt lat="36.895104" lon="-5.419467">
        <ele>855.0</ele>
        <time>2016-09-23T14:06:40Z</time>
      </trkpt>
      <trkpt lat="36.895217" lon="-5.419633">
        <ele>855.0</ele>
        <time>2016-09-23T14:06:43Z</time>
      </trkpt>
      <trkpt lat="36.895418" lon="-5.419783">
        <ele>855.0</ele>
        <time>2016-09-23T14:06:46Z</time>
      </trkpt>
      <trkpt lat="36.895603" lon="-5.419900">
        <ele>854.0</ele>
        <time>2016-09-23T14:06:49Z</time>
      </trkpt>
      <trkpt lat="36.895818" lon="-5.419866">
        <ele>858.0</ele>
        <time>2016-09-23T14:06:52Z</time>
      </trkpt>
      <trkpt lat="36.896053" lon="-5.419700">
        <ele>861.0</ele>
        <time>2016-09-23T14:06:56Z</time>
      </trkpt>
      <trkpt lat="36.896153" lon="-5.419450">
        <ele>858.0</ele>
        <time>2016-09-23T14:06:59Z</time>
      </trkpt>
      <trkpt lat="36.896019" lon="-5.419150">
        <ele>857.0</ele>
        <time>2016-09-23T14:07:02Z</time>
      </trkpt>
      <trkpt lat="36.895801" lon="-5.419067">
        <ele>861.0</ele>
        <time>2016-09-23T14:07:05Z</time>
      </trkpt>
      <trkpt lat="36.895603" lon="-5.419150">
        <ele>862.0</ele>
        <time>2016-09-23T14:07:08Z</time>
      </trkpt>
      <trkpt lat="36.895500" lon="-5.419316">
        <ele>863.0</ele>
        <time>2016-09-23T14:07:11Z</time>
      </trkpt>
      <trkpt lat="36.895534" lon="-5.419533">
        <ele>860.0</ele>
        <time>2016-09-23T14:07:14Z</time>
      </trkpt>
      <trkpt lat="36.895685" lon="-5.419716">
        <ele>860.0</ele>
        <time>2016-09-23T14:07:17Z</time>
      </trkpt>
      <trkpt lat="36.895900" lon="-5.419800">
        <ele>860.0</ele>
        <time>2016-09-23T14:07:20Z</time>
      </trkpt>
      <trkpt lat="36.896101" lon="-5.419833">
        <ele>858.0</ele>
        <time>2016-09-23T14:07:23Z</time>
      </trkpt>
      <trkpt lat="36.896351" lon="-5.419817">
        <ele>860.0</ele>
        <time>2016-09-23T14:07:26Z</time>
      </trkpt>
      <trkpt lat="36.896552" lon="-5.419683">
        <ele>862.0</ele>
        <time>2016-09-23T14:07:29Z</time>
      </trkpt>
      <trkpt lat="36.896737" lon="-5.419550">
        <ele>863.0</ele>
        <time>2016-09-23T14:07:32Z</time>
      </trkpt>
      <trkpt lat="36.896900" lon="-5.419316">
        <ele>862.0</ele>
        <time>2016-09-23T14:07:35Z</time>
      </trkpt>
      <trkpt lat="36.896750" lon="-5.418933">
        <ele>859.0</ele>
        <time>2016-09-23T14:07:39Z</time>
      </trkpt>
      <trkpt lat="36.896535" lon="-5.418867">
        <ele>859.0</ele>
        <time>2016-09-23T14:07:42Z</time>
      </trkpt>
      <trkpt lat="36.896320" lon="-5.418800">
        <ele>858.0</ele>
        <time>2016-09-23T14:07:45Z</time>
      </trkpt>
      <trkpt lat="36.896118" lon="-5.418800">
        <ele>852.0</ele>
        <time>2016-09-23T14:07:48Z</time>
      </trkpt>
      <trkpt lat="36.895920" lon="-5.418933">
        <ele>849.0</ele>
        <time>2016-09-23T14:07:51Z</time>
      </trkpt>
      <trkpt lat="36.895753" lon="-5.419033">
        <ele>846.0</ele>
        <time>2016-09-23T14:07:54Z</time>
      </trkpt>
      <trkpt lat="36.895534" lon="-5.419083">
        <ele>843.0</ele>
        <time>2016-09-23T14:07:57Z</time>
      </trkpt>
      <trkpt lat="36.895285" lon="-5.419016">
        <ele>841.0</ele>
        <time>2016-09-23T14:08:00Z</time>
      </trkpt>
      <trkpt lat="36.895070" lon="-5.418983">
        <ele>851.0</ele>
        <time>2016-09-23T14:08:03Z</time>
      </trkpt>
      <trkpt lat="36.894920" lon="-5.419050">
        <ele>856.0</ele>
        <time>2016-09-23T14:08:06Z</time>
      </trkpt>
      <trkpt lat="36.894766" lon="-5.419166">
        <ele>863.0</ele>
        <time>2016-09-23T14:08:09Z</time>
      </trkpt>
      <trkpt lat="36.894718" lon="-5.419383">
        <ele>868.0</ele>
        <time>2016-09-23T14:08:12Z</time>
      </trkpt>
      <trkpt lat="36.894766" lon="-5.419617">
        <ele>874.0</ele>
        <time>2016-09-23T14:08:15Z</time>
      </trkpt>
      <trkpt lat="36.894920" lon="-5.419833">
        <ele>880.0</ele>
        <time>2016-09-23T14:08:18Z</time>
      </trkpt>
      <trkpt lat="36.895152" lon="-5.420083">
        <ele>886.0</ele>
        <time>2016-09-23T14:08:22Z</time>
      </trkpt>
      <trkpt lat="36.895350" lon="-5.420100">
        <ele>889.0</ele>
        <time>2016-09-23T14:08:25Z</time>
      </trkpt>
      <trkpt lat="36.895555" lon="-5.419950">
        <ele>888.0</ele>
        <time>2016-09-23T14:08:28Z</time>
      </trkpt>
      <trkpt lat="36.895620" lon="-5.419633">
        <ele>887.0</ele>
        <time>2016-09-23T14:08:31Z</time>
      </trkpt>
      <trkpt lat="36.895569" lon="-5.419333">
        <ele>886.0</ele>
        <time>2016-09-23T14:08:34Z</time>
      </trkpt>
      <trkpt lat="36.895449" lon="-5.419016">
        <ele>883.0</ele>
        <time>2016-09-23T14:08:37Z</time>
      </trkpt>
      <trkpt lat="36.895217" lon="-5.418750">
        <ele>886.0</ele>
        <time>2016-09-23T14:08:40Z</time>
      </trkpt>
      <trkpt lat="36.895019" lon="-5.418550">
        <ele>890.0</ele>
        <time>2016-09-23T14:08:43Z</time>
      </trkpt>
      <trkpt lat="36.894838" lon="-5.418383">
        <ele>898.0</ele>
        <time>2016-09-23T14:08:46Z</time>
      </trkpt>
      <trkpt lat="36.894619" lon="-5.418266">
        <ele>905.0</ele>
        <time>2016-09-23T14:08:49Z</time>
      </trkpt>
      <trkpt lat="36.894469" lon="-5.418266">
        <ele>909.0</ele>
        <time>2016-09-23T14:08:52Z</time>
      </trkpt>
      <trkpt lat="36.894302" lon="-5.418317">
        <ele>909.0</ele>
        <time>2016-09-23T14:08:55Z</time>
      </trkpt>
      <trkpt lat="36.894233" lon="-5.418466">
        <ele>909.0</ele>
        <time>2016-09-23T14:08:58Z</time>
      </trkpt>
      <trkpt lat="36.894168" lon="-5.418649">
        <ele>908.0</ele>
        <time>2016-09-23T14:09:01Z</time>
      </trkpt>
      <trkpt lat="36.894336" lon="-5.418966">
        <ele>907.0</ele>
        <time>2016-09-23T14:09:05Z</time>
      </trkpt>
      <trkpt lat="36.894585" lon="-5.419100">
        <ele>909.0</ele>
        <time>2016-09-23T14:09:08Z</time>
      </trkpt>
      <trkpt lat="36.894851" lon="-5.419133">
        <ele>911.0</ele>
        <time>2016-09-23T14:09:11Z</time>
      </trkpt>
      <trkpt lat="36.895118" lon="-5.419016">
        <ele>916.0</ele>
        <time>2016-09-23T14:09:14Z</time>
      </trkpt>
      <trkpt lat="36.895302" lon="-5.418816">
        <ele>920.0</ele>
        <time>2016-09-23T14:09:17Z</time>
      </trkpt>
      <trkpt lat="36.895367" lon="-5.418533">
        <ele>923.0</ele>
        <time>2016-09-23T14:09:20Z</time>
      </trkpt>
      <trkpt lat="36.895336" lon="-5.418217">
        <ele>925.0</ele>
        <time>2016-09-23T14:09:23Z</time>
      </trkpt>
      <trkpt lat="36.895183" lon="-5.417966">
        <ele>927.0</ele>
        <time>2016-09-23T14:09:26Z</time>
      </trkpt>
      <trkpt lat="36.894971" lon="-5.417817">
        <ele>932.0</ele>
        <time>2016-09-23T14:09:29Z</time>
      </trkpt>
      <trkpt lat="36.894787" lon="-5.417867">
        <ele>938.0</ele>
        <time>2016-09-23T14:09:32Z</time>
      </trkpt>
      <trkpt lat="36.894718" lon="-5.418050">
        <ele>938.0</ele>
        <time>2016-09-23T14:09:35Z</time>
      </trkpt>
      <trkpt lat="36.894865" lon="-5.418299">
        <ele>940.0</ele>
        <time>2016-09-23T14:09:38Z</time>
      </trkpt>
      <trkpt lat="36.895070" lon="-5.418466">
        <ele>945.0</ele>
        <time>2016-09-23T14:09:41Z</time>
      </trkpt>
      <trkpt lat="36.895336" lon="-5.418400">
        <ele>948.0</ele>
        <time>2016-09-23T14:09:45Z</time>
      </trkpt>
      <trkpt lat="36.895435" lon="-5.418133">
        <ele>953.0</ele>
        <time>2016-09-23T14:09:48Z</time>
      </trkpt>
      <trkpt lat="36.895336" lon="-5.417833">
        <ele>958.0</ele>
        <time>2016-09-23T14:09:51Z</time>
      </trkpt>
      <trkpt lat="36.895135" lon="-5.417683">
        <ele>961.0</ele>
        <time>2016-09-23T14:09:54Z</time>
      </trkpt>
      <trkpt lat="36.894937" lon="-5.417733">
        <ele>965.0</ele>
        <time>2016-09-23T14:09:57Z</time>
      </trkpt>
      <trkpt lat="36.894920" lon="-5.417950">
        <ele>964.0</ele>
        <time>2016-09-23T14:10:00Z</time>
      </trkpt>
      <trkpt lat="36.895104" lon="-5.418167">
        <ele>960.0</ele>
        <time>2016-09-23T14:10:03Z</time>
      </trkpt>
      <trkpt lat="36.895350" lon="-5.418150">
        <ele>960.0</ele>
        <time>2016-09-23T14:10:06Z</time>
      </trkpt>
      <trkpt lat="36.895500" lon="-5.417916">
        <ele>965.0</ele>
        <time>2016-09-23T14:10:09Z</time>
      </trkpt>
      <trkpt lat="36.895582" lon="-5.417633">
        <ele>968.0</ele>
        <time>2016-09-23T14:10:12Z</time>
      </trkpt>
      <trkpt lat="36.895569" lon="-5.417300">
        <ele>973.0</ele>
        <time>2016-09-23T14:10:15Z</time>
      </trkpt>
      <trkpt lat="36.895470" lon="-5.417050">
        <ele>973.0</ele>
        <time>2016-09-23T14:10:18Z</time>
      </trkpt>
      <trkpt lat="36.895251" lon="-5.416850">
        <ele>975.0</ele>
        <time>2016-09-23T14:10:21Z</time>
      </trkpt>
      <trkpt lat="36.895019" lon="-5.416817">
        <ele>977.0</ele>
        <time>2016-09-23T14:10:25Z</time>
      </trkpt>
      <trkpt lat="36.894920" lon="-5.416900">
        <ele>973.0</ele>
        <time>2016-09-23T14:10:28Z</time>
      </trkpt>
      <trkpt lat="36.894920" lon="-5.417116">
        <ele>972.0</ele>
        <time>2016-09-23T14:10:31Z</time>
      </trkpt>
      <trkpt lat="36.895002" lon="-5.417283">
        <ele>971.0</ele>
        <time>2016-09-23T14:10:34Z</time>
      </trkpt>
      <trkpt lat="36.895183" lon="-5.417417">
        <ele>972.0</ele>
        <time>2016-09-23T14:10:37Z</time>
      </trkpt>
      <trkpt lat="36.895384" lon="-5.417433">
        <ele>970.0</ele>
        <time>2016-09-23T14:10:40Z</time>
      </trkpt>
      <trkpt lat="36.895654" lon="-5.417367">
        <ele>966.0</ele>
        <time>2016-09-23T14:10:43Z</time>
      </trkpt>
      <trkpt lat="36.895852" lon="-5.417166">
        <ele>968.0</ele>
        <time>2016-09-23T14:10:46Z</time>
      </trkpt>
      <trkpt lat="36.896019" lon="-5.416966">
        <ele>962.0</ele>
        <time>2016-09-23T14:10:49Z</time>
      </trkpt>
      <trkpt lat="36.896286" lon="-5.416750">
        <ele>959.0</ele>
        <time>2016-09-23T14:10:52Z</time>
      </trkpt>
      <trkpt lat="36.896504" lon="-5.416600">
        <ele>951.0</ele>
        <time>2016-09-23T14:10:55Z</time>
      </trkpt>
      <trkpt lat="36.896750" lon="-5.416467">
        <ele>946.0</ele>
        <time>2016-09-23T14:10:58Z</time>
      </trkpt>
      <trkpt lat="36.897003" lon="-5.416500">
        <ele>940.0</ele>
        <time>2016-09-23T14:11:01Z</time>
      </trkpt>
      <trkpt lat="36.897235" lon="-5.416583">
        <ele>938.0</ele>
        <time>2016-09-23T14:11:04Z</time>
      </trkpt>
      <trkpt lat="36.897385" lon="-5.416866">
        <ele>935.0</ele>
        <time>2016-09-23T14:11:08Z</time>
      </trkpt>
      <trkpt lat="36.897433" lon="-5.417050">
        <ele>930.0</ele>
        <time>2016-09-23T14:11:11Z</time>
      </trkpt>
      <trkpt lat="36.897385" lon="-5.417250">
        <ele>923.0</ele>
        <time>2016-09-23T14:11:14Z</time>
      </trkpt>
      <trkpt lat="36.897235" lon="-5.417417">
        <ele>924.0</ele>
        <time>2016-09-23T14:11:17Z</time>
      </trkpt>
      <trkpt lat="36.897068" lon="-5.417517">
        <ele>925.0</ele>
        <time>2016-09-23T14:11:20Z</time>
      </trkpt>
      <trkpt lat="36.896849" lon="-5.417549">
        <ele>923.0</ele>
        <time>2016-09-23T14:11:23Z</time>
      </trkpt>
      <trkpt lat="36.896668" lon="-5.417500">
        <ele>918.0</ele>
        <time>2016-09-23T14:11:26Z</time>
      </trkpt>
      <trkpt lat="36.896436" lon="-5.417433">
        <ele>909.0</ele>
        <time>2016-09-23T14:11:29Z</time>
      </trkpt>
      <trkpt lat="36.896166" lon="-5.417300">
        <ele>910.0</ele>
        <time>2016-09-23T14:11:32Z</time>
      </trkpt>
      <trkpt lat="36.895934" lon="-5.417184">
        <ele>913.0</ele>
        <time>2016-09-23T14:11:35Z</time>
      </trkpt>
      <trkpt lat="36.895719" lon="-5.417100">
        <ele>918.0</ele>
        <time>2016-09-23T14:11:38Z</time>
      </trkpt>
      <trkpt lat="36.895517" lon="-5.417067">
        <ele>922.0</ele>
        <time>2016-09-23T14:11:41Z</time>
      </trkpt>
      <trkpt lat="36.895316" lon="-5.417067">
        <ele>927.0</ele>
        <time>2016-09-23T14:11:44Z</time>
      </trkpt>
      <trkpt lat="36.895152" lon="-5.417100">
        <ele>928.0</ele>
        <time>2016-09-23T14:11:47Z</time>
      </trkpt>
      <trkpt lat="36.894950" lon="-5.417283">
        <ele>926.0</ele>
        <time>2016-09-23T14:11:51Z</time>
      </trkpt>
      <trkpt lat="36.894937" lon="-5.417500">
        <ele>923.0</ele>
        <time>2016-09-23T14:11:54Z</time>
      </trkpt>
      <trkpt lat="36.895019" lon="-5.417616">
        <ele>917.0</ele>
        <time>2016-09-23T14:11:57Z</time>
      </trkpt>
      <trkpt lat="36.895217" lon="-5.417583">
        <ele>912.0</ele>
        <time>2016-09-23T14:12:00Z</time>
      </trkpt>
      <trkpt lat="36.895367" lon="-5.417517">
        <ele>905.0</ele>
        <time>2016-09-23T14:12:03Z</time>
      </trkpt>
      <trkpt lat="36.895603" lon="-5.417383">
        <ele>900.0</ele>
        <time>2016-09-23T14:12:06Z</time>
      </trkpt>
      <trkpt lat="36.895787" lon="-5.417417">
        <ele>900.0</ele>
        <time>2016-09-23T14:12:09Z</time>
      </trkpt>
      <trkpt lat="36.895968" lon="-5.417467">
        <ele>901.0</ele>
        <time>2016-09-23T14:12:12Z</time>
      </trkpt>
      <trkpt lat="36.896118" lon="-5.417600">
        <ele>909.0</ele>
        <time>2016-09-23T14:12:15Z</time>
      </trkpt>
      <trkpt lat="36.896187" lon="-5.417800">
        <ele>914.0</ele>
        <time>2016-09-23T14:12:18Z</time>
      </trkpt>
      <trkpt lat="36.896217" lon="-5.417983">
        <ele>923.0</ele>
        <time>2016-09-23T14:12:21Z</time>
      </trkpt>
      <trkpt lat="36.896166" lon="-5.418117">
        <ele>932.0</ele>
        <time>2016-09-23T14:12:24Z</time>
      </trkpt>
      <trkpt lat="36.896132" lon="-5.418283">
        <ele>934.0</ele>
        <time>2016-09-23T14:12:27Z</time>
      </trkpt>
      <trkpt lat="36.896166" lon="-5.418483">
        <ele>934.0</ele>
        <time>2016-09-23T14:12:30Z</time>
      </trkpt>
      <trkpt lat="36.896019" lon="-5.418649">
        <ele>933.0</ele>
        <time>2016-09-23T14:12:34Z</time>
      </trkpt>
      <trkpt lat="36.895818" lon="-5.418750">
        <ele>934.0</ele>
        <time>2016-09-23T14:12:37Z</time>
      </trkpt>
      <trkpt lat="36.895633" lon="-5.418800">
        <ele>934.0</ele>
        <time>2016-09-23T14:12:40Z</time>
      </trkpt>
      <trkpt lat="36.895401" lon="-5.418800">
        <ele>939.0</ele>
        <time>2016-09-23T14:12:43Z</time>
      </trkpt>
      <trkpt lat="36.895203" lon="-5.418666">
        <ele>938.0</ele>
        <time>2016-09-23T14:12:46Z</time>
      </trkpt>
      <trkpt lat="36.895049" lon="-5.418433">
        <ele>938.0</ele>
        <time>2016-09-23T14:12:49Z</time>
      </trkpt>
      <trkpt lat="36.894920" lon="-5.418167">
        <ele>939.0</ele>
        <time>2016-09-23T14:12:52Z</time>
      </trkpt>
      <trkpt lat="36.894971" lon="-5.417833">
        <ele>937.0</ele>
        <time>2016-09-23T14:12:55Z</time>
      </trkpt>
      <trkpt lat="36.895169" lon="-5.417583">
        <ele>940.0</ele>
        <time>2016-09-23T14:12:58Z</time>
      </trkpt>
      <trkpt lat="36.895384" lon="-5.417450">
        <ele>942.0</ele>
        <time>2016-09-23T14:13:01Z</time>
      </trkpt>
      <trkpt lat="36.895620" lon="-5.417417">
        <ele>945.0</ele>
        <time>2016-09-23T14:13:04Z</time>
      </trkpt>
      <trkpt lat="36.895787" lon="-5.417383">
        <ele>945.0</ele>
        <time>2016-09-23T14:13:07Z</time>
      </trkpt>
      <trkpt lat="36.896067" lon="-5.417500">
        <ele>950.0</ele>
        <time>2016-09-23T14:13:11Z</time>
      </trkpt>
      <trkpt lat="36.896187" lon="-5.417549">
        <ele>961.0</ele>
        <time>2016-09-23T14:13:14Z</time>
      </trkpt>
      <trkpt lat="36.896320" lon="-5.417633">
        <ele>964.0</ele>
        <time>2016-09-23T14:13:17Z</time>
      </trkpt>
      <trkpt lat="36.896351" lon="-5.417800">
        <ele>970.0</ele>
        <time>2016-09-23T14:13:20Z</time>
      </trkpt>
      <trkpt lat="36.896320" lon="-5.417966">
        <ele>978.0</ele>
        <time>2016-09-23T14:13:23Z</time>
      </trkpt>
      <trkpt lat="36.896402" lon="-5.418167">
        <ele>986.0</ele>
        <time>2016-09-23T14:13:26Z</time>
      </trkpt>
      <trkpt lat="36.896552" lon="-5.418266">
        <ele>990.0</ele>
        <time>2016-09-23T14:13:29Z</time>
      </trkpt>
      <trkpt lat="36.896737" lon="-5.418066">
        <ele>991.0</ele>
        <time>2016-09-23T14:13:32Z</time>
      </trkpt>
      <trkpt lat="36.896702" lon="-5.417716">
        <ele>997.0</ele>
        <time>2016-09-23T14:13:35Z</time>
      </trkpt>
      <trkpt lat="36.896583" lon="-5.417467">
        <ele>996.0</ele>
        <time>2016-09-23T14:13:38Z</time>
      </trkpt>
      <trkpt lat="36.896299" lon="-5.417333">
        <ele>1001.0</ele>
        <time>2016-09-23T14:13:41Z</time>
      </trkpt>
      <trkpt lat="36.896101" lon="-5.417367">
        <ele>1009.0</ele>
        <time>2016-09-23T14:13:44Z</time>
      </trkpt>
      <trkpt lat="36.895968" lon="-5.417467">
        <ele>1013.0</ele>
        <time>2016-09-23T14:13:47Z</time>
      </trkpt>
      <trkpt lat="36.895951" lon="-5.417700">
        <ele>1017.0</ele>
        <time>2016-09-23T14:13:50Z</time>
      </trkpt>
      <trkpt lat="36.896166" lon="-5.417750">
        <ele>1021.0</ele>
        <time>2016-09-23T14:13:53Z</time>
      </trkpt>
      <trkpt lat="36.896337" lon="-5.417400">
        <ele>1024.0</ele>
        <time>2016-09-23T14:13:57Z</time>
      </trkpt>
      <trkpt lat="36.896166" lon="-5.417184">
        <ele>1026.0</ele>
        <time>2016-09-23T14:14:00Z</time>
      </trkpt>
      <trkpt lat="36.895985" lon="-5.417216">
        <ele>1029.0</ele>
        <time>2016-09-23T14:14:03Z</time>
      </trkpt>
      <trkpt lat="36.895852" lon="-5.417367">
        <ele>1029.0</ele>
        <time>2016-09-23T14:14:06Z</time>
      </trkpt>
      <trkpt lat="36.895852" lon="-5.417616">
        <ele>1032.0</ele>
        <time>2016-09-23T14:14:09Z</time>
      </trkpt>
      <trkpt lat="36.895852" lon="-5.417833">
        <ele>1035.0</ele>
        <time>2016-09-23T14:14:12Z</time>
      </trkpt>
      <trkpt lat="36.895934" lon="-5.418050">
        <ele>1037.0</ele>
        <time>2016-09-23T14:14:15Z</time>
      </trkpt>
      <trkpt lat="36.896084" lon="-5.418133">
        <ele>1038.0</ele>
        <time>2016-09-23T14:14:18Z</time>
      </trkpt>
      <trkpt lat="36.896286" lon="-5.418016">
        <ele>1037.0</ele>
        <time>2016-09-23T14:14:21Z</time>
      </trkpt>
      <trkpt lat="36.896419" lon="-5.417767">
        <ele>1038.0</ele>
        <time>2016-09-23T14:14:24Z</time>
      </trkpt>
      <trkpt lat="36.896419" lon="-5.417433">
        <ele>1038.0</ele>
        <time>2016-09-23T14:14:27Z</time>
      </trkpt>
      <trkpt lat="36.896265" lon="-5.417116">
        <ele>1045.0</ele>
        <time>2016-09-23T14:14:30Z</time>
      </trkpt>
      <trkpt lat="36.896118" lon="-5.416900">
        <ele>1047.0</ele>
        <time>2016-09-23T14:14:33Z</time>
      </trkpt>
      <trkpt lat="36.895852" lon="-5.416834">
        <ele>1049.0</ele>
        <time>2016-09-23T14:14:37Z</time>
      </trkpt>
      <trkpt lat="36.895685" lon="-5.416900">
        <ele>1048.0</ele>
        <time>2016-09-23T14:14:40Z</time>
      </trkpt>
      <trkpt lat="36.895702" lon="-5.417150">
        <ele>1046.0</ele>
        <time>2016-09-23T14:14:43Z</time>
      </trkpt>
      <trkpt lat="36.895801" lon="-5.417367">
        <ele>1045.0</ele>
        <time>2016-09-23T14:14:46Z</time>
      </trkpt>
      <trkpt lat="36.895985" lon="-5.417467">
        <ele>1044.0</ele>
        <time>2016-09-23T14:14:49Z</time>
      </trkpt>
      <trkpt lat="36.896200" lon="-5.417433">
        <ele>1045.0</ele>
        <time>2016-09-23T14:14:52Z</time>
      </trkpt>
      <trkpt lat="36.896337" lon="-5.417200">
        <ele>1044.0</ele>
        <time>2016-09-23T14:14:55Z</time>
      </trkpt>
      <trkpt lat="36.896320" lon="-5.416866">
        <ele>1043.0</ele>
        <time>2016-09-23T14:14:58Z</time>
      </trkpt>
      <trkpt lat="36.896153" lon="-5.416567">
        <ele>1044.0</ele>
        <time>2016-09-23T14:15:01Z</time>
      </trkpt>
      <trkpt lat="36.896019" lon="-5.416300">
        <ele>1047.0</ele>
        <time>2016-09-23T14:15:04Z</time>
      </trkpt>
      <trkpt lat="36.895852" lon="-5.416100">
        <ele>1048.0</ele>
        <time>2016-09-23T14:15:07Z</time>
      </trkpt>
      <trkpt lat="36.895668" lon="-5.416000">
        <ele>1045.0</ele>
        <time>2016-09-23T14:15:10Z</time>
      </trkpt>
      <trkpt lat="36.895470" lon="-5.416033">
        <ele>1044.0</ele>
        <time>2016-09-23T14:15:13Z</time>
      </trkpt>
      <trkpt lat="36.895336" lon="-5.416167">
        <ele>1042.0</ele>
        <time>2016-09-23T14:15:16Z</time>
      </trkpt>
      <trkpt lat="36.895336" lon="-5.416467">
        <ele>1038.0</ele>
        <time>2016-09-23T14:15:20Z</time>
      </trkpt>
      <trkpt lat="36.895500" lon="-5.416634">
        <ele>1033.0</ele>
        <time>2016-09-23T14:15:23Z</time>
      </trkpt>
      <trkpt lat="36.895736" lon="-5.416733">
        <ele>1029.0</ele>
        <time>2016-09-23T14:15:26Z</time>
      </trkpt>
      <trkpt lat="36.895968" lon="-5.416783">
        <ele>1028.0</ele>
        <time>2016-09-23T14:15:29Z</time>
      </trkpt>
      <trkpt lat="36.896166" lon="-5.416883">
        <ele>1025.0</ele>
        <time>2016-09-23T14:15:32Z</time>
      </trkpt>
      <trkpt lat="36.896419" lon="-5.416983">
        <ele>1023.0</ele>
        <time>2016-09-23T14:15:35Z</time>
      </trkpt>
      <trkpt lat="36.896685" lon="-5.417067">
        <ele>1023.0</ele>
        <time>2016-09-23T14:15:38Z</time>
      </trkpt>
      <trkpt lat="36.896883" lon="-5.417233">
        <ele>1028.0</ele>
        <time>2016-09-23T14:15:41Z</time>
      </trkpt>
      <trkpt lat="36.897034" lon="-5.417367">
        <ele>1027.0</ele>
        <time>2016-09-23T14:15:44Z</time>
      </trkpt>
      <trkpt lat="36.897269" lon="-5.417533">
        <ele>1038.0</ele>
        <time>2016-09-23T14:15:47Z</time>
      </trkpt>
      <trkpt lat="36.897420" lon="-5.417633">
        <ele>1045.0</ele>
        <time>2016-09-23T14:15:50Z</time>
      </trkpt>
      <trkpt lat="36.897587" lon="-5.417817">
        <ele>1044.0</ele>
        <time>2016-09-23T14:15:53Z</time>
      </trkpt>
      <trkpt lat="36.897734" lon="-5.417966">
        <ele>1044.0</ele>
        <time>2016-09-23T14:15:56Z</time>
      </trkpt>
      <trkpt lat="36.897935" lon="-5.418183">
        <ele>1043.0</ele>
        <time>2016-09-23T14:16:00Z</time>
      </trkpt>
      <trkpt lat="36.898137" lon="-5.418317">
        <ele>1039.0</ele>
        <time>2016-09-23T14:16:03Z</time>
      </trkpt>
      <trkpt lat="36.898352" lon="-5.418366">
        <ele>1039.0</ele>
        <time>2016-09-23T14:16:06Z</time>
      </trkpt>
      <trkpt lat="36.898550" lon="-5.418266">
        <ele>1038.0</ele>
        <time>2016-09-23T14:16:09Z</time>
      </trkpt>
      <trkpt lat="36.898786" lon="-5.418050">
        <ele>1042.0</ele>
        <time>2016-09-23T14:16:12Z</time>
      </trkpt>
      <trkpt lat="36.898967" lon="-5.417850">
        <ele>1046.0</ele>
        <time>2016-09-23T14:16:15Z</time>
      </trkpt>
      <trkpt lat="36.899185" lon="-5.417650">
        <ele>1052.0</ele>
        <time>2016-09-23T14:16:18Z</time>
      </trkpt>
      <trkpt lat="36.899383" lon="-5.417467">
        <ele>1059.0</ele>
        <time>2016-09-23T14:16:21Z</time>
      </trkpt>
      <trkpt lat="36.899619" lon="-5.417283">
        <ele>1061.0</ele>
        <time>2016-09-23T14:16:24Z</time>
      </trkpt>
      <trkpt lat="36.899868" lon="-5.417166">
        <ele>1072.0</ele>
        <time>2016-09-23T14:16:27Z</time>
      </trkpt>
      <trkpt lat="36.900087" lon="-5.417166">
        <ele>1078.0</ele>
        <time>2016-09-23T14:16:30Z</time>
      </trkpt>
      <trkpt lat="36.900302" lon="-5.417233">
        <ele>1084.0</ele>
        <time>2016-09-23T14:16:33Z</time>
      </trkpt>
      <trkpt lat="36.900435" lon="-5.417450">
        <ele>1086.0</ele>
        <time>2016-09-23T14:16:36Z</time>
      </trkpt>
      <trkpt lat="36.900435" lon="-5.417800">
        <ele>1084.0</ele>
        <time>2016-09-23T14:16:40Z</time>
      </trkpt>
      <trkpt lat="36.900319" lon="-5.418083">
        <ele>1081.0</ele>
        <time>2016-09-23T14:16:43Z</time>
      </trkpt>
      <trkpt lat="36.900087" lon="-5.418249">
        <ele>1077.0</ele>
        <time>2016-09-23T14:16:46Z</time>
      </trkpt>
      <trkpt lat="36.899803" lon="-5.418416">
        <ele>1076.0</ele>
        <time>2016-09-23T14:16:49Z</time>
      </trkpt>
      <trkpt lat="36.899537" lon="-5.418350">
        <ele>1071.0</ele>
        <time>2016-09-23T14:16:52Z</time>
      </trkpt>
      <trkpt lat="36.899284" lon="-5.418117">
        <ele>1066.0</ele>
        <time>2016-09-23T14:16:55Z</time>
      </trkpt>
      <trkpt lat="36.899168" lon="-5.417750">
        <ele>1063.0</ele>
        <time>2016-09-23T14:16:58Z</time>
      </trkpt>
      <trkpt lat="36.899086" lon="-5.417400">
        <ele>1062.0</ele>
        <time>2016-09-23T14:17:01Z</time>
      </trkpt>
      <trkpt lat="36.899052" lon="-5.417067">
        <ele>1062.0</ele>
        <time>2016-09-23T14:17:04Z</time>
      </trkpt>
      <trkpt lat="36.899100" lon="-5.416716">
        <ele>1064.0</ele>
        <time>2016-09-23T14:17:07Z</time>
      </trkpt>
      <trkpt lat="36.899185" lon="-5.416350">
        <ele>1067.0</ele>
        <time>2016-09-23T14:17:10Z</time>
      </trkpt>
      <trkpt lat="36.899318" lon="-5.416000">
        <ele>1073.0</ele>
        <time>2016-09-23T14:17:13Z</time>
      </trkpt>
      <trkpt lat="36.899452" lon="-5.415700">
        <ele>1073.0</ele>
        <time>2016-09-23T14:17:16Z</time>
      </trkpt>
      <trkpt lat="36.899701" lon="-5.415433">
        <ele>1077.0</ele>
        <time>2016-09-23T14:17:19Z</time>
      </trkpt>
      <trkpt lat="36.900066" lon="-5.415233">
        <ele>1086.0</ele>
        <time>2016-09-23T14:17:23Z</time>
      </trkpt>
      <trkpt lat="36.900319" lon="-5.415117">
        <ele>1096.0</ele>
        <time>2016-09-23T14:17:26Z</time>
      </trkpt>
      <trkpt lat="36.900517" lon="-5.415050">
        <ele>1107.0</ele>
        <time>2016-09-23T14:17:29Z</time>
      </trkpt>
      <trkpt lat="36.900701" lon="-5.415083">
        <ele>1114.0</ele>
        <time>2016-09-23T14:17:32Z</time>
      </trkpt>
      <trkpt lat="36.900852" lon="-5.415217">
        <ele>1124.0</ele>
        <time>2016-09-23T14:17:35Z</time>
      </trkpt>
      <trkpt lat="36.901019" lon="-5.415316">
        <ele>1128.0</ele>
        <time>2016-09-23T14:17:38Z</time>
      </trkpt>
      <trkpt lat="36.901169" lon="-5.415517">
        <ele>1131.0</ele>
        <time>2016-09-23T14:17:41Z</time>
      </trkpt>
      <trkpt lat="36.901268" lon="-5.415767">
        <ele>1140.0</ele>
        <time>2016-09-23T14:17:44Z</time>
      </trkpt>
      <trkpt lat="36.901268" lon="-5.416016">
        <ele>1143.0</ele>
        <time>2016-09-23T14:17:47Z</time>
      </trkpt>
      <trkpt lat="36.901203" lon="-5.416267">
        <ele>1149.0</ele>
        <time>2016-09-23T14:17:50Z</time>
      </trkpt>
      <trkpt lat="36.901036" lon="-5.416467">
        <ele>1149.0</ele>
        <time>2016-09-23T14:17:53Z</time>
      </trkpt>
      <trkpt lat="36.900783" lon="-5.416550">
        <ele>1147.0</ele>
        <time>2016-09-23T14:17:56Z</time>
      </trkpt>
      <trkpt lat="36.900517" lon="-5.416366">
        <ele>1147.0</ele>
        <time>2016-09-23T14:17:59Z</time>
      </trkpt>
      <trkpt lat="36.900401" lon="-5.416067">
        <ele>1152.0</ele>
        <time>2016-09-23T14:18:02Z</time>
      </trkpt>
      <trkpt lat="36.900285" lon="-5.415617">
        <ele>1155.0</ele>
        <time>2016-09-23T14:18:06Z</time>
      </trkpt>
      <trkpt lat="36.900285" lon="-5.415267">
        <ele>1160.0</ele>
        <time>2016-09-23T14:18:09Z</time>
      </trkpt>
      <trkpt lat="36.900333" lon="-5.414917">
        <ele>1165.0</ele>
        <time>2016-09-23T14:18:12Z</time>
      </trkpt>
      <trkpt lat="36.900452" lon="-5.414633">
        <ele>1168.0</ele>
        <time>2016-09-23T14:18:15Z</time>
      </trkpt>
      <trkpt lat="36.900650" lon="-5.414383">
        <ele>1170.0</ele>
        <time>2016-09-23T14:18:18Z</time>
      </trkpt>
      <trkpt lat="36.900869" lon="-5.414267">
        <ele>1176.0</ele>
        <time>2016-09-23T14:18:21Z</time>
      </trkpt>
      <trkpt lat="36.901118" lon="-5.414217">
        <ele>1182.0</ele>
        <time>2016-09-23T14:18:24Z</time>
      </trkpt>
      <trkpt lat="36.901367" lon="-5.414217">
        <ele>1187.0</ele>
        <time>2016-09-23T14:18:27Z</time>
      </trkpt>
      <trkpt lat="36.901569" lon="-5.414133">
        <ele>1190.0</ele>
        <time>2016-09-23T14:18:30Z</time>
      </trkpt>
      <trkpt lat="36.901818" lon="-5.414167">
        <ele>1182.0</ele>
        <time>2016-09-23T14:18:33Z</time>
      </trkpt>
      <trkpt lat="36.901986" lon="-5.414350">
        <ele>1175.0</ele>
        <time>2016-09-23T14:18:36Z</time>
      </trkpt>
      <trkpt lat="36.902153" lon="-5.414600">
        <ele>1164.0</ele>
        <time>2016-09-23T14:18:39Z</time>
      </trkpt>
      <trkpt lat="36.902167" lon="-5.414933">
        <ele>1160.0</ele>
        <time>2016-09-23T14:18:42Z</time>
      </trkpt>
      <trkpt lat="36.902132" lon="-5.415167">
        <ele>1160.0</ele>
        <time>2016-09-23T14:18:45Z</time>
      </trkpt>
      <trkpt lat="36.902020" lon="-5.415534">
        <ele>1160.0</ele>
        <time>2016-09-23T14:18:49Z</time>
      </trkpt>
      <trkpt lat="36.901917" lon="-5.415800">
        <ele>1161.0</ele>
        <time>2016-09-23T14:18:52Z</time>
      </trkpt>
      <trkpt lat="36.901818" lon="-5.416016">
        <ele>1159.0</ele>
        <time>2016-09-23T14:18:55Z</time>
      </trkpt>
      <trkpt lat="36.901719" lon="-5.416233">
        <ele>1156.0</ele>
        <time>2016-09-23T14:18:58Z</time>
      </trkpt>
      <trkpt lat="36.901586" lon="-5.416383">
        <ele>1150.0</ele>
        <time>2016-09-23T14:19:01Z</time>
      </trkpt>
      <trkpt lat="36.901316" lon="-5.416450">
        <ele>1140.0</ele>
        <time>2016-09-23T14:19:04Z</time>
      </trkpt>
      <trkpt lat="36.901019" lon="-5.416333">
        <ele>1136.0</ele>
        <time>2016-09-23T14:19:07Z</time>
      </trkpt>
      <trkpt lat="36.900783" lon="-5.416133">
        <ele>1132.0</ele>
        <time>2016-09-23T14:19:10Z</time>
      </trkpt>
      <trkpt lat="36.900551" lon="-5.415817">
        <ele>1127.0</ele>
        <time>2016-09-23T14:19:13Z</time>
      </trkpt>
      <trkpt lat="36.900435" lon="-5.415433">
        <ele>1129.0</ele>
        <time>2016-09-23T14:19:16Z</time>
      </trkpt>
      <trkpt lat="36.900353" lon="-5.415033">
        <ele>1130.0</ele>
        <time>2016-09-23T14:19:19Z</time>
      </trkpt>
      <trkpt lat="36.900302" lon="-5.414633">
        <ele>1135.0</ele>
        <time>2016-09-23T14:19:22Z</time>
      </trkpt>
      <trkpt lat="36.900302" lon="-5.414267">
        <ele>1137.0</ele>
        <time>2016-09-23T14:19:25Z</time>
      </trkpt>
      <trkpt lat="36.900353" lon="-5.413917">
        <ele>1140.0</ele>
        <time>2016-09-23T14:19:28Z</time>
      </trkpt>
      <trkpt lat="36.900384" lon="-5.413450">
        <ele>1144.0</ele>
        <time>2016-09-23T14:19:32Z</time>
      </trkpt>
      <trkpt lat="36.900384" lon="-5.413100">
        <ele>1146.0</ele>
        <time>2016-09-23T14:19:35Z</time>
      </trkpt>
      <trkpt lat="36.900466" lon="-5.412750">
        <ele>1148.0</ele>
        <time>2016-09-23T14:19:38Z</time>
      </trkpt>
      <trkpt lat="36.900585" lon="-5.412483">
        <ele>1151.0</ele>
        <time>2016-09-23T14:19:41Z</time>
      </trkpt>
      <trkpt lat="36.900732" lon="-5.412250">
        <ele>1157.0</ele>
        <time>2016-09-23T14:19:44Z</time>
      </trkpt>
      <trkpt lat="36.900903" lon="-5.412083">
        <ele>1157.0</ele>
        <time>2016-09-23T14:19:47Z</time>
      </trkpt>
      <trkpt lat="36.901169" lon="-5.412034">
        <ele>1162.0</ele>
        <time>2016-09-23T14:19:50Z</time>
      </trkpt>
      <trkpt lat="36.901384" lon="-5.412067">
        <ele>1167.0</ele>
        <time>2016-09-23T14:19:53Z</time>
      </trkpt>
      <trkpt lat="36.901569" lon="-5.412217">
        <ele>1170.0</ele>
        <time>2016-09-23T14:19:56Z</time>
      </trkpt>
      <trkpt lat="36.901668" lon="-5.412434">
        <ele>1170.0</ele>
        <time>2016-09-23T14:19:59Z</time>
      </trkpt>
      <trkpt lat="36.901702" lon="-5.412650">
        <ele>1167.0</ele>
        <time>2016-09-23T14:20:02Z</time>
      </trkpt>
      <trkpt lat="36.901702" lon="-5.412917">
        <ele>1168.0</ele>
        <time>2016-09-23T14:20:05Z</time>
      </trkpt>
      <trkpt lat="36.901548" lon="-5.413200">
        <ele>1164.0</ele>
        <time>2016-09-23T14:20:09Z</time>
      </trkpt>
      <trkpt lat="36.901350" lon="-5.413233">
        <ele>1164.0</ele>
        <time>2016-09-23T14:20:11Z</time>
      </trkpt>
      <trkpt lat="36.901036" lon="-5.413134">
        <ele>1166.0</ele>
        <time>2016-09-23T14:20:15Z</time>
      </trkpt>
      <trkpt lat="36.900766" lon="-5.413000">
        <ele>1168.0</ele>
        <time>2016-09-23T14:20:18Z</time>
      </trkpt>
      <trkpt lat="36.900620" lon="-5.412667">
        <ele>1171.0</ele>
        <time>2016-09-23T14:20:21Z</time>
      </trkpt>
      <trkpt lat="36.900551" lon="-5.412283">
        <ele>1172.0</ele>
        <time>2016-09-23T14:20:24Z</time>
      </trkpt>
      <trkpt lat="36.900650" lon="-5.411917">
        <ele>1174.0</ele>
        <time>2016-09-23T14:20:27Z</time>
      </trkpt>
      <trkpt lat="36.900804" lon="-5.411667">
        <ele>1178.0</ele>
        <time>2016-09-23T14:20:30Z</time>
      </trkpt>
      <trkpt lat="36.900985" lon="-5.411483">
        <ele>1177.0</ele>
        <time>2016-09-23T14:20:33Z</time>
      </trkpt>
      <trkpt lat="36.901183" lon="-5.411317">
        <ele>1180.0</ele>
        <time>2016-09-23T14:20:36Z</time>
      </trkpt>
      <trkpt lat="36.901367" lon="-5.411250">
        <ele>1177.0</ele>
        <time>2016-09-23T14:20:39Z</time>
      </trkpt>
      <trkpt lat="36.901654" lon="-5.411250">
        <ele>1170.0</ele>
        <time>2016-09-23T14:20:42Z</time>
      </trkpt>
      <trkpt lat="36.901835" lon="-5.411383">
        <ele>1168.0</ele>
        <time>2016-09-23T14:20:45Z</time>
      </trkpt>
      <trkpt lat="36.901934" lon="-5.411517">
        <ele>1164.0</ele>
        <time>2016-09-23T14:20:48Z</time>
      </trkpt>
      <trkpt lat="36.902067" lon="-5.411733">
        <ele>1156.0</ele>
        <time>2016-09-23T14:20:51Z</time>
      </trkpt>
      <trkpt lat="36.902153" lon="-5.412000">
        <ele>1152.0</ele>
        <time>2016-09-23T14:20:55Z</time>
      </trkpt>
      <trkpt lat="36.902184" lon="-5.412233">
        <ele>1151.0</ele>
        <time>2016-09-23T14:20:58Z</time>
      </trkpt>
      <trkpt lat="36.902201" lon="-5.412483">
        <ele>1152.0</ele>
        <time>2016-09-23T14:21:01Z</time>
      </trkpt>
      <trkpt lat="36.902218" lon="-5.412734">
        <ele>1146.0</ele>
        <time>2016-09-23T14:21:04Z</time>
      </trkpt>
      <trkpt lat="36.902337" lon="-5.412883">
        <ele>1140.0</ele>
        <time>2016-09-23T14:21:07Z</time>
      </trkpt>
      <trkpt lat="36.902484" lon="-5.412667">
        <ele>1130.0</ele>
        <time>2016-09-23T14:21:10Z</time>
      </trkpt>
      <trkpt lat="36.902470" lon="-5.412267">
        <ele>1125.0</ele>
        <time>2016-09-23T14:21:13Z</time>
      </trkpt>
      <trkpt lat="36.902368" lon="-5.411917">
        <ele>1120.0</ele>
        <time>2016-09-23T14:21:16Z</time>
      </trkpt>
      <trkpt lat="36.902167" lon="-5.411667">
        <ele>1122.0</ele>
        <time>2016-09-23T14:21:19Z</time>
      </trkpt>
      <trkpt lat="36.901934" lon="-5.411500">
        <ele>1124.0</ele>
        <time>2016-09-23T14:21:22Z</time>
      </trkpt>
      <trkpt lat="36.901702" lon="-5.411483">
        <ele>1125.0</ele>
        <time>2016-09-23T14:21:25Z</time>
      </trkpt>
      <trkpt lat="36.901569" lon="-5.411650">
        <ele>1122.0</ele>
        <time>2016-09-23T14:21:28Z</time>
      </trkpt>
      <trkpt lat="36.901466" lon="-5.411867">
        <ele>1119.0</ele>
        <time>2016-09-23T14:21:31Z</time>
      </trkpt>
      <trkpt lat="36.901337" lon="-5.412200">
        <ele>1115.0</ele>
        <time>2016-09-23T14:21:35Z</time>
      </trkpt>
      <trkpt lat="36.901316" lon="-5.412434">
        <ele>1109.0</ele>
        <time>2016-09-23T14:21:38Z</time>
      </trkpt>
      <trkpt lat="36.901217" lon="-5.412650">
        <ele>1104.0</ele>
        <time>2016-09-23T14:21:41Z</time>
      </trkpt>
      <trkpt lat="36.901084" lon="-5.412866">
        <ele>1096.0</ele>
        <time>2016-09-23T14:21:44Z</time>
      </trkpt>
      <trkpt lat="36.900917" lon="-5.413067">
        <ele>1090.0</ele>
        <time>2016-09-23T14:21:47Z</time>
      </trkpt>
      <trkpt lat="36.900753" lon="-5.413200">
        <ele>1085.0</ele>
        <time>2016-09-23T14:21:50Z</time>
      </trkpt>
      <trkpt lat="36.900585" lon="-5.413383">
        <ele>1076.0</ele>
        <time>2016-09-23T14:21:53Z</time>
      </trkpt>
      <trkpt lat="36.900435" lon="-5.413533">
        <ele>1068.0</ele>
        <time>2016-09-23T14:21:56Z</time>
      </trkpt>
      <trkpt lat="36.900285" lon="-5.413684">
        <ele>1058.0</ele>
        <time>2016-09-23T14:21:59Z</time>
      </trkpt>
      <trkpt lat="36.900087" lon="-5.413783">
        <ele>1049.0</ele>
        <time>2016-09-23T14:22:02Z</time>
      </trkpt>
      <trkpt lat="36.899902" lon="-5.413967">
        <ele>1037.0</ele>
        <time>2016-09-23T14:22:05Z</time>
      </trkpt>
      <trkpt lat="36.899735" lon="-5.414117">
        <ele>1028.0</ele>
        <time>2016-09-23T14:22:08Z</time>
      </trkpt>
      <trkpt lat="36.899537" lon="-5.414250">
        <ele>1024.0</ele>
        <time>2016-09-23T14:22:11Z</time>
      </trkpt>
      <trkpt lat="36.899404" lon="-5.414333">
        <ele>1016.0</ele>
        <time>2016-09-23T14:22:14Z</time>
      </trkpt>
      <trkpt lat="36.899168" lon="-5.414517">
        <ele>1010.0</ele>
        <time>2016-09-23T14:22:18Z</time>
      </trkpt>
      <trkpt lat="36.898919" lon="-5.414667">
        <ele>1000.0</ele>
        <time>2016-09-23T14:22:21Z</time>
      </trkpt>
      <trkpt lat="36.898687" lon="-5.414800">
        <ele>997.0</ele>
        <time>2016-09-23T14:22:24Z</time>
      </trkpt>
      <trkpt lat="36.898482" lon="-5.414917">
        <ele>991.0</ele>
        <time>2016-09-23T14:22:27Z</time>
      </trkpt>
      <trkpt lat="36.898301" lon="-5.415067">
        <ele>989.0</ele>
        <time>2016-09-23T14:22:30Z</time>
      </trkpt>
      <trkpt lat="36.898167" lon="-5.415250">
        <ele>983.0</ele>
        <time>2016-09-23T14:22:33Z</time>
      </trkpt>
      <trkpt lat="36.898017" lon="-5.415450">
        <ele>979.0</ele>
        <time>2016-09-23T14:22:36Z</time>
      </trkpt>
      <trkpt lat="36.897884" lon="-5.415666">
        <ele>974.0</ele>
        <time>2016-09-23T14:22:39Z</time>
      </trkpt>
      <trkpt lat="36.897771" lon="-5.415850">
        <ele>969.0</ele>
        <time>2016-09-23T14:22:42Z</time>
      </trkpt>
      <trkpt lat="36.897686" lon="-5.416083">
        <ele>965.0</ele>
        <time>2016-09-23T14:22:45Z</time>
      </trkpt>
      <trkpt lat="36.897566" lon="-5.416250">
        <ele>963.0</ele>
        <time>2016-09-23T14:22:48Z</time>
      </trkpt>
      <trkpt lat="36.897385" lon="-5.416383">
        <ele>959.0</ele>
        <time>2016-09-23T14:22:51Z</time>
      </trkpt>
      <trkpt lat="36.897153" lon="-5.416434">
        <ele>957.0</ele>
        <time>2016-09-23T14:22:54Z</time>
      </trkpt>
      <trkpt lat="36.896818" lon="-5.416450">
        <ele>953.0</ele>
        <time>2016-09-23T14:22:58Z</time>
      </trkpt>
      <trkpt lat="36.896583" lon="-5.416383">
        <ele>948.0</ele>
        <time>2016-09-23T14:23:01Z</time>
      </trkpt>
      <trkpt lat="36.896351" lon="-5.416366">
        <ele>942.0</ele>
        <time>2016-09-23T14:23:04Z</time>
      </trkpt>
      <trkpt lat="36.896118" lon="-5.416416">
        <ele>940.0</ele>
        <time>2016-09-23T14:23:07Z</time>
      </trkpt>
      <trkpt lat="36.895900" lon="-5.416483">
        <ele>937.0</ele>
        <time>2016-09-23T14:23:10Z</time>
      </trkpt>
      <trkpt lat="36.895685" lon="-5.416550">
        <ele>936.0</ele>
        <time>2016-09-23T14:23:13Z</time>
      </trkpt>
      <trkpt lat="36.895470" lon="-5.416550">
        <ele>935.0</ele>
        <time>2016-09-23T14:23:16Z</time>
      </trkpt>
      <trkpt lat="36.895251" lon="-5.416533">
        <ele>933.0</ele>
        <time>2016-09-23T14:23:19Z</time>
      </trkpt>
      <trkpt lat="36.895002" lon="-5.416567">
        <ele>933.0</ele>
        <time>2016-09-23T14:23:22Z</time>
      </trkpt>
      <trkpt lat="36.894800" lon="-5.416650">
        <ele>933.0</ele>
        <time>2016-09-23T14:23:25Z</time>
      </trkpt>
      <trkpt lat="36.894619" lon="-5.416750">
        <ele>928.0</ele>
        <time>2016-09-23T14:23:28Z</time>
      </trkpt>
      <trkpt lat="36.894435" lon="-5.416850">
        <ele>929.0</ele>
        <time>2016-09-23T14:23:31Z</time>
      </trkpt>
      <trkpt lat="36.894254" lon="-5.416950">
        <ele>935.0</ele>
        <time>2016-09-23T14:23:34Z</time>
      </trkpt>
      <trkpt lat="36.894100" lon="-5.416983">
        <ele>941.0</ele>
        <time>2016-09-23T14:23:37Z</time>
      </trkpt>
      <trkpt lat="36.893950" lon="-5.417116">
        <ele>948.0</ele>
        <time>2016-09-23T14:23:40Z</time>
      </trkpt>
      <trkpt lat="36.893803" lon="-5.417283">
        <ele>952.0</ele>
        <time>2016-09-23T14:23:44Z</time>
      </trkpt>
      <trkpt lat="36.893683" lon="-5.417433">
        <ele>955.0</ele>
        <time>2016-09-23T14:23:47Z</time>
      </trkpt>
      <trkpt lat="36.893602" lon="-5.417566">
        <ele>951.0</ele>
        <time>2016-09-23T14:23:50Z</time>
      </trkpt>
      <trkpt lat="36.893584" lon="-5.417750">
        <ele>944.0</ele>
        <time>2016-09-23T14:23:53Z</time>
      </trkpt>
      <trkpt lat="36.893782" lon="-5.417916">
        <ele>938.0</ele>
        <time>2016-09-23T14:23:56Z</time>
      </trkpt>
      <trkpt lat="36.894018" lon="-5.417883">
        <ele>936.0</ele>
        <time>2016-09-23T14:23:59Z</time>
      </trkpt>
      <trkpt lat="36.894254" lon="-5.417733">
        <ele>930.0</ele>
        <time>2016-09-23T14:24:02Z</time>
      </trkpt>
      <trkpt lat="36.894486" lon="-5.417450">
        <ele>926.0</ele>
        <time>2016-09-23T14:24:05Z</time>
      </trkpt>
      <trkpt lat="36.894732" lon="-5.417200">
        <ele>919.0</ele>
        <time>2016-09-23T14:24:08Z</time>
      </trkpt>
      <trkpt lat="36.894985" lon="-5.417100">
        <ele>916.0</ele>
        <time>2016-09-23T14:24:11Z</time>
      </trkpt>
      <trkpt lat="36.895217" lon="-5.417050">
        <ele>911.0</ele>
        <time>2016-09-23T14:24:14Z</time>
      </trkpt>
      <trkpt lat="36.895449" lon="-5.416950">
        <ele>910.0</ele>
        <time>2016-09-23T14:24:17Z</time>
      </trkpt>
      <trkpt lat="36.895633" lon="-5.417000">
        <ele>909.0</ele>
        <time>2016-09-23T14:24:20Z</time>
      </trkpt>
      <trkpt lat="36.895719" lon="-5.417216">
        <ele>906.0</ele>
        <time>2016-09-23T14:24:24Z</time>
      </trkpt>
      <trkpt lat="36.895633" lon="-5.417450">
        <ele>902.0</ele>
        <time>2016-09-23T14:24:27Z</time>
      </trkpt>
      <trkpt lat="36.895555" lon="-5.417650">
        <ele>901.0</ele>
        <time>2016-09-23T14:24:30Z</time>
      </trkpt>
      <trkpt lat="36.895418" lon="-5.417833">
        <ele>899.0</ele>
        <time>2016-09-23T14:24:33Z</time>
      </trkpt>
      <trkpt lat="36.895268" lon="-5.418000">
        <ele>896.0</ele>
        <time>2016-09-23T14:24:36Z</time>
      </trkpt>
      <trkpt lat="36.895104" lon="-5.418183">
        <ele>890.0</ele>
        <time>2016-09-23T14:24:39Z</time>
      </trkpt>
      <trkpt lat="36.894937" lon="-5.418400">
        <ele>885.0</ele>
        <time>2016-09-23T14:24:42Z</time>
      </trkpt>
      <trkpt lat="36.894766" lon="-5.418633">
        <ele>880.0</ele>
        <time>2016-09-23T14:24:45Z</time>
      </trkpt>
      <trkpt lat="36.894619" lon="-5.418867">
        <ele>873.0</ele>
        <time>2016-09-23T14:24:48Z</time>
      </trkpt>
      <trkpt lat="36.894486" lon="-5.419100">
        <ele>866.0</ele>
        <time>2016-09-23T14:24:51Z</time>
      </trkpt>
      <trkpt lat="36.894353" lon="-5.419333">
        <ele>861.0</ele>
        <time>2016-09-23T14:24:54Z</time>
      </trkpt>
      <trkpt lat="36.894203" lon="-5.419566">
        <ele>859.0</ele>
        <time>2016-09-23T14:24:57Z</time>
      </trkpt>
      <trkpt lat="36.894069" lon="-5.419800">
        <ele>858.0</ele>
        <time>2016-09-23T14:25:00Z</time>
      </trkpt>
      <trkpt lat="36.893868" lon="-5.420150">
        <ele>857.0</ele>
        <time>2016-09-23T14:25:04Z</time>
      </trkpt>
      <trkpt lat="36.893735" lon="-5.420400">
        <ele>861.0</ele>
        <time>2016-09-23T14:25:07Z</time>
      </trkpt>
      <trkpt lat="36.893619" lon="-5.420567">
        <ele>869.0</ele>
        <time>2016-09-23T14:25:10Z</time>
      </trkpt>
      <trkpt lat="36.893485" lon="-5.420733">
        <ele>878.0</ele>
        <time>2016-09-23T14:25:13Z</time>
      </trkpt>
      <trkpt lat="36.893332" lon="-5.420850">
        <ele>886.0</ele>
        <time>2016-09-23T14:25:16Z</time>
      </trkpt>
      <trkpt lat="36.893219" lon="-5.421033">
        <ele>894.0</ele>
        <time>2016-09-23T14:25:19Z</time>
      </trkpt>
      <trkpt lat="36.893120" lon="-5.421200">
        <ele>900.0</ele>
        <time>2016-09-23T14:25:22Z</time>
      </trkpt>
      <trkpt lat="36.893017" lon="-5.421400">
        <ele>906.0</ele>
        <time>2016-09-23T14:25:25Z</time>
      </trkpt>
      <trkpt lat="36.892854" lon="-5.421566">
        <ele>910.0</ele>
        <time>2016-09-23T14:25:28Z</time>
      </trkpt>
      <trkpt lat="36.892720" lon="-5.421783">
        <ele>914.0</ele>
        <time>2016-09-23T14:25:31Z</time>
      </trkpt>
      <trkpt lat="36.892515" lon="-5.421900">
        <ele>916.0</ele>
        <time>2016-09-23T14:25:34Z</time>
      </trkpt>
      <trkpt lat="36.892304" lon="-5.421983">
        <ele>915.0</ele>
        <time>2016-09-23T14:25:37Z</time>
      </trkpt>
      <trkpt lat="36.892116" lon="-5.422116">
        <ele>915.0</ele>
        <time>2016-09-23T14:25:40Z</time>
      </trkpt>
      <trkpt lat="36.892017" lon="-5.422316">
        <ele>907.0</ele>
        <time>2016-09-23T14:25:43Z</time>
      </trkpt>
      <trkpt lat="36.892201" lon="-5.422266">
        <ele>897.0</ele>
        <time>2016-09-23T14:25:47Z</time>
      </trkpt>
      <trkpt lat="36.892283" lon="-5.421916">
        <ele>891.0</ele>
        <time>2016-09-23T14:25:50Z</time>
      </trkpt>
      <trkpt lat="36.892317" lon="-5.421583">
        <ele>892.0</ele>
        <time>2016-09-23T14:25:53Z</time>
      </trkpt>
      <trkpt lat="36.892184" lon="-5.421200">
        <ele>892.0</ele>
        <time>2016-09-23T14:25:56Z</time>
      </trkpt>
      <trkpt lat="36.892003" lon="-5.420933">
        <ele>894.0</ele>
        <time>2016-09-23T14:25:59Z</time>
      </trkpt>
      <trkpt lat="36.891768" lon="-5.420750">
        <ele>895.0</ele>
        <time>2016-09-23T14:26:02Z</time>
      </trkpt>
      <trkpt lat="36.891552" lon="-5.420683">
        <ele>894.0</ele>
        <time>2016-09-23T14:26:05Z</time>
      </trkpt>
      <trkpt lat="36.891300" lon="-5.420716">
        <ele>894.0</ele>
        <time>2016-09-23T14:26:08Z</time>
      </trkpt>
      <trkpt lat="36.891102" lon="-5.420800">
        <ele>894.0</ele>
        <time>2016-09-23T14:26:11Z</time>
      </trkpt>
      <trkpt lat="36.890883" lon="-5.420900">
        <ele>892.0</ele>
        <time>2016-09-23T14:26:14Z</time>
      </trkpt>
      <trkpt lat="36.890668" lon="-5.421033">
        <ele>889.0</ele>
        <time>2016-09-23T14:26:17Z</time>
      </trkpt>
      <trkpt lat="36.890484" lon="-5.421183">
        <ele>885.0</ele>
        <time>2016-09-23T14:26:20Z</time>
      </trkpt>
      <trkpt lat="36.890299" lon="-5.421317">
        <ele>882.0</ele>
        <time>2016-09-23T14:26:23Z</time>
      </trkpt>
      <trkpt lat="36.890118" lon="-5.421400">
        <ele>874.0</ele>
        <time>2016-09-23T14:26:26Z</time>
      </trkpt>
      <trkpt lat="36.889920" lon="-5.421600">
        <ele>868.0</ele>
        <time>2016-09-23T14:26:30Z</time>
      </trkpt>
      <trkpt lat="36.889954" lon="-5.421750">
        <ele>859.0</ele>
        <time>2016-09-23T14:26:33Z</time>
      </trkpt>
      <trkpt lat="36.890186" lon="-5.421766">
        <ele>850.0</ele>
        <time>2016-09-23T14:26:36Z</time>
      </trkpt>
      <trkpt lat="36.890419" lon="-5.421616">
        <ele>847.0</ele>
        <time>2016-09-23T14:26:39Z</time>
      </trkpt>
      <trkpt lat="36.890637" lon="-5.421416">
        <ele>846.0</ele>
        <time>2016-09-23T14:26:42Z</time>
      </trkpt>
      <trkpt lat="36.890818" lon="-5.421150">
        <ele>848.0</ele>
        <time>2016-09-23T14:26:45Z</time>
      </trkpt>
      <trkpt lat="36.890904" lon="-5.420850">
        <ele>850.0</ele>
        <time>2016-09-23T14:26:48Z</time>
      </trkpt>
      <trkpt lat="36.891088" lon="-5.420550">
        <ele>848.0</ele>
        <time>2016-09-23T14:26:51Z</time>
      </trkpt>
      <trkpt lat="36.891269" lon="-5.420350">
        <ele>848.0</ele>
        <time>2016-09-23T14:26:54Z</time>
      </trkpt>
      <trkpt lat="36.891433" lon="-5.420100">
        <ele>842.0</ele>
        <time>2016-09-23T14:26:57Z</time>
      </trkpt>
      <trkpt lat="36.891634" lon="-5.419866">
        <ele>839.0</ele>
        <time>2016-09-23T14:27:00Z</time>
      </trkpt>
      <trkpt lat="36.891853" lon="-5.419633">
        <ele>839.0</ele>
        <time>2016-09-23T14:27:03Z</time>
      </trkpt>
      <trkpt lat="36.892068" lon="-5.419483">
        <ele>842.0</ele>
        <time>2016-09-23T14:27:06Z</time>
      </trkpt>
      <trkpt lat="36.892249" lon="-5.419383">
        <ele>845.0</ele>
        <time>2016-09-23T14:27:09Z</time>
      </trkpt>
      <trkpt lat="36.892485" lon="-5.419400">
        <ele>852.0</ele>
        <time>2016-09-23T14:27:13Z</time>
      </trkpt>
      <trkpt lat="36.892601" lon="-5.419467">
        <ele>856.0</ele>
        <time>2016-09-23T14:27:16Z</time>
      </trkpt>
      <trkpt lat="36.892635" lon="-5.419583">
        <ele>852.0</ele>
        <time>2016-09-23T14:27:19Z</time>
      </trkpt>
      <trkpt lat="36.892485" lon="-5.419666">
        <ele>852.0</ele>
        <time>2016-09-23T14:27:22Z</time>
      </trkpt>
      <trkpt lat="36.892270" lon="-5.419566">
        <ele>853.0</ele>
        <time>2016-09-23T14:27:25Z</time>
      </trkpt>
      <trkpt lat="36.892051" lon="-5.419383">
        <ele>854.0</ele>
        <time>2016-09-23T14:27:28Z</time>
      </trkpt>
      <trkpt lat="36.891785" lon="-5.419200">
        <ele>854.0</ele>
        <time>2016-09-23T14:27:31Z</time>
      </trkpt>
      <trkpt lat="36.891518" lon="-5.419016">
        <ele>855.0</ele>
        <time>2016-09-23T14:27:34Z</time>
      </trkpt>
      <trkpt lat="36.891252" lon="-5.418966">
        <ele>853.0</ele>
        <time>2016-09-23T14:27:37Z</time>
      </trkpt>
      <trkpt lat="36.891166" lon="-5.419116">
        <ele>851.0</ele>
        <time>2016-09-23T14:27:40Z</time>
      </trkpt>
      <trkpt lat="36.891334" lon="-5.419183">
        <ele>849.0</ele>
        <time>2016-09-23T14:27:43Z</time>
      </trkpt>
      <trkpt lat="36.891566" lon="-5.419133">
        <ele>848.0</ele>
        <time>2016-09-23T14:27:46Z</time>
      </trkpt>
      <trkpt lat="36.891785" lon="-5.419116">
        <ele>852.0</ele>
        <time>2016-09-23T14:27:49Z</time>
      </trkpt>
      <trkpt lat="36.892037" lon="-5.419100">
        <ele>855.0</ele>
        <time>2016-09-23T14:27:53Z</time>
      </trkpt>
      <trkpt lat="36.892270" lon="-5.419067">
        <ele>860.0</ele>
        <time>2016-09-23T14:27:56Z</time>
      </trkpt>
      <trkpt lat="36.892451" lon="-5.419116">
        <ele>868.0</ele>
        <time>2016-09-23T14:27:59Z</time>
      </trkpt>
      <trkpt lat="36.892536" lon="-5.419300">
        <ele>873.0</ele>
        <time>2016-09-23T14:28:02Z</time>
      </trkpt>
      <trkpt lat="36.892468" lon="-5.419400">
        <ele>880.0</ele>
        <time>2016-09-23T14:28:05Z</time>
      </trkpt>
      <trkpt lat="36.892283" lon="-5.419467">
        <ele>882.0</ele>
        <time>2016-09-23T14:28:08Z</time>
      </trkpt>
      <trkpt lat="36.892051" lon="-5.419283">
        <ele>883.0</ele>
        <time>2016-09-23T14:28:11Z</time>
      </trkpt>
      <trkpt lat="36.891932" lon="-5.418917">
        <ele>875.0</ele>
        <time>2016-09-23T14:28:14Z</time>
      </trkpt>
      <trkpt lat="36.892068" lon="-5.418533">
        <ele>871.0</ele>
        <time>2016-09-23T14:28:17Z</time>
      </trkpt>
      <trkpt lat="36.892335" lon="-5.418383">
        <ele>874.0</ele>
        <time>2016-09-23T14:28:20Z</time>
      </trkpt>
      <trkpt lat="36.892502" lon="-5.418400">
        <ele>882.0</ele>
        <time>2016-09-23T14:28:23Z</time>
      </trkpt>
      <trkpt lat="36.892649" lon="-5.418450">
        <ele>889.0</ele>
        <time>2016-09-23T14:28:26Z</time>
      </trkpt>
      <trkpt lat="36.892700" lon="-5.418599">
        <ele>898.0</ele>
        <time>2016-09-23T14:28:29Z</time>
      </trkpt>
      <trkpt lat="36.892755" lon="-5.418733">
        <ele>897.0</ele>
        <time>2016-09-23T14:28:33Z</time>
      </trkpt>
      <trkpt lat="36.892936" lon="-5.418850">
        <ele>896.0</ele>
        <time>2016-09-23T14:28:36Z</time>
      </trkpt>
      <trkpt lat="36.893168" lon="-5.418833">
        <ele>896.0</ele>
        <time>2016-09-23T14:28:39Z</time>
      </trkpt>
      <trkpt lat="36.893386" lon="-5.418800">
        <ele>899.0</ele>
        <time>2016-09-23T14:28:42Z</time>
      </trkpt>
      <trkpt lat="36.893602" lon="-5.418717">
        <ele>896.0</ele>
        <time>2016-09-23T14:28:45Z</time>
      </trkpt>
      <trkpt lat="36.893817" lon="-5.418717">
        <ele>898.0</ele>
        <time>2016-09-23T14:28:48Z</time>
      </trkpt>
      <trkpt lat="36.893984" lon="-5.418750">
        <ele>898.0</ele>
        <time>2016-09-23T14:28:51Z</time>
      </trkpt>
      <trkpt lat="36.894134" lon="-5.418649">
        <ele>899.0</ele>
        <time>2016-09-23T14:28:54Z</time>
      </trkpt>
      <trkpt lat="36.894302" lon="-5.418350">
        <ele>901.0</ele>
        <time>2016-09-23T14:28:57Z</time>
      </trkpt>
      <trkpt lat="36.894486" lon="-5.418117">
        <ele>905.0</ele>
        <time>2016-09-23T14:29:00Z</time>
      </trkpt>
      <trkpt lat="36.894684" lon="-5.418016">
        <ele>908.0</ele>
        <time>2016-09-23T14:29:03Z</time>
      </trkpt>
      <trkpt lat="36.894886" lon="-5.417950">
        <ele>910.0</ele>
        <time>2016-09-23T14:29:06Z</time>
      </trkpt>
      <trkpt lat="36.895084" lon="-5.417950">
        <ele>912.0</ele>
        <time>2016-09-23T14:29:09Z</time>
      </trkpt>
      <trkpt lat="36.895251" lon="-5.417983">
        <ele>913.0</ele>
        <time>2016-09-23T14:29:12Z</time>
      </trkpt>
      <trkpt lat="36.895367" lon="-5.418083">
        <ele>914.0</ele>
        <time>2016-09-23T14:29:15Z</time>
      </trkpt>
      <trkpt lat="36.895285" lon="-5.418200">
        <ele>912.0</ele>
        <time>2016-09-23T14:29:19Z</time>
      </trkpt>
      <trkpt lat="36.895019" lon="-5.418100">
        <ele>908.0</ele>
        <time>2016-09-23T14:29:22Z</time>
      </trkpt>
      <trkpt lat="36.894766" lon="-5.417899">
        <ele>913.0</ele>
        <time>2016-09-23T14:29:25Z</time>
      </trkpt>
      <trkpt lat="36.894520" lon="-5.417833">
        <ele>915.0</ele>
        <time>2016-09-23T14:29:28Z</time>
      </trkpt>
      <trkpt lat="36.894353" lon="-5.417966">
        <ele>914.0</ele>
        <time>2016-09-23T14:29:31Z</time>
      </trkpt>
      <trkpt lat="36.894520" lon="-5.418066">
        <ele>913.0</ele>
        <time>2016-09-23T14:29:34Z</time>
      </trkpt>
      <trkpt lat="36.894684" lon="-5.418033">
        <ele>915.0</ele>
        <time>2016-09-23T14:29:37Z</time>
      </trkpt>
      <trkpt lat="36.894851" lon="-5.418083">
        <ele>920.0</ele>
        <time>2016-09-23T14:29:40Z</time>
      </trkpt>
      <trkpt lat="36.894985" lon="-5.418000">
        <ele>922.0</ele>
        <time>2016-09-23T14:29:43Z</time>
      </trkpt>
      <trkpt lat="36.895203" lon="-5.418000">
        <ele>924.0</ele>
        <time>2016-09-23T14:29:46Z</time>
      </trkpt>
      <trkpt lat="36.895435" lon="-5.418016">
        <ele>931.0</ele>
        <time>2016-09-23T14:29:49Z</time>
      </trkpt>
      <trkpt lat="36.895582" lon="-5.418083">
        <ele>935.0</ele>
        <time>2016-09-23T14:29:52Z</time>
      </trkpt>
      <trkpt lat="36.895702" lon="-5.418167">
        <ele>926.0</ele>
        <time>2016-09-23T14:29:55Z</time>
      </trkpt>
      <trkpt lat="36.895702" lon="-5.418366">
        <ele>921.0</ele>
        <time>2016-09-23T14:29:59Z</time>
      </trkpt>
      <trkpt lat="36.895470" lon="-5.418266">
        <ele>919.0</ele>
        <time>2016-09-23T14:30:02Z</time>
      </trkpt>
      <trkpt lat="36.895237" lon="-5.418050">
        <ele>920.0</ele>
        <time>2016-09-23T14:30:05Z</time>
      </trkpt>
      <trkpt lat="36.895049" lon="-5.417767">
        <ele>925.0</ele>
        <time>2016-09-23T14:30:08Z</time>
      </trkpt>
      <trkpt lat="36.894920" lon="-5.417467">
        <ele>925.0</ele>
        <time>2016-09-23T14:30:11Z</time>
      </trkpt>
      <trkpt lat="36.894752" lon="-5.417200">
        <ele>929.0</ele>
        <time>2016-09-23T14:30:14Z</time>
      </trkpt>
      <trkpt lat="36.894568" lon="-5.416950">
        <ele>931.0</ele>
        <time>2016-09-23T14:30:17Z</time>
      </trkpt>
      <trkpt lat="36.894401" lon="-5.416700">
        <ele>932.0</ele>
        <time>2016-09-23T14:30:20Z</time>
      </trkpt>
      <trkpt lat="36.894203" lon="-5.416467">
        <ele>933.0</ele>
        <time>2016-09-23T14:30:23Z</time>
      </trkpt>
      <trkpt lat="36.894018" lon="-5.416284">
        <ele>934.0</ele>
        <time>2016-09-23T14:30:26Z</time>
      </trkpt>
      <trkpt lat="36.893817" lon="-5.416133">
        <ele>933.0</ele>
        <time>2016-09-23T14:30:29Z</time>
      </trkpt>
      <trkpt lat="36.893602" lon="-5.415950">
        <ele>933.0</ele>
        <time>2016-09-23T14:30:32Z</time>
      </trkpt>
      <trkpt lat="36.893386" lon="-5.415817">
        <ele>933.0</ele>
        <time>2016-09-23T14:30:35Z</time>
      </trkpt>
      <trkpt lat="36.893151" lon="-5.415750">
        <ele>934.0</ele>
        <time>2016-09-23T14:30:38Z</time>
      </trkpt>
      <trkpt lat="36.892901" lon="-5.415867">
        <ele>937.0</ele>
        <time>2016-09-23T14:30:42Z</time>
      </trkpt>
      <trkpt lat="36.892785" lon="-5.415983">
        <ele>941.0</ele>
        <time>2016-09-23T14:30:45Z</time>
      </trkpt>
      <trkpt lat="36.892720" lon="-5.416117">
        <ele>949.0</ele>
        <time>2016-09-23T14:30:48Z</time>
      </trkpt>
      <trkpt lat="36.892584" lon="-5.416233">
        <ele>954.0</ele>
        <time>2016-09-23T14:30:51Z</time>
      </trkpt>
      <trkpt lat="36.892567" lon="-5.416467">
        <ele>961.0</ele>
        <time>2016-09-23T14:30:54Z</time>
      </trkpt>
      <trkpt lat="36.892567" lon="-5.416583">
        <ele>970.0</ele>
        <time>2016-09-23T14:30:57Z</time>
      </trkpt>
      <trkpt lat="36.892700" lon="-5.416683">
        <ele>971.0</ele>
        <time>2016-09-23T14:31:00Z</time>
      </trkpt>
      <trkpt lat="36.892936" lon="-5.416634">
        <ele>970.0</ele>
        <time>2016-09-23T14:31:03Z</time>
      </trkpt>
      <trkpt lat="36.893000" lon="-5.416217">
        <ele>969.0</ele>
        <time>2016-09-23T14:31:06Z</time>
      </trkpt>
      <trkpt lat="36.892833" lon="-5.415884">
        <ele>972.0</ele>
        <time>2016-09-23T14:31:09Z</time>
      </trkpt>
      <trkpt lat="36.892635" lon="-5.415700">
        <ele>976.0</ele>
        <time>2016-09-23T14:31:12Z</time>
      </trkpt>
      <trkpt lat="36.892403" lon="-5.415650">
        <ele>983.0</ele>
        <time>2016-09-23T14:31:15Z</time>
      </trkpt>
      <trkpt lat="36.892171" lon="-5.415683">
        <ele>986.0</ele>
        <time>2016-09-23T14:31:18Z</time>
      </trkpt>
      <trkpt lat="36.891884" lon="-5.415650">
        <ele>986.0</ele>
        <time>2016-09-23T14:31:22Z</time>
      </trkpt>
      <trkpt lat="36.891733" lon="-5.415750">
        <ele>983.0</ele>
        <time>2016-09-23T14:31:25Z</time>
      </trkpt>
      <trkpt lat="36.891768" lon="-5.415867">
        <ele>980.0</ele>
        <time>2016-09-23T14:31:28Z</time>
      </trkpt>
      <trkpt lat="36.892003" lon="-5.415833">
        <ele>977.0</ele>
        <time>2016-09-23T14:31:31Z</time>
      </trkpt>
      <trkpt lat="36.892235" lon="-5.415733">
        <ele>972.0</ele>
        <time>2016-09-23T14:31:34Z</time>
      </trkpt>
      <trkpt lat="36.892451" lon="-5.415650">
        <ele>970.0</ele>
        <time>2016-09-23T14:31:37Z</time>
      </trkpt>
      <trkpt lat="36.892669" lon="-5.415617">
        <ele>966.0</ele>
        <time>2016-09-23T14:31:40Z</time>
      </trkpt>
      <trkpt lat="36.892918" lon="-5.415567">
        <ele>964.0</ele>
        <time>2016-09-23T14:31:43Z</time>
      </trkpt>
      <trkpt lat="36.893120" lon="-5.415550">
        <ele>964.0</ele>
        <time>2016-09-23T14:31:46Z</time>
      </trkpt>
      <trkpt lat="36.893301" lon="-5.415550">
        <ele>961.0</ele>
        <time>2016-09-23T14:31:49Z</time>
      </trkpt>
      <trkpt lat="36.893537" lon="-5.415567">
        <ele>959.0</ele>
        <time>2016-09-23T14:31:52Z</time>
      </trkpt>
      <trkpt lat="36.893670" lon="-5.415633">
        <ele>959.0</ele>
        <time>2016-09-23T14:31:55Z</time>
      </trkpt>
      <trkpt lat="36.893782" lon="-5.415783">
        <ele>958.0</ele>
        <time>2016-09-23T14:31:58Z</time>
      </trkpt>
      <trkpt lat="36.893967" lon="-5.415934">
        <ele>953.0</ele>
        <time>2016-09-23T14:32:02Z</time>
      </trkpt>
      <trkpt lat="36.894083" lon="-5.416083">
        <ele>954.0</ele>
        <time>2016-09-23T14:32:05Z</time>
      </trkpt>
      <trkpt lat="36.894168" lon="-5.416217">
        <ele>958.0</ele>
        <time>2016-09-23T14:32:08Z</time>
      </trkpt>
      <trkpt lat="36.894220" lon="-5.416333">
        <ele>963.0</ele>
        <time>2016-09-23T14:32:11Z</time>
      </trkpt>
      <trkpt lat="36.894155" lon="-5.416450">
        <ele>963.0</ele>
        <time>2016-09-23T14:32:14Z</time>
      </trkpt>
      <trkpt lat="36.894185" lon="-5.416617">
        <ele>960.0</ele>
        <time>2016-09-23T14:32:17Z</time>
      </trkpt>
      <trkpt lat="36.894353" lon="-5.416750">
        <ele>959.0</ele>
        <time>2016-09-23T14:32:20Z</time>
      </trkpt>
      <trkpt lat="36.894551" lon="-5.416850">
        <ele>959.0</ele>
        <time>2016-09-23T14:32:23Z</time>
      </trkpt>
      <trkpt lat="36.894732" lon="-5.416966">
        <ele>956.0</ele>
        <time>2016-09-23T14:32:26Z</time>
      </trkpt>
      <trkpt lat="36.894865" lon="-5.417067">
        <ele>958.0</ele>
        <time>2016-09-23T14:32:29Z</time>
      </trkpt>
      <trkpt lat="36.894920" lon="-5.417200">
        <ele>945.0</ele>
        <time>2016-09-23T14:32:32Z</time>
      </trkpt>
      <trkpt lat="36.895084" lon="-5.417350">
        <ele>945.0</ele>
        <time>2016-09-23T14:32:35Z</time>
      </trkpt>
      <trkpt lat="36.895268" lon="-5.417400">
        <ele>941.0</ele>
        <time>2016-09-23T14:32:38Z</time>
      </trkpt>
      <trkpt lat="36.895534" lon="-5.417433">
        <ele>938.0</ele>
        <time>2016-09-23T14:32:41Z</time>
      </trkpt>
      <trkpt lat="36.895852" lon="-5.417483">
        <ele>936.0</ele>
        <time>2016-09-23T14:32:45Z</time>
      </trkpt>
      <trkpt lat="36.896067" lon="-5.417600">
        <ele>933.0</ele>
        <time>2016-09-23T14:32:48Z</time>
      </trkpt>
      <trkpt lat="36.896286" lon="-5.417750">
        <ele>932.0</ele>
        <time>2016-09-23T14:32:51Z</time>
      </trkpt>
      <trkpt lat="36.896484" lon="-5.417833">
        <ele>930.0</ele>
        <time>2016-09-23T14:32:54Z</time>
      </trkpt>
      <trkpt lat="36.896750" lon="-5.417899">
        <ele>929.0</ele>
        <time>2016-09-23T14:32:57Z</time>
      </trkpt>
      <trkpt lat="36.897003" lon="-5.417899">
        <ele>930.0</ele>
        <time>2016-09-23T14:33:00Z</time>
      </trkpt>
      <trkpt lat="36.897269" lon="-5.417950">
        <ele>931.0</ele>
        <time>2016-09-23T14:33:03Z</time>
      </trkpt>
      <trkpt lat="36.897532" lon="-5.418016">
        <ele>933.0</ele>
        <time>2016-09-23T14:33:06Z</time>
      </trkpt>
      <trkpt lat="36.897799" lon="-5.418083">
        <ele>938.0</ele>
        <time>2016-09-23T14:33:09Z</time>
      </trkpt>
      <trkpt lat="36.898017" lon="-5.418150">
        <ele>942.0</ele>
        <time>2016-09-23T14:33:12Z</time>
      </trkpt>
      <trkpt lat="36.898284" lon="-5.418066">
        <ele>946.0</ele>
        <time>2016-09-23T14:33:15Z</time>
      </trkpt>
      <trkpt lat="36.898451" lon="-5.417716">
        <ele>949.0</ele>
        <time>2016-09-23T14:33:18Z</time>
      </trkpt>
      <trkpt lat="36.898301" lon="-5.417433">
        <ele>954.0</ele>
        <time>2016-09-23T14:33:21Z</time>
      </trkpt>
      <trkpt lat="36.898150" lon="-5.417417">
        <ele>956.0</ele>
        <time>2016-09-23T14:33:24Z</time>
      </trkpt>
      <trkpt lat="36.898167" lon="-5.417616">
        <ele>957.0</ele>
        <time>2016-09-23T14:33:28Z</time>
      </trkpt>
      <trkpt lat="36.898403" lon="-5.417700">
        <ele>959.0</ele>
        <time>2016-09-23T14:33:31Z</time>
      </trkpt>
      <trkpt lat="36.898687" lon="-5.417517">
        <ele>964.0</ele>
        <time>2016-09-23T14:33:34Z</time>
      </trkpt>
      <trkpt lat="36.898751" lon="-5.417200">
        <ele>971.0</ele>
        <time>2016-09-23T14:33:37Z</time>
      </trkpt>
      <trkpt lat="36.898635" lon="-5.417050">
        <ele>976.0</ele>
        <time>2016-09-23T14:33:40Z</time>
      </trkpt>
      <trkpt lat="36.898536" lon="-5.417200">
        <ele>980.0</ele>
        <time>2016-09-23T14:33:43Z</time>
      </trkpt>
      <trkpt lat="36.898615" lon="-5.417383">
        <ele>983.0</ele>
        <time>2016-09-23T14:33:46Z</time>
      </trkpt>
      <trkpt lat="36.898885" lon="-5.417467">
        <ele>982.0</ele>
        <time>2016-09-23T14:33:49Z</time>
      </trkpt>
      <trkpt lat="36.899052" lon="-5.417200">
        <ele>983.0</ele>
        <time>2016-09-23T14:33:52Z</time>
      </trkpt>
      <trkpt lat="36.898885" lon="-5.416983">
        <ele>986.0</ele>
        <time>2016-09-23T14:33:55Z</time>
      </trkpt>
      <trkpt lat="36.898769" lon="-5.417150">
        <ele>990.0</ele>
        <time>2016-09-23T14:33:58Z</time>
      </trkpt>
      <trkpt lat="36.898885" lon="-5.417333">
        <ele>996.0</ele>
        <time>2016-09-23T14:34:01Z</time>
      </trkpt>
      <trkpt lat="36.899120" lon="-5.417433">
        <ele>1002.0</ele>
        <time>2016-09-23T14:34:04Z</time>
      </trkpt>
      <trkpt lat="36.899404" lon="-5.417300">
        <ele>1012.0</ele>
        <time>2016-09-23T14:34:07Z</time>
      </trkpt>
      <trkpt lat="36.899585" lon="-5.416883">
        <ele>1014.0</ele>
        <time>2016-09-23T14:34:11Z</time>
      </trkpt>
      <trkpt lat="36.899503" lon="-5.416567">
        <ele>1020.0</ele>
        <time>2016-09-23T14:34:14Z</time>
      </trkpt>
      <trkpt lat="36.899318" lon="-5.416533">
        <ele>1025.0</ele>
        <time>2016-09-23T14:34:17Z</time>
      </trkpt>
      <trkpt lat="36.899250" lon="-5.416716">
        <ele>1028.0</ele>
        <time>2016-09-23T14:34:20Z</time>
      </trkpt>
      <trkpt lat="36.899332" lon="-5.416966">
        <ele>1034.0</ele>
        <time>2016-09-23T14:34:23Z</time>
      </trkpt>
      <trkpt lat="36.899585" lon="-5.417100">
        <ele>1040.0</ele>
        <time>2016-09-23T14:34:26Z</time>
      </trkpt>
      <trkpt lat="36.899882" lon="-5.416916">
        <ele>1046.0</ele>
        <time>2016-09-23T14:34:29Z</time>
      </trkpt>
      <trkpt lat="36.899882" lon="-5.416583">
        <ele>1053.0</ele>
        <time>2016-09-23T14:34:32Z</time>
      </trkpt>
      <trkpt lat="36.899735" lon="-5.416434">
        <ele>1061.0</ele>
        <time>2016-09-23T14:34:35Z</time>
      </trkpt>
      <trkpt lat="36.899650" lon="-5.416567">
        <ele>1066.0</ele>
        <time>2016-09-23T14:34:38Z</time>
      </trkpt>
      <trkpt lat="36.899735" lon="-5.416800">
        <ele>1071.0</ele>
        <time>2016-09-23T14:34:41Z</time>
      </trkpt>
      <trkpt lat="36.899984" lon="-5.416900">
        <ele>1077.0</ele>
        <time>2016-09-23T14:34:44Z</time>
      </trkpt>
      <trkpt lat="36.900220" lon="-5.416750">
        <ele>1079.0</ele>
        <time>2016-09-23T14:34:47Z</time>
      </trkpt>
      <trkpt lat="36.900285" lon="-5.416366">
        <ele>1082.0</ele>
        <time>2016-09-23T14:34:50Z</time>
      </trkpt>
      <trkpt lat="36.900152" lon="-5.416083">
        <ele>1087.0</ele>
        <time>2016-09-23T14:34:54Z</time>
      </trkpt>
      <trkpt lat="36.899984" lon="-5.416067">
        <ele>1090.0</ele>
        <time>2016-09-23T14:34:57Z</time>
      </trkpt>
      <trkpt lat="36.899902" lon="-5.416233">
        <ele>1094.0</ele>
        <time>2016-09-23T14:35:00Z</time>
      </trkpt>
      <trkpt lat="36.899916" lon="-5.416434">
        <ele>1095.0</ele>
        <time>2016-09-23T14:35:03Z</time>
      </trkpt>
      <trkpt lat="36.900015" lon="-5.416634">
        <ele>1097.0</ele>
        <time>2016-09-23T14:35:06Z</time>
      </trkpt>
      <trkpt lat="36.900152" lon="-5.416817">
        <ele>1100.0</ele>
        <time>2016-09-23T14:35:09Z</time>
      </trkpt>
      <trkpt lat="36.900302" lon="-5.417000">
        <ele>1103.0</ele>
        <time>2016-09-23T14:35:12Z</time>
      </trkpt>
      <trkpt lat="36.900500" lon="-5.417133">
        <ele>1106.0</ele>
        <time>2016-09-23T14:35:15Z</time>
      </trkpt>
      <trkpt lat="36.900766" lon="-5.417166">
        <ele>1108.0</ele>
        <time>2016-09-23T14:35:18Z</time>
      </trkpt>
      <trkpt lat="36.901036" lon="-5.416983">
        <ele>1107.0</ele>
        <time>2016-09-23T14:35:21Z</time>
      </trkpt>
      <trkpt lat="36.901217" lon="-5.416634">
        <ele>1108.0</ele>
        <time>2016-09-23T14:35:24Z</time>
      </trkpt>
      <trkpt lat="36.901316" lon="-5.416250">
        <ele>1109.0</ele>
        <time>2016-09-23T14:35:27Z</time>
      </trkpt>
      <trkpt lat="36.901449" lon="-5.415884">
        <ele>1111.0</ele>
        <time>2016-09-23T14:35:30Z</time>
      </trkpt>
      <trkpt lat="36.901548" lon="-5.415517">
        <ele>1112.0</ele>
        <time>2016-09-23T14:35:33Z</time>
      </trkpt>
      <trkpt lat="36.901753" lon="-5.415067">
        <ele>1111.0</ele>
        <time>2016-09-23T14:35:37Z</time>
      </trkpt>
      <trkpt lat="36.901951" lon="-5.414784">
        <ele>1111.0</ele>
        <time>2016-09-23T14:35:40Z</time>
      </trkpt>
      <trkpt lat="36.902132" lon="-5.414550">
        <ele>1114.0</ele>
        <time>2016-09-23T14:35:43Z</time>
      </trkpt>
      <trkpt lat="36.902317" lon="-5.414467">
        <ele>1113.0</ele>
        <time>2016-09-23T14:35:46Z</time>
      </trkpt>
      <trkpt lat="36.902484" lon="-5.414517">
        <ele>1112.0</ele>
        <time>2016-09-23T14:35:49Z</time>
      </trkpt>
      <trkpt lat="36.902617" lon="-5.414667">
        <ele>1113.0</ele>
        <time>2016-09-23T14:35:52Z</time>
      </trkpt>
      <trkpt lat="36.902751" lon="-5.414867">
        <ele>1112.0</ele>
        <time>2016-09-23T14:35:55Z</time>
      </trkpt>
      <trkpt lat="36.902884" lon="-5.415067">
        <ele>1108.0</ele>
        <time>2016-09-23T14:35:58Z</time>
      </trkpt>
      <trkpt lat="36.902949" lon="-5.415316">
        <ele>1103.0</ele>
        <time>2016-09-23T14:36:01Z</time>
      </trkpt>
      <trkpt lat="36.902969" lon="-5.415717">
        <ele>1104.0</ele>
        <time>2016-09-23T14:36:05Z</time>
      </trkpt>
      <trkpt lat="36.902983" lon="-5.415917">
        <ele>1111.0</ele>
        <time>2016-09-23T14:36:08Z</time>
      </trkpt>
      <trkpt lat="36.902983" lon="-5.416183">
        <ele>1114.0</ele>
        <time>2016-09-23T14:36:11Z</time>
      </trkpt>
      <trkpt lat="36.902935" lon="-5.416450">
        <ele>1123.0</ele>
        <time>2016-09-23T14:36:14Z</time>
      </trkpt>
      <trkpt lat="36.902983" lon="-5.416667">
        <ele>1131.0</ele>
        <time>2016-09-23T14:36:17Z</time>
      </trkpt>
      <trkpt lat="36.903154" lon="-5.416766">
        <ele>1136.0</ele>
        <time>2016-09-23T14:36:20Z</time>
      </trkpt>
      <trkpt lat="36.903335" lon="-5.416517">
        <ele>1142.0</ele>
        <time>2016-09-23T14:36:23Z</time>
      </trkpt>
      <trkpt lat="36.903154" lon="-5.416250">
        <ele>1148.0</ele>
        <time>2016-09-23T14:36:26Z</time>
      </trkpt>
      <trkpt lat="36.903020" lon="-5.416450">
        <ele>1154.0</ele>
        <time>2016-09-23T14:36:29Z</time>
      </trkpt>
      <trkpt lat="36.903235" lon="-5.416600">
        <ele>1161.0</ele>
        <time>2016-09-23T14:36:32Z</time>
      </trkpt>
      <trkpt lat="36.903369" lon="-5.416333">
        <ele>1167.0</ele>
        <time>2016-09-23T14:36:35Z</time>
      </trkpt>
      <trkpt lat="36.903352" lon="-5.415967">
        <ele>1180.0</ele>
        <time>2016-09-23T14:36:38Z</time>
      </trkpt>
      <trkpt lat="36.903218" lon="-5.415750">
        <ele>1187.0</ele>
        <time>2016-09-23T14:36:41Z</time>
      </trkpt>
      <trkpt lat="36.902983" lon="-5.415884">
        <ele>1195.0</ele>
        <time>2016-09-23T14:36:45Z</time>
      </trkpt>
      <trkpt lat="36.902949" lon="-5.416083">
        <ele>1204.0</ele>
        <time>2016-09-23T14:36:48Z</time>
      </trkpt>
      <trkpt lat="36.903054" lon="-5.416317">
        <ele>1207.0</ele>
        <time>2016-09-23T14:36:51Z</time>
      </trkpt>
      <trkpt lat="36.903218" lon="-5.416300">
        <ele>1212.0</ele>
        <time>2016-09-23T14:36:53Z</time>
      </trkpt>
      <trkpt lat="36.903434" lon="-5.415934">
        <ele>1218.0</ele>
        <time>2016-09-23T14:36:57Z</time>
      </trkpt>
      <trkpt lat="36.903287" lon="-5.415700">
        <ele>1226.0</ele>
        <time>2016-09-23T14:37:00Z</time>
      </trkpt>
      <trkpt lat="36.903085" lon="-5.415717">
        <ele>1234.0</ele>
        <time>2016-09-23T14:37:03Z</time>
      </trkpt>
      <trkpt lat="36.902983" lon="-5.415900">
        <ele>1244.0</ele>
        <time>2016-09-23T14:37:06Z</time>
      </trkpt>
      <trkpt lat="36.903119" lon="-5.416117">
        <ele>1250.0</ele>
        <time>2016-09-23T14:37:09Z</time>
      </trkpt>
      <trkpt lat="36.903420" lon="-5.416067">
        <ele>1253.0</ele>
        <time>2016-09-23T14:37:12Z</time>
      </trkpt>
      <trkpt lat="36.903533" lon="-5.415783">
        <ele>1258.0</ele>
        <time>2016-09-23T14:37:15Z</time>
      </trkpt>
      <trkpt lat="36.903485" lon="-5.415467">
        <ele>1263.0</ele>
        <time>2016-09-23T14:37:18Z</time>
      </trkpt>
      <trkpt lat="36.903317" lon="-5.415300">
        <ele>1271.0</ele>
        <time>2016-09-23T14:37:21Z</time>
      </trkpt>
      <trkpt lat="36.903119" lon="-5.415167">
        <ele>1278.0</ele>
        <time>2016-09-23T14:37:24Z</time>
      </trkpt>
      <trkpt lat="36.902918" lon="-5.415200">
        <ele>1286.0</ele>
        <time>2016-09-23T14:37:27Z</time>
      </trkpt>
      <trkpt lat="36.902785" lon="-5.415383">
        <ele>1292.0</ele>
        <time>2016-09-23T14:37:30Z</time>
      </trkpt>
      <trkpt lat="36.902737" lon="-5.415700">
        <ele>1300.0</ele>
        <time>2016-09-23T14:37:33Z</time>
      </trkpt>
      <trkpt lat="36.902785" lon="-5.416000">
        <ele>1305.0</ele>
        <time>2016-09-23T14:37:36Z</time>
      </trkpt>
      <trkpt lat="36.902983" lon="-5.416183">
        <ele>1306.0</ele>
        <time>2016-09-23T14:37:39Z</time>
      </trkpt>
      <trkpt lat="36.903335" lon="-5.416000">
        <ele>1309.0</ele>
        <time>2016-09-23T14:37:43Z</time>
      </trkpt>
      <trkpt lat="36.903399" lon="-5.415683">
        <ele>1311.0</ele>
        <time>2016-09-23T14:37:46Z</time>
      </trkpt>
      <trkpt lat="36.903352" lon="-5.415350">
        <ele>1312.0</ele>
        <time>2016-09-23T14:37:49Z</time>
      </trkpt>
      <trkpt lat="36.903167" lon="-5.415100">
        <ele>1318.0</ele>
        <time>2016-09-23T14:37:52Z</time>
      </trkpt>
      <trkpt lat="36.902983" lon="-5.414933">
        <ele>1325.0</ele>
        <time>2016-09-23T14:37:55Z</time>
      </trkpt>
      <trkpt lat="36.902768" lon="-5.414933">
        <ele>1330.0</ele>
        <time>2016-09-23T14:37:58Z</time>
      </trkpt>
      <trkpt lat="36.902604" lon="-5.415083">
        <ele>1334.0</ele>
        <time>2016-09-23T14:38:01Z</time>
      </trkpt>
      <trkpt lat="36.902682" lon="-5.415383">
        <ele>1335.0</ele>
        <time>2016-09-23T14:38:04Z</time>
      </trkpt>
      <trkpt lat="36.902884" lon="-5.415567">
        <ele>1333.0</ele>
        <time>2016-09-23T14:38:07Z</time>
      </trkpt>
      <trkpt lat="36.903167" lon="-5.415584">
        <ele>1337.0</ele>
        <time>2016-09-23T14:38:10Z</time>
      </trkpt>
      <trkpt lat="36.903434" lon="-5.415467">
        <ele>1344.0</ele>
        <time>2016-09-23T14:38:13Z</time>
      </trkpt>
      <trkpt lat="36.903601" lon="-5.415250">
        <ele>1344.0</ele>
        <time>2016-09-23T14:38:16Z</time>
      </trkpt>
      <trkpt lat="36.903666" lon="-5.414900">
        <ele>1346.0</ele>
        <time>2016-09-23T14:38:19Z</time>
      </trkpt>
      <trkpt lat="36.903584" lon="-5.414417">
        <ele>1350.0</ele>
        <time>2016-09-23T14:38:23Z</time>
      </trkpt>
      <trkpt lat="36.903502" lon="-5.414067">
        <ele>1354.0</ele>
        <time>2016-09-23T14:38:26Z</time>
      </trkpt>
      <trkpt lat="36.903369" lon="-5.413800">
        <ele>1361.0</ele>
        <time>2016-09-23T14:38:29Z</time>
      </trkpt>
      <trkpt lat="36.903235" lon="-5.413600">
        <ele>1366.0</ele>
        <time>2016-09-23T14:38:32Z</time>
      </trkpt>
      <trkpt lat="36.903068" lon="-5.413583">
        <ele>1368.0</ele>
        <time>2016-09-23T14:38:35Z</time>
      </trkpt>
      <trkpt lat="36.903054" lon="-5.413800">
        <ele>1369.0</ele>
        <time>2016-09-23T14:38:38Z</time>
      </trkpt>
      <trkpt lat="36.903300" lon="-5.413933">
        <ele>1365.0</ele>
        <time>2016-09-23T14:38:41Z</time>
      </trkpt>
      <trkpt lat="36.903618" lon="-5.413733">
        <ele>1368.0</ele>
        <time>2016-09-23T14:38:44Z</time>
      </trkpt>
      <trkpt lat="36.903819" lon="-5.413550">
        <ele>1369.0</ele>
        <time>2016-09-23T14:38:47Z</time>
      </trkpt>
      <trkpt lat="36.904018" lon="-5.413233">
        <ele>1373.0</ele>
        <time>2016-09-23T14:38:50Z</time>
      </trkpt>
      <trkpt lat="36.904151" lon="-5.412883">
        <ele>1380.0</ele>
        <time>2016-09-23T14:38:53Z</time>
      </trkpt>
      <trkpt lat="36.904250" lon="-5.412550">
        <ele>1381.0</ele>
        <time>2016-09-23T14:38:56Z</time>
      </trkpt>
      <trkpt lat="36.904185" lon="-5.412183">
        <ele>1379.0</ele>
        <time>2016-09-23T14:38:59Z</time>
      </trkpt>
      <trkpt lat="36.904018" lon="-5.411733">
        <ele>1374.0</ele>
        <time>2016-09-23T14:39:03Z</time>
      </trkpt>
      <trkpt lat="36.903901" lon="-5.411367">
        <ele>1378.0</ele>
        <time>2016-09-23T14:39:06Z</time>
      </trkpt>
      <trkpt lat="36.903785" lon="-5.411067">
        <ele>1378.0</ele>
        <time>2016-09-23T14:39:09Z</time>
      </trkpt>
      <trkpt lat="36.903618" lon="-5.410800">
        <ele>1383.0</ele>
        <time>2016-09-23T14:39:12Z</time>
      </trkpt>
      <trkpt lat="36.903468" lon="-5.410583">
        <ele>1385.0</ele>
        <time>2016-09-23T14:39:15Z</time>
      </trkpt>
      <trkpt lat="36.903300" lon="-5.410400">
        <ele>1388.0</ele>
        <time>2016-09-23T14:39:18Z</time>
      </trkpt>
      <trkpt lat="36.903154" lon="-5.410283">
        <ele>1388.0</ele>
        <time>2016-09-23T14:39:21Z</time>
      </trkpt>
      <trkpt lat="36.902983" lon="-5.410267">
        <ele>1385.0</ele>
        <time>2016-09-23T14:39:24Z</time>
      </trkpt>
      <trkpt lat="36.902983" lon="-5.410450">
        <ele>1387.0</ele>
        <time>2016-09-23T14:39:27Z</time>
      </trkpt>
      <trkpt lat="36.903133" lon="-5.410633">
        <ele>1390.0</ele>
        <time>2016-09-23T14:39:30Z</time>
      </trkpt>
      <trkpt lat="36.903399" lon="-5.410684">
        <ele>1396.0</ele>
        <time>2016-09-23T14:39:33Z</time>
      </trkpt>
      <trkpt lat="36.903666" lon="-5.410633">
        <ele>1403.0</ele>
        <time>2016-09-23T14:39:36Z</time>
      </trkpt>
      <trkpt lat="36.903918" lon="-5.410583">
        <ele>1410.0</ele>
        <time>2016-09-23T14:39:39Z</time>
      </trkpt>
      <trkpt lat="36.904216" lon="-5.410350">
        <ele>1413.0</ele>
        <time>2016-09-23T14:39:43Z</time>
      </trkpt>
      <trkpt lat="36.904369" lon="-5.410083">
        <ele>1409.0</ele>
        <time>2016-09-23T14:39:46Z</time>
      </trkpt>
      <trkpt lat="36.904383" lon="-5.409716">
        <ele>1407.0</ele>
        <time>2016-09-23T14:39:49Z</time>
      </trkpt>
      <trkpt lat="36.904284" lon="-5.409384">
        <ele>1404.0</ele>
        <time>2016-09-23T14:39:52Z</time>
      </trkpt>
      <trkpt lat="36.904069" lon="-5.409200">
        <ele>1403.0</ele>
        <time>2016-09-23T14:39:55Z</time>
      </trkpt>
      <trkpt lat="36.903871" lon="-5.409200">
        <ele>1398.0</ele>
        <time>2016-09-23T14:39:58Z</time>
      </trkpt>
      <trkpt lat="36.903652" lon="-5.409267">
        <ele>1394.0</ele>
        <time>2016-09-23T14:40:01Z</time>
      </trkpt>
      <trkpt lat="36.903451" lon="-5.409316">
        <ele>1394.0</ele>
        <time>2016-09-23T14:40:04Z</time>
      </trkpt>
      <trkpt lat="36.903235" lon="-5.409284">
        <ele>1396.0</ele>
        <time>2016-09-23T14:40:07Z</time>
      </trkpt>
      <trkpt lat="36.903000" lon="-5.409217">
        <ele>1399.0</ele>
        <time>2016-09-23T14:40:10Z</time>
      </trkpt>
      <trkpt lat="36.902785" lon="-5.409133">
        <ele>1399.0</ele>
        <time>2016-09-23T14:40:13Z</time>
      </trkpt>
      <trkpt lat="36.902549" lon="-5.409133">
        <ele>1398.0</ele>
        <time>2016-09-23T14:40:16Z</time>
      </trkpt>
      <trkpt lat="36.902303" lon="-5.409234">
        <ele>1404.0</ele>
        <time>2016-09-23T14:40:19Z</time>
      </trkpt>
      <trkpt lat="36.902067" lon="-5.409284">
        <ele>1409.0</ele>
        <time>2016-09-23T14:40:22Z</time>
      </trkpt>
      <trkpt lat="36.901818" lon="-5.409400">
        <ele>1407.0</ele>
        <time>2016-09-23T14:40:26Z</time>
      </trkpt>
      <trkpt lat="36.901719" lon="-5.409567">
        <ele>1402.0</ele>
        <time>2016-09-23T14:40:29Z</time>
      </trkpt>
      <trkpt lat="36.901600" lon="-5.409800">
        <ele>1395.0</ele>
        <time>2016-09-23T14:40:32Z</time>
      </trkpt>
      <trkpt lat="36.901449" lon="-5.410017">
        <ele>1392.0</ele>
        <time>2016-09-23T14:40:35Z</time>
      </trkpt>
      <trkpt lat="36.901384" lon="-5.410300">
        <ele>1388.0</ele>
        <time>2016-09-23T14:40:38Z</time>
      </trkpt>
      <trkpt lat="36.901282" lon="-5.410567">
        <ele>1387.0</ele>
        <time>2016-09-23T14:40:41Z</time>
      </trkpt>
      <trkpt lat="36.901203" lon="-5.410850">
        <ele>1388.0</ele>
        <time>2016-09-23T14:40:44Z</time>
      </trkpt>
      <trkpt lat="36.901084" lon="-5.411083">
        <ele>1386.0</ele>
        <time>2016-09-23T14:40:47Z</time>
      </trkpt>
      <trkpt lat="36.900985" lon="-5.411350">
        <ele>1383.0</ele>
        <time>2016-09-23T14:40:50Z</time>
      </trkpt>
      <trkpt lat="36.900903" lon="-5.411600">
        <ele>1377.0</ele>
        <time>2016-09-23T14:40:53Z</time>
      </trkpt>
      <trkpt lat="36.900831" lon="-5.411867">
        <ele>1371.0</ele>
        <time>2016-09-23T14:40:56Z</time>
      </trkpt>
      <trkpt lat="36.900732" lon="-5.412083">
        <ele>1365.0</ele>
        <time>2016-09-23T14:40:59Z</time>
      </trkpt>
      <trkpt lat="36.900568" lon="-5.412350">
        <ele>1356.0</ele>
        <time>2016-09-23T14:41:03Z</time>
      </trkpt>
      <trkpt lat="36.900452" lon="-5.412567">
        <ele>1351.0</ele>
        <time>2016-09-23T14:41:06Z</time>
      </trkpt>
      <trkpt lat="36.900333" lon="-5.412784">
        <ele>1346.0</ele>
        <time>2016-09-23T14:41:09Z</time>
      </trkpt>
      <trkpt lat="36.900220" lon="-5.412983">
        <ele>1341.0</ele>
        <time>2016-09-23T14:41:12Z</time>
      </trkpt>
      <trkpt lat="36.900049" lon="-5.413183">
        <ele>1332.0</ele>
        <time>2016-09-23T14:41:15Z</time>
      </trkpt>
      <trkpt lat="36.899851" lon="-5.413383">
        <ele>1327.0</ele>
        <time>2016-09-23T14:41:18Z</time>
      </trkpt>
      <trkpt lat="36.899670" lon="-5.413467">
        <ele>1319.0</ele>
        <time>2016-09-23T14:41:21Z</time>
      </trkpt>
      <trkpt lat="36.899404" lon="-5.413533">
        <ele>1315.0</ele>
        <time>2016-09-23T14:41:24Z</time>
      </trkpt>
      <trkpt lat="36.899219" lon="-5.413667">
        <ele>1308.0</ele>
        <time>2016-09-23T14:41:27Z</time>
      </trkpt>
      <trkpt lat="36.898967" lon="-5.413750">
        <ele>1305.0</ele>
        <time>2016-09-23T14:41:30Z</time>
      </trkpt>
      <trkpt lat="36.898799" lon="-5.413850">
        <ele>1301.0</ele>
        <time>2016-09-23T14:41:33Z</time>
      </trkpt>
      <trkpt lat="36.898615" lon="-5.413917">
        <ele>1299.0</ele>
        <time>2016-09-23T14:41:36Z</time>
      </trkpt>
      <trkpt lat="36.898417" lon="-5.414083">
        <ele>1297.0</ele>
        <time>2016-09-23T14:41:40Z</time>
      </trkpt>
      <trkpt lat="36.898270" lon="-5.414200">
        <ele>1295.0</ele>
        <time>2016-09-23T14:41:43Z</time>
      </trkpt>
      <trkpt lat="36.898068" lon="-5.414300">
        <ele>1291.0</ele>
        <time>2016-09-23T14:41:46Z</time>
      </trkpt>
      <trkpt lat="36.897836" lon="-5.414400">
        <ele>1290.0</ele>
        <time>2016-09-23T14:41:49Z</time>
      </trkpt>
      <trkpt lat="36.897587" lon="-5.414517">
        <ele>1288.0</ele>
        <time>2016-09-23T14:41:52Z</time>
      </trkpt>
      <trkpt lat="36.897368" lon="-5.414650">
        <ele>1289.0</ele>
        <time>2016-09-23T14:41:55Z</time>
      </trkpt>
      <trkpt lat="36.897167" lon="-5.414717">
        <ele>1289.0</ele>
        <time>2016-09-23T14:41:58Z</time>
      </trkpt>
      <trkpt lat="36.896900" lon="-5.414817">
        <ele>1290.0</ele>
        <time>2016-09-23T14:42:01Z</time>
      </trkpt>
      <trkpt lat="36.896685" lon="-5.414933">
        <ele>1293.0</ele>
        <time>2016-09-23T14:42:04Z</time>
      </trkpt>
      <trkpt lat="36.896484" lon="-5.415050">
        <ele>1300.0</ele>
        <time>2016-09-23T14:42:07Z</time>
      </trkpt>
      <trkpt lat="36.896299" lon="-5.415200">
        <ele>1308.0</ele>
        <time>2016-09-23T14:42:10Z</time>
      </trkpt>
      <trkpt lat="36.896166" lon="-5.415333">
        <ele>1316.0</ele>
        <time>2016-09-23T14:42:13Z</time>
      </trkpt>
      <trkpt lat="36.896166" lon="-5.415534">
        <ele>1320.0</ele>
        <time>2016-09-23T14:42:16Z</time>
      </trkpt>
      <trkpt lat="36.896320" lon="-5.415700">
        <ele>1325.0</ele>
        <time>2016-09-23T14:42:19Z</time>
      </trkpt>
      <trkpt lat="36.896569" lon="-5.415700">
        <ele>1333.0</ele>
        <time>2016-09-23T14:42:22Z</time>
      </trkpt>
      <trkpt lat="36.896836" lon="-5.415534">
        <ele>1343.0</ele>
        <time>2016-09-23T14:42:25Z</time>
      </trkpt>
      <trkpt lat="36.896900" lon="-5.415233">
        <ele>1351.0</ele>
        <time>2016-09-23T14:42:28Z</time>
      </trkpt>
      <trkpt lat="36.896767" lon="-5.414867">
        <ele>1351.0</ele>
        <time>2016-09-23T14:42:31Z</time>
      </trkpt>
      <trkpt lat="36.896351" lon="-5.414567">
        <ele>1351.0</ele>
        <time>2016-09-23T14:42:35Z</time>
      </trkpt>
      <trkpt lat="36.896033" lon="-5.414650">
        <ele>1359.0</ele>
        <time>2016-09-23T14:42:38Z</time>
      </trkpt>
      <trkpt lat="36.895852" lon="-5.414700">
        <ele>1369.0</ele>
        <time>2016-09-23T14:42:41Z</time>
      </trkpt>
      <trkpt lat="36.895719" lon="-5.414850">
        <ele>1374.0</ele>
        <time>2016-09-23T14:42:44Z</time>
      </trkpt>
      <trkpt lat="36.895685" lon="-5.415050">
        <ele>1378.0</ele>
        <time>2016-09-23T14:42:47Z</time>
      </trkpt>
      <trkpt lat="36.895668" lon="-5.415283">
        <ele>1378.0</ele>
        <time>2016-09-23T14:42:50Z</time>
      </trkpt>
      <trkpt lat="36.895603" lon="-5.415534">
        <ele>1379.0</ele>
        <time>2016-09-23T14:42:53Z</time>
      </trkpt>
      <trkpt lat="36.895517" lon="-5.415750">
        <ele>1381.0</ele>
        <time>2016-09-23T14:42:56Z</time>
      </trkpt>
      <trkpt lat="36.895449" lon="-5.415934">
        <ele>1386.0</ele>
        <time>2016-09-23T14:42:59Z</time>
      </trkpt>
      <trkpt lat="36.895384" lon="-5.416083">
        <ele>1386.0</ele>
        <time>2016-09-23T14:43:02Z</time>
      </trkpt>
      <trkpt lat="36.895384" lon="-5.416267">
        <ele>1387.0</ele>
        <time>2016-09-23T14:43:05Z</time>
      </trkpt>
      <trkpt lat="36.895483" lon="-5.416400">
        <ele>1389.0</ele>
        <time>2016-09-23T14:43:08Z</time>
      </trkpt>
      <trkpt lat="36.895582" lon="-5.416434">
        <ele>1385.0</ele>
        <time>2016-09-23T14:43:11Z</time>
      </trkpt>
      <trkpt lat="36.895818" lon="-5.416317">
        <ele>1379.0</ele>
        <time>2016-09-23T14:43:15Z</time>
      </trkpt>
      <trkpt lat="36.895934" lon="-5.415967">
        <ele>1377.0</ele>
        <time>2016-09-23T14:43:18Z</time>
      </trkpt>
      <trkpt lat="36.895920" lon="-5.415633">
        <ele>1380.0</ele>
        <time>2016-09-23T14:43:21Z</time>
      </trkpt>
      <trkpt lat="36.895869" lon="-5.415300">
        <ele>1379.0</ele>
        <time>2016-09-23T14:43:24Z</time>
      </trkpt>
      <trkpt lat="36.895787" lon="-5.414983">
        <ele>1382.0</ele>
        <time>2016-09-23T14:43:27Z</time>
      </trkpt>
      <trkpt lat="36.895753" lon="-5.414667">
        <ele>1383.0</ele>
        <time>2016-09-23T14:43:30Z</time>
      </trkpt>
      <trkpt lat="36.895668" lon="-5.414300">
        <ele>1381.0</ele>
        <time>2016-09-23T14:43:33Z</time>
      </trkpt>
      <trkpt lat="36.895500" lon="-5.413950">
        <ele>1380.0</ele>
        <time>2016-09-23T14:43:36Z</time>
      </trkpt>
      <trkpt lat="36.895268" lon="-5.413700">
        <ele>1379.0</ele>
        <time>2016-09-23T14:43:39Z</time>
      </trkpt>
      <trkpt lat="36.894971" lon="-5.413517">
        <ele>1377.0</ele>
        <time>2016-09-23T14:43:42Z</time>
      </trkpt>
      <trkpt lat="36.894667" lon="-5.413350">
        <ele>1378.0</ele>
        <time>2016-09-23T14:43:45Z</time>
      </trkpt>
      <trkpt lat="36.894366" lon="-5.413250">
        <ele>1378.0</ele>
        <time>2016-09-23T14:43:48Z</time>
      </trkpt>
      <trkpt lat="36.894083" lon="-5.413200">
        <ele>1377.0</ele>
        <time>2016-09-23T14:43:51Z</time>
      </trkpt>
      <trkpt lat="36.893817" lon="-5.413266">
        <ele>1377.0</ele>
        <time>2016-09-23T14:43:54Z</time>
      </trkpt>
      <trkpt lat="36.893571" lon="-5.413484">
        <ele>1372.0</ele>
        <time>2016-09-23T14:43:58Z</time>
      </trkpt>
      <trkpt lat="36.893468" lon="-5.413750">
        <ele>1366.0</ele>
        <time>2016-09-23T14:44:01Z</time>
      </trkpt>
      <trkpt lat="36.893451" lon="-5.414034">
        <ele>1364.0</ele>
        <time>2016-09-23T14:44:04Z</time>
      </trkpt>
      <trkpt lat="36.893485" lon="-5.414267">
        <ele>1359.0</ele>
        <time>2016-09-23T14:44:07Z</time>
      </trkpt>
      <trkpt lat="36.893670" lon="-5.414417">
        <ele>1355.0</ele>
        <time>2016-09-23T14:44:10Z</time>
      </trkpt>
      <trkpt lat="36.893868" lon="-5.414400">
        <ele>1353.0</ele>
        <time>2016-09-23T14:44:13Z</time>
      </trkpt>
      <trkpt lat="36.894083" lon="-5.414250">
        <ele>1351.0</ele>
        <time>2016-09-23T14:44:16Z</time>
      </trkpt>
      <trkpt lat="36.894267" lon="-5.414050">
        <ele>1351.0</ele>
        <time>2016-09-23T14:44:19Z</time>
      </trkpt>
      <trkpt lat="36.894452" lon="-5.413800">
        <ele>1347.0</ele>
        <time>2016-09-23T14:44:22Z</time>
      </trkpt>
      <trkpt lat="36.894599" lon="-5.413484">
        <ele>1350.0</ele>
        <time>2016-09-23T14:44:25Z</time>
      </trkpt>
      <trkpt lat="36.894752" lon="-5.413200">
        <ele>1348.0</ele>
        <time>2016-09-23T14:44:28Z</time>
      </trkpt>
      <trkpt lat="36.894950" lon="-5.412883">
        <ele>1351.0</ele>
        <time>2016-09-23T14:44:31Z</time>
      </trkpt>
      <trkpt lat="36.895084" lon="-5.412533">
        <ele>1353.0</ele>
        <time>2016-09-23T14:44:34Z</time>
      </trkpt>
      <trkpt lat="36.895203" lon="-5.412183">
        <ele>1357.0</ele>
        <time>2016-09-23T14:44:37Z</time>
      </trkpt>
      <trkpt lat="36.895251" lon="-5.411617">
        <ele>1358.0</ele>
        <time>2016-09-23T14:44:41Z</time>
      </trkpt>
      <trkpt lat="36.895217" lon="-5.411150">
        <ele>1363.0</ele>
        <time>2016-09-23T14:44:44Z</time>
      </trkpt>
      <trkpt lat="36.895135" lon="-5.410733">
        <ele>1368.0</ele>
        <time>2016-09-23T14:44:47Z</time>
      </trkpt>
      <trkpt lat="36.895019" lon="-5.410317">
        <ele>1374.0</ele>
        <time>2016-09-23T14:44:50Z</time>
      </trkpt>
      <trkpt lat="36.894766" lon="-5.410033">
        <ele>1377.0</ele>
        <time>2016-09-23T14:44:53Z</time>
      </trkpt>
      <trkpt lat="36.894520" lon="-5.410017">
        <ele>1382.0</ele>
        <time>2016-09-23T14:44:56Z</time>
      </trkpt>
      <trkpt lat="36.894435" lon="-5.410183">
        <ele>1387.0</ele>
        <time>2016-09-23T14:44:59Z</time>
      </trkpt>
      <trkpt lat="36.894469" lon="-5.410400">
        <ele>1390.0</ele>
        <time>2016-09-23T14:45:02Z</time>
      </trkpt>
      <trkpt lat="36.894653" lon="-5.410550">
        <ele>1395.0</ele>
        <time>2016-09-23T14:45:05Z</time>
      </trkpt>
      <trkpt lat="36.894838" lon="-5.410583">
        <ele>1401.0</ele>
        <time>2016-09-23T14:45:08Z</time>
      </trkpt>
      <trkpt lat="36.895049" lon="-5.410517">
        <ele>1409.0</ele>
        <time>2016-09-23T14:45:11Z</time>
      </trkpt>
      <trkpt lat="36.895217" lon="-5.410367">
        <ele>1418.0</ele>
        <time>2016-09-23T14:45:14Z</time>
      </trkpt>
      <trkpt lat="36.895350" lon="-5.410134">
        <ele>1422.0</ele>
        <time>2016-09-23T14:45:17Z</time>
      </trkpt>
      <trkpt lat="36.895449" lon="-5.409600">
        <ele>1426.0</ele>
        <time>2016-09-23T14:45:21Z</time>
      </trkpt>
      <trkpt lat="36.895350" lon="-5.409183">
        <ele>1426.0</ele>
        <time>2016-09-23T14:45:24Z</time>
      </trkpt>
      <trkpt lat="36.895104" lon="-5.408867">
        <ele>1426.0</ele>
        <time>2016-09-23T14:45:27Z</time>
      </trkpt>
      <trkpt lat="36.894851" lon="-5.408950">
        <ele>1424.0</ele>
        <time>2016-09-23T14:45:30Z</time>
      </trkpt>
      <trkpt lat="36.894732" lon="-5.409167">
        <ele>1424.0</ele>
        <time>2016-09-23T14:45:33Z</time>
      </trkpt>
      <trkpt lat="36.894766" lon="-5.409417">
        <ele>1424.0</ele>
        <time>2016-09-23T14:45:36Z</time>
      </trkpt>
      <trkpt lat="36.894903" lon="-5.409634">
        <ele>1425.0</ele>
        <time>2016-09-23T14:45:39Z</time>
      </trkpt>
      <trkpt lat="36.895084" lon="-5.409767">
        <ele>1433.0</ele>
        <time>2016-09-23T14:45:42Z</time>
      </trkpt>
      <trkpt lat="36.895251" lon="-5.409817">
        <ele>1443.0</ele>
        <time>2016-09-23T14:45:45Z</time>
      </trkpt>
      <trkpt lat="36.895449" lon="-5.409817">
        <ele>1451.0</ele>
        <time>2016-09-23T14:45:48Z</time>
      </trkpt>
      <trkpt lat="36.895668" lon="-5.409767">
        <ele>1457.0</ele>
        <time>2016-09-23T14:45:51Z</time>
      </trkpt>
      <trkpt lat="36.895900" lon="-5.409650">
        <ele>1465.0</ele>
        <time>2016-09-23T14:45:54Z</time>
      </trkpt>
      <trkpt lat="36.896118" lon="-5.409433">
        <ele>1474.0</ele>
        <time>2016-09-23T14:45:57Z</time>
      </trkpt>
      <trkpt lat="36.896320" lon="-5.409200">
        <ele>1478.0</ele>
        <time>2016-09-23T14:46:00Z</time>
      </trkpt>
      <trkpt lat="36.896419" lon="-5.408667">
        <ele>1485.0</ele>
        <time>2016-09-23T14:46:04Z</time>
      </trkpt>
      <trkpt lat="36.896351" lon="-5.408317">
        <ele>1493.0</ele>
        <time>2016-09-23T14:46:07Z</time>
      </trkpt>
      <trkpt lat="36.896187" lon="-5.408084">
        <ele>1490.0</ele>
        <time>2016-09-23T14:46:10Z</time>
      </trkpt>
      <trkpt lat="36.895951" lon="-5.408000">
        <ele>1483.0</ele>
        <time>2016-09-23T14:46:13Z</time>
      </trkpt>
      <trkpt lat="36.895736" lon="-5.408117">
        <ele>1487.0</ele>
        <time>2016-09-23T14:46:16Z</time>
      </trkpt>
      <trkpt lat="36.895534" lon="-5.408217">
        <ele>1494.0</ele>
        <time>2016-09-23T14:46:19Z</time>
      </trkpt>
      <trkpt lat="36.895418" lon="-5.408417">
        <ele>1499.0</ele>
        <time>2016-09-23T14:46:22Z</time>
      </trkpt>
      <trkpt lat="36.895367" lon="-5.408700">
        <ele>1501.0</ele>
        <time>2016-09-23T14:46:25Z</time>
      </trkpt>
      <trkpt lat="36.895367" lon="-5.408950">
        <ele>1513.0</ele>
        <time>2016-09-23T14:46:28Z</time>
      </trkpt>
      <trkpt lat="36.895384" lon="-5.409150">
        <ele>1525.0</ele>
        <time>2016-09-23T14:46:31Z</time>
      </trkpt>
      <trkpt lat="36.895569" lon="-5.409300">
        <ele>1533.0</ele>
        <time>2016-09-23T14:46:34Z</time>
      </trkpt>
      <trkpt lat="36.895801" lon="-5.409300">
        <ele>1539.0</ele>
        <time>2016-09-23T14:46:37Z</time>
      </trkpt>
      <trkpt lat="36.895999" lon="-5.409217">
        <ele>1538.0</ele>
        <time>2016-09-23T14:46:40Z</time>
      </trkpt>
      <trkpt lat="36.896200" lon="-5.408867">
        <ele>1541.0</ele>
        <time>2016-09-23T14:46:43Z</time>
      </trkpt>
      <trkpt lat="36.896019" lon="-5.408467">
        <ele>1544.0</ele>
        <time>2016-09-23T14:46:47Z</time>
      </trkpt>
      <trkpt lat="36.895767" lon="-5.408317">
        <ele>1549.0</ele>
        <time>2016-09-23T14:46:50Z</time>
      </trkpt>
      <trkpt lat="36.895517" lon="-5.408266">
        <ele>1555.0</ele>
        <time>2016-09-23T14:46:53Z</time>
      </trkpt>
      <trkpt lat="36.895316" lon="-5.408383">
        <ele>1559.0</ele>
        <time>2016-09-23T14:46:56Z</time>
      </trkpt>
      <trkpt lat="36.895183" lon="-5.408583">
        <ele>1564.0</ele>
        <time>2016-09-23T14:46:59Z</time>
      </trkpt>
      <trkpt lat="36.895183" lon="-5.408817">
        <ele>1572.0</ele>
        <time>2016-09-23T14:47:02Z</time>
      </trkpt>
      <trkpt lat="36.895203" lon="-5.409050">
        <ele>1580.0</ele>
        <time>2016-09-23T14:47:05Z</time>
      </trkpt>
      <trkpt lat="36.895367" lon="-5.409183">
        <ele>1585.0</ele>
        <time>2016-09-23T14:47:08Z</time>
      </trkpt>
      <trkpt lat="36.895620" lon="-5.409083">
        <ele>1593.0</ele>
        <time>2016-09-23T14:47:11Z</time>
      </trkpt>
      <trkpt lat="36.895633" lon="-5.408767">
        <ele>1597.0</ele>
        <time>2016-09-23T14:47:14Z</time>
      </trkpt>
      <trkpt lat="36.895418" lon="-5.408583">
        <ele>1603.0</ele>
        <time>2016-09-23T14:47:17Z</time>
      </trkpt>
      <trkpt lat="36.895203" lon="-5.408583">
        <ele>1608.0</ele>
        <time>2016-09-23T14:47:20Z</time>
      </trkpt>
      <trkpt lat="36.895036" lon="-5.408733">
        <ele>1612.0</ele>
        <time>2016-09-23T14:47:23Z</time>
      </trkpt>
      <trkpt lat="36.894920" lon="-5.408983">
        <ele>1615.0</ele>
        <time>2016-09-23T14:47:26Z</time>
      </trkpt>
      <trkpt lat="36.895019" lon="-5.409350">
        <ele>1620.0</ele>
        <time>2016-09-23T14:47:30Z</time>
      </trkpt>
      <trkpt lat="36.895203" lon="-5.409533">
        <ele>1624.0</ele>
        <time>2016-09-23T14:47:33Z</time>
      </trkpt>
      <trkpt lat="36.895418" lon="-5.409634">
        <ele>1626.0</ele>
        <time>2016-09-23T14:47:36Z</time>
      </trkpt>
      <trkpt lat="36.895685" lon="-5.409634">
        <ele>1626.0</ele>
        <time>2016-09-23T14:47:39Z</time>
      </trkpt>
      <trkpt lat="36.895900" lon="-5.409467">
        <ele>1628.0</ele>
        <time>2016-09-23T14:47:42Z</time>
      </trkpt>
      <trkpt lat="36.896084" lon="-5.409200">
        <ele>1630.0</ele>
        <time>2016-09-23T14:47:45Z</time>
      </trkpt>
      <trkpt lat="36.896187" lon="-5.408884">
        <ele>1632.0</ele>
        <time>2016-09-23T14:47:48Z</time>
      </trkpt>
      <trkpt lat="36.896200" lon="-5.408550">
        <ele>1633.0</ele>
        <time>2016-09-23T14:47:51Z</time>
      </trkpt>
      <trkpt lat="36.896286" lon="-5.408200">
        <ele>1631.0</ele>
        <time>2016-09-23T14:47:54Z</time>
      </trkpt>
      <trkpt lat="36.896419" lon="-5.407867">
        <ele>1634.0</ele>
        <time>2016-09-23T14:47:57Z</time>
      </trkpt>
      <trkpt lat="36.896583" lon="-5.407600">
        <ele>1634.0</ele>
        <time>2016-09-23T14:48:00Z</time>
      </trkpt>
      <trkpt lat="36.896651" lon="-5.407250">
        <ele>1638.0</ele>
        <time>2016-09-23T14:48:03Z</time>
      </trkpt>
      <trkpt lat="36.896552" lon="-5.406834">
        <ele>1640.0</ele>
        <time>2016-09-23T14:48:07Z</time>
      </trkpt>
      <trkpt lat="36.896385" lon="-5.406767">
        <ele>1641.0</ele>
        <time>2016-09-23T14:48:10Z</time>
      </trkpt>
      <trkpt lat="36.896299" lon="-5.406867">
        <ele>1642.0</ele>
        <time>2016-09-23T14:48:13Z</time>
      </trkpt>
      <trkpt lat="36.896385" lon="-5.407100">
        <ele>1642.0</ele>
        <time>2016-09-23T14:48:16Z</time>
      </trkpt>
      <trkpt lat="36.896638" lon="-5.407250">
        <ele>1641.0</ele>
        <time>2016-09-23T14:48:19Z</time>
      </trkpt>
      <trkpt lat="36.896982" lon="-5.407233">
        <ele>1638.0</ele>
        <time>2016-09-23T14:48:22Z</time>
      </trkpt>
      <trkpt lat="36.897269" lon="-5.406984">
        <ele>1641.0</ele>
        <time>2016-09-23T14:48:25Z</time>
      </trkpt>
      <trkpt lat="36.897484" lon="-5.406717">
        <ele>1643.0</ele>
        <time>2016-09-23T14:48:28Z</time>
      </trkpt>
      <trkpt lat="36.897665" lon="-5.406467">
        <ele>1651.0</ele>
        <time>2016-09-23T14:48:31Z</time>
      </trkpt>
      <trkpt lat="36.897751" lon="-5.406200">
        <ele>1650.0</ele>
        <time>2016-09-23T14:48:34Z</time>
      </trkpt>
      <trkpt lat="36.897652" lon="-5.406034">
        <ele>1643.0</ele>
        <time>2016-09-23T14:48:37Z</time>
      </trkpt>
      <trkpt lat="36.897519" lon="-5.405917">
        <ele>1636.0</ele>
        <time>2016-09-23T14:48:40Z</time>
      </trkpt>
      <trkpt lat="36.897351" lon="-5.405800">
        <ele>1627.0</ele>
        <time>2016-09-23T14:48:43Z</time>
      </trkpt>
      <trkpt lat="36.897187" lon="-5.405767">
        <ele>1620.0</ele>
        <time>2016-09-23T14:48:46Z</time>
      </trkpt>
      <trkpt lat="36.896935" lon="-5.405550">
        <ele>1617.0</ele>
        <time>2016-09-23T14:48:50Z</time>
      </trkpt>
      <trkpt lat="36.896750" lon="-5.405317">
        <ele>1613.0</ele>
        <time>2016-09-23T14:48:53Z</time>
      </trkpt>
      <trkpt lat="36.896504" lon="-5.405200">
        <ele>1617.0</ele>
        <time>2016-09-23T14:48:56Z</time>
      </trkpt>
      <trkpt lat="36.896286" lon="-5.405167">
        <ele>1619.0</ele>
        <time>2016-09-23T14:48:59Z</time>
      </trkpt>
      <trkpt lat="36.896053" lon="-5.405133">
        <ele>1623.0</ele>
        <time>2016-09-23T14:49:02Z</time>
      </trkpt>
      <trkpt lat="36.895869" lon="-5.405233">
        <ele>1628.0</ele>
        <time>2016-09-23T14:49:05Z</time>
      </trkpt>
      <trkpt lat="36.895835" lon="-5.405466">
        <ele>1628.0</ele>
        <time>2016-09-23T14:49:08Z</time>
      </trkpt>
      <trkpt lat="36.895985" lon="-5.405684">
        <ele>1631.0</ele>
        <time>2016-09-23T14:49:11Z</time>
      </trkpt>
      <trkpt lat="36.896132" lon="-5.405816">
        <ele>1632.0</ele>
        <time>2016-09-23T14:49:14Z</time>
      </trkpt>
      <trkpt lat="36.896385" lon="-5.405833">
        <ele>1632.0</ele>
        <time>2016-09-23T14:49:17Z</time>
      </trkpt>
      <trkpt lat="36.896668" lon="-5.405650">
        <ele>1632.0</ele>
        <time>2016-09-23T14:49:20Z</time>
      </trkpt>
      <trkpt lat="36.896900" lon="-5.405384">
        <ele>1631.0</ele>
        <time>2016-09-23T14:49:23Z</time>
      </trkpt>
      <trkpt lat="36.897102" lon="-5.405083">
        <ele>1629.0</ele>
        <time>2016-09-23T14:49:26Z</time>
      </trkpt>
      <trkpt lat="36.897252" lon="-5.404734">
        <ele>1629.0</ele>
        <time>2016-09-23T14:49:29Z</time>
      </trkpt>
      <trkpt lat="36.897300" lon="-5.404350">
        <ele>1626.0</ele>
        <time>2016-09-23T14:49:33Z</time>
      </trkpt>
      <trkpt lat="36.897351" lon="-5.404017">
        <ele>1620.0</ele>
        <time>2016-09-23T14:49:36Z</time>
      </trkpt>
      <trkpt lat="36.897433" lon="-5.403750">
        <ele>1614.0</ele>
        <time>2016-09-23T14:49:39Z</time>
      </trkpt>
      <trkpt lat="36.897618" lon="-5.403450">
        <ele>1604.0</ele>
        <time>2016-09-23T14:49:42Z</time>
      </trkpt>
      <trkpt lat="36.897700" lon="-5.403133">
        <ele>1601.0</ele>
        <time>2016-09-23T14:49:45Z</time>
      </trkpt>
      <trkpt lat="36.897665" lon="-5.402833">
        <ele>1594.0</ele>
        <time>2016-09-23T14:49:48Z</time>
      </trkpt>
      <trkpt lat="36.897519" lon="-5.402550">
        <ele>1587.0</ele>
        <time>2016-09-23T14:49:51Z</time>
      </trkpt>
      <trkpt lat="36.897320" lon="-5.402400">
        <ele>1578.0</ele>
        <time>2016-09-23T14:49:54Z</time>
      </trkpt>
      <trkpt lat="36.897068" lon="-5.402234">
        <ele>1569.0</ele>
        <time>2016-09-23T14:49:57Z</time>
      </trkpt>
      <trkpt lat="36.896900" lon="-5.402033">
        <ele>1557.0</ele>
        <time>2016-09-23T14:50:00Z</time>
      </trkpt>
      <trkpt lat="36.896685" lon="-5.401750">
        <ele>1545.0</ele>
        <time>2016-09-23T14:50:03Z</time>
      </trkpt>
      <trkpt lat="36.896484" lon="-5.401434">
        <ele>1540.0</ele>
        <time>2016-09-23T14:50:06Z</time>
      </trkpt>
      <trkpt lat="36.896299" lon="-5.401200">
        <ele>1527.0</ele>
        <time>2016-09-23T14:50:09Z</time>
      </trkpt>
      <trkpt lat="36.896084" lon="-5.400983">
        <ele>1515.0</ele>
        <time>2016-09-23T14:50:12Z</time>
      </trkpt>
      <trkpt lat="36.895719" lon="-5.400750">
        <ele>1505.0</ele>
        <time>2016-09-23T14:50:16Z</time>
      </trkpt>
      <trkpt lat="36.895435" lon="-5.400517">
        <ele>1502.0</ele>
        <time>2016-09-23T14:50:19Z</time>
      </trkpt>
      <trkpt lat="36.895169" lon="-5.400317">
        <ele>1496.0</ele>
        <time>2016-09-23T14:50:22Z</time>
      </trkpt>
      <trkpt lat="36.894903" lon="-5.400083">
        <ele>1495.0</ele>
        <time>2016-09-23T14:50:25Z</time>
      </trkpt>
      <trkpt lat="36.894684" lon="-5.399866">
        <ele>1492.0</ele>
        <time>2016-09-23T14:50:28Z</time>
      </trkpt>
      <trkpt lat="36.894452" lon="-5.399633">
        <ele>1492.0</ele>
        <time>2016-09-23T14:50:31Z</time>
      </trkpt>
      <trkpt lat="36.894233" lon="-5.399433">
        <ele>1491.0</ele>
        <time>2016-09-23T14:50:34Z</time>
      </trkpt>
      <trkpt lat="36.894001" lon="-5.399250">
        <ele>1490.0</ele>
        <time>2016-09-23T14:50:37Z</time>
      </trkpt>
      <trkpt lat="36.893752" lon="-5.399050">
        <ele>1487.0</ele>
        <time>2016-09-23T14:50:40Z</time>
      </trkpt>
      <trkpt lat="36.893516" lon="-5.398900">
        <ele>1487.0</ele>
        <time>2016-09-23T14:50:43Z</time>
      </trkpt>
      <trkpt lat="36.893284" lon="-5.398766">
        <ele>1482.0</ele>
        <time>2016-09-23T14:50:46Z</time>
      </trkpt>
      <trkpt lat="36.893000" lon="-5.398616">
        <ele>1483.0</ele>
        <time>2016-09-23T14:50:49Z</time>
      </trkpt>
      <trkpt lat="36.892802" lon="-5.398483">
        <ele>1480.0</ele>
        <time>2016-09-23T14:50:52Z</time>
      </trkpt>
      <trkpt lat="36.892451" lon="-5.398333">
        <ele>1477.0</ele>
        <time>2016-09-23T14:50:56Z</time>
      </trkpt>
      <trkpt lat="36.892249" lon="-5.398183">
        <ele>1475.0</ele>
        <time>2016-09-23T14:50:59Z</time>
      </trkpt>
      <trkpt lat="36.891986" lon="-5.397966">
        <ele>1471.0</ele>
        <time>2016-09-23T14:51:02Z</time>
      </trkpt>
      <trkpt lat="36.891785" lon="-5.397750">
        <ele>1476.0</ele>
        <time>2016-09-23T14:51:05Z</time>
      </trkpt>
      <trkpt lat="36.891634" lon="-5.397616">
        <ele>1473.0</ele>
        <time>2016-09-23T14:51:08Z</time>
      </trkpt>
      <trkpt lat="36.891402" lon="-5.397550">
        <ele>1464.0</ele>
        <time>2016-09-23T14:51:11Z</time>
      </trkpt>
      <trkpt lat="36.891102" lon="-5.397467">
        <ele>1454.0</ele>
        <time>2016-09-23T14:51:14Z</time>
      </trkpt>
      <trkpt lat="36.890835" lon="-5.397216">
        <ele>1448.0</ele>
        <time>2016-09-23T14:51:17Z</time>
      </trkpt>
      <trkpt lat="36.890603" lon="-5.397033">
        <ele>1444.0</ele>
        <time>2016-09-23T14:51:20Z</time>
      </trkpt>
      <trkpt lat="36.890419" lon="-5.396817">
        <ele>1440.0</ele>
        <time>2016-09-23T14:51:23Z</time>
      </trkpt>
      <trkpt lat="36.890217" lon="-5.396533">
        <ele>1437.0</ele>
        <time>2016-09-23T14:51:26Z</time>
      </trkpt>
      <trkpt lat="36.889985" lon="-5.396266">
        <ele>1443.0</ele>
        <time>2016-09-23T14:51:29Z</time>
      </trkpt>
      <trkpt lat="36.889766" lon="-5.396050">
        <ele>1443.0</ele>
        <time>2016-09-23T14:51:32Z</time>
      </trkpt>
      <trkpt lat="36.889503" lon="-5.395867">
        <ele>1441.0</ele>
        <time>2016-09-23T14:51:35Z</time>
      </trkpt>
      <trkpt lat="36.889203" lon="-5.395750">
        <ele>1441.0</ele>
        <time>2016-09-23T14:51:38Z</time>
      </trkpt>
      <trkpt lat="36.888786" lon="-5.395600">
        <ele>1438.0</ele>
        <time>2016-09-23T14:51:42Z</time>
      </trkpt>
      <trkpt lat="36.888469" lon="-5.395566">
        <ele>1441.0</ele>
        <time>2016-09-23T14:51:45Z</time>
      </trkpt>
      <trkpt lat="36.888103" lon="-5.395616">
        <ele>1446.0</ele>
        <time>2016-09-23T14:51:48Z</time>
      </trkpt>
      <trkpt lat="36.887837" lon="-5.395650">
        <ele>1456.0</ele>
        <time>2016-09-23T14:51:51Z</time>
      </trkpt>
      <trkpt lat="36.887601" lon="-5.395783">
        <ele>1457.0</ele>
        <time>2016-09-23T14:51:54Z</time>
      </trkpt>
      <trkpt lat="36.887717" lon="-5.395966">
        <ele>1454.0</ele>
        <time>2016-09-23T14:51:57Z</time>
      </trkpt>
      <trkpt lat="36.887950" lon="-5.395816">
        <ele>1456.0</ele>
        <time>2016-09-23T14:52:00Z</time>
      </trkpt>
      <trkpt lat="36.888069" lon="-5.395533">
        <ele>1461.0</ele>
        <time>2016-09-23T14:52:03Z</time>
      </trkpt>
      <trkpt lat="36.888103" lon="-5.395216">
        <ele>1468.0</ele>
        <time>2016-09-23T14:52:06Z</time>
      </trkpt>
      <trkpt lat="36.888049" lon="-5.394950">
        <ele>1467.0</ele>
        <time>2016-09-23T14:52:09Z</time>
      </trkpt>
      <trkpt lat="36.887885" lon="-5.394633">
        <ele>1464.0</ele>
        <time>2016-09-23T14:52:12Z</time>
      </trkpt>
      <trkpt lat="36.887536" lon="-5.394433">
        <ele>1468.0</ele>
        <time>2016-09-23T14:52:15Z</time>
      </trkpt>
      <trkpt lat="36.887099" lon="-5.394283">
        <ele>1470.0</ele>
        <time>2016-09-23T14:52:19Z</time>
      </trkpt>
      <trkpt lat="36.886768" lon="-5.394333">
        <ele>1475.0</ele>
        <time>2016-09-23T14:52:22Z</time>
      </trkpt>
      <trkpt lat="36.886549" lon="-5.394533">
        <ele>1476.0</ele>
        <time>2016-09-23T14:52:25Z</time>
      </trkpt>
      <trkpt lat="36.886501" lon="-5.394833">
        <ele>1476.0</ele>
        <time>2016-09-23T14:52:28Z</time>
      </trkpt>
      <trkpt lat="36.886703" lon="-5.394900">
        <ele>1478.0</ele>
        <time>2016-09-23T14:52:31Z</time>
      </trkpt>
      <trkpt lat="36.886901" lon="-5.394750">
        <ele>1482.0</ele>
        <time>2016-09-23T14:52:34Z</time>
      </trkpt>
      <trkpt lat="36.887021" lon="-5.394567">
        <ele>1485.0</ele>
        <time>2016-09-23T14:52:37Z</time>
      </trkpt>
      <trkpt lat="36.887068" lon="-5.394300">
        <ele>1483.0</ele>
        <time>2016-09-23T14:52:40Z</time>
      </trkpt>
      <trkpt lat="36.887034" lon="-5.393966">
        <ele>1484.0</ele>
        <time>2016-09-23T14:52:43Z</time>
      </trkpt>
      <trkpt lat="36.886867" lon="-5.393650">
        <ele>1484.0</ele>
        <time>2016-09-23T14:52:46Z</time>
      </trkpt>
      <trkpt lat="36.886570" lon="-5.393416">
        <ele>1486.0</ele>
        <time>2016-09-23T14:52:49Z</time>
      </trkpt>
      <trkpt lat="36.886283" lon="-5.393467">
        <ele>1482.0</ele>
        <time>2016-09-23T14:52:52Z</time>
      </trkpt>
      <trkpt lat="36.886071" lon="-5.393716">
        <ele>1476.0</ele>
        <time>2016-09-23T14:52:55Z</time>
      </trkpt>
      <trkpt lat="36.886071" lon="-5.394017">
        <ele>1475.0</ele>
        <time>2016-09-23T14:52:58Z</time>
      </trkpt>
      <trkpt lat="36.886218" lon="-5.394133">
        <ele>1478.0</ele>
        <time>2016-09-23T14:53:01Z</time>
      </trkpt>
      <trkpt lat="36.886437" lon="-5.394116">
        <ele>1481.0</ele>
        <time>2016-09-23T14:53:05Z</time>
      </trkpt>
      <trkpt lat="36.886583" lon="-5.393984">
        <ele>1483.0</ele>
        <time>2016-09-23T14:53:08Z</time>
      </trkpt>
      <trkpt lat="36.886703" lon="-5.393766">
        <ele>1485.0</ele>
        <time>2016-09-23T14:53:11Z</time>
      </trkpt>
      <trkpt lat="36.886754" lon="-5.393467">
        <ele>1482.0</ele>
        <time>2016-09-23T14:53:14Z</time>
      </trkpt>
      <trkpt lat="36.886754" lon="-5.393116">
        <ele>1477.0</ele>
        <time>2016-09-23T14:53:17Z</time>
      </trkpt>
      <trkpt lat="36.886669" lon="-5.392766">
        <ele>1475.0</ele>
        <time>2016-09-23T14:53:20Z</time>
      </trkpt>
      <trkpt lat="36.886601" lon="-5.392450">
        <ele>1469.0</ele>
        <time>2016-09-23T14:53:23Z</time>
      </trkpt>
      <trkpt lat="36.886484" lon="-5.392100">
        <ele>1464.0</ele>
        <time>2016-09-23T14:53:26Z</time>
      </trkpt>
      <trkpt lat="36.886334" lon="-5.391783">
        <ele>1467.0</ele>
        <time>2016-09-23T14:53:29Z</time>
      </trkpt>
      <trkpt lat="36.886235" lon="-5.391517">
        <ele>1461.0</ele>
        <time>2016-09-23T14:53:32Z</time>
      </trkpt>
      <trkpt lat="36.886102" lon="-5.391167">
        <ele>1459.0</ele>
        <time>2016-09-23T14:53:35Z</time>
      </trkpt>
      <trkpt lat="36.885965" lon="-5.390900">
        <ele>1453.0</ele>
        <time>2016-09-23T14:53:38Z</time>
      </trkpt>
      <trkpt lat="36.885832" lon="-5.390633">
        <ele>1446.0</ele>
        <time>2016-09-23T14:53:41Z</time>
      </trkpt>
      <trkpt lat="36.885586" lon="-5.390317">
        <ele>1441.0</ele>
        <time>2016-09-23T14:53:45Z</time>
      </trkpt>
      <trkpt lat="36.885368" lon="-5.390100">
        <ele>1435.0</ele>
        <time>2016-09-23T14:53:48Z</time>
      </trkpt>
      <trkpt lat="36.885115" lon="-5.389966">
        <ele>1429.0</ele>
        <time>2016-09-23T14:53:51Z</time>
      </trkpt>
      <trkpt lat="36.884883" lon="-5.389767">
        <ele>1420.0</ele>
        <time>2016-09-23T14:53:54Z</time>
      </trkpt>
      <trkpt lat="36.884671" lon="-5.389567">
        <ele>1414.0</ele>
        <time>2016-09-23T14:53:57Z</time>
      </trkpt>
      <trkpt lat="36.884432" lon="-5.389383">
        <ele>1409.0</ele>
        <time>2016-09-23T14:54:00Z</time>
      </trkpt>
      <trkpt lat="36.884220" lon="-5.389216">
        <ele>1402.0</ele>
        <time>2016-09-23T14:54:03Z</time>
      </trkpt>
      <trkpt lat="36.883968" lon="-5.388983">
        <ele>1394.0</ele>
        <time>2016-09-23T14:54:06Z</time>
      </trkpt>
      <trkpt lat="36.883735" lon="-5.388767">
        <ele>1388.0</ele>
        <time>2016-09-23T14:54:09Z</time>
      </trkpt>
      <trkpt lat="36.883483" lon="-5.388566">
        <ele>1379.0</ele>
        <time>2016-09-23T14:54:12Z</time>
      </trkpt>
      <trkpt lat="36.883267" lon="-5.388400">
        <ele>1373.0</ele>
        <time>2016-09-23T14:54:15Z</time>
      </trkpt>
      <trkpt lat="36.883063" lon="-5.388200">
        <ele>1365.0</ele>
        <time>2016-09-23T14:54:18Z</time>
      </trkpt>
      <trkpt lat="36.882817" lon="-5.388017">
        <ele>1361.0</ele>
        <time>2016-09-23T14:54:21Z</time>
      </trkpt>
      <trkpt lat="36.882564" lon="-5.387867">
        <ele>1355.0</ele>
        <time>2016-09-23T14:54:24Z</time>
      </trkpt>
      <trkpt lat="36.882233" lon="-5.387600">
        <ele>1352.0</ele>
        <time>2016-09-23T14:54:28Z</time>
      </trkpt>
      <trkpt lat="36.881966" lon="-5.387483">
        <ele>1351.0</ele>
        <time>2016-09-23T14:54:31Z</time>
      </trkpt>
      <trkpt lat="36.881700" lon="-5.387317">
        <ele>1346.0</ele>
        <time>2016-09-23T14:54:34Z</time>
      </trkpt>
      <trkpt lat="36.881430" lon="-5.387150">
        <ele>1346.0</ele>
        <time>2016-09-23T14:54:37Z</time>
      </trkpt>
      <trkpt lat="36.881181" lon="-5.386983">
        <ele>1342.0</ele>
        <time>2016-09-23T14:54:40Z</time>
      </trkpt>
      <trkpt lat="36.880918" lon="-5.386800">
        <ele>1342.0</ele>
        <time>2016-09-23T14:54:43Z</time>
      </trkpt>
      <trkpt lat="36.880699" lon="-5.386633">
        <ele>1335.0</ele>
        <time>2016-09-23T14:54:46Z</time>
      </trkpt>
      <trkpt lat="36.880447" lon="-5.386466">
        <ele>1335.0</ele>
        <time>2016-09-23T14:54:49Z</time>
      </trkpt>
      <trkpt lat="36.880228" lon="-5.386283">
        <ele>1328.0</ele>
        <time>2016-09-23T14:54:52Z</time>
      </trkpt>
      <trkpt lat="36.879982" lon="-5.386116">
        <ele>1327.0</ele>
        <time>2016-09-23T14:54:55Z</time>
      </trkpt>
      <trkpt lat="36.879764" lon="-5.385950">
        <ele>1322.0</ele>
        <time>2016-09-23T14:54:58Z</time>
      </trkpt>
      <trkpt lat="36.879531" lon="-5.385783">
        <ele>1317.0</ele>
        <time>2016-09-23T14:55:01Z</time>
      </trkpt>
      <trkpt lat="36.879231" lon="-5.385567">
        <ele>1314.0</ele>
        <time>2016-09-23T14:55:05Z</time>
      </trkpt>
      <trkpt lat="36.879046" lon="-5.385366">
        <ele>1308.0</ele>
        <time>2016-09-23T14:55:08Z</time>
      </trkpt>
      <trkpt lat="36.878800" lon="-5.385167">
        <ele>1305.0</ele>
        <time>2016-09-23T14:55:11Z</time>
      </trkpt>
      <trkpt lat="36.878596" lon="-5.385000">
        <ele>1305.0</ele>
        <time>2016-09-23T14:55:14Z</time>
      </trkpt>
      <trkpt lat="36.878350" lon="-5.384817">
        <ele>1300.0</ele>
        <time>2016-09-23T14:55:17Z</time>
      </trkpt>
      <trkpt lat="36.878131" lon="-5.384650">
        <ele>1299.0</ele>
        <time>2016-09-23T14:55:20Z</time>
      </trkpt>
      <trkpt lat="36.877913" lon="-5.384467">
        <ele>1294.0</ele>
        <time>2016-09-23T14:55:23Z</time>
      </trkpt>
      <trkpt lat="36.877667" lon="-5.384266">
        <ele>1293.0</ele>
        <time>2016-09-23T14:55:26Z</time>
      </trkpt>
      <trkpt lat="36.877448" lon="-5.384100">
        <ele>1288.0</ele>
        <time>2016-09-23T14:55:29Z</time>
      </trkpt>
      <trkpt lat="36.877216" lon="-5.383933">
        <ele>1285.0</ele>
        <time>2016-09-23T14:55:32Z</time>
      </trkpt>
      <trkpt lat="36.876949" lon="-5.383750">
        <ele>1285.0</ele>
        <time>2016-09-23T14:55:35Z</time>
      </trkpt>
      <trkpt lat="36.876632" lon="-5.383516">
        <ele>1285.0</ele>
        <time>2016-09-23T14:55:39Z</time>
      </trkpt>
      <trkpt lat="36.876379" lon="-5.383366">
        <ele>1281.0</ele>
        <time>2016-09-23T14:55:42Z</time>
      </trkpt>
      <trkpt lat="36.876133" lon="-5.383183">
        <ele>1276.0</ele>
        <time>2016-09-23T14:55:45Z</time>
      </trkpt>
      <trkpt lat="36.875915" lon="-5.383000">
        <ele>1275.0</ele>
        <time>2016-09-23T14:55:48Z</time>
      </trkpt>
      <trkpt lat="36.875662" lon="-5.382817">
        <ele>1271.0</ele>
        <time>2016-09-23T14:55:51Z</time>
      </trkpt>
      <trkpt lat="36.875464" lon="-5.382617">
        <ele>1272.0</ele>
        <time>2016-09-23T14:55:54Z</time>
      </trkpt>
      <trkpt lat="36.875283" lon="-5.382367">
        <ele>1267.0</ele>
        <time>2016-09-23T14:55:57Z</time>
      </trkpt>
      <trkpt lat="36.875064" lon="-5.382134">
        <ele>1265.0</ele>
        <time>2016-09-23T14:56:00Z</time>
      </trkpt>
      <trkpt lat="36.874846" lon="-5.381883">
        <ele>1262.0</ele>
        <time>2016-09-23T14:56:03Z</time>
      </trkpt>
      <trkpt lat="36.874614" lon="-5.381650">
        <ele>1263.0</ele>
        <time>2016-09-23T14:56:06Z</time>
      </trkpt>
      <trkpt lat="36.874416" lon="-5.381433">
        <ele>1260.0</ele>
        <time>2016-09-23T14:56:09Z</time>
      </trkpt>
      <trkpt lat="36.874180" lon="-5.381250">
        <ele>1258.0</ele>
        <time>2016-09-23T14:56:12Z</time>
      </trkpt>
      <trkpt lat="36.873982" lon="-5.381050">
        <ele>1256.0</ele>
        <time>2016-09-23T14:56:15Z</time>
      </trkpt>
      <trkpt lat="36.873729" lon="-5.380783">
        <ele>1253.0</ele>
        <time>2016-09-23T14:56:19Z</time>
      </trkpt>
      <trkpt lat="36.873565" lon="-5.380517">
        <ele>1251.0</ele>
        <time>2016-09-23T14:56:22Z</time>
      </trkpt>
      <trkpt lat="36.873398" lon="-5.380283">
        <ele>1249.0</ele>
        <time>2016-09-23T14:56:25Z</time>
      </trkpt>
      <trkpt lat="36.873213" lon="-5.380067">
        <ele>1246.0</ele>
        <time>2016-09-23T14:56:28Z</time>
      </trkpt>
      <trkpt lat="36.873015" lon="-5.379850">
        <ele>1244.0</ele>
        <time>2016-09-23T14:56:31Z</time>
      </trkpt>
      <trkpt lat="36.872834" lon="-5.379633">
        <ele>1240.0</ele>
        <time>2016-09-23T14:56:34Z</time>
      </trkpt>
      <trkpt lat="36.872595" lon="-5.379434">
        <ele>1236.0</ele>
        <time>2016-09-23T14:56:37Z</time>
      </trkpt>
      <trkpt lat="36.872383" lon="-5.379250">
        <ele>1233.0</ele>
        <time>2016-09-23T14:56:40Z</time>
      </trkpt>
      <trkpt lat="36.872165" lon="-5.379050">
        <ele>1230.0</ele>
        <time>2016-09-23T14:56:43Z</time>
      </trkpt>
      <trkpt lat="36.871933" lon="-5.378817">
        <ele>1226.0</ele>
        <time>2016-09-23T14:56:46Z</time>
      </trkpt>
      <trkpt lat="36.871697" lon="-5.378567">
        <ele>1222.0</ele>
        <time>2016-09-23T14:56:49Z</time>
      </trkpt>
      <trkpt lat="36.871499" lon="-5.378317">
        <ele>1220.0</ele>
        <time>2016-09-23T14:56:52Z</time>
      </trkpt>
      <trkpt lat="36.871267" lon="-5.378083">
        <ele>1217.0</ele>
        <time>2016-09-23T14:56:55Z</time>
      </trkpt>
      <trkpt lat="36.871048" lon="-5.377850">
        <ele>1213.0</ele>
        <time>2016-09-23T14:56:58Z</time>
      </trkpt>
      <trkpt lat="36.870850" lon="-5.377583">
        <ele>1208.0</ele>
        <time>2016-09-23T14:57:01Z</time>
      </trkpt>
      <trkpt lat="36.870666" lon="-5.377300">
        <ele>1202.0</ele>
        <time>2016-09-23T14:57:04Z</time>
      </trkpt>
      <trkpt lat="36.870498" lon="-5.376984">
        <ele>1195.0</ele>
        <time>2016-09-23T14:57:07Z</time>
      </trkpt>
      <trkpt lat="36.870314" lon="-5.376667">
        <ele>1189.0</ele>
        <time>2016-09-23T14:57:10Z</time>
      </trkpt>
      <trkpt lat="36.870112" lon="-5.376367">
        <ele>1184.0</ele>
        <time>2016-09-23T14:57:13Z</time>
      </trkpt>
      <trkpt lat="36.869832" lon="-5.375983">
        <ele>1178.0</ele>
        <time>2016-09-23T14:57:17Z</time>
      </trkpt>
      <trkpt lat="36.869631" lon="-5.375717">
        <ele>1174.0</ele>
        <time>2016-09-23T14:57:20Z</time>
      </trkpt>
      <trkpt lat="36.869416" lon="-5.375450">
        <ele>1170.0</ele>
        <time>2016-09-23T14:57:23Z</time>
      </trkpt>
      <trkpt lat="36.869214" lon="-5.375200">
        <ele>1168.0</ele>
        <time>2016-09-23T14:57:26Z</time>
      </trkpt>
      <trkpt lat="36.868999" lon="-5.374933">
        <ele>1163.0</ele>
        <time>2016-09-23T14:57:29Z</time>
      </trkpt>
      <trkpt lat="36.868798" lon="-5.374633">
        <ele>1160.0</ele>
        <time>2016-09-23T14:57:32Z</time>
      </trkpt>
      <trkpt lat="36.868579" lon="-5.374333">
        <ele>1155.0</ele>
        <time>2016-09-23T14:57:35Z</time>
      </trkpt>
      <trkpt lat="36.868381" lon="-5.374050">
        <ele>1147.0</ele>
        <time>2016-09-23T14:57:38Z</time>
      </trkpt>
      <trkpt lat="36.868162" lon="-5.373733">
        <ele>1141.0</ele>
        <time>2016-09-23T14:57:41Z</time>
      </trkpt>
      <trkpt lat="36.867964" lon="-5.373450">
        <ele>1137.0</ele>
        <time>2016-09-23T14:57:44Z</time>
      </trkpt>
      <trkpt lat="36.867715" lon="-5.373233">
        <ele>1129.0</ele>
        <time>2016-09-23T14:57:47Z</time>
      </trkpt>
      <trkpt lat="36.867445" lon="-5.372983">
        <ele>1127.0</ele>
        <time>2016-09-23T14:57:50Z</time>
      </trkpt>
      <trkpt lat="36.867199" lon="-5.372784">
        <ele>1119.0</ele>
        <time>2016-09-23T14:57:53Z</time>
      </trkpt>
      <trkpt lat="36.866813" lon="-5.372483">
        <ele>1117.0</ele>
        <time>2016-09-23T14:57:57Z</time>
      </trkpt>
      <trkpt lat="36.866581" lon="-5.372250">
        <ele>1109.0</ele>
        <time>2016-09-23T14:58:00Z</time>
      </trkpt>
      <trkpt lat="36.866315" lon="-5.372000">
        <ele>1106.0</ele>
        <time>2016-09-23T14:58:03Z</time>
      </trkpt>
      <trkpt lat="36.866083" lon="-5.371767">
        <ele>1098.0</ele>
        <time>2016-09-23T14:58:06Z</time>
      </trkpt>
      <trkpt lat="36.865847" lon="-5.371483">
        <ele>1093.0</ele>
        <time>2016-09-23T14:58:09Z</time>
      </trkpt>
      <trkpt lat="36.865649" lon="-5.371217">
        <ele>1090.0</ele>
        <time>2016-09-23T14:58:12Z</time>
      </trkpt>
      <trkpt lat="36.865434" lon="-5.370933">
        <ele>1086.0</ele>
        <time>2016-09-23T14:58:15Z</time>
      </trkpt>
      <trkpt lat="36.865229" lon="-5.370684">
        <ele>1081.0</ele>
        <time>2016-09-23T14:58:18Z</time>
      </trkpt>
      <trkpt lat="36.865031" lon="-5.370400">
        <ele>1075.0</ele>
        <time>2016-09-23T14:58:21Z</time>
      </trkpt>
      <trkpt lat="36.864829" lon="-5.370133">
        <ele>1067.0</ele>
        <time>2016-09-23T14:58:24Z</time>
      </trkpt>
      <trkpt lat="36.864648" lon="-5.369850">
        <ele>1060.0</ele>
        <time>2016-09-23T14:58:27Z</time>
      </trkpt>
      <trkpt lat="36.864433" lon="-5.369584">
        <ele>1055.0</ele>
        <time>2016-09-23T14:58:30Z</time>
      </trkpt>
      <trkpt lat="36.864249" lon="-5.369317">
        <ele>1049.0</ele>
        <time>2016-09-23T14:58:33Z</time>
      </trkpt>
      <trkpt lat="36.864064" lon="-5.369050">
        <ele>1041.0</ele>
        <time>2016-09-23T14:58:36Z</time>
      </trkpt>
      <trkpt lat="36.863815" lon="-5.368667">
        <ele>1033.0</ele>
        <time>2016-09-23T14:58:40Z</time>
      </trkpt>
      <trkpt lat="36.863665" lon="-5.368384">
        <ele>1027.0</ele>
        <time>2016-09-23T14:58:43Z</time>
      </trkpt>
      <trkpt lat="36.863515" lon="-5.368083">
        <ele>1020.0</ele>
        <time>2016-09-23T14:58:46Z</time>
      </trkpt>
      <trkpt lat="36.863364" lon="-5.367767">
        <ele>1011.0</ele>
        <time>2016-09-23T14:58:49Z</time>
      </trkpt>
      <trkpt lat="36.863197" lon="-5.367433">
        <ele>1003.0</ele>
        <time>2016-09-23T14:58:52Z</time>
      </trkpt>
      <trkpt lat="36.863033" lon="-5.367117">
        <ele>1001.0</ele>
        <time>2016-09-23T14:58:55Z</time>
      </trkpt>
      <trkpt lat="36.862879" lon="-5.366800">
        <ele>997.0</ele>
        <time>2016-09-23T14:58:58Z</time>
      </trkpt>
      <trkpt lat="36.862767" lon="-5.366500">
        <ele>990.0</ele>
        <time>2016-09-23T14:59:01Z</time>
      </trkpt>
      <trkpt lat="36.862633" lon="-5.366116">
        <ele>977.0</ele>
        <time>2016-09-23T14:59:04Z</time>
      </trkpt>
      <trkpt lat="36.862534" lon="-5.365716">
        <ele>977.0</ele>
        <time>2016-09-23T14:59:07Z</time>
      </trkpt>
      <trkpt lat="36.862449" lon="-5.365417">
        <ele>969.0</ele>
        <time>2016-09-23T14:59:10Z</time>
      </trkpt>
      <trkpt lat="36.862381" lon="-5.365083">
        <ele>963.0</ele>
        <time>2016-09-23T14:59:13Z</time>
      </trkpt>
      <trkpt lat="36.862316" lon="-5.364767">
        <ele>955.0</ele>
        <time>2016-09-23T14:59:16Z</time>
      </trkpt>
      <trkpt lat="36.862230" lon="-5.364417">
        <ele>946.0</ele>
        <time>2016-09-23T14:59:19Z</time>
      </trkpt>
      <trkpt lat="36.862097" lon="-5.363950">
        <ele>938.0</ele>
        <time>2016-09-23T14:59:23Z</time>
      </trkpt>
      <trkpt lat="36.861981" lon="-5.363567">
        <ele>932.0</ele>
        <time>2016-09-23T14:59:26Z</time>
      </trkpt>
      <trkpt lat="36.861848" lon="-5.363233">
        <ele>929.0</ele>
        <time>2016-09-23T14:59:29Z</time>
      </trkpt>
      <trkpt lat="36.861749" lon="-5.362900">
        <ele>921.0</ele>
        <time>2016-09-23T14:59:32Z</time>
      </trkpt>
      <trkpt lat="36.861585" lon="-5.362550">
        <ele>917.0</ele>
        <time>2016-09-23T14:59:35Z</time>
      </trkpt>
      <trkpt lat="36.861465" lon="-5.362183">
        <ele>911.0</ele>
        <time>2016-09-23T14:59:38Z</time>
      </trkpt>
      <trkpt lat="36.861366" lon="-5.361766">
        <ele>907.0</ele>
        <time>2016-09-23T14:59:41Z</time>
      </trkpt>
      <trkpt lat="36.861247" lon="-5.361383">
        <ele>906.0</ele>
        <time>2016-09-23T14:59:44Z</time>
      </trkpt>
      <trkpt lat="36.861066" lon="-5.361017">
        <ele>904.0</ele>
        <time>2016-09-23T14:59:47Z</time>
      </trkpt>
      <trkpt lat="36.860881" lon="-5.360667">
        <ele>899.0</ele>
        <time>2016-09-23T14:59:50Z</time>
      </trkpt>
      <trkpt lat="36.860697" lon="-5.360333">
        <ele>892.0</ele>
        <time>2016-09-23T14:59:53Z</time>
      </trkpt>
      <trkpt lat="36.860516" lon="-5.360016">
        <ele>888.0</ele>
        <time>2016-09-23T14:59:56Z</time>
      </trkpt>
      <trkpt lat="36.860297" lon="-5.359683">
        <ele>881.0</ele>
        <time>2016-09-23T14:59:59Z</time>
      </trkpt>
      <trkpt lat="36.860130" lon="-5.359316">
        <ele>878.0</ele>
        <time>2016-09-23T15:00:02Z</time>
      </trkpt>
      <trkpt lat="36.859997" lon="-5.358783">
        <ele>870.0</ele>
        <time>2016-09-23T15:00:06Z</time>
      </trkpt>
      <trkpt lat="36.859833" lon="-5.358383">
        <ele>872.0</ele>
        <time>2016-09-23T15:00:09Z</time>
      </trkpt>
      <trkpt lat="36.859649" lon="-5.358050">
        <ele>871.0</ele>
        <time>2016-09-23T15:00:12Z</time>
      </trkpt>
      <trkpt lat="36.859447" lon="-5.357717">
        <ele>871.0</ele>
        <time>2016-09-23T15:00:15Z</time>
      </trkpt>
      <trkpt lat="36.859229" lon="-5.357450">
        <ele>870.0</ele>
        <time>2016-09-23T15:00:18Z</time>
      </trkpt>
      <trkpt lat="36.858996" lon="-5.357167">
        <ele>865.0</ele>
        <time>2016-09-23T15:00:21Z</time>
      </trkpt>
      <trkpt lat="36.858750" lon="-5.356833">
        <ele>864.0</ele>
        <time>2016-09-23T15:00:24Z</time>
      </trkpt>
      <trkpt lat="36.858515" lon="-5.356533">
        <ele>860.0</ele>
        <time>2016-09-23T15:00:27Z</time>
      </trkpt>
      <trkpt lat="36.858248" lon="-5.356216">
        <ele>858.0</ele>
        <time>2016-09-23T15:00:30Z</time>
      </trkpt>
      <trkpt lat="36.858033" lon="-5.355916">
        <ele>852.0</ele>
        <time>2016-09-23T15:00:33Z</time>
      </trkpt>
      <trkpt lat="36.857764" lon="-5.355617">
        <ele>849.0</ele>
        <time>2016-09-23T15:00:36Z</time>
      </trkpt>
      <trkpt lat="36.857565" lon="-5.355283">
        <ele>844.0</ele>
        <time>2016-09-23T15:00:39Z</time>
      </trkpt>
      <trkpt lat="36.857398" lon="-5.354883">
        <ele>839.0</ele>
        <time>2016-09-23T15:00:42Z</time>
      </trkpt>
      <trkpt lat="36.857197" lon="-5.354416">
        <ele>841.0</ele>
        <time>2016-09-23T15:00:45Z</time>
      </trkpt>
      <trkpt lat="36.856981" lon="-5.353850">
        <ele>840.0</ele>
        <time>2016-09-23T15:00:49Z</time>
      </trkpt>
      <trkpt lat="36.856746" lon="-5.353483">
        <ele>837.0</ele>
        <time>2016-09-23T15:00:52Z</time>
      </trkpt>
      <trkpt lat="36.856565" lon="-5.353133">
        <ele>838.0</ele>
        <time>2016-09-23T15:00:55Z</time>
      </trkpt>
      <trkpt lat="36.856363" lon="-5.352783">
        <ele>834.0</ele>
        <time>2016-09-23T15:00:58Z</time>
      </trkpt>
      <trkpt lat="36.856165" lon="-5.352400">
        <ele>832.0</ele>
        <time>2016-09-23T15:01:01Z</time>
      </trkpt>
      <trkpt lat="36.855964" lon="-5.352033">
        <ele>829.0</ele>
        <time>2016-09-23T15:01:04Z</time>
      </trkpt>
      <trkpt lat="36.855783" lon="-5.351683">
        <ele>826.0</ele>
        <time>2016-09-23T15:01:07Z</time>
      </trkpt>
      <trkpt lat="36.855581" lon="-5.351300">
        <ele>819.0</ele>
        <time>2016-09-23T15:01:10Z</time>
      </trkpt>
      <trkpt lat="36.855400" lon="-5.350900">
        <ele>814.0</ele>
        <time>2016-09-23T15:01:13Z</time>
      </trkpt>
      <trkpt lat="36.855182" lon="-5.350500">
        <ele>813.0</ele>
        <time>2016-09-23T15:01:16Z</time>
      </trkpt>
      <trkpt lat="36.855014" lon="-5.350117">
        <ele>812.0</ele>
        <time>2016-09-23T15:01:19Z</time>
      </trkpt>
      <trkpt lat="36.854847" lon="-5.349817">
        <ele>806.0</ele>
        <time>2016-09-23T15:01:22Z</time>
      </trkpt>
      <trkpt lat="36.854632" lon="-5.349500">
        <ele>804.0</ele>
        <time>2016-09-23T15:01:25Z</time>
      </trkpt>
      <trkpt lat="36.854365" lon="-5.349167">
        <ele>798.0</ele>
        <time>2016-09-23T15:01:29Z</time>
      </trkpt>
      <trkpt lat="36.854164" lon="-5.348833">
        <ele>794.0</ele>
        <time>2016-09-23T15:01:32Z</time>
      </trkpt>
      <trkpt lat="36.853945" lon="-5.348517">
        <ele>789.0</ele>
        <time>2016-09-23T15:01:35Z</time>
      </trkpt>
      <trkpt lat="36.853764" lon="-5.348150">
        <ele>787.0</ele>
        <time>2016-09-23T15:01:38Z</time>
      </trkpt>
      <trkpt lat="36.853566" lon="-5.347800">
        <ele>782.0</ele>
        <time>2016-09-23T15:01:41Z</time>
      </trkpt>
      <trkpt lat="36.853348" lon="-5.347434">
        <ele>783.0</ele>
        <time>2016-09-23T15:01:44Z</time>
      </trkpt>
      <trkpt lat="36.853197" lon="-5.347084">
        <ele>780.0</ele>
        <time>2016-09-23T15:01:47Z</time>
      </trkpt>
      <trkpt lat="36.852996" lon="-5.346700">
        <ele>778.0</ele>
        <time>2016-09-23T15:01:50Z</time>
      </trkpt>
      <trkpt lat="36.852784" lon="-5.346300">
        <ele>777.0</ele>
        <time>2016-09-23T15:01:53Z</time>
      </trkpt>
      <trkpt lat="36.852579" lon="-5.345934">
        <ele>783.0</ele>
        <time>2016-09-23T15:01:56Z</time>
      </trkpt>
      <trkpt lat="36.852364" lon="-5.345700">
        <ele>786.0</ele>
        <time>2016-09-23T15:01:59Z</time>
      </trkpt>
      <trkpt lat="36.852132" lon="-5.345650">
        <ele>788.0</ele>
        <time>2016-09-23T15:02:02Z</time>
      </trkpt>
      <trkpt lat="36.852101" lon="-5.345784">
        <ele>790.0</ele>
        <time>2016-09-23T15:02:05Z</time>
      </trkpt>
      <trkpt lat="36.852282" lon="-5.345867">
        <ele>797.0</ele>
        <time>2016-09-23T15:02:09Z</time>
      </trkpt>
      <trkpt lat="36.852446" lon="-5.345784">
        <ele>797.0</ele>
        <time>2016-09-23T15:02:12Z</time>
      </trkpt>
      <trkpt lat="36.852678" lon="-5.345517">
        <ele>796.0</ele>
        <time>2016-09-23T15:02:15Z</time>
      </trkpt>
      <trkpt lat="36.852713" lon="-5.345034">
        <ele>796.0</ele>
        <time>2016-09-23T15:02:18Z</time>
      </trkpt>
      <trkpt lat="36.852631" lon="-5.344550">
        <ele>798.0</ele>
        <time>2016-09-23T15:02:21Z</time>
      </trkpt>
      <trkpt lat="36.852433" lon="-5.344250">
        <ele>801.0</ele>
        <time>2016-09-23T15:02:24Z</time>
      </trkpt>
      <trkpt lat="36.852214" lon="-5.344050">
        <ele>804.0</ele>
        <time>2016-09-23T15:02:27Z</time>
      </trkpt>
      <trkpt lat="36.851995" lon="-5.343984">
        <ele>805.0</ele>
        <time>2016-09-23T15:02:30Z</time>
      </trkpt>
      <trkpt lat="36.851797" lon="-5.344000">
        <ele>801.0</ele>
        <time>2016-09-23T15:02:33Z</time>
      </trkpt>
      <trkpt lat="36.851616" lon="-5.344083">
        <ele>800.0</ele>
        <time>2016-09-23T15:02:36Z</time>
      </trkpt>
      <trkpt lat="36.851483" lon="-5.344217">
        <ele>798.0</ele>
        <time>2016-09-23T15:02:39Z</time>
      </trkpt>
      <trkpt lat="36.851548" lon="-5.344367">
        <ele>803.0</ele>
        <time>2016-09-23T15:02:42Z</time>
      </trkpt>
      <trkpt lat="36.851715" lon="-5.344350">
        <ele>801.0</ele>
        <time>2016-09-23T15:02:45Z</time>
      </trkpt>
      <trkpt lat="36.851948" lon="-5.344200">
        <ele>799.0</ele>
        <time>2016-09-23T15:02:48Z</time>
      </trkpt>
      <trkpt lat="36.852115" lon="-5.343634">
        <ele>797.0</ele>
        <time>2016-09-23T15:02:52Z</time>
      </trkpt>
      <trkpt lat="36.852047" lon="-5.343217">
        <ele>798.0</ele>
        <time>2016-09-23T15:02:55Z</time>
      </trkpt>
      <trkpt lat="36.851883" lon="-5.342867">
        <ele>797.0</ele>
        <time>2016-09-23T15:02:58Z</time>
      </trkpt>
      <trkpt lat="36.851698" lon="-5.342483">
        <ele>796.0</ele>
        <time>2016-09-23T15:03:01Z</time>
      </trkpt>
      <trkpt lat="36.851483" lon="-5.342217">
        <ele>796.0</ele>
        <time>2016-09-23T15:03:04Z</time>
      </trkpt>
      <trkpt lat="36.851265" lon="-5.341983">
        <ele>794.0</ele>
        <time>2016-09-23T15:03:07Z</time>
      </trkpt>
      <trkpt lat="36.851046" lon="-5.341717">
        <ele>792.0</ele>
        <time>2016-09-23T15:03:10Z</time>
      </trkpt>
      <trkpt lat="36.850848" lon="-5.341433">
        <ele>793.0</ele>
        <time>2016-09-23T15:03:13Z</time>
      </trkpt>
      <trkpt lat="36.850646" lon="-5.341134">
        <ele>796.0</ele>
        <time>2016-09-23T15:03:16Z</time>
      </trkpt>
      <trkpt lat="36.850448" lon="-5.340900">
        <ele>801.0</ele>
        <time>2016-09-23T15:03:19Z</time>
      </trkpt>
      <trkpt lat="36.850264" lon="-5.340767">
        <ele>798.0</ele>
        <time>2016-09-23T15:03:22Z</time>
      </trkpt>
      <trkpt lat="36.850062" lon="-5.340817">
        <ele>793.0</ele>
        <time>2016-09-23T15:03:25Z</time>
      </trkpt>
      <trkpt lat="36.849851" lon="-5.340650">
        <ele>788.0</ele>
        <time>2016-09-23T15:03:28Z</time>
      </trkpt>
      <trkpt lat="36.849717" lon="-5.340333">
        <ele>786.0</ele>
        <time>2016-09-23T15:03:31Z</time>
      </trkpt>
      <trkpt lat="36.849547" lon="-5.339817">
        <ele>787.0</ele>
        <time>2016-09-23T15:03:35Z</time>
      </trkpt>
      <trkpt lat="36.849349" lon="-5.339517">
        <ele>784.0</ele>
        <time>2016-09-23T15:03:38Z</time>
      </trkpt>
      <trkpt lat="36.849168" lon="-5.339183">
        <ele>790.0</ele>
        <time>2016-09-23T15:03:41Z</time>
      </trkpt>
      <trkpt lat="36.848963" lon="-5.338933">
        <ele>789.0</ele>
        <time>2016-09-23T15:03:44Z</time>
      </trkpt>
      <trkpt lat="36.848782" lon="-5.338617">
        <ele>787.0</ele>
        <time>2016-09-23T15:03:47Z</time>
      </trkpt>
      <trkpt lat="36.848632" lon="-5.338233">
        <ele>787.0</ele>
        <time>2016-09-23T15:03:50Z</time>
      </trkpt>
      <trkpt lat="36.848614" lon="-5.337817">
        <ele>787.0</ele>
        <time>2016-09-23T15:03:53Z</time>
      </trkpt>
      <trkpt lat="36.848614" lon="-5.337383">
        <ele>786.0</ele>
        <time>2016-09-23T15:03:56Z</time>
      </trkpt>
      <trkpt lat="36.848649" lon="-5.336983">
        <ele>785.0</ele>
        <time>2016-09-23T15:03:59Z</time>
      </trkpt>
      <trkpt lat="36.848748" lon="-5.336600">
        <ele>784.0</ele>
        <time>2016-09-23T15:04:02Z</time>
      </trkpt>
      <trkpt lat="36.848850" lon="-5.336233">
        <ele>785.0</ele>
        <time>2016-09-23T15:04:05Z</time>
      </trkpt>
      <trkpt lat="36.848963" lon="-5.335934">
        <ele>782.0</ele>
        <time>2016-09-23T15:04:08Z</time>
      </trkpt>
      <trkpt lat="36.849215" lon="-5.335917">
        <ele>779.0</ele>
        <time>2016-09-23T15:04:12Z</time>
      </trkpt>
      <trkpt lat="36.849065" lon="-5.336066">
        <ele>779.0</ele>
        <time>2016-09-23T15:04:15Z</time>
      </trkpt>
      <trkpt lat="36.848881" lon="-5.336033">
        <ele>779.0</ele>
        <time>2016-09-23T15:04:18Z</time>
      </trkpt>
      <trkpt lat="36.848632" lon="-5.335983">
        <ele>776.0</ele>
        <time>2016-09-23T15:04:21Z</time>
      </trkpt>
      <trkpt lat="36.848382" lon="-5.335917">
        <ele>777.0</ele>
        <time>2016-09-23T15:04:24Z</time>
      </trkpt>
      <trkpt lat="36.848147" lon="-5.335934">
        <ele>777.0</ele>
        <time>2016-09-23T15:04:27Z</time>
      </trkpt>
      <trkpt lat="36.847948" lon="-5.335900">
        <ele>777.0</ele>
        <time>2016-09-23T15:04:30Z</time>
      </trkpt>
      <trkpt lat="36.847716" lon="-5.335934">
        <ele>778.0</ele>
        <time>2016-09-23T15:04:33Z</time>
      </trkpt>
      <trkpt lat="36.847528" lon="-5.335983">
        <ele>783.0</ele>
        <time>2016-09-23T15:04:36Z</time>
      </trkpt>
      <trkpt lat="36.847330" lon="-5.336066">
        <ele>786.0</ele>
        <time>2016-09-23T15:04:39Z</time>
      </trkpt>
      <trkpt lat="36.847214" lon="-5.336184">
        <ele>790.0</ele>
        <time>2016-09-23T15:04:42Z</time>
      </trkpt>
      <trkpt lat="36.847265" lon="-5.336367">
        <ele>792.0</ele>
        <time>2016-09-23T15:04:45Z</time>
      </trkpt>
      <trkpt lat="36.847464" lon="-5.336383">
        <ele>794.0</ele>
        <time>2016-09-23T15:04:48Z</time>
      </trkpt>
      <trkpt lat="36.847699" lon="-5.336184">
        <ele>794.0</ele>
        <time>2016-09-23T15:04:51Z</time>
      </trkpt>
      <trkpt lat="36.847914" lon="-5.335850">
        <ele>792.0</ele>
        <time>2016-09-23T15:04:55Z</time>
      </trkpt>
      <trkpt lat="36.848082" lon="-5.335600">
        <ele>792.0</ele>
        <time>2016-09-23T15:04:58Z</time>
      </trkpt>
      <trkpt lat="36.848246" lon="-5.335367">
        <ele>791.0</ele>
        <time>2016-09-23T15:05:01Z</time>
      </trkpt>
      <trkpt lat="36.848430" lon="-5.335150">
        <ele>792.0</ele>
        <time>2016-09-23T15:05:04Z</time>
      </trkpt>
      <trkpt lat="36.848597" lon="-5.335083">
        <ele>792.0</ele>
        <time>2016-09-23T15:05:07Z</time>
      </trkpt>
      <trkpt lat="36.848795" lon="-5.335133">
        <ele>790.0</ele>
        <time>2016-09-23T15:05:10Z</time>
      </trkpt>
      <trkpt lat="36.848696" lon="-5.335267">
        <ele>790.0</ele>
        <time>2016-09-23T15:05:13Z</time>
      </trkpt>
      <trkpt lat="36.848481" lon="-5.335283">
        <ele>793.0</ele>
        <time>2016-09-23T15:05:16Z</time>
      </trkpt>
      <trkpt lat="36.848297" lon="-5.335400">
        <ele>794.0</ele>
        <time>2016-09-23T15:05:19Z</time>
      </trkpt>
      <trkpt lat="36.848112" lon="-5.335500">
        <ele>796.0</ele>
        <time>2016-09-23T15:05:22Z</time>
      </trkpt>
      <trkpt lat="36.847948" lon="-5.335600">
        <ele>796.0</ele>
        <time>2016-09-23T15:05:25Z</time>
      </trkpt>
      <trkpt lat="36.847768" lon="-5.335683">
        <ele>798.0</ele>
        <time>2016-09-23T15:05:28Z</time>
      </trkpt>
      <trkpt lat="36.847549" lon="-5.335750">
        <ele>801.0</ele>
        <time>2016-09-23T15:05:31Z</time>
      </trkpt>
      <trkpt lat="36.847330" lon="-5.335800">
        <ele>803.0</ele>
        <time>2016-09-23T15:05:34Z</time>
      </trkpt>
      <trkpt lat="36.846965" lon="-5.335833">
        <ele>805.0</ele>
        <time>2016-09-23T15:05:38Z</time>
      </trkpt>
      <trkpt lat="36.846699" lon="-5.335784">
        <ele>813.0</ele>
        <time>2016-09-23T15:05:41Z</time>
      </trkpt>
      <trkpt lat="36.846480" lon="-5.335683">
        <ele>819.0</ele>
        <time>2016-09-23T15:05:44Z</time>
      </trkpt>
      <trkpt lat="36.846234" lon="-5.335584">
        <ele>827.0</ele>
        <time>2016-09-23T15:05:47Z</time>
      </trkpt>
      <trkpt lat="36.845995" lon="-5.335483">
        <ele>833.0</ele>
        <time>2016-09-23T15:05:50Z</time>
      </trkpt>
      <trkpt lat="36.845797" lon="-5.335350">
        <ele>840.0</ele>
        <time>2016-09-23T15:05:53Z</time>
      </trkpt>
      <trkpt lat="36.845582" lon="-5.335234">
        <ele>844.0</ele>
        <time>2016-09-23T15:05:56Z</time>
      </trkpt>
      <trkpt lat="36.845350" lon="-5.335133">
        <ele>851.0</ele>
        <time>2016-09-23T15:05:59Z</time>
      </trkpt>
      <trkpt lat="36.845131" lon="-5.335067">
        <ele>859.0</ele>
        <time>2016-09-23T15:06:02Z</time>
      </trkpt>
      <trkpt lat="36.844947" lon="-5.335050">
        <ele>866.0</ele>
        <time>2016-09-23T15:06:05Z</time>
      </trkpt>
      <trkpt lat="36.844865" lon="-5.335167">
        <ele>871.0</ele>
        <time>2016-09-23T15:06:08Z</time>
      </trkpt>
      <trkpt lat="36.845015" lon="-5.335267">
        <ele>880.0</ele>
        <time>2016-09-23T15:06:11Z</time>
      </trkpt>
      <trkpt lat="36.845165" lon="-5.335300">
        <ele>885.0</ele>
        <time>2016-09-23T15:06:14Z</time>
      </trkpt>
      <trkpt lat="36.845397" lon="-5.335400">
        <ele>893.0</ele>
        <time>2016-09-23T15:06:18Z</time>
      </trkpt>
      <trkpt lat="36.845551" lon="-5.335417">
        <ele>901.0</ele>
        <time>2016-09-23T15:06:21Z</time>
      </trkpt>
      <trkpt lat="36.845681" lon="-5.335500">
        <ele>908.0</ele>
        <time>2016-09-23T15:06:24Z</time>
      </trkpt>
      <trkpt lat="36.845797" lon="-5.335567">
        <ele>912.0</ele>
        <time>2016-09-23T15:06:27Z</time>
      </trkpt>
      <trkpt lat="36.845947" lon="-5.335617">
        <ele>918.0</ele>
        <time>2016-09-23T15:06:30Z</time>
      </trkpt>
      <trkpt lat="36.846080" lon="-5.335617">
        <ele>928.0</ele>
        <time>2016-09-23T15:06:33Z</time>
      </trkpt>
      <trkpt lat="36.846200" lon="-5.335633">
        <ele>937.0</ele>
        <time>2016-09-23T15:06:36Z</time>
      </trkpt>
      <trkpt lat="36.846367" lon="-5.335584">
        <ele>949.0</ele>
        <time>2016-09-23T15:06:39Z</time>
      </trkpt>
      <trkpt lat="36.846514" lon="-5.335467">
        <ele>961.0</ele>
        <time>2016-09-23T15:06:42Z</time>
      </trkpt>
      <trkpt lat="36.846634" lon="-5.335500">
        <ele>975.0</ele>
        <time>2016-09-23T15:06:45Z</time>
      </trkpt>
      <trkpt lat="36.846699" lon="-5.335617">
        <ele>980.0</ele>
        <time>2016-09-23T15:06:48Z</time>
      </trkpt>
      <trkpt lat="36.846746" lon="-5.335767">
        <ele>980.0</ele>
        <time>2016-09-23T15:06:51Z</time>
      </trkpt>
      <trkpt lat="36.846647" lon="-5.335950">
        <ele>978.0</ele>
        <time>2016-09-23T15:06:54Z</time>
      </trkpt>
      <trkpt lat="36.846381" lon="-5.336017">
        <ele>977.0</ele>
        <time>2016-09-23T15:06:57Z</time>
      </trkpt>
      <trkpt lat="36.846050" lon="-5.335683">
        <ele>975.0</ele>
        <time>2016-09-23T15:07:01Z</time>
      </trkpt>
      <trkpt lat="36.845814" lon="-5.335300">
        <ele>979.0</ele>
        <time>2016-09-23T15:07:04Z</time>
      </trkpt>
      <trkpt lat="36.845599" lon="-5.334916">
        <ele>990.0</ele>
        <time>2016-09-23T15:07:07Z</time>
      </trkpt>
      <trkpt lat="36.845418" lon="-5.334583">
        <ele>1003.0</ele>
        <time>2016-09-23T15:07:10Z</time>
      </trkpt>
      <trkpt lat="36.845199" lon="-5.334300">
        <ele>1011.0</ele>
        <time>2016-09-23T15:07:13Z</time>
      </trkpt>
      <trkpt lat="36.844967" lon="-5.334000">
        <ele>1020.0</ele>
        <time>2016-09-23T15:07:16Z</time>
      </trkpt>
      <trkpt lat="36.844714" lon="-5.333767">
        <ele>1029.0</ele>
        <time>2016-09-23T15:07:19Z</time>
      </trkpt>
      <trkpt lat="36.844482" lon="-5.333600">
        <ele>1038.0</ele>
        <time>2016-09-23T15:07:22Z</time>
      </trkpt>
      <trkpt lat="36.844250" lon="-5.333500">
        <ele>1045.0</ele>
        <time>2016-09-23T15:07:25Z</time>
      </trkpt>
      <trkpt lat="36.844066" lon="-5.333517">
        <ele>1054.0</ele>
        <time>2016-09-23T15:07:28Z</time>
      </trkpt>
      <trkpt lat="36.843915" lon="-5.333600">
        <ele>1064.0</ele>
        <time>2016-09-23T15:07:31Z</time>
      </trkpt>
      <trkpt lat="36.843779" lon="-5.333650">
        <ele>1073.0</ele>
        <time>2016-09-23T15:07:34Z</time>
      </trkpt>
      <trkpt lat="36.843632" lon="-5.333734">
        <ele>1078.0</ele>
        <time>2016-09-23T15:07:37Z</time>
      </trkpt>
      <trkpt lat="36.843581" lon="-5.333867">
        <ele>1084.0</ele>
        <time>2016-09-23T15:07:40Z</time>
      </trkpt>
      <trkpt lat="36.843546" lon="-5.334017">
        <ele>1091.0</ele>
        <time>2016-09-23T15:07:43Z</time>
      </trkpt>
      <trkpt lat="36.843598" lon="-5.334167">
        <ele>1098.0</ele>
        <time>2016-09-23T15:07:47Z</time>
      </trkpt>
      <trkpt lat="36.843645" lon="-5.334283">
        <ele>1104.0</ele>
        <time>2016-09-23T15:07:50Z</time>
      </trkpt>
      <trkpt lat="36.843765" lon="-5.334267">
        <ele>1104.0</ele>
        <time>2016-09-23T15:07:53Z</time>
      </trkpt>
      <trkpt lat="36.843949" lon="-5.334167">
        <ele>1108.0</ele>
        <time>2016-09-23T15:07:56Z</time>
      </trkpt>
      <trkpt lat="36.844066" lon="-5.333983">
        <ele>1112.0</ele>
        <time>2016-09-23T15:07:59Z</time>
      </trkpt>
      <trkpt lat="36.844165" lon="-5.333717">
        <ele>1110.0</ele>
        <time>2016-09-23T15:08:02Z</time>
      </trkpt>
      <trkpt lat="36.844229" lon="-5.333384">
        <ele>1111.0</ele>
        <time>2016-09-23T15:08:05Z</time>
      </trkpt>
      <trkpt lat="36.844199" lon="-5.332934">
        <ele>1111.0</ele>
        <time>2016-09-23T15:08:08Z</time>
      </trkpt>
      <trkpt lat="36.844018" lon="-5.332500">
        <ele>1113.0</ele>
        <time>2016-09-23T15:08:11Z</time>
      </trkpt>
      <trkpt lat="36.843714" lon="-5.332217">
        <ele>1117.0</ele>
        <time>2016-09-23T15:08:14Z</time>
      </trkpt>
      <trkpt lat="36.843434" lon="-5.332117">
        <ele>1122.0</ele>
        <time>2016-09-23T15:08:17Z</time>
      </trkpt>
      <trkpt lat="36.843198" lon="-5.332183">
        <ele>1130.0</ele>
        <time>2016-09-23T15:08:20Z</time>
      </trkpt>
      <trkpt lat="36.843014" lon="-5.332233">
        <ele>1131.0</ele>
        <time>2016-09-23T15:08:23Z</time>
      </trkpt>
      <trkpt lat="36.842898" lon="-5.332417">
        <ele>1135.0</ele>
        <time>2016-09-23T15:08:27Z</time>
      </trkpt>
      <trkpt lat="36.842863" lon="-5.332550">
        <ele>1137.0</ele>
        <time>2016-09-23T15:08:30Z</time>
      </trkpt>
      <trkpt lat="36.842898" lon="-5.332683">
        <ele>1140.0</ele>
        <time>2016-09-23T15:08:33Z</time>
      </trkpt>
      <trkpt lat="36.842983" lon="-5.332716">
        <ele>1141.0</ele>
        <time>2016-09-23T15:08:36Z</time>
      </trkpt>
      <trkpt lat="36.843068" lon="-5.332783">
        <ele>1141.0</ele>
        <time>2016-09-23T15:08:39Z</time>
      </trkpt>
      <trkpt lat="36.843198" lon="-5.332817">
        <ele>1138.0</ele>
        <time>2016-09-23T15:08:42Z</time>
      </trkpt>
      <trkpt lat="36.843331" lon="-5.332817">
        <ele>1139.0</ele>
        <time>2016-09-23T15:08:45Z</time>
      </trkpt>
      <trkpt lat="36.843447" lon="-5.332817">
        <ele>1141.0</ele>
        <time>2016-09-23T15:08:48Z</time>
      </trkpt>
      <trkpt lat="36.843598" lon="-5.332783">
        <ele>1141.0</ele>
        <time>2016-09-23T15:08:51Z</time>
      </trkpt>
      <trkpt lat="36.843731" lon="-5.332800">
        <ele>1136.0</ele>
        <time>2016-09-23T15:08:54Z</time>
      </trkpt>
      <trkpt lat="36.843885" lon="-5.332817">
        <ele>1136.0</ele>
        <time>2016-09-23T15:08:57Z</time>
      </trkpt>
      <trkpt lat="36.844018" lon="-5.332833">
        <ele>1134.0</ele>
        <time>2016-09-23T15:09:00Z</time>
      </trkpt>
      <trkpt lat="36.844165" lon="-5.332900">
        <ele>1134.0</ele>
        <time>2016-09-23T15:09:03Z</time>
      </trkpt>
      <trkpt lat="36.844298" lon="-5.333050">
        <ele>1133.0</ele>
        <time>2016-09-23T15:09:07Z</time>
      </trkpt>
      <trkpt lat="36.844431" lon="-5.333150">
        <ele>1132.0</ele>
        <time>2016-09-23T15:09:10Z</time>
      </trkpt>
      <trkpt lat="36.844568" lon="-5.333233">
        <ele>1132.0</ele>
        <time>2016-09-23T15:09:13Z</time>
      </trkpt>
      <trkpt lat="36.844714" lon="-5.333334">
        <ele>1135.0</ele>
        <time>2016-09-23T15:09:16Z</time>
      </trkpt>
      <trkpt lat="36.844783" lon="-5.333433">
        <ele>1140.0</ele>
        <time>2016-09-23T15:09:19Z</time>
      </trkpt>
      <trkpt lat="36.844916" lon="-5.333517">
        <ele>1139.0</ele>
        <time>2016-09-23T15:09:22Z</time>
      </trkpt>
      <trkpt lat="36.845066" lon="-5.333600">
        <ele>1139.0</ele>
        <time>2016-09-23T15:09:25Z</time>
      </trkpt>
      <trkpt lat="36.845213" lon="-5.333700">
        <ele>1134.0</ele>
        <time>2016-09-23T15:09:28Z</time>
      </trkpt>
      <trkpt lat="36.845418" lon="-5.333750">
        <ele>1135.0</ele>
        <time>2016-09-23T15:09:31Z</time>
      </trkpt>
      <trkpt lat="36.845565" lon="-5.333750">
        <ele>1136.0</ele>
        <time>2016-09-23T15:09:34Z</time>
      </trkpt>
      <trkpt lat="36.845783" lon="-5.333717">
        <ele>1139.0</ele>
        <time>2016-09-23T15:09:37Z</time>
      </trkpt>
      <trkpt lat="36.845968" lon="-5.333700">
        <ele>1141.0</ele>
        <time>2016-09-23T15:09:40Z</time>
      </trkpt>
      <trkpt lat="36.846149" lon="-5.333650">
        <ele>1145.0</ele>
        <time>2016-09-23T15:09:43Z</time>
      </trkpt>
      <trkpt lat="36.846347" lon="-5.333600">
        <ele>1143.0</ele>
        <time>2016-09-23T15:09:47Z</time>
      </trkpt>
      <trkpt lat="36.846548" lon="-5.333583">
        <ele>1144.0</ele>
        <time>2016-09-23T15:09:50Z</time>
      </trkpt>
      <trkpt lat="36.846712" lon="-5.333533">
        <ele>1141.0</ele>
        <time>2016-09-23T15:09:53Z</time>
      </trkpt>
      <trkpt lat="36.846897" lon="-5.333467">
        <ele>1137.0</ele>
        <time>2016-09-23T15:09:56Z</time>
      </trkpt>
      <trkpt lat="36.847081" lon="-5.333400">
        <ele>1135.0</ele>
        <time>2016-09-23T15:09:59Z</time>
      </trkpt>
      <trkpt lat="36.847248" lon="-5.333233">
        <ele>1132.0</ele>
        <time>2016-09-23T15:10:02Z</time>
      </trkpt>
      <trkpt lat="36.847382" lon="-5.333167">
        <ele>1130.0</ele>
        <time>2016-09-23T15:10:05Z</time>
      </trkpt>
      <trkpt lat="36.847566" lon="-5.333100">
        <ele>1131.0</ele>
        <time>2016-09-23T15:10:08Z</time>
      </trkpt>
      <trkpt lat="36.847716" lon="-5.333133">
        <ele>1136.0</ele>
        <time>2016-09-23T15:10:11Z</time>
      </trkpt>
      <trkpt lat="36.847867" lon="-5.333167">
        <ele>1137.0</ele>
        <time>2016-09-23T15:10:14Z</time>
      </trkpt>
      <trkpt lat="36.848000" lon="-5.333250">
        <ele>1141.0</ele>
        <time>2016-09-23T15:10:17Z</time>
      </trkpt>
      <trkpt lat="36.848082" lon="-5.333317">
        <ele>1143.0</ele>
        <time>2016-09-23T15:10:20Z</time>
      </trkpt>
      <trkpt lat="36.848181" lon="-5.333400">
        <ele>1144.0</ele>
        <time>2016-09-23T15:10:23Z</time>
      </trkpt>
      <trkpt lat="36.848283" lon="-5.333417">
        <ele>1142.0</ele>
        <time>2016-09-23T15:10:26Z</time>
      </trkpt>
      <trkpt lat="36.848399" lon="-5.333450">
        <ele>1137.0</ele>
        <time>2016-09-23T15:10:29Z</time>
      </trkpt>
      <trkpt lat="36.848632" lon="-5.333450">
        <ele>1134.0</ele>
        <time>2016-09-23T15:10:33Z</time>
      </trkpt>
      <trkpt lat="36.848731" lon="-5.333450">
        <ele>1128.0</ele>
        <time>2016-09-23T15:10:36Z</time>
      </trkpt>
      <trkpt lat="36.848795" lon="-5.333550">
        <ele>1123.0</ele>
        <time>2016-09-23T15:10:39Z</time>
      </trkpt>
      <trkpt lat="36.848683" lon="-5.333734">
        <ele>1121.0</ele>
        <time>2016-09-23T15:10:42Z</time>
      </trkpt>
      <trkpt lat="36.848399" lon="-5.333833">
        <ele>1119.0</ele>
        <time>2016-09-23T15:10:45Z</time>
      </trkpt>
      <trkpt lat="36.848133" lon="-5.333950">
        <ele>1119.0</ele>
        <time>2016-09-23T15:10:48Z</time>
      </trkpt>
      <trkpt lat="36.847867" lon="-5.334033">
        <ele>1119.0</ele>
        <time>2016-09-23T15:10:51Z</time>
      </trkpt>
      <trkpt lat="36.847583" lon="-5.334100">
        <ele>1115.0</ele>
        <time>2016-09-23T15:10:54Z</time>
      </trkpt>
      <trkpt lat="36.847265" lon="-5.334183">
        <ele>1110.0</ele>
        <time>2016-09-23T15:10:57Z</time>
      </trkpt>
      <trkpt lat="36.846951" lon="-5.334216">
        <ele>1104.0</ele>
        <time>2016-09-23T15:11:00Z</time>
      </trkpt>
      <trkpt lat="36.846579" lon="-5.334134">
        <ele>1098.0</ele>
        <time>2016-09-23T15:11:03Z</time>
      </trkpt>
      <trkpt lat="36.846234" lon="-5.334100">
        <ele>1093.0</ele>
        <time>2016-09-23T15:11:06Z</time>
      </trkpt>
      <trkpt lat="36.845882" lon="-5.334017">
        <ele>1092.0</ele>
        <time>2016-09-23T15:11:09Z</time>
      </trkpt>
      <trkpt lat="36.845483" lon="-5.333750">
        <ele>1093.0</ele>
        <time>2016-09-23T15:11:13Z</time>
      </trkpt>
      <trkpt lat="36.845165" lon="-5.333617">
        <ele>1095.0</ele>
        <time>2016-09-23T15:11:16Z</time>
      </trkpt>
      <trkpt lat="36.844882" lon="-5.333417">
        <ele>1099.0</ele>
        <time>2016-09-23T15:11:19Z</time>
      </trkpt>
      <trkpt lat="36.844568" lon="-5.333267">
        <ele>1101.0</ele>
        <time>2016-09-23T15:11:22Z</time>
      </trkpt>
      <trkpt lat="36.844298" lon="-5.333233">
        <ele>1107.0</ele>
        <time>2016-09-23T15:11:25Z</time>
      </trkpt>
      <trkpt lat="36.844018" lon="-5.333250">
        <ele>1109.0</ele>
        <time>2016-09-23T15:11:28Z</time>
      </trkpt>
      <trkpt lat="36.843751" lon="-5.333300">
        <ele>1113.0</ele>
        <time>2016-09-23T15:11:31Z</time>
      </trkpt>
      <trkpt lat="36.843464" lon="-5.333367">
        <ele>1118.0</ele>
        <time>2016-09-23T15:11:34Z</time>
      </trkpt>
      <trkpt lat="36.843181" lon="-5.333384">
        <ele>1123.0</ele>
        <time>2016-09-23T15:11:37Z</time>
      </trkpt>
      <trkpt lat="36.842881" lon="-5.333300">
        <ele>1127.0</ele>
        <time>2016-09-23T15:11:40Z</time>
      </trkpt>
      <trkpt lat="36.842597" lon="-5.333133">
        <ele>1130.0</ele>
        <time>2016-09-23T15:11:43Z</time>
      </trkpt>
      <trkpt lat="36.842317" lon="-5.333000">
        <ele>1126.0</ele>
        <time>2016-09-23T15:11:46Z</time>
      </trkpt>
      <trkpt lat="36.842013" lon="-5.332833">
        <ele>1125.0</ele>
        <time>2016-09-23T15:11:49Z</time>
      </trkpt>
      <trkpt lat="36.841716" lon="-5.332700">
        <ele>1121.0</ele>
        <time>2016-09-23T15:11:52Z</time>
      </trkpt>
      <trkpt lat="36.841282" lon="-5.332467">
        <ele>1120.0</ele>
        <time>2016-09-23T15:11:56Z</time>
      </trkpt>
      <trkpt lat="36.840965" lon="-5.332400">
        <ele>1115.0</ele>
        <time>2016-09-23T15:11:59Z</time>
      </trkpt>
      <trkpt lat="36.840664" lon="-5.332400">
        <ele>1112.0</ele>
        <time>2016-09-23T15:12:02Z</time>
      </trkpt>
      <trkpt lat="36.840367" lon="-5.332450">
        <ele>1110.0</ele>
        <time>2016-09-23T15:12:05Z</time>
      </trkpt>
      <trkpt lat="36.840135" lon="-5.332533">
        <ele>1113.0</ele>
        <time>2016-09-23T15:12:08Z</time>
      </trkpt>
      <trkpt lat="36.839950" lon="-5.332700">
        <ele>1111.0</ele>
        <time>2016-09-23T15:12:11Z</time>
      </trkpt>
      <trkpt lat="36.839896" lon="-5.332934">
        <ele>1115.0</ele>
        <time>2016-09-23T15:12:14Z</time>
      </trkpt>
      <trkpt lat="36.839964" lon="-5.333083">
        <ele>1115.0</ele>
        <time>2016-09-23T15:12:17Z</time>
      </trkpt>
      <trkpt lat="36.840101" lon="-5.333116">
        <ele>1111.0</ele>
        <time>2016-09-23T15:12:20Z</time>
      </trkpt>
      <trkpt lat="36.840299" lon="-5.333100">
        <ele>1110.0</ele>
        <time>2016-09-23T15:12:23Z</time>
      </trkpt>
      <trkpt lat="36.840480" lon="-5.332984">
        <ele>1107.0</ele>
        <time>2016-09-23T15:12:26Z</time>
      </trkpt>
      <trkpt lat="36.840681" lon="-5.332783">
        <ele>1105.0</ele>
        <time>2016-09-23T15:12:29Z</time>
      </trkpt>
      <trkpt lat="36.840866" lon="-5.332567">
        <ele>1102.0</ele>
        <time>2016-09-23T15:12:32Z</time>
      </trkpt>
      <trkpt lat="36.841132" lon="-5.332200">
        <ele>1102.0</ele>
        <time>2016-09-23T15:12:36Z</time>
      </trkpt>
      <trkpt lat="36.841296" lon="-5.331883">
        <ele>1100.0</ele>
        <time>2016-09-23T15:12:39Z</time>
      </trkpt>
      <trkpt lat="36.841450" lon="-5.331517">
        <ele>1098.0</ele>
        <time>2016-09-23T15:12:42Z</time>
      </trkpt>
      <trkpt lat="36.841549" lon="-5.331117">
        <ele>1095.0</ele>
        <time>2016-09-23T15:12:45Z</time>
      </trkpt>
      <trkpt lat="36.841614" lon="-5.330683">
        <ele>1094.0</ele>
        <time>2016-09-23T15:12:48Z</time>
      </trkpt>
      <trkpt lat="36.841648" lon="-5.330233">
        <ele>1094.0</ele>
        <time>2016-09-23T15:12:51Z</time>
      </trkpt>
      <trkpt lat="36.841668" lon="-5.329817">
        <ele>1094.0</ele>
        <time>2016-09-23T15:12:54Z</time>
      </trkpt>
      <trkpt lat="36.841682" lon="-5.329400">
        <ele>1093.0</ele>
        <time>2016-09-23T15:12:57Z</time>
      </trkpt>
      <trkpt lat="36.841668" lon="-5.329016">
        <ele>1091.0</ele>
        <time>2016-09-23T15:13:00Z</time>
      </trkpt>
      <trkpt lat="36.841699" lon="-5.328633">
        <ele>1085.0</ele>
        <time>2016-09-23T15:13:03Z</time>
      </trkpt>
      <trkpt lat="36.841682" lon="-5.328217">
        <ele>1078.0</ele>
        <time>2016-09-23T15:13:06Z</time>
      </trkpt>
      <trkpt lat="36.841614" lon="-5.327850">
        <ele>1073.0</ele>
        <time>2016-09-23T15:13:09Z</time>
      </trkpt>
      <trkpt lat="36.841514" lon="-5.327450">
        <ele>1072.0</ele>
        <time>2016-09-23T15:13:12Z</time>
      </trkpt>
      <trkpt lat="36.841450" lon="-5.327066">
        <ele>1072.0</ele>
        <time>2016-09-23T15:13:15Z</time>
      </trkpt>
      <trkpt lat="36.841330" lon="-5.326517">
        <ele>1071.0</ele>
        <time>2016-09-23T15:13:19Z</time>
      </trkpt>
      <trkpt lat="36.841265" lon="-5.326050">
        <ele>1075.0</ele>
        <time>2016-09-23T15:13:22Z</time>
      </trkpt>
      <trkpt lat="36.841231" lon="-5.325600">
        <ele>1077.0</ele>
        <time>2016-09-23T15:13:25Z</time>
      </trkpt>
      <trkpt lat="36.841197" lon="-5.325183">
        <ele>1084.0</ele>
        <time>2016-09-23T15:13:28Z</time>
      </trkpt>
      <trkpt lat="36.841163" lon="-5.324883">
        <ele>1092.0</ele>
        <time>2016-09-23T15:13:31Z</time>
      </trkpt>
      <trkpt lat="36.841064" lon="-5.324567">
        <ele>1095.0</ele>
        <time>2016-09-23T15:13:34Z</time>
      </trkpt>
      <trkpt lat="36.840767" lon="-5.324350">
        <ele>1100.0</ele>
        <time>2016-09-23T15:13:37Z</time>
      </trkpt>
      <trkpt lat="36.840514" lon="-5.324433">
        <ele>1104.0</ele>
        <time>2016-09-23T15:13:40Z</time>
      </trkpt>
      <trkpt lat="36.840565" lon="-5.324650">
        <ele>1109.0</ele>
        <time>2016-09-23T15:13:43Z</time>
      </trkpt>
      <trkpt lat="36.840664" lon="-5.324750">
        <ele>1113.0</ele>
        <time>2016-09-23T15:13:46Z</time>
      </trkpt>
      <trkpt lat="36.840831" lon="-5.324766">
        <ele>1116.0</ele>
        <time>2016-09-23T15:13:49Z</time>
      </trkpt>
      <trkpt lat="36.841016" lon="-5.324716">
        <ele>1121.0</ele>
        <time>2016-09-23T15:13:52Z</time>
      </trkpt>
      <trkpt lat="36.841163" lon="-5.324600">
        <ele>1124.0</ele>
        <time>2016-09-23T15:13:55Z</time>
      </trkpt>
      <trkpt lat="36.841350" lon="-5.324350">
        <ele>1127.0</ele>
        <time>2016-09-23T15:13:59Z</time>
      </trkpt>
      <trkpt lat="36.841429" lon="-5.324083">
        <ele>1127.0</ele>
        <time>2016-09-23T15:14:02Z</time>
      </trkpt>
      <trkpt lat="36.841429" lon="-5.323717">
        <ele>1126.0</ele>
        <time>2016-09-23T15:14:05Z</time>
      </trkpt>
      <trkpt lat="36.841429" lon="-5.323350">
        <ele>1129.0</ele>
        <time>2016-09-23T15:14:08Z</time>
      </trkpt>
      <trkpt lat="36.841429" lon="-5.323066">
        <ele>1130.0</ele>
        <time>2016-09-23T15:14:11Z</time>
      </trkpt>
      <trkpt lat="36.841296" lon="-5.322650">
        <ele>1127.0</ele>
        <time>2016-09-23T15:14:14Z</time>
      </trkpt>
      <trkpt lat="36.841098" lon="-5.322333">
        <ele>1125.0</ele>
        <time>2016-09-23T15:14:17Z</time>
      </trkpt>
      <trkpt lat="36.840883" lon="-5.321933">
        <ele>1124.0</ele>
        <time>2016-09-23T15:14:20Z</time>
      </trkpt>
      <trkpt lat="36.840633" lon="-5.321600">
        <ele>1127.0</ele>
        <time>2016-09-23T15:14:23Z</time>
      </trkpt>
      <trkpt lat="36.840432" lon="-5.321300">
        <ele>1132.0</ele>
        <time>2016-09-23T15:14:26Z</time>
      </trkpt>
      <trkpt lat="36.840213" lon="-5.321017">
        <ele>1133.0</ele>
        <time>2016-09-23T15:14:29Z</time>
      </trkpt>
      <trkpt lat="36.839964" lon="-5.320816">
        <ele>1136.0</ele>
        <time>2016-09-23T15:14:32Z</time>
      </trkpt>
      <trkpt lat="36.839684" lon="-5.320600">
        <ele>1139.0</ele>
        <time>2016-09-23T15:14:35Z</time>
      </trkpt>
      <trkpt lat="36.839397" lon="-5.320533">
        <ele>1144.0</ele>
        <time>2016-09-23T15:14:38Z</time>
      </trkpt>
      <trkpt lat="36.839165" lon="-5.320783">
        <ele>1142.0</ele>
        <time>2016-09-23T15:14:42Z</time>
      </trkpt>
      <trkpt lat="36.839332" lon="-5.321000">
        <ele>1142.0</ele>
        <time>2016-09-23T15:14:45Z</time>
      </trkpt>
      <trkpt lat="36.839500" lon="-5.320850">
        <ele>1143.0</ele>
        <time>2016-09-23T15:14:48Z</time>
      </trkpt>
      <trkpt lat="36.839633" lon="-5.320650">
        <ele>1147.0</ele>
        <time>2016-09-23T15:14:51Z</time>
      </trkpt>
      <trkpt lat="36.839783" lon="-5.320416">
        <ele>1145.0</ele>
        <time>2016-09-23T15:14:54Z</time>
      </trkpt>
      <trkpt lat="36.839865" lon="-5.320150">
        <ele>1143.0</ele>
        <time>2016-09-23T15:14:57Z</time>
      </trkpt>
      <trkpt lat="36.839831" lon="-5.319800">
        <ele>1135.0</ele>
        <time>2016-09-23T15:15:00Z</time>
      </trkpt>
      <trkpt lat="36.839663" lon="-5.319467">
        <ele>1130.0</ele>
        <time>2016-09-23T15:15:03Z</time>
      </trkpt>
      <trkpt lat="36.839448" lon="-5.319100">
        <ele>1129.0</ele>
        <time>2016-09-23T15:15:06Z</time>
      </trkpt>
      <trkpt lat="36.839213" lon="-5.318834">
        <ele>1129.0</ele>
        <time>2016-09-23T15:15:09Z</time>
      </trkpt>
      <trkpt lat="36.838967" lon="-5.318533">
        <ele>1131.0</ele>
        <time>2016-09-23T15:15:12Z</time>
      </trkpt>
      <trkpt lat="36.838714" lon="-5.318250">
        <ele>1131.0</ele>
        <time>2016-09-23T15:15:15Z</time>
      </trkpt>
      <trkpt lat="36.838431" lon="-5.317950">
        <ele>1126.0</ele>
        <time>2016-09-23T15:15:18Z</time>
      </trkpt>
      <trkpt lat="36.838017" lon="-5.317534">
        <ele>1124.0</ele>
        <time>2016-09-23T15:15:22Z</time>
      </trkpt>
      <trkpt lat="36.837713" lon="-5.317233">
        <ele>1123.0</ele>
        <time>2016-09-23T15:15:25Z</time>
      </trkpt>
      <trkpt lat="36.837433" lon="-5.316966">
        <ele>1123.0</ele>
        <time>2016-09-23T15:15:28Z</time>
      </trkpt>
      <trkpt lat="36.837181" lon="-5.316683">
        <ele>1125.0</ele>
        <time>2016-09-23T15:15:31Z</time>
      </trkpt>
      <trkpt lat="36.836931" lon="-5.316417">
        <ele>1128.0</ele>
        <time>2016-09-23T15:15:34Z</time>
      </trkpt>
      <trkpt lat="36.836631" lon="-5.316234">
        <ele>1127.0</ele>
        <time>2016-09-23T15:15:37Z</time>
      </trkpt>
      <trkpt lat="36.836279" lon="-5.316200">
        <ele>1126.0</ele>
        <time>2016-09-23T15:15:40Z</time>
      </trkpt>
      <trkpt lat="36.835914" lon="-5.316200">
        <ele>1127.0</ele>
        <time>2016-09-23T15:15:43Z</time>
      </trkpt>
      <trkpt lat="36.835548" lon="-5.316250">
        <ele>1126.0</ele>
        <time>2016-09-23T15:15:46Z</time>
      </trkpt>
      <trkpt lat="36.835299" lon="-5.316434">
        <ele>1123.0</ele>
        <time>2016-09-23T15:15:49Z</time>
      </trkpt>
      <trkpt lat="36.835282" lon="-5.316667">
        <ele>1120.0</ele>
        <time>2016-09-23T15:15:52Z</time>
      </trkpt>
      <trkpt lat="36.835415" lon="-5.316583">
        <ele>1120.0</ele>
        <time>2016-09-23T15:15:55Z</time>
      </trkpt>
      <trkpt lat="36.835514" lon="-5.316383">
        <ele>1123.0</ele>
        <time>2016-09-23T15:15:58Z</time>
      </trkpt>
      <trkpt lat="36.835582" lon="-5.316150">
        <ele>1124.0</ele>
        <time>2016-09-23T15:16:01Z</time>
      </trkpt>
      <trkpt lat="36.835699" lon="-5.315817">
        <ele>1123.0</ele>
        <time>2016-09-23T15:16:05Z</time>
      </trkpt>
      <trkpt lat="36.835733" lon="-5.315534">
        <ele>1125.0</ele>
        <time>2016-09-23T15:16:08Z</time>
      </trkpt>
      <trkpt lat="36.835750" lon="-5.315200">
        <ele>1121.0</ele>
        <time>2016-09-23T15:16:11Z</time>
      </trkpt>
      <trkpt lat="36.835699" lon="-5.314817">
        <ele>1120.0</ele>
        <time>2016-09-23T15:16:14Z</time>
      </trkpt>
      <trkpt lat="36.835531" lon="-5.314450">
        <ele>1119.0</ele>
        <time>2016-09-23T15:16:17Z</time>
      </trkpt>
      <trkpt lat="36.835299" lon="-5.314150">
        <ele>1122.0</ele>
        <time>2016-09-23T15:16:20Z</time>
      </trkpt>
      <trkpt lat="36.835016" lon="-5.313883">
        <ele>1125.0</ele>
        <time>2016-09-23T15:16:23Z</time>
      </trkpt>
      <trkpt lat="36.834715" lon="-5.313684">
        <ele>1131.0</ele>
        <time>2016-09-23T15:16:26Z</time>
      </trkpt>
      <trkpt lat="36.834449" lon="-5.313467">
        <ele>1133.0</ele>
        <time>2016-09-23T15:16:29Z</time>
      </trkpt>
      <trkpt lat="36.834182" lon="-5.313150">
        <ele>1134.0</ele>
        <time>2016-09-23T15:16:32Z</time>
      </trkpt>
      <trkpt lat="36.833929" lon="-5.312934">
        <ele>1132.0</ele>
        <time>2016-09-23T15:16:35Z</time>
      </trkpt>
      <trkpt lat="36.833697" lon="-5.312617">
        <ele>1130.0</ele>
        <time>2016-09-23T15:16:38Z</time>
      </trkpt>
      <trkpt lat="36.833465" lon="-5.312334">
        <ele>1129.0</ele>
        <time>2016-09-23T15:16:41Z</time>
      </trkpt>
      <trkpt lat="36.833233" lon="-5.312017">
        <ele>1124.0</ele>
        <time>2016-09-23T15:16:44Z</time>
      </trkpt>
      <trkpt lat="36.832932" lon="-5.311583">
        <ele>1122.0</ele>
        <time>2016-09-23T15:16:48Z</time>
      </trkpt>
      <trkpt lat="36.832748" lon="-5.311234">
        <ele>1114.0</ele>
        <time>2016-09-23T15:16:51Z</time>
      </trkpt>
      <trkpt lat="36.832615" lon="-5.310867">
        <ele>1111.0</ele>
        <time>2016-09-23T15:16:54Z</time>
      </trkpt>
      <trkpt lat="36.832464" lon="-5.310500">
        <ele>1102.0</ele>
        <time>2016-09-23T15:16:57Z</time>
      </trkpt>
      <trkpt lat="36.832383" lon="-5.310100">
        <ele>1101.0</ele>
        <time>2016-09-23T15:17:00Z</time>
      </trkpt>
      <trkpt lat="36.832331" lon="-5.309700">
        <ele>1101.0</ele>
        <time>2016-09-23T15:17:03Z</time>
      </trkpt>
      <trkpt lat="36.832348" lon="-5.309300">
        <ele>1101.0</ele>
        <time>2016-09-23T15:17:06Z</time>
      </trkpt>
      <trkpt lat="36.832283" lon="-5.308900">
        <ele>1102.0</ele>
        <time>2016-09-23T15:17:09Z</time>
      </trkpt>
      <trkpt lat="36.832232" lon="-5.308534">
        <ele>1098.0</ele>
        <time>2016-09-23T15:17:12Z</time>
      </trkpt>
      <trkpt lat="36.832198" lon="-5.308100">
        <ele>1100.0</ele>
        <time>2016-09-23T15:17:15Z</time>
      </trkpt>
      <trkpt lat="36.832184" lon="-5.307700">
        <ele>1103.0</ele>
        <time>2016-09-23T15:17:18Z</time>
      </trkpt>
      <trkpt lat="36.832184" lon="-5.307334">
        <ele>1101.0</ele>
        <time>2016-09-23T15:17:21Z</time>
      </trkpt>
      <trkpt lat="36.832198" lon="-5.306916">
        <ele>1099.0</ele>
        <time>2016-09-23T15:17:24Z</time>
      </trkpt>
      <trkpt lat="36.832232" lon="-5.306500">
        <ele>1096.0</ele>
        <time>2016-09-23T15:17:27Z</time>
      </trkpt>
      <trkpt lat="36.832232" lon="-5.305983">
        <ele>1087.0</ele>
        <time>2016-09-23T15:17:31Z</time>
      </trkpt>
      <trkpt lat="36.832198" lon="-5.305500">
        <ele>1082.0</ele>
        <time>2016-09-23T15:17:34Z</time>
      </trkpt>
      <trkpt lat="36.832150" lon="-5.305050">
        <ele>1078.0</ele>
        <time>2016-09-23T15:17:37Z</time>
      </trkpt>
      <trkpt lat="36.832065" lon="-5.304617">
        <ele>1076.0</ele>
        <time>2016-09-23T15:17:40Z</time>
      </trkpt>
      <trkpt lat="36.832017" lon="-5.304200">
        <ele>1071.0</ele>
        <time>2016-09-23T15:17:43Z</time>
      </trkpt>
      <trkpt lat="36.831983" lon="-5.303783">
        <ele>1068.0</ele>
        <time>2016-09-23T15:17:46Z</time>
      </trkpt>
      <trkpt lat="36.831918" lon="-5.303350">
        <ele>1064.0</ele>
        <time>2016-09-23T15:17:49Z</time>
      </trkpt>
      <trkpt lat="36.831884" lon="-5.302950">
        <ele>1058.0</ele>
        <time>2016-09-23T15:17:52Z</time>
      </trkpt>
      <trkpt lat="36.831846" lon="-5.302534">
        <ele>1047.0</ele>
        <time>2016-09-23T15:17:55Z</time>
      </trkpt>
      <trkpt lat="36.831898" lon="-5.302117">
        <ele>1045.0</ele>
        <time>2016-09-23T15:17:58Z</time>
      </trkpt>
      <trkpt lat="36.831945" lon="-5.301834">
        <ele>1038.0</ele>
        <time>2016-09-23T15:18:01Z</time>
      </trkpt>
      <trkpt lat="36.832051" lon="-5.301484">
        <ele>1034.0</ele>
        <time>2016-09-23T15:18:04Z</time>
      </trkpt>
      <trkpt lat="36.832130" lon="-5.301167">
        <ele>1030.0</ele>
        <time>2016-09-23T15:18:07Z</time>
      </trkpt>
      <trkpt lat="36.832249" lon="-5.300750">
        <ele>1025.0</ele>
        <time>2016-09-23T15:18:11Z</time>
      </trkpt>
      <trkpt lat="36.832318" lon="-5.300433">
        <ele>1020.0</ele>
        <time>2016-09-23T15:18:14Z</time>
      </trkpt>
      <trkpt lat="36.832383" lon="-5.300100">
        <ele>1013.0</ele>
        <time>2016-09-23T15:18:17Z</time>
      </trkpt>
      <trkpt lat="36.832482" lon="-5.299783">
        <ele>1010.0</ele>
        <time>2016-09-23T15:18:20Z</time>
      </trkpt>
      <trkpt lat="36.832615" lon="-5.299567">
        <ele>1005.0</ele>
        <time>2016-09-23T15:18:23Z</time>
      </trkpt>
      <trkpt lat="36.832768" lon="-5.299350">
        <ele>1002.0</ele>
        <time>2016-09-23T15:18:26Z</time>
      </trkpt>
      <trkpt lat="36.832898" lon="-5.299100">
        <ele>998.0</ele>
        <time>2016-09-23T15:18:29Z</time>
      </trkpt>
      <trkpt lat="36.833048" lon="-5.298867">
        <ele>996.0</ele>
        <time>2016-09-23T15:18:32Z</time>
      </trkpt>
      <trkpt lat="36.833199" lon="-5.298683">
        <ele>991.0</ele>
        <time>2016-09-23T15:18:35Z</time>
      </trkpt>
      <trkpt lat="36.833366" lon="-5.298567">
        <ele>987.0</ele>
        <time>2016-09-23T15:18:38Z</time>
      </trkpt>
      <trkpt lat="36.833516" lon="-5.298500">
        <ele>983.0</ele>
        <time>2016-09-23T15:18:41Z</time>
      </trkpt>
      <trkpt lat="36.833684" lon="-5.298517">
        <ele>983.0</ele>
        <time>2016-09-23T15:18:44Z</time>
      </trkpt>
      <trkpt lat="36.833796" lon="-5.298583">
        <ele>983.0</ele>
        <time>2016-09-23T15:18:47Z</time>
      </trkpt>
      <trkpt lat="36.833882" lon="-5.298667">
        <ele>981.0</ele>
        <time>2016-09-23T15:18:50Z</time>
      </trkpt>
      <trkpt lat="36.834032" lon="-5.298766">
        <ele>980.0</ele>
        <time>2016-09-23T15:18:54Z</time>
      </trkpt>
      <trkpt lat="36.834148" lon="-5.298817">
        <ele>981.0</ele>
        <time>2016-09-23T15:18:57Z</time>
      </trkpt>
      <trkpt lat="36.834298" lon="-5.298766">
        <ele>977.0</ele>
        <time>2016-09-23T15:19:00Z</time>
      </trkpt>
      <trkpt lat="36.834479" lon="-5.298683">
        <ele>976.0</ele>
        <time>2016-09-23T15:19:03Z</time>
      </trkpt>
      <trkpt lat="36.834633" lon="-5.298583">
        <ele>974.0</ele>
        <time>2016-09-23T15:19:06Z</time>
      </trkpt>
      <trkpt lat="36.834797" lon="-5.298533">
        <ele>972.0</ele>
        <time>2016-09-23T15:19:09Z</time>
      </trkpt>
      <trkpt lat="36.834899" lon="-5.298550">
        <ele>972.0</ele>
        <time>2016-09-23T15:19:12Z</time>
      </trkpt>
      <trkpt lat="36.835050" lon="-5.298567">
        <ele>970.0</ele>
        <time>2016-09-23T15:19:15Z</time>
      </trkpt>
      <trkpt lat="36.835197" lon="-5.298567">
        <ele>968.0</ele>
        <time>2016-09-23T15:19:18Z</time>
      </trkpt>
      <trkpt lat="36.835381" lon="-5.298533">
        <ele>964.0</ele>
        <time>2016-09-23T15:19:21Z</time>
      </trkpt>
      <trkpt lat="36.835562" lon="-5.298400">
        <ele>964.0</ele>
        <time>2016-09-23T15:19:24Z</time>
      </trkpt>
      <trkpt lat="36.835699" lon="-5.298383">
        <ele>961.0</ele>
        <time>2016-09-23T15:19:27Z</time>
      </trkpt>
      <trkpt lat="36.835849" lon="-5.298316">
        <ele>960.0</ele>
        <time>2016-09-23T15:19:30Z</time>
      </trkpt>
      <trkpt lat="36.836067" lon="-5.298234">
        <ele>959.0</ele>
        <time>2016-09-23T15:19:34Z</time>
      </trkpt>
      <trkpt lat="36.836248" lon="-5.298234">
        <ele>957.0</ele>
        <time>2016-09-23T15:19:37Z</time>
      </trkpt>
      <trkpt lat="36.836433" lon="-5.298234">
        <ele>956.0</ele>
        <time>2016-09-23T15:19:40Z</time>
      </trkpt>
      <trkpt lat="36.836631" lon="-5.298234">
        <ele>956.0</ele>
        <time>2016-09-23T15:19:43Z</time>
      </trkpt>
      <trkpt lat="36.836815" lon="-5.298234">
        <ele>956.0</ele>
        <time>2016-09-23T15:19:46Z</time>
      </trkpt>
      <trkpt lat="36.837017" lon="-5.298250">
        <ele>958.0</ele>
        <time>2016-09-23T15:19:49Z</time>
      </trkpt>
      <trkpt lat="36.837181" lon="-5.298283">
        <ele>962.0</ele>
        <time>2016-09-23T15:19:52Z</time>
      </trkpt>
      <trkpt lat="36.837300" lon="-5.298383">
        <ele>962.0</ele>
        <time>2016-09-23T15:19:55Z</time>
      </trkpt>
      <trkpt lat="36.837468" lon="-5.298416">
        <ele>958.0</ele>
        <time>2016-09-23T15:19:58Z</time>
      </trkpt>
      <trkpt lat="36.837679" lon="-5.298416">
        <ele>956.0</ele>
        <time>2016-09-23T15:20:01Z</time>
      </trkpt>
      <trkpt lat="36.837850" lon="-5.298366">
        <ele>955.0</ele>
        <time>2016-09-23T15:20:04Z</time>
      </trkpt>
      <trkpt lat="36.838031" lon="-5.298433">
        <ele>954.0</ele>
        <time>2016-09-23T15:20:07Z</time>
      </trkpt>
      <trkpt lat="36.838215" lon="-5.298467">
        <ele>951.0</ele>
        <time>2016-09-23T15:20:10Z</time>
      </trkpt>
      <trkpt lat="36.838417" lon="-5.298483">
        <ele>954.0</ele>
        <time>2016-09-23T15:20:13Z</time>
      </trkpt>
      <trkpt lat="36.838581" lon="-5.298517">
        <ele>953.0</ele>
        <time>2016-09-23T15:20:17Z</time>
      </trkpt>
      <trkpt lat="36.838765" lon="-5.298517">
        <ele>948.0</ele>
        <time>2016-09-23T15:20:20Z</time>
      </trkpt>
      <trkpt lat="36.838946" lon="-5.298450">
        <ele>943.0</ele>
        <time>2016-09-23T15:20:23Z</time>
      </trkpt>
      <trkpt lat="36.839148" lon="-5.298416">
        <ele>938.0</ele>
        <time>2016-09-23T15:20:26Z</time>
      </trkpt>
      <trkpt lat="36.839383" lon="-5.298316">
        <ele>935.0</ele>
        <time>2016-09-23T15:20:29Z</time>
      </trkpt>
      <trkpt lat="36.839581" lon="-5.298217">
        <ele>934.0</ele>
        <time>2016-09-23T15:20:32Z</time>
      </trkpt>
      <trkpt lat="36.839783" lon="-5.298100">
        <ele>932.0</ele>
        <time>2016-09-23T15:20:35Z</time>
      </trkpt>
      <trkpt lat="36.840002" lon="-5.298050">
        <ele>929.0</ele>
        <time>2016-09-23T15:20:38Z</time>
      </trkpt>
      <trkpt lat="36.840268" lon="-5.298016">
        <ele>927.0</ele>
        <time>2016-09-23T15:20:41Z</time>
      </trkpt>
      <trkpt lat="36.840466" lon="-5.297983">
        <ele>935.0</ele>
        <time>2016-09-23T15:20:44Z</time>
      </trkpt>
      <trkpt lat="36.840633" lon="-5.297950">
        <ele>934.0</ele>
        <time>2016-09-23T15:20:47Z</time>
      </trkpt>
      <trkpt lat="36.840818" lon="-5.298067">
        <ele>937.0</ele>
        <time>2016-09-23T15:20:50Z</time>
      </trkpt>
      <trkpt lat="36.840965" lon="-5.298150">
        <ele>939.0</ele>
        <time>2016-09-23T15:20:53Z</time>
      </trkpt>
      <trkpt lat="36.841163" lon="-5.298333">
        <ele>940.0</ele>
        <time>2016-09-23T15:20:57Z</time>
      </trkpt>
      <trkpt lat="36.841282" lon="-5.298433">
        <ele>946.0</ele>
        <time>2016-09-23T15:21:00Z</time>
      </trkpt>
      <trkpt lat="36.841415" lon="-5.298533">
        <ele>949.0</ele>
        <time>2016-09-23T15:21:03Z</time>
      </trkpt>
      <trkpt lat="36.841480" lon="-5.298700">
        <ele>953.0</ele>
        <time>2016-09-23T15:21:06Z</time>
      </trkpt>
      <trkpt lat="36.841450" lon="-5.298917">
        <ele>957.0</ele>
        <time>2016-09-23T15:21:09Z</time>
      </trkpt>
      <trkpt lat="36.841381" lon="-5.299033">
        <ele>953.0</ele>
        <time>2016-09-23T15:21:12Z</time>
      </trkpt>
      <trkpt lat="36.841535" lon="-5.299133">
        <ele>946.0</ele>
        <time>2016-09-23T15:21:15Z</time>
      </trkpt>
      <trkpt lat="36.841747" lon="-5.298983">
        <ele>946.0</ele>
        <time>2016-09-23T15:21:18Z</time>
      </trkpt>
      <trkpt lat="36.841948" lon="-5.298883">
        <ele>944.0</ele>
        <time>2016-09-23T15:21:21Z</time>
      </trkpt>
      <trkpt lat="36.842133" lon="-5.298783">
        <ele>946.0</ele>
        <time>2016-09-23T15:21:24Z</time>
      </trkpt>
      <trkpt lat="36.842300" lon="-5.298600">
        <ele>946.0</ele>
        <time>2016-09-23T15:21:27Z</time>
      </trkpt>
      <trkpt lat="36.842484" lon="-5.298400">
        <ele>946.0</ele>
        <time>2016-09-23T15:21:30Z</time>
      </trkpt>
      <trkpt lat="36.842682" lon="-5.298183">
        <ele>949.0</ele>
        <time>2016-09-23T15:21:33Z</time>
      </trkpt>
      <trkpt lat="36.842915" lon="-5.298050">
        <ele>954.0</ele>
        <time>2016-09-23T15:21:36Z</time>
      </trkpt>
      <trkpt lat="36.843082" lon="-5.297884">
        <ele>960.0</ele>
        <time>2016-09-23T15:21:39Z</time>
      </trkpt>
      <trkpt lat="36.843314" lon="-5.297900">
        <ele>966.0</ele>
        <time>2016-09-23T15:21:43Z</time>
      </trkpt>
      <trkpt lat="36.843413" lon="-5.298016">
        <ele>972.0</ele>
        <time>2016-09-23T15:21:46Z</time>
      </trkpt>
      <trkpt lat="36.843499" lon="-5.298100">
        <ele>975.0</ele>
        <time>2016-09-23T15:21:49Z</time>
      </trkpt>
      <trkpt lat="36.843482" lon="-5.298217">
        <ele>973.0</ele>
        <time>2016-09-23T15:21:52Z</time>
      </trkpt>
      <trkpt lat="36.843348" lon="-5.298350">
        <ele>977.0</ele>
        <time>2016-09-23T15:21:55Z</time>
      </trkpt>
      <trkpt lat="36.843116" lon="-5.298383">
        <ele>978.0</ele>
        <time>2016-09-23T15:21:58Z</time>
      </trkpt>
      <trkpt lat="36.842816" lon="-5.298250">
        <ele>975.0</ele>
        <time>2016-09-23T15:22:01Z</time>
      </trkpt>
      <trkpt lat="36.842618" lon="-5.297900">
        <ele>974.0</ele>
        <time>2016-09-23T15:22:04Z</time>
      </trkpt>
      <trkpt lat="36.842399" lon="-5.297517">
        <ele>981.0</ele>
        <time>2016-09-23T15:22:07Z</time>
      </trkpt>
      <trkpt lat="36.842167" lon="-5.297233">
        <ele>983.0</ele>
        <time>2016-09-23T15:22:10Z</time>
      </trkpt>
      <trkpt lat="36.841900" lon="-5.297083">
        <ele>983.0</ele>
        <time>2016-09-23T15:22:13Z</time>
      </trkpt>
      <trkpt lat="36.841634" lon="-5.297083">
        <ele>983.0</ele>
        <time>2016-09-23T15:22:16Z</time>
      </trkpt>
      <trkpt lat="36.841562" lon="-5.297266">
        <ele>983.0</ele>
        <time>2016-09-23T15:22:19Z</time>
      </trkpt>
      <trkpt lat="36.841733" lon="-5.297300">
        <ele>979.0</ele>
        <time>2016-09-23T15:22:23Z</time>
      </trkpt>
      <trkpt lat="36.841931" lon="-5.297167">
        <ele>982.0</ele>
        <time>2016-09-23T15:22:26Z</time>
      </trkpt>
      <trkpt lat="36.842081" lon="-5.296983">
        <ele>983.0</ele>
        <time>2016-09-23T15:22:29Z</time>
      </trkpt>
      <trkpt lat="36.842245" lon="-5.296817">
        <ele>982.0</ele>
        <time>2016-09-23T15:22:32Z</time>
      </trkpt>
      <trkpt lat="36.842399" lon="-5.296750">
        <ele>986.0</ele>
        <time>2016-09-23T15:22:35Z</time>
      </trkpt>
      <trkpt lat="36.842549" lon="-5.296716">
        <ele>986.0</ele>
        <time>2016-09-23T15:22:38Z</time>
      </trkpt>
      <trkpt lat="36.842696" lon="-5.296700">
        <ele>988.0</ele>
        <time>2016-09-23T15:22:41Z</time>
      </trkpt>
      <trkpt lat="36.842829" lon="-5.296733">
        <ele>989.0</ele>
        <time>2016-09-23T15:22:44Z</time>
      </trkpt>
      <trkpt lat="36.842983" lon="-5.296700">
        <ele>996.0</ele>
        <time>2016-09-23T15:22:47Z</time>
      </trkpt>
      <trkpt lat="36.843082" lon="-5.296600">
        <ele>997.0</ele>
        <time>2016-09-23T15:22:50Z</time>
      </trkpt>
      <trkpt lat="36.843232" lon="-5.296550">
        <ele>1001.0</ele>
        <time>2016-09-23T15:22:53Z</time>
      </trkpt>
      <trkpt lat="36.843365" lon="-5.296467">
        <ele>1002.0</ele>
        <time>2016-09-23T15:22:56Z</time>
      </trkpt>
      <trkpt lat="36.843512" lon="-5.296467">
        <ele>1004.0</ele>
        <time>2016-09-23T15:22:59Z</time>
      </trkpt>
      <trkpt lat="36.843615" lon="-5.296550">
        <ele>1005.0</ele>
        <time>2016-09-23T15:23:02Z</time>
      </trkpt>
      <trkpt lat="36.843533" lon="-5.296784">
        <ele>1006.0</ele>
        <time>2016-09-23T15:23:06Z</time>
      </trkpt>
      <trkpt lat="36.843314" lon="-5.296883">
        <ele>1008.0</ele>
        <time>2016-09-23T15:23:09Z</time>
      </trkpt>
      <trkpt lat="36.843198" lon="-5.297050">
        <ele>1007.0</ele>
        <time>2016-09-23T15:23:12Z</time>
      </trkpt>
      <trkpt lat="36.843314" lon="-5.297100">
        <ele>1006.0</ele>
        <time>2016-09-23T15:23:15Z</time>
      </trkpt>
      <trkpt lat="36.843464" lon="-5.296866">
        <ele>1010.0</ele>
        <time>2016-09-23T15:23:18Z</time>
      </trkpt>
      <trkpt lat="36.843581" lon="-5.296566">
        <ele>1011.0</ele>
        <time>2016-09-23T15:23:21Z</time>
      </trkpt>
      <trkpt lat="36.843680" lon="-5.296283">
        <ele>1011.0</ele>
        <time>2016-09-23T15:23:24Z</time>
      </trkpt>
      <trkpt lat="36.843816" lon="-5.296034">
        <ele>1008.0</ele>
        <time>2016-09-23T15:23:27Z</time>
      </trkpt>
      <trkpt lat="36.843997" lon="-5.296050">
        <ele>1012.0</ele>
        <time>2016-09-23T15:23:30Z</time>
      </trkpt>
      <trkpt lat="36.843997" lon="-5.296233">
        <ele>1012.0</ele>
        <time>2016-09-23T15:23:33Z</time>
      </trkpt>
      <trkpt lat="36.843850" lon="-5.296417">
        <ele>1010.0</ele>
        <time>2016-09-23T15:23:36Z</time>
      </trkpt>
      <trkpt lat="36.843581" lon="-5.296384">
        <ele>1011.0</ele>
        <time>2016-09-23T15:23:39Z</time>
      </trkpt>
      <trkpt lat="36.843331" lon="-5.296366">
        <ele>1008.0</ele>
        <time>2016-09-23T15:23:42Z</time>
      </trkpt>
      <trkpt lat="36.842949" lon="-5.296283">
        <ele>1009.0</ele>
        <time>2016-09-23T15:23:46Z</time>
      </trkpt>
      <trkpt lat="36.842665" lon="-5.296217">
        <ele>1013.0</ele>
        <time>2016-09-23T15:23:49Z</time>
      </trkpt>
      <trkpt lat="36.842433" lon="-5.296250">
        <ele>1020.0</ele>
        <time>2016-09-23T15:23:52Z</time>
      </trkpt>
      <trkpt lat="36.842300" lon="-5.296384">
        <ele>1025.0</ele>
        <time>2016-09-23T15:23:55Z</time>
      </trkpt>
      <trkpt lat="36.842317" lon="-5.296450">
        <ele>1026.0</ele>
        <time>2016-09-23T15:23:58Z</time>
      </trkpt>
      <trkpt lat="36.842464" lon="-5.296417">
        <ele>1024.0</ele>
        <time>2016-09-23T15:24:01Z</time>
      </trkpt>
      <trkpt lat="36.842618" lon="-5.296333">
        <ele>1020.0</ele>
        <time>2016-09-23T15:24:04Z</time>
      </trkpt>
      <trkpt lat="36.842799" lon="-5.296283">
        <ele>1018.0</ele>
        <time>2016-09-23T15:24:07Z</time>
      </trkpt>
      <trkpt lat="36.842962" lon="-5.296217">
        <ele>1018.0</ele>
        <time>2016-09-23T15:24:10Z</time>
      </trkpt>
      <trkpt lat="36.843167" lon="-5.296200">
        <ele>1024.0</ele>
        <time>2016-09-23T15:24:13Z</time>
      </trkpt>
      <trkpt lat="36.843331" lon="-5.296200">
        <ele>1026.0</ele>
        <time>2016-09-23T15:24:16Z</time>
      </trkpt>
      <trkpt lat="36.843546" lon="-5.296183">
        <ele>1025.0</ele>
        <time>2016-09-23T15:24:19Z</time>
      </trkpt>
      <trkpt lat="36.843765" lon="-5.296050">
        <ele>1024.0</ele>
        <time>2016-09-23T15:24:22Z</time>
      </trkpt>
      <trkpt lat="36.843984" lon="-5.295833">
        <ele>1024.0</ele>
        <time>2016-09-23T15:24:25Z</time>
      </trkpt>
      <trkpt lat="36.844281" lon="-5.295483">
        <ele>1025.0</ele>
        <time>2016-09-23T15:24:29Z</time>
      </trkpt>
      <trkpt lat="36.844482" lon="-5.295233">
        <ele>1026.0</ele>
        <time>2016-09-23T15:24:32Z</time>
      </trkpt>
      <trkpt lat="36.844680" lon="-5.295050">
        <ele>1027.0</ele>
        <time>2016-09-23T15:24:35Z</time>
      </trkpt>
      <trkpt lat="36.844916" lon="-5.294950">
        <ele>1030.0</ele>
        <time>2016-09-23T15:24:38Z</time>
      </trkpt>
      <trkpt lat="36.845114" lon="-5.294967">
        <ele>1036.0</ele>
        <time>2016-09-23T15:24:41Z</time>
      </trkpt>
      <trkpt lat="36.845233" lon="-5.295084">
        <ele>1039.0</ele>
        <time>2016-09-23T15:24:44Z</time>
      </trkpt>
      <trkpt lat="36.845199" lon="-5.295250">
        <ele>1038.0</ele>
        <time>2016-09-23T15:24:47Z</time>
      </trkpt>
      <trkpt lat="36.845015" lon="-5.295483">
        <ele>1036.0</ele>
        <time>2016-09-23T15:24:50Z</time>
      </trkpt>
      <trkpt lat="36.844834" lon="-5.295650">
        <ele>1038.0</ele>
        <time>2016-09-23T15:24:53Z</time>
      </trkpt>
      <trkpt lat="36.844680" lon="-5.295816">
        <ele>1033.0</ele>
        <time>2016-09-23T15:24:56Z</time>
      </trkpt>
      <trkpt lat="36.844516" lon="-5.296000">
        <ele>1031.0</ele>
        <time>2016-09-23T15:24:59Z</time>
      </trkpt>
      <trkpt lat="36.844332" lon="-5.296133">
        <ele>1030.0</ele>
        <time>2016-09-23T15:25:02Z</time>
      </trkpt>
      <trkpt lat="36.844096" lon="-5.296183">
        <ele>1028.0</ele>
        <time>2016-09-23T15:25:05Z</time>
      </trkpt>
      <trkpt lat="36.843915" lon="-5.296333">
        <ele>1026.0</ele>
        <time>2016-09-23T15:25:08Z</time>
      </trkpt>
      <trkpt lat="36.843779" lon="-5.296600">
        <ele>1022.0</ele>
        <time>2016-09-23T15:25:12Z</time>
      </trkpt>
      <trkpt lat="36.843751" lon="-5.296817">
        <ele>1020.0</ele>
        <time>2016-09-23T15:25:15Z</time>
      </trkpt>
      <trkpt lat="36.843680" lon="-5.297017">
        <ele>1019.0</ele>
        <time>2016-09-23T15:25:18Z</time>
      </trkpt>
      <trkpt lat="36.843512" lon="-5.297184">
        <ele>1019.0</ele>
        <time>2016-09-23T15:25:21Z</time>
      </trkpt>
      <trkpt lat="36.843314" lon="-5.297283">
        <ele>1019.0</ele>
        <time>2016-09-23T15:25:24Z</time>
      </trkpt>
      <trkpt lat="36.843082" lon="-5.297300">
        <ele>1019.0</ele>
        <time>2016-09-23T15:25:27Z</time>
      </trkpt>
      <trkpt lat="36.842850" lon="-5.297400">
        <ele>1024.0</ele>
        <time>2016-09-23T15:25:30Z</time>
      </trkpt>
      <trkpt lat="36.842597" lon="-5.297483">
        <ele>1028.0</ele>
        <time>2016-09-23T15:25:33Z</time>
      </trkpt>
      <trkpt lat="36.842382" lon="-5.297600">
        <ele>1034.0</ele>
        <time>2016-09-23T15:25:36Z</time>
      </trkpt>
      <trkpt lat="36.842215" lon="-5.297767">
        <ele>1039.0</ele>
        <time>2016-09-23T15:25:39Z</time>
      </trkpt>
      <trkpt lat="36.842112" lon="-5.297950">
        <ele>1045.0</ele>
        <time>2016-09-23T15:25:42Z</time>
      </trkpt>
      <trkpt lat="36.842013" lon="-5.298117">
        <ele>1048.0</ele>
        <time>2016-09-23T15:25:45Z</time>
      </trkpt>
      <trkpt lat="36.842047" lon="-5.298267">
        <ele>1051.0</ele>
        <time>2016-09-23T15:25:48Z</time>
      </trkpt>
      <trkpt lat="36.842215" lon="-5.298383">
        <ele>1057.0</ele>
        <time>2016-09-23T15:25:52Z</time>
      </trkpt>
      <trkpt lat="36.842331" lon="-5.298450">
        <ele>1059.0</ele>
        <time>2016-09-23T15:25:55Z</time>
      </trkpt>
      <trkpt lat="36.842450" lon="-5.298300">
        <ele>1059.0</ele>
        <time>2016-09-23T15:25:58Z</time>
      </trkpt>
      <trkpt lat="36.842450" lon="-5.297933">
        <ele>1062.0</ele>
        <time>2016-09-23T15:26:01Z</time>
      </trkpt>
      <trkpt lat="36.842279" lon="-5.297616">
        <ele>1068.0</ele>
        <time>2016-09-23T15:26:04Z</time>
      </trkpt>
      <trkpt lat="36.842081" lon="-5.297300">
        <ele>1073.0</ele>
        <time>2016-09-23T15:26:07Z</time>
      </trkpt>
      <trkpt lat="36.841880" lon="-5.297100">
        <ele>1080.0</ele>
        <time>2016-09-23T15:26:10Z</time>
      </trkpt>
      <trkpt lat="36.841634" lon="-5.296900">
        <ele>1083.0</ele>
        <time>2016-09-23T15:26:13Z</time>
      </trkpt>
      <trkpt lat="36.841398" lon="-5.296767">
        <ele>1088.0</ele>
        <time>2016-09-23T15:26:16Z</time>
      </trkpt>
      <trkpt lat="36.841231" lon="-5.296866">
        <ele>1090.0</ele>
        <time>2016-09-23T15:26:19Z</time>
      </trkpt>
      <trkpt lat="36.841282" lon="-5.297033">
        <ele>1093.0</ele>
        <time>2016-09-23T15:26:22Z</time>
      </trkpt>
      <trkpt lat="36.841381" lon="-5.297150">
        <ele>1094.0</ele>
        <time>2016-09-23T15:26:25Z</time>
      </trkpt>
      <trkpt lat="36.841514" lon="-5.297150">
        <ele>1098.0</ele>
        <time>2016-09-23T15:26:28Z</time>
      </trkpt>
      <trkpt lat="36.841648" lon="-5.297017">
        <ele>1102.0</ele>
        <time>2016-09-23T15:26:31Z</time>
      </trkpt>
      <trkpt lat="36.841600" lon="-5.296600">
        <ele>1106.0</ele>
        <time>2016-09-23T15:26:35Z</time>
      </trkpt>
      <trkpt lat="36.841364" lon="-5.296366">
        <ele>1107.0</ele>
        <time>2016-09-23T15:26:38Z</time>
      </trkpt>
      <trkpt lat="36.841098" lon="-5.296366">
        <ele>1111.0</ele>
        <time>2016-09-23T15:26:41Z</time>
      </trkpt>
      <trkpt lat="36.840999" lon="-5.296550">
        <ele>1115.0</ele>
        <time>2016-09-23T15:26:44Z</time>
      </trkpt>
      <trkpt lat="36.841064" lon="-5.296700">
        <ele>1117.0</ele>
        <time>2016-09-23T15:26:47Z</time>
      </trkpt>
      <trkpt lat="36.841163" lon="-5.296800">
        <ele>1120.0</ele>
        <time>2016-09-23T15:26:50Z</time>
      </trkpt>
      <trkpt lat="36.841316" lon="-5.296784">
        <ele>1124.0</ele>
        <time>2016-09-23T15:26:53Z</time>
      </trkpt>
      <trkpt lat="36.841398" lon="-5.296683">
        <ele>1128.0</ele>
        <time>2016-09-23T15:26:56Z</time>
      </trkpt>
      <trkpt lat="36.841497" lon="-5.296600">
        <ele>1124.0</ele>
        <time>2016-09-23T15:26:59Z</time>
      </trkpt>
      <trkpt lat="36.841514" lon="-5.296250">
        <ele>1120.0</ele>
        <time>2016-09-23T15:27:02Z</time>
      </trkpt>
      <trkpt lat="36.841282" lon="-5.295900">
        <ele>1129.0</ele>
        <time>2016-09-23T15:27:05Z</time>
      </trkpt>
      <trkpt lat="36.841033" lon="-5.295767">
        <ele>1132.0</ele>
        <time>2016-09-23T15:27:08Z</time>
      </trkpt>
      <trkpt lat="36.840732" lon="-5.295733">
        <ele>1135.0</ele>
        <time>2016-09-23T15:27:11Z</time>
      </trkpt>
      <trkpt lat="36.840500" lon="-5.295833">
        <ele>1138.0</ele>
        <time>2016-09-23T15:27:14Z</time>
      </trkpt>
      <trkpt lat="36.840234" lon="-5.296000">
        <ele>1138.0</ele>
        <time>2016-09-23T15:27:18Z</time>
      </trkpt>
      <trkpt lat="36.840316" lon="-5.296117">
        <ele>1137.0</ele>
        <time>2016-09-23T15:27:21Z</time>
      </trkpt>
      <trkpt lat="36.840449" lon="-5.296067">
        <ele>1141.0</ele>
        <time>2016-09-23T15:27:24Z</time>
      </trkpt>
      <trkpt lat="36.840548" lon="-5.295983">
        <ele>1137.0</ele>
        <time>2016-09-23T15:27:27Z</time>
      </trkpt>
      <trkpt lat="36.840746" lon="-5.295767">
        <ele>1134.0</ele>
        <time>2016-09-23T15:27:30Z</time>
      </trkpt>
      <trkpt lat="36.840831" lon="-5.295633">
        <ele>1138.0</ele>
        <time>2016-09-23T15:27:33Z</time>
      </trkpt>
      <trkpt lat="36.840999" lon="-5.295433">
        <ele>1141.0</ele>
        <time>2016-09-23T15:27:36Z</time>
      </trkpt>
      <trkpt lat="36.841098" lon="-5.295250">
        <ele>1146.0</ele>
        <time>2016-09-23T15:27:39Z</time>
      </trkpt>
      <trkpt lat="36.841217" lon="-5.295067">
        <ele>1146.0</ele>
        <time>2016-09-23T15:27:42Z</time>
      </trkpt>
      <trkpt lat="36.841330" lon="-5.294967">
        <ele>1150.0</ele>
        <time>2016-09-23T15:27:45Z</time>
      </trkpt>
      <trkpt lat="36.841480" lon="-5.294866">
        <ele>1152.0</ele>
        <time>2016-09-23T15:27:48Z</time>
      </trkpt>
      <trkpt lat="36.841648" lon="-5.294750">
        <ele>1158.0</ele>
        <time>2016-09-23T15:27:51Z</time>
      </trkpt>
      <trkpt lat="36.841781" lon="-5.294667">
        <ele>1164.0</ele>
        <time>2016-09-23T15:27:54Z</time>
      </trkpt>
      <trkpt lat="36.841900" lon="-5.294700">
        <ele>1175.0</ele>
        <time>2016-09-23T15:27:57Z</time>
      </trkpt>
      <trkpt lat="36.841965" lon="-5.294783">
        <ele>1187.0</ele>
        <time>2016-09-23T15:28:01Z</time>
      </trkpt>
      <trkpt lat="36.841948" lon="-5.294917">
        <ele>1191.0</ele>
        <time>2016-09-23T15:28:04Z</time>
      </trkpt>
      <trkpt lat="36.841815" lon="-5.295117">
        <ele>1199.0</ele>
        <time>2016-09-23T15:28:07Z</time>
      </trkpt>
      <trkpt lat="36.841614" lon="-5.295267">
        <ele>1204.0</ele>
        <time>2016-09-23T15:28:10Z</time>
      </trkpt>
      <trkpt lat="36.841614" lon="-5.295400">
        <ele>1207.0</ele>
        <time>2016-09-23T15:28:13Z</time>
      </trkpt>
      <trkpt lat="36.841699" lon="-5.295400">
        <ele>1216.0</ele>
        <time>2016-09-23T15:28:16Z</time>
      </trkpt>
      <trkpt lat="36.841733" lon="-5.295467">
        <ele>1217.0</ele>
        <time>2016-09-23T15:28:19Z</time>
      </trkpt>
      <trkpt lat="36.841815" lon="-5.295367">
        <ele>1221.0</ele>
        <time>2016-09-23T15:28:22Z</time>
      </trkpt>
      <trkpt lat="36.841832" lon="-5.295084">
        <ele>1225.0</ele>
        <time>2016-09-23T15:28:25Z</time>
      </trkpt>
      <trkpt lat="36.841668" lon="-5.294717">
        <ele>1228.0</ele>
        <time>2016-09-23T15:28:28Z</time>
      </trkpt>
      <trkpt lat="36.841296" lon="-5.294583">
        <ele>1234.0</ele>
        <time>2016-09-23T15:28:31Z</time>
      </trkpt>
      <trkpt lat="36.840930" lon="-5.294583">
        <ele>1243.0</ele>
        <time>2016-09-23T15:28:34Z</time>
      </trkpt>
      <trkpt lat="36.840664" lon="-5.294700">
        <ele>1245.0</ele>
        <time>2016-09-23T15:28:37Z</time>
      </trkpt>
      <trkpt lat="36.840531" lon="-5.294967">
        <ele>1251.0</ele>
        <time>2016-09-23T15:28:41Z</time>
      </trkpt>
      <trkpt lat="36.840582" lon="-5.295100">
        <ele>1254.0</ele>
        <time>2016-09-23T15:28:44Z</time>
      </trkpt>
      <trkpt lat="36.840712" lon="-5.295017">
        <ele>1257.0</ele>
        <time>2016-09-23T15:28:47Z</time>
      </trkpt>
      <trkpt lat="36.840767" lon="-5.294717">
        <ele>1262.0</ele>
        <time>2016-09-23T15:28:50Z</time>
      </trkpt>
      <trkpt lat="36.840531" lon="-5.294400">
        <ele>1265.0</ele>
        <time>2016-09-23T15:28:53Z</time>
      </trkpt>
      <trkpt lat="36.840165" lon="-5.294283">
        <ele>1270.0</ele>
        <time>2016-09-23T15:28:56Z</time>
      </trkpt>
      <trkpt lat="36.839831" lon="-5.294300">
        <ele>1275.0</ele>
        <time>2016-09-23T15:28:59Z</time>
      </trkpt>
      <trkpt lat="36.839633" lon="-5.294466">
        <ele>1276.0</ele>
        <time>2016-09-23T15:29:02Z</time>
      </trkpt>
      <trkpt lat="36.839564" lon="-5.294667">
        <ele>1278.0</ele>
        <time>2016-09-23T15:29:05Z</time>
      </trkpt>
      <trkpt lat="36.839581" lon="-5.294816">
        <ele>1280.0</ele>
        <time>2016-09-23T15:29:08Z</time>
      </trkpt>
      <trkpt lat="36.839633" lon="-5.294950">
        <ele>1278.0</ele>
        <time>2016-09-23T15:29:11Z</time>
      </trkpt>
      <trkpt lat="36.839715" lon="-5.295117">
        <ele>1276.0</ele>
        <time>2016-09-23T15:29:14Z</time>
      </trkpt>
      <trkpt lat="36.839797" lon="-5.295267">
        <ele>1278.0</ele>
        <time>2016-09-23T15:29:17Z</time>
      </trkpt>
      <trkpt lat="36.839831" lon="-5.295433">
        <ele>1277.0</ele>
        <time>2016-09-23T15:29:20Z</time>
      </trkpt>
      <trkpt lat="36.839848" lon="-5.295717">
        <ele>1276.0</ele>
        <time>2016-09-23T15:29:24Z</time>
      </trkpt>
      <trkpt lat="36.839964" lon="-5.295833">
        <ele>1278.0</ele>
        <time>2016-09-23T15:29:27Z</time>
      </trkpt>
      <trkpt lat="36.840063" lon="-5.295900">
        <ele>1284.0</ele>
        <time>2016-09-23T15:29:30Z</time>
      </trkpt>
      <trkpt lat="36.840135" lon="-5.296017">
        <ele>1293.0</ele>
        <time>2016-09-23T15:29:33Z</time>
      </trkpt>
      <trkpt lat="36.840183" lon="-5.296117">
        <ele>1297.0</ele>
        <time>2016-09-23T15:29:36Z</time>
      </trkpt>
      <trkpt lat="36.840333" lon="-5.296200">
        <ele>1299.0</ele>
        <time>2016-09-23T15:29:39Z</time>
      </trkpt>
      <trkpt lat="36.840514" lon="-5.296100">
        <ele>1301.0</ele>
        <time>2016-09-23T15:29:42Z</time>
      </trkpt>
      <trkpt lat="36.840681" lon="-5.295950">
        <ele>1306.0</ele>
        <time>2016-09-23T15:29:45Z</time>
      </trkpt>
      <trkpt lat="36.840831" lon="-5.295816">
        <ele>1318.0</ele>
        <time>2016-09-23T15:29:48Z</time>
      </trkpt>
      <trkpt lat="36.840917" lon="-5.295683">
        <ele>1322.0</ele>
        <time>2016-09-23T15:29:51Z</time>
      </trkpt>
      <trkpt lat="36.841033" lon="-5.295449">
        <ele>1325.0</ele>
        <time>2016-09-23T15:29:54Z</time>
      </trkpt>
      <trkpt lat="36.840866" lon="-5.295084">
        <ele>1329.0</ele>
        <time>2016-09-23T15:29:57Z</time>
      </trkpt>
      <trkpt lat="36.840531" lon="-5.294917">
        <ele>1334.0</ele>
        <time>2016-09-23T15:30:00Z</time>
      </trkpt>
      <trkpt lat="36.840200" lon="-5.295067">
        <ele>1340.0</ele>
        <time>2016-09-23T15:30:04Z</time>
      </trkpt>
      <trkpt lat="36.840148" lon="-5.295250">
        <ele>1345.0</ele>
        <time>2016-09-23T15:30:07Z</time>
      </trkpt>
      <trkpt lat="36.840234" lon="-5.295300">
        <ele>1349.0</ele>
        <time>2016-09-23T15:30:10Z</time>
      </trkpt>
      <trkpt lat="36.840333" lon="-5.295150">
        <ele>1351.0</ele>
        <time>2016-09-23T15:30:13Z</time>
      </trkpt>
      <trkpt lat="36.840367" lon="-5.294833">
        <ele>1350.0</ele>
        <time>2016-09-23T15:30:16Z</time>
      </trkpt>
      <trkpt lat="36.840183" lon="-5.294466">
        <ele>1349.0</ele>
        <time>2016-09-23T15:30:19Z</time>
      </trkpt>
      <trkpt lat="36.839831" lon="-5.294250">
        <ele>1353.0</ele>
        <time>2016-09-23T15:30:22Z</time>
      </trkpt>
      <trkpt lat="36.839530" lon="-5.294133">
        <ele>1362.0</ele>
        <time>2016-09-23T15:30:25Z</time>
      </trkpt>
      <trkpt lat="36.839233" lon="-5.294100">
        <ele>1368.0</ele>
        <time>2016-09-23T15:30:28Z</time>
      </trkpt>
      <trkpt lat="36.839015" lon="-5.294217">
        <ele>1375.0</ele>
        <time>2016-09-23T15:30:31Z</time>
      </trkpt>
      <trkpt lat="36.838834" lon="-5.294483">
        <ele>1386.0</ele>
        <time>2016-09-23T15:30:35Z</time>
      </trkpt>
      <trkpt lat="36.838782" lon="-5.294700">
        <ele>1399.0</ele>
        <time>2016-09-23T15:30:38Z</time>
      </trkpt>
      <trkpt lat="36.838813" lon="-5.294900">
        <ele>1406.0</ele>
        <time>2016-09-23T15:30:41Z</time>
      </trkpt>
      <trkpt lat="36.838916" lon="-5.294933">
        <ele>1414.0</ele>
        <time>2016-09-23T15:30:44Z</time>
      </trkpt>
      <trkpt lat="36.838946" lon="-5.294667">
        <ele>1418.0</ele>
        <time>2016-09-23T15:30:47Z</time>
      </trkpt>
      <trkpt lat="36.838813" lon="-5.294300">
        <ele>1422.0</ele>
        <time>2016-09-23T15:30:50Z</time>
      </trkpt>
      <trkpt lat="36.838530" lon="-5.294017">
        <ele>1424.0</ele>
        <time>2016-09-23T15:30:53Z</time>
      </trkpt>
      <trkpt lat="36.838181" lon="-5.293883">
        <ele>1433.0</ele>
        <time>2016-09-23T15:30:56Z</time>
      </trkpt>
      <trkpt lat="36.837898" lon="-5.293750">
        <ele>1450.0</ele>
        <time>2016-09-23T15:30:59Z</time>
      </trkpt>
      <trkpt lat="36.837597" lon="-5.293700">
        <ele>1460.0</ele>
        <time>2016-09-23T15:31:02Z</time>
      </trkpt>
      <trkpt lat="36.837365" lon="-5.293750">
        <ele>1470.0</ele>
        <time>2016-09-23T15:31:05Z</time>
      </trkpt>
      <trkpt lat="36.837249" lon="-5.293850">
        <ele>1465.0</ele>
        <time>2016-09-23T15:31:08Z</time>
      </trkpt>
      <trkpt lat="36.837232" lon="-5.294034">
        <ele>1466.0</ele>
        <time>2016-09-23T15:31:11Z</time>
      </trkpt>
      <trkpt lat="36.837447" lon="-5.293967">
        <ele>1467.0</ele>
        <time>2016-09-23T15:31:15Z</time>
      </trkpt>
      <trkpt lat="36.837468" lon="-5.293566">
        <ele>1469.0</ele>
        <time>2016-09-23T15:31:18Z</time>
      </trkpt>
      <trkpt lat="36.837266" lon="-5.293183">
        <ele>1478.0</ele>
        <time>2016-09-23T15:31:21Z</time>
      </trkpt>
      <trkpt lat="36.837017" lon="-5.292933">
        <ele>1495.0</ele>
        <time>2016-09-23T15:31:24Z</time>
      </trkpt>
      <trkpt lat="36.836884" lon="-5.292833">
        <ele>1501.0</ele>
        <time>2016-09-23T15:31:26Z</time>
      </trkpt>
      <trkpt lat="36.836597" lon="-5.292717">
        <ele>1501.0</ele>
        <time>2016-09-23T15:31:29Z</time>
      </trkpt>
      <trkpt lat="36.836385" lon="-5.292850">
        <ele>1503.0</ele>
        <time>2016-09-23T15:31:33Z</time>
      </trkpt>
      <trkpt lat="36.836416" lon="-5.292967">
        <ele>1506.0</ele>
        <time>2016-09-23T15:31:36Z</time>
      </trkpt>
      <trkpt lat="36.836498" lon="-5.293050">
        <ele>1510.0</ele>
        <time>2016-09-23T15:31:39Z</time>
      </trkpt>
      <trkpt lat="36.836665" lon="-5.292950">
        <ele>1515.0</ele>
        <time>2016-09-23T15:31:42Z</time>
      </trkpt>
      <trkpt lat="36.836863" lon="-5.292783">
        <ele>1526.0</ele>
        <time>2016-09-23T15:31:45Z</time>
      </trkpt>
      <trkpt lat="36.836983" lon="-5.292466">
        <ele>1531.0</ele>
        <time>2016-09-23T15:31:48Z</time>
      </trkpt>
      <trkpt lat="36.836962" lon="-5.292050">
        <ele>1536.0</ele>
        <time>2016-09-23T15:31:51Z</time>
      </trkpt>
      <trkpt lat="36.836931" lon="-5.291683">
        <ele>1542.0</ele>
        <time>2016-09-23T15:31:54Z</time>
      </trkpt>
      <trkpt lat="36.836764" lon="-5.291383">
        <ele>1549.0</ele>
        <time>2016-09-23T15:31:57Z</time>
      </trkpt>
      <trkpt lat="36.836515" lon="-5.291117">
        <ele>1558.0</ele>
        <time>2016-09-23T15:32:00Z</time>
      </trkpt>
      <trkpt lat="36.836313" lon="-5.290883">
        <ele>1561.0</ele>
        <time>2016-09-23T15:32:03Z</time>
      </trkpt>
      <trkpt lat="36.836047" lon="-5.290850">
        <ele>1562.0</ele>
        <time>2016-09-23T15:32:06Z</time>
      </trkpt>
      <trkpt lat="36.835965" lon="-5.291050">
        <ele>1564.0</ele>
        <time>2016-09-23T15:32:09Z</time>
      </trkpt>
      <trkpt lat="36.836115" lon="-5.291200">
        <ele>1570.0</ele>
        <time>2016-09-23T15:32:13Z</time>
      </trkpt>
      <trkpt lat="36.836300" lon="-5.291050">
        <ele>1576.0</ele>
        <time>2016-09-23T15:32:16Z</time>
      </trkpt>
      <trkpt lat="36.836351" lon="-5.290667">
        <ele>1580.0</ele>
        <time>2016-09-23T15:32:19Z</time>
      </trkpt>
      <trkpt lat="36.836197" lon="-5.290317">
        <ele>1581.0</ele>
        <time>2016-09-23T15:32:22Z</time>
      </trkpt>
      <trkpt lat="36.835965" lon="-5.290084">
        <ele>1587.0</ele>
        <time>2016-09-23T15:32:25Z</time>
      </trkpt>
      <trkpt lat="36.835767" lon="-5.290016">
        <ele>1590.0</ele>
        <time>2016-09-23T15:32:28Z</time>
      </trkpt>
      <trkpt lat="36.835596" lon="-5.290150">
        <ele>1589.0</ele>
        <time>2016-09-23T15:32:31Z</time>
      </trkpt>
      <trkpt lat="36.835634" lon="-5.290333">
        <ele>1594.0</ele>
        <time>2016-09-23T15:32:34Z</time>
      </trkpt>
      <trkpt lat="36.835781" lon="-5.290433">
        <ele>1600.0</ele>
        <time>2016-09-23T15:32:37Z</time>
      </trkpt>
      <trkpt lat="36.835965" lon="-5.290367">
        <ele>1602.0</ele>
        <time>2016-09-23T15:32:40Z</time>
      </trkpt>
      <trkpt lat="36.836132" lon="-5.290117">
        <ele>1601.0</ele>
        <time>2016-09-23T15:32:43Z</time>
      </trkpt>
      <trkpt lat="36.836132" lon="-5.289717">
        <ele>1603.0</ele>
        <time>2016-09-23T15:32:46Z</time>
      </trkpt>
      <trkpt lat="36.835965" lon="-5.289334">
        <ele>1608.0</ele>
        <time>2016-09-23T15:32:49Z</time>
      </trkpt>
      <trkpt lat="36.835716" lon="-5.288883">
        <ele>1611.0</ele>
        <time>2016-09-23T15:32:53Z</time>
      </trkpt>
      <trkpt lat="36.835432" lon="-5.288783">
        <ele>1615.0</ele>
        <time>2016-09-23T15:32:56Z</time>
      </trkpt>
      <trkpt lat="36.835197" lon="-5.288817">
        <ele>1619.0</ele>
        <time>2016-09-23T15:32:59Z</time>
      </trkpt>
      <trkpt lat="36.835149" lon="-5.289000">
        <ele>1619.0</ele>
        <time>2016-09-23T15:33:02Z</time>
      </trkpt>
      <trkpt lat="36.835364" lon="-5.289033">
        <ele>1621.0</ele>
        <time>2016-09-23T15:33:05Z</time>
      </trkpt>
      <trkpt lat="36.835514" lon="-5.288767">
        <ele>1624.0</ele>
        <time>2016-09-23T15:33:08Z</time>
      </trkpt>
      <trkpt lat="36.835562" lon="-5.288383">
        <ele>1626.0</ele>
        <time>2016-09-23T15:33:11Z</time>
      </trkpt>
      <trkpt lat="36.835497" lon="-5.288000">
        <ele>1628.0</ele>
        <time>2016-09-23T15:33:14Z</time>
      </trkpt>
      <trkpt lat="36.835330" lon="-5.287667">
        <ele>1630.0</ele>
        <time>2016-09-23T15:33:17Z</time>
      </trkpt>
      <trkpt lat="36.835132" lon="-5.287483">
        <ele>1625.0</ele>
        <time>2016-09-23T15:33:20Z</time>
      </trkpt>
      <trkpt lat="36.834865" lon="-5.287483">
        <ele>1625.0</ele>
        <time>2016-09-23T15:33:23Z</time>
      </trkpt>
      <trkpt lat="36.834647" lon="-5.287533">
        <ele>1628.0</ele>
        <time>2016-09-23T15:33:26Z</time>
      </trkpt>
      <trkpt lat="36.834414" lon="-5.287617">
        <ele>1631.0</ele>
        <time>2016-09-23T15:33:29Z</time>
      </trkpt>
      <trkpt lat="36.834268" lon="-5.287650">
        <ele>1632.0</ele>
        <time>2016-09-23T15:33:32Z</time>
      </trkpt>
      <trkpt lat="36.834063" lon="-5.287883">
        <ele>1633.0</ele>
        <time>2016-09-23T15:33:36Z</time>
      </trkpt>
      <trkpt lat="36.834114" lon="-5.288083">
        <ele>1637.0</ele>
        <time>2016-09-23T15:33:39Z</time>
      </trkpt>
      <trkpt lat="36.834247" lon="-5.288183">
        <ele>1638.0</ele>
        <time>2016-09-23T15:33:42Z</time>
      </trkpt>
      <trkpt lat="36.834449" lon="-5.287983">
        <ele>1638.0</ele>
        <time>2016-09-23T15:33:45Z</time>
      </trkpt>
      <trkpt lat="36.834479" lon="-5.287550">
        <ele>1636.0</ele>
        <time>2016-09-23T15:33:48Z</time>
      </trkpt>
      <trkpt lat="36.834332" lon="-5.287117">
        <ele>1634.0</ele>
        <time>2016-09-23T15:33:51Z</time>
      </trkpt>
      <trkpt lat="36.834114" lon="-5.286817">
        <ele>1635.0</ele>
        <time>2016-09-23T15:33:54Z</time>
      </trkpt>
      <trkpt lat="36.833929" lon="-5.286650">
        <ele>1640.0</ele>
        <time>2016-09-23T15:33:57Z</time>
      </trkpt>
      <trkpt lat="36.833831" lon="-5.286533">
        <ele>1639.0</ele>
        <time>2016-09-23T15:34:00Z</time>
      </trkpt>
      <trkpt lat="36.833598" lon="-5.286383">
        <ele>1627.0</ele>
        <time>2016-09-23T15:34:03Z</time>
      </trkpt>
      <trkpt lat="36.833298" lon="-5.286233">
        <ele>1621.0</ele>
        <time>2016-09-23T15:34:06Z</time>
      </trkpt>
      <trkpt lat="36.833031" lon="-5.286233">
        <ele>1613.0</ele>
        <time>2016-09-23T15:34:09Z</time>
      </trkpt>
      <trkpt lat="36.832734" lon="-5.286200">
        <ele>1603.0</ele>
        <time>2016-09-23T15:34:12Z</time>
      </trkpt>
      <trkpt lat="36.832451" lon="-5.286116">
        <ele>1593.0</ele>
        <time>2016-09-23T15:34:15Z</time>
      </trkpt>
      <trkpt lat="36.832051" lon="-5.285917">
        <ele>1578.0</ele>
        <time>2016-09-23T15:34:19Z</time>
      </trkpt>
      <trkpt lat="36.831867" lon="-5.285683">
        <ele>1571.0</ele>
        <time>2016-09-23T15:34:22Z</time>
      </trkpt>
      <trkpt lat="36.831648" lon="-5.285400">
        <ele>1561.0</ele>
        <time>2016-09-23T15:34:25Z</time>
      </trkpt>
      <trkpt lat="36.831433" lon="-5.285167">
        <ele>1555.0</ele>
        <time>2016-09-23T15:34:28Z</time>
      </trkpt>
      <trkpt lat="36.831215" lon="-5.284917">
        <ele>1545.0</ele>
        <time>2016-09-23T15:34:31Z</time>
      </trkpt>
      <trkpt lat="36.830996" lon="-5.284616">
        <ele>1543.0</ele>
        <time>2016-09-23T15:34:34Z</time>
      </trkpt>
      <trkpt lat="36.830798" lon="-5.284367">
        <ele>1540.0</ele>
        <time>2016-09-23T15:34:37Z</time>
      </trkpt>
      <trkpt lat="36.830631" lon="-5.284067">
        <ele>1531.0</ele>
        <time>2016-09-23T15:34:40Z</time>
      </trkpt>
      <trkpt lat="36.830450" lon="-5.283733">
        <ele>1521.0</ele>
        <time>2016-09-23T15:34:43Z</time>
      </trkpt>
      <trkpt lat="36.830265" lon="-5.283434">
        <ele>1516.0</ele>
        <time>2016-09-23T15:34:46Z</time>
      </trkpt>
      <trkpt lat="36.830115" lon="-5.283133">
        <ele>1506.0</ele>
        <time>2016-09-23T15:34:49Z</time>
      </trkpt>
      <trkpt lat="36.829883" lon="-5.282850">
        <ele>1502.0</ele>
        <time>2016-09-23T15:34:52Z</time>
      </trkpt>
      <trkpt lat="36.829650" lon="-5.282683">
        <ele>1492.0</ele>
        <time>2016-09-23T15:34:55Z</time>
      </trkpt>
      <trkpt lat="36.829432" lon="-5.282383">
        <ele>1488.0</ele>
        <time>2016-09-23T15:34:58Z</time>
      </trkpt>
      <trkpt lat="36.829097" lon="-5.282067">
        <ele>1479.0</ele>
        <time>2016-09-23T15:35:02Z</time>
      </trkpt>
      <trkpt lat="36.828800" lon="-5.281850">
        <ele>1474.0</ele>
        <time>2016-09-23T15:35:05Z</time>
      </trkpt>
      <trkpt lat="36.828547" lon="-5.281650">
        <ele>1467.0</ele>
        <time>2016-09-23T15:35:08Z</time>
      </trkpt>
      <trkpt lat="36.828332" lon="-5.281350">
        <ele>1457.0</ele>
        <time>2016-09-23T15:35:11Z</time>
      </trkpt>
      <trkpt lat="36.828131" lon="-5.281050">
        <ele>1452.0</ele>
        <time>2016-09-23T15:35:14Z</time>
      </trkpt>
      <trkpt lat="36.827998" lon="-5.280717">
        <ele>1445.0</ele>
        <time>2016-09-23T15:35:17Z</time>
      </trkpt>
      <trkpt lat="36.827881" lon="-5.280383">
        <ele>1440.0</ele>
        <time>2016-09-23T15:35:20Z</time>
      </trkpt>
      <trkpt lat="36.827816" lon="-5.280017">
        <ele>1434.0</ele>
        <time>2016-09-23T15:35:23Z</time>
      </trkpt>
      <trkpt lat="36.827765" lon="-5.279667">
        <ele>1431.0</ele>
        <time>2016-09-23T15:35:26Z</time>
      </trkpt>
      <trkpt lat="36.827649" lon="-5.279350">
        <ele>1425.0</ele>
        <time>2016-09-23T15:35:29Z</time>
      </trkpt>
      <trkpt lat="36.827533" lon="-5.279000">
        <ele>1422.0</ele>
        <time>2016-09-23T15:35:32Z</time>
      </trkpt>
      <trkpt lat="36.827379" lon="-5.278684">
        <ele>1415.0</ele>
        <time>2016-09-23T15:35:35Z</time>
      </trkpt>
      <trkpt lat="36.827198" lon="-5.278200">
        <ele>1407.0</ele>
        <time>2016-09-23T15:35:39Z</time>
      </trkpt>
      <trkpt lat="36.827065" lon="-5.277834">
        <ele>1400.0</ele>
        <time>2016-09-23T15:35:42Z</time>
      </trkpt>
      <trkpt lat="36.826932" lon="-5.277450">
        <ele>1396.0</ele>
        <time>2016-09-23T15:35:45Z</time>
      </trkpt>
      <trkpt lat="36.826833" lon="-5.277084">
        <ele>1391.0</ele>
        <time>2016-09-23T15:35:48Z</time>
      </trkpt>
      <trkpt lat="36.826734" lon="-5.276717">
        <ele>1388.0</ele>
        <time>2016-09-23T15:35:51Z</time>
      </trkpt>
      <trkpt lat="36.826649" lon="-5.276367">
        <ele>1381.0</ele>
        <time>2016-09-23T15:35:54Z</time>
      </trkpt>
      <trkpt lat="36.826529" lon="-5.275967">
        <ele>1377.0</ele>
        <time>2016-09-23T15:35:57Z</time>
      </trkpt>
      <trkpt lat="36.826450" lon="-5.275683">
        <ele>1375.0</ele>
        <time>2016-09-23T15:36:00Z</time>
      </trkpt>
      <trkpt lat="36.826317" lon="-5.275367">
        <ele>1367.0</ele>
        <time>2016-09-23T15:36:03Z</time>
      </trkpt>
      <trkpt lat="36.826198" lon="-5.275050">
        <ele>1363.0</ele>
        <time>2016-09-23T15:36:06Z</time>
      </trkpt>
      <trkpt lat="36.826099" lon="-5.274750">
        <ele>1353.0</ele>
        <time>2016-09-23T15:36:09Z</time>
      </trkpt>
      <trkpt lat="36.826000" lon="-5.274383">
        <ele>1347.0</ele>
        <time>2016-09-23T15:36:12Z</time>
      </trkpt>
      <trkpt lat="36.825952" lon="-5.274017">
        <ele>1340.0</ele>
        <time>2016-09-23T15:36:15Z</time>
      </trkpt>
      <trkpt lat="36.825867" lon="-5.273633">
        <ele>1335.0</ele>
        <time>2016-09-23T15:36:18Z</time>
      </trkpt>
      <trkpt lat="36.825767" lon="-5.273300">
        <ele>1328.0</ele>
        <time>2016-09-23T15:36:21Z</time>
      </trkpt>
      <trkpt lat="36.825515" lon="-5.272850">
        <ele>1320.0</ele>
        <time>2016-09-23T15:36:25Z</time>
      </trkpt>
      <trkpt lat="36.825399" lon="-5.272583">
        <ele>1319.0</ele>
        <time>2016-09-23T15:36:28Z</time>
      </trkpt>
      <trkpt lat="36.825433" lon="-5.272284">
        <ele>1314.0</ele>
        <time>2016-09-23T15:36:31Z</time>
      </trkpt>
      <trkpt lat="36.825515" lon="-5.271967">
        <ele>1306.0</ele>
        <time>2016-09-23T15:36:34Z</time>
      </trkpt>
      <trkpt lat="36.825549" lon="-5.271617">
        <ele>1298.0</ele>
        <time>2016-09-23T15:36:37Z</time>
      </trkpt>
      <trkpt lat="36.825566" lon="-5.271267">
        <ele>1295.0</ele>
        <time>2016-09-23T15:36:40Z</time>
      </trkpt>
      <trkpt lat="36.825566" lon="-5.270917">
        <ele>1287.0</ele>
        <time>2016-09-23T15:36:43Z</time>
      </trkpt>
      <trkpt lat="36.825532" lon="-5.270550">
        <ele>1281.0</ele>
        <time>2016-09-23T15:36:46Z</time>
      </trkpt>
      <trkpt lat="36.825399" lon="-5.270250">
        <ele>1278.0</ele>
        <time>2016-09-23T15:36:49Z</time>
      </trkpt>
      <trkpt lat="36.825235" lon="-5.269984">
        <ele>1270.0</ele>
        <time>2016-09-23T15:36:52Z</time>
      </trkpt>
      <trkpt lat="36.825030" lon="-5.269717">
        <ele>1265.0</ele>
        <time>2016-09-23T15:36:55Z</time>
      </trkpt>
      <trkpt lat="36.824798" lon="-5.269484">
        <ele>1258.0</ele>
        <time>2016-09-23T15:36:58Z</time>
      </trkpt>
      <trkpt lat="36.824518" lon="-5.269317">
        <ele>1253.0</ele>
        <time>2016-09-23T15:37:01Z</time>
      </trkpt>
      <trkpt lat="36.824132" lon="-5.269200">
        <ele>1249.0</ele>
        <time>2016-09-23T15:37:05Z</time>
      </trkpt>
      <trkpt lat="36.823848" lon="-5.269150">
        <ele>1243.0</ele>
        <time>2016-09-23T15:37:08Z</time>
      </trkpt>
      <trkpt lat="36.823548" lon="-5.269134">
        <ele>1239.0</ele>
        <time>2016-09-23T15:37:11Z</time>
      </trkpt>
      <trkpt lat="36.823264" lon="-5.269083">
        <ele>1236.0</ele>
        <time>2016-09-23T15:37:14Z</time>
      </trkpt>
      <trkpt lat="36.823018" lon="-5.268967">
        <ele>1231.0</ele>
        <time>2016-09-23T15:37:17Z</time>
      </trkpt>
      <trkpt lat="36.822701" lon="-5.268934">
        <ele>1226.0</ele>
        <time>2016-09-23T15:37:20Z</time>
      </trkpt>
      <trkpt lat="36.822383" lon="-5.268950">
        <ele>1222.0</ele>
        <time>2016-09-23T15:37:23Z</time>
      </trkpt>
      <trkpt lat="36.822096" lon="-5.268917">
        <ele>1218.0</ele>
        <time>2016-09-23T15:37:26Z</time>
      </trkpt>
      <trkpt lat="36.821850" lon="-5.268800">
        <ele>1210.0</ele>
        <time>2016-09-23T15:37:29Z</time>
      </trkpt>
      <trkpt lat="36.821567" lon="-5.268717">
        <ele>1200.0</ele>
        <time>2016-09-23T15:37:32Z</time>
      </trkpt>
      <trkpt lat="36.821266" lon="-5.268667">
        <ele>1192.0</ele>
        <time>2016-09-23T15:37:35Z</time>
      </trkpt>
      <trkpt lat="36.820966" lon="-5.268667">
        <ele>1184.0</ele>
        <time>2016-09-23T15:37:38Z</time>
      </trkpt>
      <trkpt lat="36.820682" lon="-5.268700">
        <ele>1176.0</ele>
        <time>2016-09-23T15:37:41Z</time>
      </trkpt>
      <trkpt lat="36.820399" lon="-5.268750">
        <ele>1169.0</ele>
        <time>2016-09-23T15:37:44Z</time>
      </trkpt>
      <trkpt lat="36.819979" lon="-5.268784">
        <ele>1164.0</ele>
        <time>2016-09-23T15:37:48Z</time>
      </trkpt>
      <trkpt lat="36.819699" lon="-5.268817">
        <ele>1159.0</ele>
        <time>2016-09-23T15:37:51Z</time>
      </trkpt>
      <trkpt lat="36.819415" lon="-5.268817">
        <ele>1153.0</ele>
        <time>2016-09-23T15:37:54Z</time>
      </trkpt>
      <trkpt lat="36.819132" lon="-5.268800">
        <ele>1148.0</ele>
        <time>2016-09-23T15:37:57Z</time>
      </trkpt>
      <trkpt lat="36.818831" lon="-5.268767">
        <ele>1142.0</ele>
        <time>2016-09-23T15:38:00Z</time>
      </trkpt>
      <trkpt lat="36.818531" lon="-5.268750">
        <ele>1137.0</ele>
        <time>2016-09-23T15:38:03Z</time>
      </trkpt>
      <trkpt lat="36.818247" lon="-5.268734">
        <ele>1135.0</ele>
        <time>2016-09-23T15:38:06Z</time>
      </trkpt>
      <trkpt lat="36.817967" lon="-5.268717">
        <ele>1132.0</ele>
        <time>2016-09-23T15:38:09Z</time>
      </trkpt>
      <trkpt lat="36.817684" lon="-5.268617">
        <ele>1131.0</ele>
        <time>2016-09-23T15:38:12Z</time>
      </trkpt>
      <trkpt lat="36.817418" lon="-5.268534">
        <ele>1129.0</ele>
        <time>2016-09-23T15:38:15Z</time>
      </trkpt>
      <trkpt lat="36.817131" lon="-5.268467">
        <ele>1127.0</ele>
        <time>2016-09-23T15:38:18Z</time>
      </trkpt>
      <trkpt lat="36.816834" lon="-5.268384">
        <ele>1126.0</ele>
        <time>2016-09-23T15:38:21Z</time>
      </trkpt>
      <trkpt lat="36.816547" lon="-5.268250">
        <ele>1125.0</ele>
        <time>2016-09-23T15:38:24Z</time>
      </trkpt>
      <trkpt lat="36.816181" lon="-5.268117">
        <ele>1120.0</ele>
        <time>2016-09-23T15:38:28Z</time>
      </trkpt>
      <trkpt lat="36.815864" lon="-5.268067">
        <ele>1116.0</ele>
        <time>2016-09-23T15:38:31Z</time>
      </trkpt>
      <trkpt lat="36.815584" lon="-5.268150">
        <ele>1109.0</ele>
        <time>2016-09-23T15:38:34Z</time>
      </trkpt>
      <trkpt lat="36.815266" lon="-5.268217">
        <ele>1103.0</ele>
        <time>2016-09-23T15:38:37Z</time>
      </trkpt>
      <trkpt lat="36.814983" lon="-5.268250">
        <ele>1101.0</ele>
        <time>2016-09-23T15:38:40Z</time>
      </trkpt>
      <trkpt lat="36.814648" lon="-5.268250">
        <ele>1097.0</ele>
        <time>2016-09-23T15:38:43Z</time>
      </trkpt>
      <trkpt lat="36.814364" lon="-5.268167">
        <ele>1094.0</ele>
        <time>2016-09-23T15:38:46Z</time>
      </trkpt>
      <trkpt lat="36.814084" lon="-5.268017">
        <ele>1085.0</ele>
        <time>2016-09-23T15:38:49Z</time>
      </trkpt>
      <trkpt lat="36.813801" lon="-5.267817">
        <ele>1082.0</ele>
        <time>2016-09-23T15:38:52Z</time>
      </trkpt>
      <trkpt lat="36.813599" lon="-5.267617">
        <ele>1083.0</ele>
        <time>2016-09-23T15:38:55Z</time>
      </trkpt>
      <trkpt lat="36.813466" lon="-5.267417">
        <ele>1083.0</ele>
        <time>2016-09-23T15:38:58Z</time>
      </trkpt>
      <trkpt lat="36.813282" lon="-5.267233">
        <ele>1084.0</ele>
        <time>2016-09-23T15:39:01Z</time>
      </trkpt>
      <trkpt lat="36.813063" lon="-5.267150">
        <ele>1083.0</ele>
        <time>2016-09-23T15:39:04Z</time>
      </trkpt>
      <trkpt lat="36.812797" lon="-5.267117">
        <ele>1082.0</ele>
        <time>2016-09-23T15:39:07Z</time>
      </trkpt>
      <trkpt lat="36.812414" lon="-5.267050">
        <ele>1085.0</ele>
        <time>2016-09-23T15:39:11Z</time>
      </trkpt>
      <trkpt lat="36.812148" lon="-5.267000">
        <ele>1085.0</ele>
        <time>2016-09-23T15:39:14Z</time>
      </trkpt>
      <trkpt lat="36.811868" lon="-5.267150">
        <ele>1087.0</ele>
        <time>2016-09-23T15:39:17Z</time>
      </trkpt>
      <trkpt lat="36.811714" lon="-5.267400">
        <ele>1096.0</ele>
        <time>2016-09-23T15:39:20Z</time>
      </trkpt>
      <trkpt lat="36.811564" lon="-5.267667">
        <ele>1099.0</ele>
        <time>2016-09-23T15:39:23Z</time>
      </trkpt>
      <trkpt lat="36.811615" lon="-5.267967">
        <ele>1102.0</ele>
        <time>2016-09-23T15:39:26Z</time>
      </trkpt>
      <trkpt lat="36.811868" lon="-5.267950">
        <ele>1107.0</ele>
        <time>2016-09-23T15:39:29Z</time>
      </trkpt>
      <trkpt lat="36.811967" lon="-5.267717">
        <ele>1114.0</ele>
        <time>2016-09-23T15:39:32Z</time>
      </trkpt>
      <trkpt lat="36.811830" lon="-5.267517">
        <ele>1115.0</ele>
        <time>2016-09-23T15:39:35Z</time>
      </trkpt>
      <trkpt lat="36.811564" lon="-5.267650">
        <ele>1120.0</ele>
        <time>2016-09-23T15:39:38Z</time>
      </trkpt>
      <trkpt lat="36.811451" lon="-5.267900">
        <ele>1123.0</ele>
        <time>2016-09-23T15:39:41Z</time>
      </trkpt>
      <trkpt lat="36.811550" lon="-5.268167">
        <ele>1130.0</ele>
        <time>2016-09-23T15:39:44Z</time>
      </trkpt>
      <trkpt lat="36.811748" lon="-5.268150">
        <ele>1136.0</ele>
        <time>2016-09-23T15:39:47Z</time>
      </trkpt>
      <trkpt lat="36.811916" lon="-5.268017">
        <ele>1135.0</ele>
        <time>2016-09-23T15:39:51Z</time>
      </trkpt>
      <trkpt lat="36.811848" lon="-5.267717">
        <ele>1136.0</ele>
        <time>2016-09-23T15:39:54Z</time>
      </trkpt>
      <trkpt lat="36.811731" lon="-5.267434">
        <ele>1141.0</ele>
        <time>2016-09-23T15:39:57Z</time>
      </trkpt>
      <trkpt lat="36.811564" lon="-5.267267">
        <ele>1140.0</ele>
        <time>2016-09-23T15:40:00Z</time>
      </trkpt>
      <trkpt lat="36.811332" lon="-5.267200">
        <ele>1140.0</ele>
        <time>2016-09-23T15:40:03Z</time>
      </trkpt>
      <trkpt lat="36.811079" lon="-5.267134">
        <ele>1141.0</ele>
        <time>2016-09-23T15:40:06Z</time>
      </trkpt>
      <trkpt lat="36.810799" lon="-5.267117">
        <ele>1142.0</ele>
        <time>2016-09-23T15:40:09Z</time>
      </trkpt>
      <trkpt lat="36.810502" lon="-5.267184">
        <ele>1140.0</ele>
        <time>2016-09-23T15:40:12Z</time>
      </trkpt>
      <trkpt lat="36.810164" lon="-5.267367">
        <ele>1134.0</ele>
        <time>2016-09-23T15:40:15Z</time>
      </trkpt>
      <trkpt lat="36.809932" lon="-5.267650">
        <ele>1134.0</ele>
        <time>2016-09-23T15:40:18Z</time>
      </trkpt>
      <trkpt lat="36.809679" lon="-5.267933">
        <ele>1134.0</ele>
        <time>2016-09-23T15:40:21Z</time>
      </trkpt>
      <trkpt lat="36.809546" lon="-5.268167">
        <ele>1133.0</ele>
        <time>2016-09-23T15:40:24Z</time>
      </trkpt>
      <trkpt lat="36.809433" lon="-5.268400">
        <ele>1127.0</ele>
        <time>2016-09-23T15:40:27Z</time>
      </trkpt>
      <trkpt lat="36.809300" lon="-5.268683">
        <ele>1133.0</ele>
        <time>2016-09-23T15:40:30Z</time>
      </trkpt>
      <trkpt lat="36.809102" lon="-5.269000">
        <ele>1136.0</ele>
        <time>2016-09-23T15:40:34Z</time>
      </trkpt>
      <trkpt lat="36.809133" lon="-5.269217">
        <ele>1139.0</ele>
        <time>2016-09-23T15:40:37Z</time>
      </trkpt>
      <trkpt lat="36.809232" lon="-5.269117">
        <ele>1140.0</ele>
        <time>2016-09-23T15:40:40Z</time>
      </trkpt>
      <trkpt lat="36.809167" lon="-5.268800">
        <ele>1144.0</ele>
        <time>2016-09-23T15:40:43Z</time>
      </trkpt>
      <trkpt lat="36.809081" lon="-5.268633">
        <ele>1145.0</ele>
        <time>2016-09-23T15:40:46Z</time>
      </trkpt>
      <trkpt lat="36.808969" lon="-5.268350">
        <ele>1135.0</ele>
        <time>2016-09-23T15:40:49Z</time>
      </trkpt>
      <trkpt lat="36.808914" lon="-5.268067">
        <ele>1141.0</ele>
        <time>2016-09-23T15:40:52Z</time>
      </trkpt>
      <trkpt lat="36.808914" lon="-5.267884">
        <ele>1139.0</ele>
        <time>2016-09-23T15:40:55Z</time>
      </trkpt>
      <trkpt lat="36.808835" lon="-5.267617">
        <ele>1141.0</ele>
        <time>2016-09-23T15:40:58Z</time>
      </trkpt>
      <trkpt lat="36.808699" lon="-5.267400">
        <ele>1139.0</ele>
        <time>2016-09-23T15:41:01Z</time>
      </trkpt>
      <trkpt lat="36.808497" lon="-5.267167">
        <ele>1139.0</ele>
        <time>2016-09-23T15:41:04Z</time>
      </trkpt>
      <trkpt lat="36.808251" lon="-5.266967">
        <ele>1138.0</ele>
        <time>2016-09-23T15:41:07Z</time>
      </trkpt>
      <trkpt lat="36.807965" lon="-5.266767">
        <ele>1139.0</ele>
        <time>2016-09-23T15:41:10Z</time>
      </trkpt>
      <trkpt lat="36.807715" lon="-5.266567">
        <ele>1134.0</ele>
        <time>2016-09-23T15:41:13Z</time>
      </trkpt>
      <trkpt lat="36.807264" lon="-5.266333">
        <ele>1129.0</ele>
        <time>2016-09-23T15:41:17Z</time>
      </trkpt>
      <trkpt lat="36.806882" lon="-5.266200">
        <ele>1123.0</ele>
        <time>2016-09-23T15:41:20Z</time>
      </trkpt>
      <trkpt lat="36.806482" lon="-5.266200">
        <ele>1124.0</ele>
        <time>2016-09-23T15:41:23Z</time>
      </trkpt>
      <trkpt lat="36.806083" lon="-5.266200">
        <ele>1124.0</ele>
        <time>2016-09-23T15:41:26Z</time>
      </trkpt>
      <trkpt lat="36.805717" lon="-5.266217">
        <ele>1135.0</ele>
        <time>2016-09-23T15:41:29Z</time>
      </trkpt>
      <trkpt lat="36.805417" lon="-5.266183">
        <ele>1139.0</ele>
        <time>2016-09-23T15:41:32Z</time>
      </trkpt>
      <trkpt lat="36.805065" lon="-5.266217">
        <ele>1144.0</ele>
        <time>2016-09-23T15:41:35Z</time>
      </trkpt>
      <trkpt lat="36.804799" lon="-5.266350">
        <ele>1148.0</ele>
        <time>2016-09-23T15:41:38Z</time>
      </trkpt>
      <trkpt lat="36.804601" lon="-5.266550">
        <ele>1154.0</ele>
        <time>2016-09-23T15:41:41Z</time>
      </trkpt>
      <trkpt lat="36.804468" lon="-5.266784">
        <ele>1160.0</ele>
        <time>2016-09-23T15:41:44Z</time>
      </trkpt>
      <trkpt lat="36.804450" lon="-5.266917">
        <ele>1160.0</ele>
        <time>2016-09-23T15:41:47Z</time>
      </trkpt>
      <trkpt lat="36.804515" lon="-5.266884">
        <ele>1162.0</ele>
        <time>2016-09-23T15:41:50Z</time>
      </trkpt>
      <trkpt lat="36.804567" lon="-5.266633">
        <ele>1165.0</ele>
        <time>2016-09-23T15:41:53Z</time>
      </trkpt>
      <trkpt lat="36.804549" lon="-5.266200">
        <ele>1168.0</ele>
        <time>2016-09-23T15:41:57Z</time>
      </trkpt>
      <trkpt lat="36.804468" lon="-5.265833">
        <ele>1172.0</ele>
        <time>2016-09-23T15:42:00Z</time>
      </trkpt>
      <trkpt lat="36.804317" lon="-5.265467">
        <ele>1178.0</ele>
        <time>2016-09-23T15:42:03Z</time>
      </trkpt>
      <trkpt lat="36.804017" lon="-5.265183">
        <ele>1183.0</ele>
        <time>2016-09-23T15:42:06Z</time>
      </trkpt>
      <trkpt lat="36.803665" lon="-5.265117">
        <ele>1188.0</ele>
        <time>2016-09-23T15:42:09Z</time>
      </trkpt>
      <trkpt lat="36.803347" lon="-5.265217">
        <ele>1189.0</ele>
        <time>2016-09-23T15:42:12Z</time>
      </trkpt>
      <trkpt lat="36.803214" lon="-5.265450">
        <ele>1189.0</ele>
        <time>2016-09-23T15:42:15Z</time>
      </trkpt>
      <trkpt lat="36.803282" lon="-5.265584">
        <ele>1190.0</ele>
        <time>2016-09-23T15:42:18Z</time>
      </trkpt>
      <trkpt lat="36.803381" lon="-5.265517">
        <ele>1195.0</ele>
        <time>2016-09-23T15:42:21Z</time>
      </trkpt>
      <trkpt lat="36.803481" lon="-5.265433">
        <ele>1199.0</ele>
        <time>2016-09-23T15:42:24Z</time>
      </trkpt>
      <trkpt lat="36.803580" lon="-5.265234">
        <ele>1203.0</ele>
        <time>2016-09-23T15:42:27Z</time>
      </trkpt>
      <trkpt lat="36.803665" lon="-5.265000">
        <ele>1208.0</ele>
        <time>2016-09-23T15:42:30Z</time>
      </trkpt>
      <trkpt lat="36.803713" lon="-5.264700">
        <ele>1211.0</ele>
        <time>2016-09-23T15:42:33Z</time>
      </trkpt>
      <trkpt lat="36.803685" lon="-5.264317">
        <ele>1214.0</ele>
        <time>2016-09-23T15:42:36Z</time>
      </trkpt>
      <trkpt lat="36.803416" lon="-5.263767">
        <ele>1219.0</ele>
        <time>2016-09-23T15:42:40Z</time>
      </trkpt>
      <trkpt lat="36.803101" lon="-5.263517">
        <ele>1222.0</ele>
        <time>2016-09-23T15:42:43Z</time>
      </trkpt>
      <trkpt lat="36.802750" lon="-5.263483">
        <ele>1224.0</ele>
        <time>2016-09-23T15:42:46Z</time>
      </trkpt>
      <trkpt lat="36.802517" lon="-5.263666">
        <ele>1226.0</ele>
        <time>2016-09-23T15:42:49Z</time>
      </trkpt>
      <trkpt lat="36.802449" lon="-5.263883">
        <ele>1229.0</ele>
        <time>2016-09-23T15:42:52Z</time>
      </trkpt>
      <trkpt lat="36.802531" lon="-5.263983">
        <ele>1231.0</ele>
        <time>2016-09-23T15:42:55Z</time>
      </trkpt>
      <trkpt lat="36.802664" lon="-5.263817">
        <ele>1233.0</ele>
        <time>2016-09-23T15:42:58Z</time>
      </trkpt>
      <trkpt lat="36.802664" lon="-5.263467">
        <ele>1234.0</ele>
        <time>2016-09-23T15:43:01Z</time>
      </trkpt>
      <trkpt lat="36.802483" lon="-5.263083">
        <ele>1240.0</ele>
        <time>2016-09-23T15:43:04Z</time>
      </trkpt>
      <trkpt lat="36.802217" lon="-5.262817">
        <ele>1241.0</ele>
        <time>2016-09-23T15:43:07Z</time>
      </trkpt>
      <trkpt lat="36.801899" lon="-5.262717">
        <ele>1241.0</ele>
        <time>2016-09-23T15:43:10Z</time>
      </trkpt>
      <trkpt lat="36.801599" lon="-5.262817">
        <ele>1241.0</ele>
        <time>2016-09-23T15:43:13Z</time>
      </trkpt>
      <trkpt lat="36.801449" lon="-5.263000">
        <ele>1240.0</ele>
        <time>2016-09-23T15:43:16Z</time>
      </trkpt>
      <trkpt lat="36.801517" lon="-5.263150">
        <ele>1240.0</ele>
        <time>2016-09-23T15:43:19Z</time>
      </trkpt>
      <trkpt lat="36.801681" lon="-5.263033">
        <ele>1244.0</ele>
        <time>2016-09-23T15:43:23Z</time>
      </trkpt>
      <trkpt lat="36.801814" lon="-5.262866">
        <ele>1245.0</ele>
        <time>2016-09-23T15:43:26Z</time>
      </trkpt>
      <trkpt lat="36.801913" lon="-5.262600">
        <ele>1246.0</ele>
        <time>2016-09-23T15:43:29Z</time>
      </trkpt>
      <trkpt lat="36.801968" lon="-5.262233">
        <ele>1248.0</ele>
        <time>2016-09-23T15:43:32Z</time>
      </trkpt>
      <trkpt lat="36.801934" lon="-5.261850">
        <ele>1252.0</ele>
        <time>2016-09-23T15:43:35Z</time>
      </trkpt>
      <trkpt lat="36.801814" lon="-5.261450">
        <ele>1254.0</ele>
        <time>2016-09-23T15:43:38Z</time>
      </trkpt>
      <trkpt lat="36.801568" lon="-5.261116">
        <ele>1260.0</ele>
        <time>2016-09-23T15:43:41Z</time>
      </trkpt>
      <trkpt lat="36.801264" lon="-5.260984">
        <ele>1263.0</ele>
        <time>2016-09-23T15:43:44Z</time>
      </trkpt>
      <trkpt lat="36.801049" lon="-5.261083">
        <ele>1262.0</ele>
        <time>2016-09-23T15:43:47Z</time>
      </trkpt>
      <trkpt lat="36.801083" lon="-5.261233">
        <ele>1265.0</ele>
        <time>2016-09-23T15:43:50Z</time>
      </trkpt>
      <trkpt lat="36.801230" lon="-5.261183">
        <ele>1268.0</ele>
        <time>2016-09-23T15:43:53Z</time>
      </trkpt>
      <trkpt lat="36.801350" lon="-5.260883">
        <ele>1273.0</ele>
        <time>2016-09-23T15:43:56Z</time>
      </trkpt>
      <trkpt lat="36.801435" lon="-5.260567">
        <ele>1276.0</ele>
        <time>2016-09-23T15:43:59Z</time>
      </trkpt>
      <trkpt lat="36.801414" lon="-5.260133">
        <ele>1277.0</ele>
        <time>2016-09-23T15:44:02Z</time>
      </trkpt>
      <trkpt lat="36.801230" lon="-5.259550">
        <ele>1284.0</ele>
        <time>2016-09-23T15:44:06Z</time>
      </trkpt>
      <trkpt lat="36.801049" lon="-5.259250">
        <ele>1283.0</ele>
        <time>2016-09-23T15:44:09Z</time>
      </trkpt>
      <trkpt lat="36.800783" lon="-5.259150">
        <ele>1283.0</ele>
        <time>2016-09-23T15:44:12Z</time>
      </trkpt>
      <trkpt lat="36.800646" lon="-5.259267">
        <ele>1282.0</ele>
        <time>2016-09-23T15:44:15Z</time>
      </trkpt>
      <trkpt lat="36.800718" lon="-5.259400">
        <ele>1282.0</ele>
        <time>2016-09-23T15:44:18Z</time>
      </trkpt>
      <trkpt lat="36.800899" lon="-5.259400">
        <ele>1283.0</ele>
        <time>2016-09-23T15:44:21Z</time>
      </trkpt>
      <trkpt lat="36.801066" lon="-5.259317">
        <ele>1289.0</ele>
        <time>2016-09-23T15:44:24Z</time>
      </trkpt>
      <trkpt lat="36.801148" lon="-5.259200">
        <ele>1303.0</ele>
        <time>2016-09-23T15:44:27Z</time>
      </trkpt>
      <trkpt lat="36.801281" lon="-5.258983">
        <ele>1310.0</ele>
        <time>2016-09-23T15:44:30Z</time>
      </trkpt>
      <trkpt lat="36.801315" lon="-5.258584">
        <ele>1315.0</ele>
        <time>2016-09-23T15:44:33Z</time>
      </trkpt>
      <trkpt lat="36.801148" lon="-5.258316">
        <ele>1315.0</ele>
        <time>2016-09-23T15:44:36Z</time>
      </trkpt>
      <trkpt lat="36.800933" lon="-5.258383">
        <ele>1315.0</ele>
        <time>2016-09-23T15:44:39Z</time>
      </trkpt>
      <trkpt lat="36.800984" lon="-5.258616">
        <ele>1322.0</ele>
        <time>2016-09-23T15:44:42Z</time>
      </trkpt>
      <trkpt lat="36.801083" lon="-5.258650">
        <ele>1332.0</ele>
        <time>2016-09-23T15:44:46Z</time>
      </trkpt>
      <trkpt lat="36.801182" lon="-5.258717">
        <ele>1341.0</ele>
        <time>2016-09-23T15:44:49Z</time>
      </trkpt>
      <trkpt lat="36.801264" lon="-5.258817">
        <ele>1356.0</ele>
        <time>2016-09-23T15:44:52Z</time>
      </trkpt>
      <trkpt lat="36.801332" lon="-5.258850">
        <ele>1365.0</ele>
        <time>2016-09-23T15:44:55Z</time>
      </trkpt>
      <trkpt lat="36.801462" lon="-5.258850">
        <ele>1371.0</ele>
        <time>2016-09-23T15:44:58Z</time>
      </trkpt>
      <trkpt lat="36.801568" lon="-5.258767">
        <ele>1371.0</ele>
        <time>2016-09-23T15:45:01Z</time>
      </trkpt>
      <trkpt lat="36.801616" lon="-5.258450">
        <ele>1370.0</ele>
        <time>2016-09-23T15:45:04Z</time>
      </trkpt>
      <trkpt lat="36.801548" lon="-5.258167">
        <ele>1378.0</ele>
        <time>2016-09-23T15:45:07Z</time>
      </trkpt>
      <trkpt lat="36.801435" lon="-5.257883">
        <ele>1384.0</ele>
        <time>2016-09-23T15:45:10Z</time>
      </trkpt>
      <trkpt lat="36.801216" lon="-5.257733">
        <ele>1386.0</ele>
        <time>2016-09-23T15:45:13Z</time>
      </trkpt>
      <trkpt lat="36.800984" lon="-5.257733">
        <ele>1389.0</ele>
        <time>2016-09-23T15:45:16Z</time>
      </trkpt>
      <trkpt lat="36.800731" lon="-5.257767">
        <ele>1396.0</ele>
        <time>2016-09-23T15:45:19Z</time>
      </trkpt>
      <trkpt lat="36.800482" lon="-5.257867">
        <ele>1400.0</ele>
        <time>2016-09-23T15:45:22Z</time>
      </trkpt>
      <trkpt lat="36.800147" lon="-5.257966">
        <ele>1414.0</ele>
        <time>2016-09-23T15:45:25Z</time>
      </trkpt>
      <trkpt lat="36.799830" lon="-5.258217">
        <ele>1426.0</ele>
        <time>2016-09-23T15:45:29Z</time>
      </trkpt>
      <trkpt lat="36.799666" lon="-5.258383">
        <ele>1436.0</ele>
        <time>2016-09-23T15:45:32Z</time>
      </trkpt>
      <trkpt lat="36.799550" lon="-5.258633">
        <ele>1438.0</ele>
        <time>2016-09-23T15:45:35Z</time>
      </trkpt>
      <trkpt lat="36.799533" lon="-5.258783">
        <ele>1442.0</ele>
        <time>2016-09-23T15:45:38Z</time>
      </trkpt>
      <trkpt lat="36.799598" lon="-5.258817">
        <ele>1443.0</ele>
        <time>2016-09-23T15:45:41Z</time>
      </trkpt>
      <trkpt lat="36.799666" lon="-5.258683">
        <ele>1444.0</ele>
        <time>2016-09-23T15:45:44Z</time>
      </trkpt>
      <trkpt lat="36.799697" lon="-5.258483">
        <ele>1445.0</ele>
        <time>2016-09-23T15:45:47Z</time>
      </trkpt>
      <trkpt lat="36.799697" lon="-5.258217">
        <ele>1444.0</ele>
        <time>2016-09-23T15:45:50Z</time>
      </trkpt>
      <trkpt lat="36.799563" lon="-5.257850">
        <ele>1455.0</ele>
        <time>2016-09-23T15:45:53Z</time>
      </trkpt>
      <trkpt lat="36.799451" lon="-5.257533">
        <ele>1468.0</ele>
        <time>2016-09-23T15:45:56Z</time>
      </trkpt>
      <trkpt lat="36.799365" lon="-5.257233">
        <ele>1479.0</ele>
        <time>2016-09-23T15:45:59Z</time>
      </trkpt>
      <trkpt lat="36.799232" lon="-5.256950">
        <ele>1486.0</ele>
        <time>2016-09-23T15:46:02Z</time>
      </trkpt>
      <trkpt lat="36.799082" lon="-5.256684">
        <ele>1491.0</ele>
        <time>2016-09-23T15:46:05Z</time>
      </trkpt>
      <trkpt lat="36.798833" lon="-5.256484">
        <ele>1492.0</ele>
        <time>2016-09-23T15:46:08Z</time>
      </trkpt>
      <trkpt lat="36.798450" lon="-5.256400">
        <ele>1495.0</ele>
        <time>2016-09-23T15:46:12Z</time>
      </trkpt>
      <trkpt lat="36.798150" lon="-5.256433">
        <ele>1496.0</ele>
        <time>2016-09-23T15:46:15Z</time>
      </trkpt>
      <trkpt lat="36.797849" lon="-5.256550">
        <ele>1504.0</ele>
        <time>2016-09-23T15:46:18Z</time>
      </trkpt>
      <trkpt lat="36.797648" lon="-5.256684">
        <ele>1515.0</ele>
        <time>2016-09-23T15:46:21Z</time>
      </trkpt>
      <trkpt lat="36.797531" lon="-5.256833">
        <ele>1524.0</ele>
        <time>2016-09-23T15:46:24Z</time>
      </trkpt>
      <trkpt lat="36.797501" lon="-5.256917">
        <ele>1534.0</ele>
        <time>2016-09-23T15:46:27Z</time>
      </trkpt>
      <trkpt lat="36.797583" lon="-5.256783">
        <ele>1546.0</ele>
        <time>2016-09-23T15:46:30Z</time>
      </trkpt>
      <trkpt lat="36.797549" lon="-5.256484">
        <ele>1558.0</ele>
        <time>2016-09-23T15:46:33Z</time>
      </trkpt>
      <trkpt lat="36.797467" lon="-5.256183">
        <ele>1568.0</ele>
        <time>2016-09-23T15:46:36Z</time>
      </trkpt>
      <trkpt lat="36.797282" lon="-5.255866">
        <ele>1571.0</ele>
        <time>2016-09-23T15:46:39Z</time>
      </trkpt>
      <trkpt lat="36.797050" lon="-5.255617">
        <ele>1573.0</ele>
        <time>2016-09-23T15:46:42Z</time>
      </trkpt>
      <trkpt lat="36.796784" lon="-5.255434">
        <ele>1574.0</ele>
        <time>2016-09-23T15:46:45Z</time>
      </trkpt>
      <trkpt lat="36.796384" lon="-5.255333">
        <ele>1574.0</ele>
        <time>2016-09-23T15:46:49Z</time>
      </trkpt>
      <trkpt lat="36.796114" lon="-5.255417">
        <ele>1575.0</ele>
        <time>2016-09-23T15:46:52Z</time>
      </trkpt>
      <trkpt lat="36.795981" lon="-5.255600">
        <ele>1575.0</ele>
        <time>2016-09-23T15:46:55Z</time>
      </trkpt>
      <trkpt lat="36.795981" lon="-5.255700">
        <ele>1582.0</ele>
        <time>2016-09-23T15:46:58Z</time>
      </trkpt>
      <trkpt lat="36.795947" lon="-5.255750">
        <ele>1586.0</ele>
        <time>2016-09-23T15:47:01Z</time>
      </trkpt>
      <trkpt lat="36.796049" lon="-5.255750">
        <ele>1591.0</ele>
        <time>2016-09-23T15:47:04Z</time>
      </trkpt>
      <trkpt lat="36.796131" lon="-5.255667">
        <ele>1597.0</ele>
        <time>2016-09-23T15:47:07Z</time>
      </trkpt>
      <trkpt lat="36.796213" lon="-5.255583">
        <ele>1601.0</ele>
        <time>2016-09-23T15:47:10Z</time>
      </trkpt>
      <trkpt lat="36.796319" lon="-5.255384">
        <ele>1607.0</ele>
        <time>2016-09-23T15:47:13Z</time>
      </trkpt>
      <trkpt lat="36.796384" lon="-5.255150">
        <ele>1608.0</ele>
        <time>2016-09-23T15:47:16Z</time>
      </trkpt>
      <trkpt lat="36.796384" lon="-5.254850">
        <ele>1603.0</ele>
        <time>2016-09-23T15:47:19Z</time>
      </trkpt>
      <trkpt lat="36.796264" lon="-5.254483">
        <ele>1602.0</ele>
        <time>2016-09-23T15:47:22Z</time>
      </trkpt>
      <trkpt lat="36.796049" lon="-5.254233">
        <ele>1600.0</ele>
        <time>2016-09-23T15:47:25Z</time>
      </trkpt>
      <trkpt lat="36.795783" lon="-5.254050">
        <ele>1598.0</ele>
        <time>2016-09-23T15:47:28Z</time>
      </trkpt>
      <trkpt lat="36.795496" lon="-5.253917">
        <ele>1597.0</ele>
        <time>2016-09-23T15:47:31Z</time>
      </trkpt>
      <trkpt lat="36.795100" lon="-5.253800">
        <ele>1596.0</ele>
        <time>2016-09-23T15:47:35Z</time>
      </trkpt>
      <trkpt lat="36.794816" lon="-5.253783">
        <ele>1590.0</ele>
        <time>2016-09-23T15:47:38Z</time>
      </trkpt>
      <trkpt lat="36.794499" lon="-5.253850">
        <ele>1589.0</ele>
        <time>2016-09-23T15:47:41Z</time>
      </trkpt>
      <trkpt lat="36.794232" lon="-5.253883">
        <ele>1588.0</ele>
        <time>2016-09-23T15:47:44Z</time>
      </trkpt>
      <trkpt lat="36.793915" lon="-5.253917">
        <ele>1586.0</ele>
        <time>2016-09-23T15:47:47Z</time>
      </trkpt>
      <trkpt lat="36.793597" lon="-5.253883">
        <ele>1587.0</ele>
        <time>2016-09-23T15:47:50Z</time>
      </trkpt>
      <trkpt lat="36.793300" lon="-5.253933">
        <ele>1582.0</ele>
        <time>2016-09-23T15:47:53Z</time>
      </trkpt>
      <trkpt lat="36.792965" lon="-5.253900">
        <ele>1575.0</ele>
        <time>2016-09-23T15:47:56Z</time>
      </trkpt>
      <trkpt lat="36.792648" lon="-5.253833">
        <ele>1569.0</ele>
        <time>2016-09-23T15:47:59Z</time>
      </trkpt>
      <trkpt lat="36.792300" lon="-5.253750">
        <ele>1563.0</ele>
        <time>2016-09-23T15:48:02Z</time>
      </trkpt>
      <trkpt lat="36.791965" lon="-5.253700">
        <ele>1558.0</ele>
        <time>2016-09-23T15:48:05Z</time>
      </trkpt>
      <trkpt lat="36.791599" lon="-5.253633">
        <ele>1552.0</ele>
        <time>2016-09-23T15:48:08Z</time>
      </trkpt>
      <trkpt lat="36.791217" lon="-5.253550">
        <ele>1547.0</ele>
        <time>2016-09-23T15:48:11Z</time>
      </trkpt>
      <trkpt lat="36.790831" lon="-5.253483">
        <ele>1542.0</ele>
        <time>2016-09-23T15:48:14Z</time>
      </trkpt>
      <trkpt lat="36.790384" lon="-5.253400">
        <ele>1534.0</ele>
        <time>2016-09-23T15:48:18Z</time>
      </trkpt>
      <trkpt lat="36.790015" lon="-5.253317">
        <ele>1526.0</ele>
        <time>2016-09-23T15:48:21Z</time>
      </trkpt>
      <trkpt lat="36.789667" lon="-5.253233">
        <ele>1518.0</ele>
        <time>2016-09-23T15:48:24Z</time>
      </trkpt>
      <trkpt lat="36.789298" lon="-5.253167">
        <ele>1509.0</ele>
        <time>2016-09-23T15:48:27Z</time>
      </trkpt>
      <trkpt lat="36.788932" lon="-5.253083">
        <ele>1502.0</ele>
        <time>2016-09-23T15:48:30Z</time>
      </trkpt>
      <trkpt lat="36.788567" lon="-5.253050">
        <ele>1493.0</ele>
        <time>2016-09-23T15:48:33Z</time>
      </trkpt>
      <trkpt lat="36.788181" lon="-5.253050">
        <ele>1486.0</ele>
        <time>2016-09-23T15:48:36Z</time>
      </trkpt>
      <trkpt lat="36.787816" lon="-5.253050">
        <ele>1476.0</ele>
        <time>2016-09-23T15:48:39Z</time>
      </trkpt>
      <trkpt lat="36.787416" lon="-5.253000">
        <ele>1464.0</ele>
        <time>2016-09-23T15:48:42Z</time>
      </trkpt>
      <trkpt lat="36.787033" lon="-5.252950">
        <ele>1454.0</ele>
        <time>2016-09-23T15:48:45Z</time>
      </trkpt>
      <trkpt lat="36.786634" lon="-5.252950">
        <ele>1447.0</ele>
        <time>2016-09-23T15:48:48Z</time>
      </trkpt>
      <trkpt lat="36.786265" lon="-5.253033">
        <ele>1437.0</ele>
        <time>2016-09-23T15:48:51Z</time>
      </trkpt>
      <trkpt lat="36.785879" lon="-5.253133">
        <ele>1430.0</ele>
        <time>2016-09-23T15:48:54Z</time>
      </trkpt>
      <trkpt lat="36.785466" lon="-5.253317">
        <ele>1425.0</ele>
        <time>2016-09-23T15:48:58Z</time>
      </trkpt>
      <trkpt lat="36.785148" lon="-5.253350">
        <ele>1417.0</ele>
        <time>2016-09-23T15:49:01Z</time>
      </trkpt>
      <trkpt lat="36.784831" lon="-5.253334">
        <ele>1407.0</ele>
        <time>2016-09-23T15:49:04Z</time>
      </trkpt>
      <trkpt lat="36.784499" lon="-5.253267">
        <ele>1400.0</ele>
        <time>2016-09-23T15:49:07Z</time>
      </trkpt>
      <trkpt lat="36.784216" lon="-5.253183">
        <ele>1396.0</ele>
        <time>2016-09-23T15:49:10Z</time>
      </trkpt>
      <trkpt lat="36.783915" lon="-5.253066">
        <ele>1387.0</ele>
        <time>2016-09-23T15:49:13Z</time>
      </trkpt>
      <trkpt lat="36.783649" lon="-5.252984">
        <ele>1384.0</ele>
        <time>2016-09-23T15:49:16Z</time>
      </trkpt>
      <trkpt lat="36.783366" lon="-5.252917">
        <ele>1375.0</ele>
        <time>2016-09-23T15:49:19Z</time>
      </trkpt>
      <trkpt lat="36.783065" lon="-5.252833">
        <ele>1370.0</ele>
        <time>2016-09-23T15:49:22Z</time>
      </trkpt>
      <trkpt lat="36.782819" lon="-5.252766">
        <ele>1361.0</ele>
        <time>2016-09-23T15:49:25Z</time>
      </trkpt>
      <trkpt lat="36.782532" lon="-5.252666">
        <ele>1354.0</ele>
        <time>2016-09-23T15:49:28Z</time>
      </trkpt>
      <trkpt lat="36.782249" lon="-5.252567">
        <ele>1346.0</ele>
        <time>2016-09-23T15:49:31Z</time>
      </trkpt>
      <trkpt lat="36.781931" lon="-5.252500">
        <ele>1340.0</ele>
        <time>2016-09-23T15:49:34Z</time>
      </trkpt>
      <trkpt lat="36.781651" lon="-5.252400">
        <ele>1335.0</ele>
        <time>2016-09-23T15:49:37Z</time>
      </trkpt>
      <trkpt lat="36.781265" lon="-5.252250">
        <ele>1329.0</ele>
        <time>2016-09-23T15:49:41Z</time>
      </trkpt>
      <trkpt lat="36.780999" lon="-5.252183">
        <ele>1323.0</ele>
        <time>2016-09-23T15:49:44Z</time>
      </trkpt>
      <trkpt lat="36.780702" lon="-5.252234">
        <ele>1319.0</ele>
        <time>2016-09-23T15:49:47Z</time>
      </trkpt>
      <trkpt lat="36.780466" lon="-5.252234">
        <ele>1317.0</ele>
        <time>2016-09-23T15:49:50Z</time>
      </trkpt>
      <trkpt lat="36.780231" lon="-5.252234">
        <ele>1310.0</ele>
        <time>2016-09-23T15:49:53Z</time>
      </trkpt>
      <trkpt lat="36.779968" lon="-5.252150">
        <ele>1305.0</ele>
        <time>2016-09-23T15:49:56Z</time>
      </trkpt>
      <trkpt lat="36.779749" lon="-5.252117">
        <ele>1298.0</ele>
        <time>2016-09-23T15:49:59Z</time>
      </trkpt>
      <trkpt lat="36.779466" lon="-5.252050">
        <ele>1289.0</ele>
        <time>2016-09-23T15:50:02Z</time>
      </trkpt>
      <trkpt lat="36.779216" lon="-5.251966">
        <ele>1283.0</ele>
        <time>2016-09-23T15:50:05Z</time>
      </trkpt>
      <trkpt lat="36.778933" lon="-5.251817">
        <ele>1279.0</ele>
        <time>2016-09-23T15:50:08Z</time>
      </trkpt>
      <trkpt lat="36.778632" lon="-5.251767">
        <ele>1279.0</ele>
        <time>2016-09-23T15:50:11Z</time>
      </trkpt>
      <trkpt lat="36.778366" lon="-5.251650">
        <ele>1276.0</ele>
        <time>2016-09-23T15:50:14Z</time>
      </trkpt>
      <trkpt lat="36.778082" lon="-5.251600">
        <ele>1268.0</ele>
        <time>2016-09-23T15:50:17Z</time>
      </trkpt>
      <trkpt lat="36.777683" lon="-5.251550">
        <ele>1262.0</ele>
        <time>2016-09-23T15:50:21Z</time>
      </trkpt>
      <trkpt lat="36.777451" lon="-5.251367">
        <ele>1253.0</ele>
        <time>2016-09-23T15:50:24Z</time>
      </trkpt>
      <trkpt lat="36.777198" lon="-5.251183">
        <ele>1246.0</ele>
        <time>2016-09-23T15:50:27Z</time>
      </trkpt>
      <trkpt lat="36.776932" lon="-5.250967">
        <ele>1237.0</ele>
        <time>2016-09-23T15:50:30Z</time>
      </trkpt>
      <trkpt lat="36.776648" lon="-5.250783">
        <ele>1234.0</ele>
        <time>2016-09-23T15:50:33Z</time>
      </trkpt>
      <trkpt lat="36.776368" lon="-5.250633">
        <ele>1226.0</ele>
        <time>2016-09-23T15:50:36Z</time>
      </trkpt>
      <trkpt lat="36.776030" lon="-5.250500">
        <ele>1223.0</ele>
        <time>2016-09-23T15:50:39Z</time>
      </trkpt>
      <trkpt lat="36.775716" lon="-5.250383">
        <ele>1218.0</ele>
        <time>2016-09-23T15:50:42Z</time>
      </trkpt>
      <trkpt lat="36.775367" lon="-5.250217">
        <ele>1215.0</ele>
        <time>2016-09-23T15:50:45Z</time>
      </trkpt>
      <trkpt lat="36.775033" lon="-5.250083">
        <ele>1209.0</ele>
        <time>2016-09-23T15:50:48Z</time>
      </trkpt>
      <trkpt lat="36.774664" lon="-5.249966">
        <ele>1206.0</ele>
        <time>2016-09-23T15:50:51Z</time>
      </trkpt>
      <trkpt lat="36.774316" lon="-5.249866">
        <ele>1202.0</ele>
        <time>2016-09-23T15:50:54Z</time>
      </trkpt>
      <trkpt lat="36.773933" lon="-5.249783">
        <ele>1199.0</ele>
        <time>2016-09-23T15:50:57Z</time>
      </trkpt>
      <trkpt lat="36.773602" lon="-5.249700">
        <ele>1193.0</ele>
        <time>2016-09-23T15:51:00Z</time>
      </trkpt>
      <trkpt lat="36.773131" lon="-5.249583">
        <ele>1185.0</ele>
        <time>2016-09-23T15:51:04Z</time>
      </trkpt>
      <trkpt lat="36.772782" lon="-5.249500">
        <ele>1176.0</ele>
        <time>2016-09-23T15:51:07Z</time>
      </trkpt>
      <trkpt lat="36.772400" lon="-5.249350">
        <ele>1165.0</ele>
        <time>2016-09-23T15:51:10Z</time>
      </trkpt>
      <trkpt lat="36.772014" lon="-5.249216">
        <ele>1157.0</ele>
        <time>2016-09-23T15:51:13Z</time>
      </trkpt>
      <trkpt lat="36.771631" lon="-5.249116">
        <ele>1147.0</ele>
        <time>2016-09-23T15:51:16Z</time>
      </trkpt>
      <trkpt lat="36.771232" lon="-5.248983">
        <ele>1142.0</ele>
        <time>2016-09-23T15:51:19Z</time>
      </trkpt>
      <trkpt lat="36.770866" lon="-5.248933">
        <ele>1136.0</ele>
        <time>2016-09-23T15:51:22Z</time>
      </trkpt>
      <trkpt lat="36.770484" lon="-5.248883">
        <ele>1128.0</ele>
        <time>2016-09-23T15:51:25Z</time>
      </trkpt>
      <trkpt lat="36.770115" lon="-5.248833">
        <ele>1126.0</ele>
        <time>2016-09-23T15:51:28Z</time>
      </trkpt>
      <trkpt lat="36.769750" lon="-5.248750">
        <ele>1123.0</ele>
        <time>2016-09-23T15:51:31Z</time>
      </trkpt>
      <trkpt lat="36.769401" lon="-5.248666">
        <ele>1121.0</ele>
        <time>2016-09-23T15:51:34Z</time>
      </trkpt>
      <trkpt lat="36.769015" lon="-5.248517">
        <ele>1122.0</ele>
        <time>2016-09-23T15:51:37Z</time>
      </trkpt>
      <trkpt lat="36.768650" lon="-5.248350">
        <ele>1131.0</ele>
        <time>2016-09-23T15:51:40Z</time>
      </trkpt>
      <trkpt lat="36.768264" lon="-5.248266">
        <ele>1136.0</ele>
        <time>2016-09-23T15:51:44Z</time>
      </trkpt>
      <trkpt lat="36.768151" lon="-5.248550">
        <ele>1138.0</ele>
        <time>2016-09-23T15:51:47Z</time>
      </trkpt>
      <trkpt lat="36.768319" lon="-5.248666">
        <ele>1144.0</ele>
        <time>2016-09-23T15:51:50Z</time>
      </trkpt>
      <trkpt lat="36.768466" lon="-5.248666">
        <ele>1147.0</ele>
        <time>2016-09-23T15:51:53Z</time>
      </trkpt>
      <trkpt lat="36.768599" lon="-5.248483">
        <ele>1149.0</ele>
        <time>2016-09-23T15:51:56Z</time>
      </trkpt>
      <trkpt lat="36.768565" lon="-5.248167">
        <ele>1152.0</ele>
        <time>2016-09-23T15:51:59Z</time>
      </trkpt>
      <trkpt lat="36.768349" lon="-5.247800">
        <ele>1152.0</ele>
        <time>2016-09-23T15:52:02Z</time>
      </trkpt>
      <trkpt lat="36.768052" lon="-5.247600">
        <ele>1159.0</ele>
        <time>2016-09-23T15:52:05Z</time>
      </trkpt>
      <trkpt lat="36.767766" lon="-5.247666">
        <ele>1162.0</ele>
        <time>2016-09-23T15:52:08Z</time>
      </trkpt>
      <trkpt lat="36.767649" lon="-5.247916">
        <ele>1163.0</ele>
        <time>2016-09-23T15:52:11Z</time>
      </trkpt>
      <trkpt lat="36.767783" lon="-5.248150">
        <ele>1171.0</ele>
        <time>2016-09-23T15:52:14Z</time>
      </trkpt>
      <trkpt lat="36.767916" lon="-5.248250">
        <ele>1176.0</ele>
        <time>2016-09-23T15:52:17Z</time>
      </trkpt>
      <trkpt lat="36.768052" lon="-5.248167">
        <ele>1180.0</ele>
        <time>2016-09-23T15:52:20Z</time>
      </trkpt>
      <trkpt lat="36.768117" lon="-5.247833">
        <ele>1187.0</ele>
        <time>2016-09-23T15:52:23Z</time>
      </trkpt>
      <trkpt lat="36.767847" lon="-5.247433">
        <ele>1188.0</ele>
        <time>2016-09-23T15:52:27Z</time>
      </trkpt>
      <trkpt lat="36.767550" lon="-5.247366">
        <ele>1195.0</ele>
        <time>2016-09-23T15:52:30Z</time>
      </trkpt>
      <trkpt lat="36.767315" lon="-5.247450">
        <ele>1200.0</ele>
        <time>2016-09-23T15:52:33Z</time>
      </trkpt>
      <trkpt lat="36.767182" lon="-5.247700">
        <ele>1202.0</ele>
        <time>2016-09-23T15:52:36Z</time>
      </trkpt>
      <trkpt lat="36.767250" lon="-5.247916">
        <ele>1212.0</ele>
        <time>2016-09-23T15:52:39Z</time>
      </trkpt>
      <trkpt lat="36.767349" lon="-5.247983">
        <ele>1217.0</ele>
        <time>2016-09-23T15:52:42Z</time>
      </trkpt>
      <trkpt lat="36.767516" lon="-5.247817">
        <ele>1223.0</ele>
        <time>2016-09-23T15:52:45Z</time>
      </trkpt>
      <trkpt lat="36.767567" lon="-5.247517">
        <ele>1233.0</ele>
        <time>2016-09-23T15:52:48Z</time>
      </trkpt>
      <trkpt lat="36.767567" lon="-5.247250">
        <ele>1235.0</ele>
        <time>2016-09-23T15:52:51Z</time>
      </trkpt>
      <trkpt lat="36.767482" lon="-5.246866">
        <ele>1241.0</ele>
        <time>2016-09-23T15:52:54Z</time>
      </trkpt>
      <trkpt lat="36.767236" lon="-5.246683">
        <ele>1244.0</ele>
        <time>2016-09-23T15:52:57Z</time>
      </trkpt>
      <trkpt lat="36.766949" lon="-5.246633">
        <ele>1245.0</ele>
        <time>2016-09-23T15:53:00Z</time>
      </trkpt>
      <trkpt lat="36.766683" lon="-5.246766">
        <ele>1253.0</ele>
        <time>2016-09-23T15:53:03Z</time>
      </trkpt>
      <trkpt lat="36.766519" lon="-5.246983">
        <ele>1262.0</ele>
        <time>2016-09-23T15:53:06Z</time>
      </trkpt>
      <trkpt lat="36.766584" lon="-5.247166">
        <ele>1272.0</ele>
        <time>2016-09-23T15:53:10Z</time>
      </trkpt>
      <trkpt lat="36.766700" lon="-5.247150">
        <ele>1280.0</ele>
        <time>2016-09-23T15:53:13Z</time>
      </trkpt>
      <trkpt lat="36.766816" lon="-5.246933">
        <ele>1288.0</ele>
        <time>2016-09-23T15:53:16Z</time>
      </trkpt>
      <trkpt lat="36.766799" lon="-5.246650">
        <ele>1294.0</ele>
        <time>2016-09-23T15:53:19Z</time>
      </trkpt>
      <trkpt lat="36.766683" lon="-5.246300">
        <ele>1300.0</ele>
        <time>2016-09-23T15:53:22Z</time>
      </trkpt>
      <trkpt lat="36.766468" lon="-5.246083">
        <ele>1301.0</ele>
        <time>2016-09-23T15:53:25Z</time>
      </trkpt>
      <trkpt lat="36.766215" lon="-5.245916">
        <ele>1307.0</ele>
        <time>2016-09-23T15:53:28Z</time>
      </trkpt>
      <trkpt lat="36.765949" lon="-5.245900">
        <ele>1312.0</ele>
        <time>2016-09-23T15:53:31Z</time>
      </trkpt>
      <trkpt lat="36.765730" lon="-5.246016">
        <ele>1324.0</ele>
        <time>2016-09-23T15:53:34Z</time>
      </trkpt>
      <trkpt lat="36.765566" lon="-5.246233">
        <ele>1330.0</ele>
        <time>2016-09-23T15:53:37Z</time>
      </trkpt>
      <trkpt lat="36.765498" lon="-5.246500">
        <ele>1337.0</ele>
        <time>2016-09-23T15:53:40Z</time>
      </trkpt>
      <trkpt lat="36.765631" lon="-5.246667">
        <ele>1345.0</ele>
        <time>2016-09-23T15:53:43Z</time>
      </trkpt>
      <trkpt lat="36.765785" lon="-5.246516">
        <ele>1353.0</ele>
        <time>2016-09-23T15:53:46Z</time>
      </trkpt>
      <trkpt lat="36.765764" lon="-5.246050">
        <ele>1358.0</ele>
        <time>2016-09-23T15:53:50Z</time>
      </trkpt>
      <trkpt lat="36.765518" lon="-5.245800">
        <ele>1363.0</ele>
        <time>2016-09-23T15:53:53Z</time>
      </trkpt>
      <trkpt lat="36.765218" lon="-5.245750">
        <ele>1370.0</ele>
        <time>2016-09-23T15:53:56Z</time>
      </trkpt>
      <trkpt lat="36.764934" lon="-5.245866">
        <ele>1377.0</ele>
        <time>2016-09-23T15:53:59Z</time>
      </trkpt>
      <trkpt lat="36.764832" lon="-5.246117">
        <ele>1385.0</ele>
        <time>2016-09-23T15:54:02Z</time>
      </trkpt>
      <trkpt lat="36.764934" lon="-5.246300">
        <ele>1391.0</ele>
        <time>2016-09-23T15:54:05Z</time>
      </trkpt>
      <trkpt lat="36.765132" lon="-5.246250">
        <ele>1397.0</ele>
        <time>2016-09-23T15:54:08Z</time>
      </trkpt>
      <trkpt lat="36.765218" lon="-5.245983">
        <ele>1404.0</ele>
        <time>2016-09-23T15:54:11Z</time>
      </trkpt>
      <trkpt lat="36.765033" lon="-5.245700">
        <ele>1413.0</ele>
        <time>2016-09-23T15:54:14Z</time>
      </trkpt>
      <trkpt lat="36.764733" lon="-5.245583">
        <ele>1419.0</ele>
        <time>2016-09-23T15:54:17Z</time>
      </trkpt>
      <trkpt lat="36.764449" lon="-5.245633">
        <ele>1422.0</ele>
        <time>2016-09-23T15:54:20Z</time>
      </trkpt>
      <trkpt lat="36.764316" lon="-5.245883">
        <ele>1425.0</ele>
        <time>2016-09-23T15:54:23Z</time>
      </trkpt>
      <trkpt lat="36.764367" lon="-5.246066">
        <ele>1429.0</ele>
        <time>2016-09-23T15:54:26Z</time>
      </trkpt>
      <trkpt lat="36.764514" lon="-5.246166">
        <ele>1438.0</ele>
        <time>2016-09-23T15:54:29Z</time>
      </trkpt>
      <trkpt lat="36.764716" lon="-5.246016">
        <ele>1444.0</ele>
        <time>2016-09-23T15:54:33Z</time>
      </trkpt>
      <trkpt lat="36.764781" lon="-5.245783">
        <ele>1451.0</ele>
        <time>2016-09-23T15:54:36Z</time>
      </trkpt>
      <trkpt lat="36.764702" lon="-5.245499">
        <ele>1457.0</ele>
        <time>2016-09-23T15:54:39Z</time>
      </trkpt>
      <trkpt lat="36.764484" lon="-5.245266">
        <ele>1465.0</ele>
        <time>2016-09-23T15:54:42Z</time>
      </trkpt>
      <trkpt lat="36.764231" lon="-5.245133">
        <ele>1468.0</ele>
        <time>2016-09-23T15:54:45Z</time>
      </trkpt>
      <trkpt lat="36.763964" lon="-5.245099">
        <ele>1472.0</ele>
        <time>2016-09-23T15:54:48Z</time>
      </trkpt>
      <trkpt lat="36.763766" lon="-5.245116">
        <ele>1476.0</ele>
        <time>2016-09-23T15:54:51Z</time>
      </trkpt>
      <trkpt lat="36.763548" lon="-5.245300">
        <ele>1480.0</ele>
        <time>2016-09-23T15:54:54Z</time>
      </trkpt>
      <trkpt lat="36.763415" lon="-5.245516">
        <ele>1485.0</ele>
        <time>2016-09-23T15:54:57Z</time>
      </trkpt>
      <trkpt lat="36.763333" lon="-5.245716">
        <ele>1490.0</ele>
        <time>2016-09-23T15:55:00Z</time>
      </trkpt>
      <trkpt lat="36.763234" lon="-5.245883">
        <ele>1495.0</ele>
        <time>2016-09-23T15:55:03Z</time>
      </trkpt>
      <trkpt lat="36.763135" lon="-5.246083">
        <ele>1501.0</ele>
        <time>2016-09-23T15:55:06Z</time>
      </trkpt>
      <trkpt lat="36.763148" lon="-5.246300">
        <ele>1509.0</ele>
        <time>2016-09-23T15:55:09Z</time>
      </trkpt>
      <trkpt lat="36.763302" lon="-5.246433">
        <ele>1518.0</ele>
        <time>2016-09-23T15:55:12Z</time>
      </trkpt>
      <trkpt lat="36.763500" lon="-5.246250">
        <ele>1528.0</ele>
        <time>2016-09-23T15:55:16Z</time>
      </trkpt>
      <trkpt lat="36.763500" lon="-5.245966">
        <ele>1539.0</ele>
        <time>2016-09-23T15:55:19Z</time>
      </trkpt>
      <trkpt lat="36.763415" lon="-5.245716">
        <ele>1545.0</ele>
        <time>2016-09-23T15:55:22Z</time>
      </trkpt>
      <trkpt lat="36.763182" lon="-5.245499">
        <ele>1548.0</ele>
        <time>2016-09-23T15:55:25Z</time>
      </trkpt>
      <trkpt lat="36.762916" lon="-5.245417">
        <ele>1555.0</ele>
        <time>2016-09-23T15:55:28Z</time>
      </trkpt>
      <trkpt lat="36.762732" lon="-5.245499">
        <ele>1559.0</ele>
        <time>2016-09-23T15:55:31Z</time>
      </trkpt>
      <trkpt lat="36.762534" lon="-5.245666">
        <ele>1563.0</ele>
        <time>2016-09-23T15:55:34Z</time>
      </trkpt>
      <trkpt lat="36.762349" lon="-5.245900">
        <ele>1570.0</ele>
        <time>2016-09-23T15:55:37Z</time>
      </trkpt>
      <trkpt lat="36.762267" lon="-5.246183">
        <ele>1578.0</ele>
        <time>2016-09-23T15:55:40Z</time>
      </trkpt>
      <trkpt lat="36.762267" lon="-5.246416">
        <ele>1585.0</ele>
        <time>2016-09-23T15:55:43Z</time>
      </trkpt>
      <trkpt lat="36.762417" lon="-5.246550">
        <ele>1589.0</ele>
        <time>2016-09-23T15:55:46Z</time>
      </trkpt>
      <trkpt lat="36.762616" lon="-5.246467">
        <ele>1599.0</ele>
        <time>2016-09-23T15:55:49Z</time>
      </trkpt>
      <trkpt lat="36.762663" lon="-5.246183">
        <ele>1610.0</ele>
        <time>2016-09-23T15:55:52Z</time>
      </trkpt>
      <trkpt lat="36.762551" lon="-5.245883">
        <ele>1621.0</ele>
        <time>2016-09-23T15:55:55Z</time>
      </trkpt>
      <trkpt lat="36.762250" lon="-5.245633">
        <ele>1634.0</ele>
        <time>2016-09-23T15:55:59Z</time>
      </trkpt>
      <trkpt lat="36.762032" lon="-5.245633">
        <ele>1644.0</ele>
        <time>2016-09-23T15:56:02Z</time>
      </trkpt>
      <trkpt lat="36.761799" lon="-5.245800">
        <ele>1650.0</ele>
        <time>2016-09-23T15:56:05Z</time>
      </trkpt>
      <trkpt lat="36.761700" lon="-5.246100">
        <ele>1657.0</ele>
        <time>2016-09-23T15:56:08Z</time>
      </trkpt>
      <trkpt lat="36.761816" lon="-5.246317">
        <ele>1666.0</ele>
        <time>2016-09-23T15:56:11Z</time>
      </trkpt>
      <trkpt lat="36.762001" lon="-5.246383">
        <ele>1673.0</ele>
        <time>2016-09-23T15:56:14Z</time>
      </trkpt>
      <trkpt lat="36.762185" lon="-5.246283">
        <ele>1680.0</ele>
        <time>2016-09-23T15:56:17Z</time>
      </trkpt>
      <trkpt lat="36.762267" lon="-5.246000">
        <ele>1690.0</ele>
        <time>2016-09-23T15:56:20Z</time>
      </trkpt>
      <trkpt lat="36.762165" lon="-5.245750">
        <ele>1700.0</ele>
        <time>2016-09-23T15:56:23Z</time>
      </trkpt>
      <trkpt lat="36.761980" lon="-5.245566">
        <ele>1708.0</ele>
        <time>2016-09-23T15:56:26Z</time>
      </trkpt>
      <trkpt lat="36.761748" lon="-5.245466">
        <ele>1715.0</ele>
        <time>2016-09-23T15:56:29Z</time>
      </trkpt>
      <trkpt lat="36.761482" lon="-5.245566">
        <ele>1719.0</ele>
        <time>2016-09-23T15:56:32Z</time>
      </trkpt>
      <trkpt lat="36.761263" lon="-5.245800">
        <ele>1731.0</ele>
        <time>2016-09-23T15:56:35Z</time>
      </trkpt>
      <trkpt lat="36.761164" lon="-5.246150">
        <ele>1738.0</ele>
        <time>2016-09-23T15:56:39Z</time>
      </trkpt>
      <trkpt lat="36.761297" lon="-5.246366">
        <ele>1748.0</ele>
        <time>2016-09-23T15:56:42Z</time>
      </trkpt>
      <trkpt lat="36.761502" lon="-5.246350">
        <ele>1757.0</ele>
        <time>2016-09-23T15:56:45Z</time>
      </trkpt>
      <trkpt lat="36.761714" lon="-5.246200">
        <ele>1764.0</ele>
        <time>2016-09-23T15:56:48Z</time>
      </trkpt>
      <trkpt lat="36.761915" lon="-5.246050">
        <ele>1772.0</ele>
        <time>2016-09-23T15:56:51Z</time>
      </trkpt>
      <trkpt lat="36.762014" lon="-5.245783">
        <ele>1779.0</ele>
        <time>2016-09-23T15:56:54Z</time>
      </trkpt>
      <trkpt lat="36.761980" lon="-5.245417">
        <ele>1790.0</ele>
        <time>2016-09-23T15:56:57Z</time>
      </trkpt>
      <trkpt lat="36.761847" lon="-5.245133">
        <ele>1800.0</ele>
        <time>2016-09-23T15:57:00Z</time>
      </trkpt>
      <trkpt lat="36.761584" lon="-5.245033">
        <ele>1808.0</ele>
        <time>2016-09-23T15:57:03Z</time>
      </trkpt>
      <trkpt lat="36.761318" lon="-5.245283">
        <ele>1813.0</ele>
        <time>2016-09-23T15:57:06Z</time>
      </trkpt>
      <trkpt lat="36.761198" lon="-5.245566">
        <ele>1816.0</ele>
        <time>2016-09-23T15:57:09Z</time>
      </trkpt>
      <trkpt lat="36.761284" lon="-5.245900">
        <ele>1823.0</ele>
        <time>2016-09-23T15:57:12Z</time>
      </trkpt>
      <trkpt lat="36.761468" lon="-5.245916">
        <ele>1831.0</ele>
        <time>2016-09-23T15:57:15Z</time>
      </trkpt>
      <trkpt lat="36.761666" lon="-5.245800">
        <ele>1841.0</ele>
        <time>2016-09-23T15:57:18Z</time>
      </trkpt>
      <trkpt lat="36.761915" lon="-5.245716">
        <ele>1851.0</ele>
        <time>2016-09-23T15:57:22Z</time>
      </trkpt>
      <trkpt lat="36.762066" lon="-5.245650">
        <ele>1859.0</ele>
        <time>2016-09-23T15:57:25Z</time>
      </trkpt>
      <trkpt lat="36.762086" lon="-5.245350">
        <ele>1864.0</ele>
        <time>2016-09-23T15:57:28Z</time>
      </trkpt>
      <trkpt lat="36.761950" lon="-5.245067">
        <ele>1878.0</ele>
        <time>2016-09-23T15:57:31Z</time>
      </trkpt>
      <trkpt lat="36.761799" lon="-5.244833">
        <ele>1884.0</ele>
        <time>2016-09-23T15:57:34Z</time>
      </trkpt>
      <trkpt lat="36.761533" lon="-5.244733">
        <ele>1889.0</ele>
        <time>2016-09-23T15:57:37Z</time>
      </trkpt>
      <trkpt lat="36.761297" lon="-5.244950">
        <ele>1893.0</ele>
        <time>2016-09-23T15:57:40Z</time>
      </trkpt>
      <trkpt lat="36.761284" lon="-5.245266">
        <ele>1897.0</ele>
        <time>2016-09-23T15:57:43Z</time>
      </trkpt>
      <trkpt lat="36.761468" lon="-5.245350">
        <ele>1906.0</ele>
        <time>2016-09-23T15:57:46Z</time>
      </trkpt>
      <trkpt lat="36.761649" lon="-5.245250">
        <ele>1911.0</ele>
        <time>2016-09-23T15:57:49Z</time>
      </trkpt>
      <trkpt lat="36.761734" lon="-5.244983">
        <ele>1920.0</ele>
        <time>2016-09-23T15:57:52Z</time>
      </trkpt>
      <trkpt lat="36.761666" lon="-5.244667">
        <ele>1930.0</ele>
        <time>2016-09-23T15:57:55Z</time>
      </trkpt>
      <trkpt lat="36.761502" lon="-5.244483">
        <ele>1932.0</ele>
        <time>2016-09-23T15:57:58Z</time>
      </trkpt>
      <trkpt lat="36.761164" lon="-5.244700">
        <ele>1936.0</ele>
        <time>2016-09-23T15:58:02Z</time>
      </trkpt>
      <trkpt lat="36.761082" lon="-5.244983">
        <ele>1940.0</ele>
        <time>2016-09-23T15:58:05Z</time>
      </trkpt>
      <trkpt lat="36.761150" lon="-5.245266">
        <ele>1942.0</ele>
        <time>2016-09-23T15:58:08Z</time>
      </trkpt>
      <trkpt lat="36.761318" lon="-5.245300">
        <ele>1949.0</ele>
        <time>2016-09-23T15:58:11Z</time>
      </trkpt>
      <trkpt lat="36.761482" lon="-5.245233">
        <ele>1953.0</ele>
        <time>2016-09-23T15:58:14Z</time>
      </trkpt>
      <trkpt lat="36.761635" lon="-5.245000">
        <ele>1960.0</ele>
        <time>2016-09-23T15:58:17Z</time>
      </trkpt>
      <trkpt lat="36.761683" lon="-5.244700">
        <ele>1971.0</ele>
        <time>2016-09-23T15:58:20Z</time>
      </trkpt>
      <trkpt lat="36.761615" lon="-5.244466">
        <ele>1979.0</ele>
        <time>2016-09-23T15:58:23Z</time>
      </trkpt>
      <trkpt lat="36.761417" lon="-5.244267">
        <ele>1986.0</ele>
        <time>2016-09-23T15:58:26Z</time>
      </trkpt>
      <trkpt lat="36.761185" lon="-5.244216">
        <ele>2001.0</ele>
        <time>2016-09-23T15:58:29Z</time>
      </trkpt>
      <trkpt lat="36.760966" lon="-5.244433">
        <ele>2007.0</ele>
        <time>2016-09-23T15:58:32Z</time>
      </trkpt>
      <trkpt lat="36.760867" lon="-5.244766">
        <ele>2017.0</ele>
        <time>2016-09-23T15:58:35Z</time>
      </trkpt>
      <trkpt lat="36.761000" lon="-5.244983">
        <ele>2020.0</ele>
        <time>2016-09-23T15:58:38Z</time>
      </trkpt>
      <trkpt lat="36.761232" lon="-5.245000">
        <ele>2026.0</ele>
        <time>2016-09-23T15:58:41Z</time>
      </trkpt>
      <trkpt lat="36.761383" lon="-5.244700">
        <ele>2030.0</ele>
        <time>2016-09-23T15:58:45Z</time>
      </trkpt>
      <trkpt lat="36.761348" lon="-5.244399">
        <ele>2040.0</ele>
        <time>2016-09-23T15:58:48Z</time>
      </trkpt>
      <trkpt lat="36.761198" lon="-5.244216">
        <ele>2048.0</ele>
        <time>2016-09-23T15:58:51Z</time>
      </trkpt>
      <trkpt lat="36.760966" lon="-5.244267">
        <ele>2053.0</ele>
        <time>2016-09-23T15:58:54Z</time>
      </trkpt>
      <trkpt lat="36.760751" lon="-5.244533">
        <ele>2060.0</ele>
        <time>2016-09-23T15:58:57Z</time>
      </trkpt>
      <trkpt lat="36.760580" lon="-5.244816">
        <ele>2068.0</ele>
        <time>2016-09-23T15:59:00Z</time>
      </trkpt>
      <trkpt lat="36.760566" lon="-5.245149">
        <ele>2072.0</ele>
        <time>2016-09-23T15:59:03Z</time>
      </trkpt>
      <trkpt lat="36.760751" lon="-5.245333">
        <ele>2078.0</ele>
        <time>2016-09-23T15:59:06Z</time>
      </trkpt>
      <trkpt lat="36.760983" lon="-5.245283">
        <ele>2085.0</ele>
        <time>2016-09-23T15:59:09Z</time>
      </trkpt>
      <trkpt lat="36.761185" lon="-5.245083">
        <ele>2091.0</ele>
        <time>2016-09-23T15:59:12Z</time>
      </trkpt>
      <trkpt lat="36.761250" lon="-5.244799">
        <ele>2099.0</ele>
        <time>2016-09-23T15:59:15Z</time>
      </trkpt>
      <trkpt lat="36.761215" lon="-5.244583">
        <ele>2103.0</ele>
        <time>2016-09-23T15:59:18Z</time>
      </trkpt>
      <trkpt lat="36.761051" lon="-5.244416">
        <ele>2106.0</ele>
        <time>2016-09-23T15:59:21Z</time>
      </trkpt>
      <trkpt lat="36.760717" lon="-5.244433">
        <ele>2108.0</ele>
        <time>2016-09-23T15:59:25Z</time>
      </trkpt>
      <trkpt lat="36.760467" lon="-5.244633">
        <ele>2111.0</ele>
        <time>2016-09-23T15:59:28Z</time>
      </trkpt>
      <trkpt lat="36.760283" lon="-5.244883">
        <ele>2118.0</ele>
        <time>2016-09-23T15:59:31Z</time>
      </trkpt>
      <trkpt lat="36.760133" lon="-5.245200">
        <ele>2123.0</ele>
        <time>2016-09-23T15:59:34Z</time>
      </trkpt>
      <trkpt lat="36.760116" lon="-5.245499">
        <ele>2130.0</ele>
        <time>2016-09-23T15:59:37Z</time>
      </trkpt>
      <trkpt lat="36.760249" lon="-5.245750">
        <ele>2134.0</ele>
        <time>2016-09-23T15:59:40Z</time>
      </trkpt>
      <trkpt lat="36.760502" lon="-5.245767">
        <ele>2138.0</ele>
        <time>2016-09-23T15:59:43Z</time>
      </trkpt>
      <trkpt lat="36.760686" lon="-5.245583">
        <ele>2141.0</ele>
        <time>2016-09-23T15:59:46Z</time>
      </trkpt>
      <trkpt lat="36.760666" lon="-5.245300">
        <ele>2145.0</ele>
        <time>2016-09-23T15:59:49Z</time>
      </trkpt>
      <trkpt lat="36.760532" lon="-5.245067">
        <ele>2153.0</ele>
        <time>2016-09-23T15:59:52Z</time>
      </trkpt>
      <trkpt lat="36.760368" lon="-5.244900">
        <ele>2158.0</ele>
        <time>2016-09-23T15:59:55Z</time>
      </trkpt>
      <trkpt lat="36.760116" lon="-5.244833">
        <ele>2163.0</ele>
        <time>2016-09-23T15:59:58Z</time>
      </trkpt>
      <trkpt lat="36.759849" lon="-5.244900">
        <ele>2168.0</ele>
        <time>2016-09-23T16:00:01Z</time>
      </trkpt>
      <trkpt lat="36.759631" lon="-5.245099">
        <ele>2170.0</ele>
        <time>2016-09-23T16:00:04Z</time>
      </trkpt>
      <trkpt lat="36.759498" lon="-5.245566">
        <ele>2171.0</ele>
        <time>2016-09-23T16:00:08Z</time>
      </trkpt>
      <trkpt lat="36.759600" lon="-5.245916">
        <ele>2169.0</ele>
        <time>2016-09-23T16:00:11Z</time>
      </trkpt>
      <trkpt lat="36.759836" lon="-5.246183">
        <ele>2167.0</ele>
        <time>2016-09-23T16:00:14Z</time>
      </trkpt>
      <trkpt lat="36.760068" lon="-5.246166">
        <ele>2169.0</ele>
        <time>2016-09-23T16:00:17Z</time>
      </trkpt>
      <trkpt lat="36.760283" lon="-5.246033">
        <ele>2172.0</ele>
        <time>2016-09-23T16:00:20Z</time>
      </trkpt>
      <trkpt lat="36.760416" lon="-5.245850">
        <ele>2175.0</ele>
        <time>2016-09-23T16:00:23Z</time>
      </trkpt>
      <trkpt lat="36.760447" lon="-5.245616">
        <ele>2179.0</ele>
        <time>2016-09-23T16:00:26Z</time>
      </trkpt>
      <trkpt lat="36.760433" lon="-5.245383">
        <ele>2181.0</ele>
        <time>2016-09-23T16:00:29Z</time>
      </trkpt>
      <trkpt lat="36.760215" lon="-5.245133">
        <ele>2191.0</ele>
        <time>2016-09-23T16:00:33Z</time>
      </trkpt>
      <trkpt lat="36.760034" lon="-5.245133">
        <ele>2190.0</ele>
        <time>2016-09-23T16:00:36Z</time>
      </trkpt>
      <trkpt lat="36.759784" lon="-5.245316">
        <ele>2192.0</ele>
        <time>2016-09-23T16:00:39Z</time>
      </trkpt>
      <trkpt lat="36.759651" lon="-5.245600">
        <ele>2195.0</ele>
        <time>2016-09-23T16:00:42Z</time>
      </trkpt>
      <trkpt lat="36.759651" lon="-5.245933">
        <ele>2197.0</ele>
        <time>2016-09-23T16:00:45Z</time>
      </trkpt>
      <trkpt lat="36.759836" lon="-5.246200">
        <ele>2198.0</ele>
        <time>2016-09-23T16:00:48Z</time>
      </trkpt>
      <trkpt lat="36.760068" lon="-5.246350">
        <ele>2201.0</ele>
        <time>2016-09-23T16:00:51Z</time>
      </trkpt>
      <trkpt lat="36.760314" lon="-5.246350">
        <ele>2200.0</ele>
        <time>2016-09-23T16:00:54Z</time>
      </trkpt>
      <trkpt lat="36.760566" lon="-5.246200">
        <ele>2202.0</ele>
        <time>2016-09-23T16:00:57Z</time>
      </trkpt>
      <trkpt lat="36.760765" lon="-5.246033">
        <ele>2203.0</ele>
        <time>2016-09-23T16:01:00Z</time>
      </trkpt>
      <trkpt lat="36.760898" lon="-5.245783">
        <ele>2205.0</ele>
        <time>2016-09-23T16:01:03Z</time>
      </trkpt>
      <trkpt lat="36.760966" lon="-5.245450">
        <ele>2206.0</ele>
        <time>2016-09-23T16:01:06Z</time>
      </trkpt>
      <trkpt lat="36.760966" lon="-5.245099">
        <ele>2210.0</ele>
        <time>2016-09-23T16:01:09Z</time>
      </trkpt>
      <trkpt lat="36.760898" lon="-5.244783">
        <ele>2214.0</ele>
        <time>2016-09-23T16:01:12Z</time>
      </trkpt>
      <trkpt lat="36.760751" lon="-5.244383">
        <ele>2219.0</ele>
        <time>2016-09-23T16:01:16Z</time>
      </trkpt>
      <trkpt lat="36.760532" lon="-5.244233">
        <ele>2226.0</ele>
        <time>2016-09-23T16:01:19Z</time>
      </trkpt>
      <trkpt lat="36.760348" lon="-5.244250">
        <ele>2232.0</ele>
        <time>2016-09-23T16:01:22Z</time>
      </trkpt>
      <trkpt lat="36.760150" lon="-5.244416">
        <ele>2234.0</ele>
        <time>2016-09-23T16:01:25Z</time>
      </trkpt>
      <trkpt lat="36.760017" lon="-5.244733">
        <ele>2238.0</ele>
        <time>2016-09-23T16:01:28Z</time>
      </trkpt>
      <trkpt lat="36.760068" lon="-5.245083">
        <ele>2243.0</ele>
        <time>2016-09-23T16:01:31Z</time>
      </trkpt>
      <trkpt lat="36.760249" lon="-5.245350">
        <ele>2247.0</ele>
        <time>2016-09-23T16:01:34Z</time>
      </trkpt>
      <trkpt lat="36.760502" lon="-5.245417">
        <ele>2255.0</ele>
        <time>2016-09-23T16:01:37Z</time>
      </trkpt>
      <trkpt lat="36.760717" lon="-5.245383">
        <ele>2258.0</ele>
        <time>2016-09-23T16:01:40Z</time>
      </trkpt>
      <trkpt lat="36.760918" lon="-5.245250">
        <ele>2265.0</ele>
        <time>2016-09-23T16:01:43Z</time>
      </trkpt>
      <trkpt lat="36.761017" lon="-5.245017">
        <ele>2270.0</ele>
        <time>2016-09-23T16:01:46Z</time>
      </trkpt>
      <trkpt lat="36.760949" lon="-5.244733">
        <ele>2272.0</ele>
        <time>2016-09-23T16:01:49Z</time>
      </trkpt>
      <trkpt lat="36.760734" lon="-5.244483">
        <ele>2277.0</ele>
        <time>2016-09-23T16:01:52Z</time>
      </trkpt>
      <trkpt lat="36.760502" lon="-5.244416">
        <ele>2283.0</ele>
        <time>2016-09-23T16:01:55Z</time>
      </trkpt>
      <trkpt lat="36.760235" lon="-5.244683">
        <ele>2283.0</ele>
        <time>2016-09-23T16:01:59Z</time>
      </trkpt>
      <trkpt lat="36.760116" lon="-5.245033">
        <ele>2281.0</ele>
        <time>2016-09-23T16:02:02Z</time>
      </trkpt>
      <trkpt lat="36.760102" lon="-5.245400">
        <ele>2282.0</ele>
        <time>2016-09-23T16:02:05Z</time>
      </trkpt>
      <trkpt lat="36.760201" lon="-5.245750">
        <ele>2283.0</ele>
        <time>2016-09-23T16:02:08Z</time>
      </trkpt>
      <trkpt lat="36.760283" lon="-5.246117">
        <ele>2288.0</ele>
        <time>2016-09-23T16:02:11Z</time>
      </trkpt>
      <trkpt lat="36.760368" lon="-5.246400">
        <ele>2289.0</ele>
        <time>2016-09-23T16:02:14Z</time>
      </trkpt>
      <trkpt lat="36.760566" lon="-5.246633">
        <ele>2290.0</ele>
        <time>2016-09-23T16:02:17Z</time>
      </trkpt>
      <trkpt lat="36.760819" lon="-5.246700">
        <ele>2290.0</ele>
        <time>2016-09-23T16:02:20Z</time>
      </trkpt>
      <trkpt lat="36.761051" lon="-5.246583">
        <ele>2288.0</ele>
        <time>2016-09-23T16:02:23Z</time>
      </trkpt>
      <trkpt lat="36.761198" lon="-5.246317">
        <ele>2288.0</ele>
        <time>2016-09-23T16:02:26Z</time>
      </trkpt>
      <trkpt lat="36.761232" lon="-5.246016">
        <ele>2290.0</ele>
        <time>2016-09-23T16:02:29Z</time>
      </trkpt>
      <trkpt lat="36.761198" lon="-5.245716">
        <ele>2291.0</ele>
        <time>2016-09-23T16:02:32Z</time>
      </trkpt>
      <trkpt lat="36.761116" lon="-5.245499">
        <ele>2291.0</ele>
        <time>2016-09-23T16:02:35Z</time>
      </trkpt>
      <trkpt lat="36.761031" lon="-5.245216">
        <ele>2293.0</ele>
        <time>2016-09-23T16:02:38Z</time>
      </trkpt>
      <trkpt lat="36.760949" lon="-5.244850">
        <ele>2295.0</ele>
        <time>2016-09-23T16:02:42Z</time>
      </trkpt>
      <trkpt lat="36.760819" lon="-5.244583">
        <ele>2297.0</ele>
        <time>2016-09-23T16:02:45Z</time>
      </trkpt>
      <trkpt lat="36.760666" lon="-5.244350">
        <ele>2299.0</ele>
        <time>2016-09-23T16:02:48Z</time>
      </trkpt>
      <trkpt lat="36.760515" lon="-5.244083">
        <ele>2300.0</ele>
        <time>2016-09-23T16:02:51Z</time>
      </trkpt>
      <trkpt lat="36.760399" lon="-5.243816">
        <ele>2303.0</ele>
        <time>2016-09-23T16:02:54Z</time>
      </trkpt>
      <trkpt lat="36.760283" lon="-5.243583">
        <ele>2303.0</ele>
        <time>2016-09-23T16:02:57Z</time>
      </trkpt>
      <trkpt lat="36.760000" lon="-5.243550">
        <ele>2303.0</ele>
        <time>2016-09-23T16:03:00Z</time>
      </trkpt>
      <trkpt lat="36.759784" lon="-5.243716">
        <ele>2303.0</ele>
        <time>2016-09-23T16:03:03Z</time>
      </trkpt>
      <trkpt lat="36.759651" lon="-5.244049">
        <ele>2300.0</ele>
        <time>2016-09-23T16:03:06Z</time>
      </trkpt>
      <trkpt lat="36.759699" lon="-5.244416">
        <ele>2298.0</ele>
        <time>2016-09-23T16:03:09Z</time>
      </trkpt>
      <trkpt lat="36.759836" lon="-5.244717">
        <ele>2292.0</ele>
        <time>2016-09-23T16:03:12Z</time>
      </trkpt>
      <trkpt lat="36.760133" lon="-5.244866">
        <ele>2286.0</ele>
        <time>2016-09-23T16:03:15Z</time>
      </trkpt>
      <trkpt lat="36.760447" lon="-5.244833">
        <ele>2287.0</ele>
        <time>2016-09-23T16:03:18Z</time>
      </trkpt>
      <trkpt lat="36.760785" lon="-5.244650">
        <ele>2286.0</ele>
        <time>2016-09-23T16:03:22Z</time>
      </trkpt>
      <trkpt lat="36.761017" lon="-5.244399">
        <ele>2288.0</ele>
        <time>2016-09-23T16:03:25Z</time>
      </trkpt>
      <trkpt lat="36.761215" lon="-5.244166">
        <ele>2289.0</ele>
        <time>2016-09-23T16:03:28Z</time>
      </trkpt>
      <trkpt lat="36.761369" lon="-5.243850">
        <ele>2287.0</ele>
        <time>2016-09-23T16:03:31Z</time>
      </trkpt>
      <trkpt lat="36.761451" lon="-5.243483">
        <ele>2291.0</ele>
        <time>2016-09-23T16:03:34Z</time>
      </trkpt>
      <trkpt lat="36.761516" lon="-5.243183">
        <ele>2292.0</ele>
        <time>2016-09-23T16:03:37Z</time>
      </trkpt>
      <trkpt lat="36.761635" lon="-5.242850">
        <ele>2290.0</ele>
        <time>2016-09-23T16:03:40Z</time>
      </trkpt>
      <trkpt lat="36.761714" lon="-5.242500">
        <ele>2294.0</ele>
        <time>2016-09-23T16:03:43Z</time>
      </trkpt>
      <trkpt lat="36.761799" lon="-5.242217">
        <ele>2298.0</ele>
        <time>2016-09-23T16:03:46Z</time>
      </trkpt>
      <trkpt lat="36.761847" lon="-5.241933">
        <ele>2296.0</ele>
        <time>2016-09-23T16:03:49Z</time>
      </trkpt>
      <trkpt lat="36.761833" lon="-5.241567">
        <ele>2300.0</ele>
        <time>2016-09-23T16:03:52Z</time>
      </trkpt>
      <trkpt lat="36.761833" lon="-5.241233">
        <ele>2300.0</ele>
        <time>2016-09-23T16:03:55Z</time>
      </trkpt>
      <trkpt lat="36.761769" lon="-5.240850">
        <ele>2304.0</ele>
        <time>2016-09-23T16:03:58Z</time>
      </trkpt>
      <trkpt lat="36.761666" lon="-5.240566">
        <ele>2305.0</ele>
        <time>2016-09-23T16:04:01Z</time>
      </trkpt>
      <trkpt lat="36.761516" lon="-5.240150">
        <ele>2305.0</ele>
        <time>2016-09-23T16:04:05Z</time>
      </trkpt>
      <trkpt lat="36.761434" lon="-5.239866">
        <ele>2310.0</ele>
        <time>2016-09-23T16:04:08Z</time>
      </trkpt>
      <trkpt lat="36.761318" lon="-5.239617">
        <ele>2311.0</ele>
        <time>2016-09-23T16:04:11Z</time>
      </trkpt>
      <trkpt lat="36.761164" lon="-5.239366">
        <ele>2306.0</ele>
        <time>2016-09-23T16:04:14Z</time>
      </trkpt>
      <trkpt lat="36.760966" lon="-5.239117">
        <ele>2298.0</ele>
        <time>2016-09-23T16:04:17Z</time>
      </trkpt>
      <trkpt lat="36.760765" lon="-5.238866">
        <ele>2295.0</ele>
        <time>2016-09-23T16:04:20Z</time>
      </trkpt>
      <trkpt lat="36.760566" lon="-5.238600">
        <ele>2293.0</ele>
        <time>2016-09-23T16:04:23Z</time>
      </trkpt>
      <trkpt lat="36.760382" lon="-5.238317">
        <ele>2290.0</ele>
        <time>2016-09-23T16:04:26Z</time>
      </trkpt>
      <trkpt lat="36.760235" lon="-5.238067">
        <ele>2290.0</ele>
        <time>2016-09-23T16:04:29Z</time>
      </trkpt>
      <trkpt lat="36.760081" lon="-5.237800">
        <ele>2288.0</ele>
        <time>2016-09-23T16:04:32Z</time>
      </trkpt>
      <trkpt lat="36.759918" lon="-5.237550">
        <ele>2288.0</ele>
        <time>2016-09-23T16:04:35Z</time>
      </trkpt>
      <trkpt lat="36.759764" lon="-5.237283">
        <ele>2286.0</ele>
        <time>2016-09-23T16:04:38Z</time>
      </trkpt>
      <trkpt lat="36.759600" lon="-5.237000">
        <ele>2286.0</ele>
        <time>2016-09-23T16:04:41Z</time>
      </trkpt>
      <trkpt lat="36.759364" lon="-5.236633">
        <ele>2285.0</ele>
        <time>2016-09-23T16:04:45Z</time>
      </trkpt>
      <trkpt lat="36.759183" lon="-5.236383">
        <ele>2285.0</ele>
        <time>2016-09-23T16:04:48Z</time>
      </trkpt>
      <trkpt lat="36.758982" lon="-5.236116">
        <ele>2284.0</ele>
        <time>2016-09-23T16:04:51Z</time>
      </trkpt>
      <trkpt lat="36.758767" lon="-5.235850">
        <ele>2288.0</ele>
        <time>2016-09-23T16:04:54Z</time>
      </trkpt>
      <trkpt lat="36.758616" lon="-5.235633">
        <ele>2293.0</ele>
        <time>2016-09-23T16:04:57Z</time>
      </trkpt>
      <trkpt lat="36.758517" lon="-5.235383">
        <ele>2292.0</ele>
        <time>2016-09-23T16:05:00Z</time>
      </trkpt>
      <trkpt lat="36.758401" lon="-5.235133">
        <ele>2292.0</ele>
        <time>2016-09-23T16:05:03Z</time>
      </trkpt>
      <trkpt lat="36.758251" lon="-5.234900">
        <ele>2289.0</ele>
        <time>2016-09-23T16:05:06Z</time>
      </trkpt>
      <trkpt lat="36.758084" lon="-5.234666">
        <ele>2289.0</ele>
        <time>2016-09-23T16:05:09Z</time>
      </trkpt>
      <trkpt lat="36.757916" lon="-5.234483">
        <ele>2285.0</ele>
        <time>2016-09-23T16:05:12Z</time>
      </trkpt>
      <trkpt lat="36.757718" lon="-5.234200">
        <ele>2286.0</ele>
        <time>2016-09-23T16:05:15Z</time>
      </trkpt>
      <trkpt lat="36.757500" lon="-5.233966">
        <ele>2283.0</ele>
        <time>2016-09-23T16:05:18Z</time>
      </trkpt>
      <trkpt lat="36.757302" lon="-5.233700">
        <ele>2280.0</ele>
        <time>2016-09-23T16:05:21Z</time>
      </trkpt>
      <trkpt lat="36.757134" lon="-5.233466">
        <ele>2275.0</ele>
        <time>2016-09-23T16:05:24Z</time>
      </trkpt>
      <trkpt lat="36.756902" lon="-5.233083">
        <ele>2273.0</ele>
        <time>2016-09-23T16:05:28Z</time>
      </trkpt>
      <trkpt lat="36.756718" lon="-5.232817">
        <ele>2269.0</ele>
        <time>2016-09-23T16:05:31Z</time>
      </trkpt>
      <trkpt lat="36.756465" lon="-5.232550">
        <ele>2266.0</ele>
        <time>2016-09-23T16:05:34Z</time>
      </trkpt>
      <trkpt lat="36.756233" lon="-5.232316">
        <ele>2264.0</ele>
        <time>2016-09-23T16:05:37Z</time>
      </trkpt>
      <trkpt lat="36.755980" lon="-5.232033">
        <ele>2257.0</ele>
        <time>2016-09-23T16:05:40Z</time>
      </trkpt>
      <trkpt lat="36.755734" lon="-5.231783">
        <ele>2257.0</ele>
        <time>2016-09-23T16:05:43Z</time>
      </trkpt>
      <trkpt lat="36.755536" lon="-5.231550">
        <ele>2256.0</ele>
        <time>2016-09-23T16:05:46Z</time>
      </trkpt>
      <trkpt lat="36.755331" lon="-5.231300">
        <ele>2255.0</ele>
        <time>2016-09-23T16:05:49Z</time>
      </trkpt>
      <trkpt lat="36.755133" lon="-5.231033">
        <ele>2243.0</ele>
        <time>2016-09-23T16:05:52Z</time>
      </trkpt>
      <trkpt lat="36.754918" lon="-5.230666">
        <ele>2243.0</ele>
        <time>2016-09-23T16:05:55Z</time>
      </trkpt>
      <trkpt lat="36.754713" lon="-5.230417">
        <ele>2238.0</ele>
        <time>2016-09-23T16:05:58Z</time>
      </trkpt>
      <trkpt lat="36.754501" lon="-5.230117">
        <ele>2234.0</ele>
        <time>2016-09-23T16:06:01Z</time>
      </trkpt>
      <trkpt lat="36.754249" lon="-5.229834">
        <ele>2233.0</ele>
        <time>2016-09-23T16:06:04Z</time>
      </trkpt>
      <trkpt lat="36.753982" lon="-5.229600">
        <ele>2226.0</ele>
        <time>2016-09-23T16:06:07Z</time>
      </trkpt>
      <trkpt lat="36.753651" lon="-5.229183">
        <ele>2220.0</ele>
        <time>2016-09-23T16:06:11Z</time>
      </trkpt>
      <trkpt lat="36.753432" lon="-5.228867">
        <ele>2212.0</ele>
        <time>2016-09-23T16:06:14Z</time>
      </trkpt>
      <trkpt lat="36.753251" lon="-5.228483">
        <ele>2206.0</ele>
        <time>2016-09-23T16:06:17Z</time>
      </trkpt>
      <trkpt lat="36.753067" lon="-5.228150">
        <ele>2201.0</ele>
        <time>2016-09-23T16:06:20Z</time>
      </trkpt>
      <trkpt lat="36.752883" lon="-5.227800">
        <ele>2192.0</ele>
        <time>2016-09-23T16:06:23Z</time>
      </trkpt>
      <trkpt lat="36.752715" lon="-5.227450">
        <ele>2188.0</ele>
        <time>2016-09-23T16:06:26Z</time>
      </trkpt>
      <trkpt lat="36.752500" lon="-5.227150">
        <ele>2179.0</ele>
        <time>2016-09-23T16:06:29Z</time>
      </trkpt>
      <trkpt lat="36.752299" lon="-5.226833">
        <ele>2179.0</ele>
        <time>2016-09-23T16:06:32Z</time>
      </trkpt>
      <trkpt lat="36.752182" lon="-5.226617">
        <ele>2171.0</ele>
        <time>2016-09-23T16:06:35Z</time>
      </trkpt>
      <trkpt lat="36.751984" lon="-5.226317">
        <ele>2166.0</ele>
        <time>2016-09-23T16:06:38Z</time>
      </trkpt>
      <trkpt lat="36.751865" lon="-5.225967">
        <ele>2162.0</ele>
        <time>2016-09-23T16:06:41Z</time>
      </trkpt>
      <trkpt lat="36.751752" lon="-5.225633">
        <ele>2159.0</ele>
        <time>2016-09-23T16:06:44Z</time>
      </trkpt>
      <trkpt lat="36.751633" lon="-5.225333">
        <ele>2156.0</ele>
        <time>2016-09-23T16:06:47Z</time>
      </trkpt>
      <trkpt lat="36.751465" lon="-5.225033">
        <ele>2153.0</ele>
        <time>2016-09-23T16:06:50Z</time>
      </trkpt>
      <trkpt lat="36.751301" lon="-5.224617">
        <ele>2151.0</ele>
        <time>2016-09-23T16:06:54Z</time>
      </trkpt>
      <trkpt lat="36.751233" lon="-5.224300">
        <ele>2147.0</ele>
        <time>2016-09-23T16:06:57Z</time>
      </trkpt>
      <trkpt lat="36.751168" lon="-5.223983">
        <ele>2139.0</ele>
        <time>2016-09-23T16:07:00Z</time>
      </trkpt>
      <trkpt lat="36.751035" lon="-5.223667">
        <ele>2139.0</ele>
        <time>2016-09-23T16:07:03Z</time>
      </trkpt>
      <trkpt lat="36.750915" lon="-5.223383">
        <ele>2140.0</ele>
        <time>2016-09-23T16:07:06Z</time>
      </trkpt>
      <trkpt lat="36.750765" lon="-5.223134">
        <ele>2139.0</ele>
        <time>2016-09-23T16:07:09Z</time>
      </trkpt>
      <trkpt lat="36.750598" lon="-5.222917">
        <ele>2134.0</ele>
        <time>2016-09-23T16:07:12Z</time>
      </trkpt>
      <trkpt lat="36.750434" lon="-5.222600">
        <ele>2132.0</ele>
        <time>2016-09-23T16:07:15Z</time>
      </trkpt>
      <trkpt lat="36.750318" lon="-5.222333">
        <ele>2130.0</ele>
        <time>2016-09-23T16:07:18Z</time>
      </trkpt>
      <trkpt lat="36.750219" lon="-5.222050">
        <ele>2125.0</ele>
        <time>2016-09-23T16:07:21Z</time>
      </trkpt>
      <trkpt lat="36.750099" lon="-5.221717">
        <ele>2124.0</ele>
        <time>2016-09-23T16:07:24Z</time>
      </trkpt>
      <trkpt lat="36.749966" lon="-5.221400">
        <ele>2121.0</ele>
        <time>2016-09-23T16:07:27Z</time>
      </trkpt>
      <trkpt lat="36.749833" lon="-5.221083">
        <ele>2121.0</ele>
        <time>2016-09-23T16:07:30Z</time>
      </trkpt>
      <trkpt lat="36.749618" lon="-5.220717">
        <ele>2122.0</ele>
        <time>2016-09-23T16:07:34Z</time>
      </trkpt>
      <trkpt lat="36.749416" lon="-5.220583">
        <ele>2122.0</ele>
        <time>2016-09-23T16:07:37Z</time>
      </trkpt>
      <trkpt lat="36.749133" lon="-5.220700">
        <ele>2120.0</ele>
        <time>2016-09-23T16:07:40Z</time>
      </trkpt>
      <trkpt lat="36.749064" lon="-5.221067">
        <ele>2119.0</ele>
        <time>2016-09-23T16:07:43Z</time>
      </trkpt>
      <trkpt lat="36.749218" lon="-5.221300">
        <ele>2118.0</ele>
        <time>2016-09-23T16:07:46Z</time>
      </trkpt>
      <trkpt lat="36.749450" lon="-5.221350">
        <ele>2117.0</ele>
        <time>2016-09-23T16:07:49Z</time>
      </trkpt>
      <trkpt lat="36.749635" lon="-5.221200">
        <ele>2119.0</ele>
        <time>2016-09-23T16:07:52Z</time>
      </trkpt>
      <trkpt lat="36.749683" lon="-5.220933">
        <ele>2119.0</ele>
        <time>2016-09-23T16:07:55Z</time>
      </trkpt>
      <trkpt lat="36.749635" lon="-5.220633">
        <ele>2119.0</ele>
        <time>2016-09-23T16:07:58Z</time>
      </trkpt>
      <trkpt lat="36.749450" lon="-5.220400">
        <ele>2116.0</ele>
        <time>2016-09-23T16:08:01Z</time>
      </trkpt>
      <trkpt lat="36.749218" lon="-5.220200">
        <ele>2114.0</ele>
        <time>2016-09-23T16:08:04Z</time>
      </trkpt>
      <trkpt lat="36.748931" lon="-5.220066">
        <ele>2113.0</ele>
        <time>2016-09-23T16:08:07Z</time>
      </trkpt>
      <trkpt lat="36.748668" lon="-5.219934">
        <ele>2109.0</ele>
        <time>2016-09-23T16:08:10Z</time>
      </trkpt>
      <trkpt lat="36.748248" lon="-5.219783">
        <ele>2105.0</ele>
        <time>2016-09-23T16:08:14Z</time>
      </trkpt>
      <trkpt lat="36.747951" lon="-5.219650">
        <ele>2103.0</ele>
        <time>2016-09-23T16:08:17Z</time>
      </trkpt>
      <trkpt lat="36.747634" lon="-5.219550">
        <ele>2102.0</ele>
        <time>2016-09-23T16:08:20Z</time>
      </trkpt>
      <trkpt lat="36.747319" lon="-5.219433">
        <ele>2101.0</ele>
        <time>2016-09-23T16:08:23Z</time>
      </trkpt>
      <trkpt lat="36.747002" lon="-5.219316">
        <ele>2102.0</ele>
        <time>2016-09-23T16:08:26Z</time>
      </trkpt>
      <trkpt lat="36.746701" lon="-5.219184">
        <ele>2101.0</ele>
        <time>2016-09-23T16:08:29Z</time>
      </trkpt>
      <trkpt lat="36.746418" lon="-5.219133">
        <ele>2104.0</ele>
        <time>2016-09-23T16:08:32Z</time>
      </trkpt>
      <trkpt lat="36.746165" lon="-5.219100">
        <ele>2101.0</ele>
        <time>2016-09-23T16:08:35Z</time>
      </trkpt>
      <trkpt lat="36.745868" lon="-5.219133">
        <ele>2095.0</ele>
        <time>2016-09-23T16:08:38Z</time>
      </trkpt>
      <trkpt lat="36.745567" lon="-5.219117">
        <ele>2088.0</ele>
        <time>2016-09-23T16:08:41Z</time>
      </trkpt>
      <trkpt lat="36.745284" lon="-5.218983">
        <ele>2082.0</ele>
        <time>2016-09-23T16:08:44Z</time>
      </trkpt>
      <trkpt lat="36.744997" lon="-5.218783">
        <ele>2081.0</ele>
        <time>2016-09-23T16:08:47Z</time>
      </trkpt>
      <trkpt lat="36.744731" lon="-5.218633">
        <ele>2076.0</ele>
        <time>2016-09-23T16:08:50Z</time>
      </trkpt>
      <trkpt lat="36.744468" lon="-5.218467">
        <ele>2070.0</ele>
        <time>2016-09-23T16:08:53Z</time>
      </trkpt>
      <trkpt lat="36.744116" lon="-5.218217">
        <ele>2065.0</ele>
        <time>2016-09-23T16:08:57Z</time>
      </trkpt>
      <trkpt lat="36.743850" lon="-5.218017">
        <ele>2064.0</ele>
        <time>2016-09-23T16:09:00Z</time>
      </trkpt>
      <trkpt lat="36.743600" lon="-5.217833">
        <ele>2058.0</ele>
        <time>2016-09-23T16:09:03Z</time>
      </trkpt>
      <trkpt lat="36.743331" lon="-5.217633">
        <ele>2054.0</ele>
        <time>2016-09-23T16:09:06Z</time>
      </trkpt>
      <trkpt lat="36.743085" lon="-5.217367">
        <ele>2046.0</ele>
        <time>2016-09-23T16:09:09Z</time>
      </trkpt>
      <trkpt lat="36.742852" lon="-5.217083">
        <ele>2045.0</ele>
        <time>2016-09-23T16:09:12Z</time>
      </trkpt>
      <trkpt lat="36.742634" lon="-5.216850">
        <ele>2039.0</ele>
        <time>2016-09-23T16:09:15Z</time>
      </trkpt>
      <trkpt lat="36.742381" lon="-5.216550">
        <ele>2034.0</ele>
        <time>2016-09-23T16:09:18Z</time>
      </trkpt>
      <trkpt lat="36.742149" lon="-5.216300">
        <ele>2032.0</ele>
        <time>2016-09-23T16:09:21Z</time>
      </trkpt>
      <trkpt lat="36.741865" lon="-5.216066">
        <ele>2028.0</ele>
        <time>2016-09-23T16:09:24Z</time>
      </trkpt>
      <trkpt lat="36.741616" lon="-5.215833">
        <ele>2024.0</ele>
        <time>2016-09-23T16:09:27Z</time>
      </trkpt>
      <trkpt lat="36.741353" lon="-5.215583">
        <ele>2020.0</ele>
        <time>2016-09-23T16:09:30Z</time>
      </trkpt>
      <trkpt lat="36.741100" lon="-5.215333">
        <ele>2015.0</ele>
        <time>2016-09-23T16:09:33Z</time>
      </trkpt>
      <trkpt lat="36.740902" lon="-5.215066">
        <ele>2009.0</ele>
        <time>2016-09-23T16:09:36Z</time>
      </trkpt>
      <trkpt lat="36.740602" lon="-5.214750">
        <ele>2005.0</ele>
        <time>2016-09-23T16:09:40Z</time>
      </trkpt>
      <trkpt lat="36.740383" lon="-5.214516">
        <ele>2000.0</ele>
        <time>2016-09-23T16:09:43Z</time>
      </trkpt>
      <trkpt lat="36.740165" lon="-5.214300">
        <ele>1996.0</ele>
        <time>2016-09-23T16:09:46Z</time>
      </trkpt>
      <trkpt lat="36.739984" lon="-5.214083">
        <ele>1987.0</ele>
        <time>2016-09-23T16:09:49Z</time>
      </trkpt>
      <trkpt lat="36.739734" lon="-5.213783">
        <ele>1980.0</ele>
        <time>2016-09-23T16:09:52Z</time>
      </trkpt>
      <trkpt lat="36.739482" lon="-5.213533">
        <ele>1974.0</ele>
        <time>2016-09-23T16:09:55Z</time>
      </trkpt>
      <trkpt lat="36.739236" lon="-5.213216">
        <ele>1966.0</ele>
        <time>2016-09-23T16:09:58Z</time>
      </trkpt>
      <trkpt lat="36.738966" lon="-5.212966">
        <ele>1963.0</ele>
        <time>2016-09-23T16:10:01Z</time>
      </trkpt>
      <trkpt lat="36.738683" lon="-5.212666">
        <ele>1956.0</ele>
        <time>2016-09-23T16:10:04Z</time>
      </trkpt>
      <trkpt lat="36.738385" lon="-5.212367">
        <ele>1954.0</ele>
        <time>2016-09-23T16:10:07Z</time>
      </trkpt>
      <trkpt lat="36.738082" lon="-5.212100">
        <ele>1951.0</ele>
        <time>2016-09-23T16:10:10Z</time>
      </trkpt>
      <trkpt lat="36.737784" lon="-5.211800">
        <ele>1952.0</ele>
        <time>2016-09-23T16:10:13Z</time>
      </trkpt>
      <trkpt lat="36.737498" lon="-5.211550">
        <ele>1949.0</ele>
        <time>2016-09-23T16:10:16Z</time>
      </trkpt>
      <trkpt lat="36.737200" lon="-5.211267">
        <ele>1947.0</ele>
        <time>2016-09-23T16:10:19Z</time>
      </trkpt>
      <trkpt lat="36.736815" lon="-5.210917">
        <ele>1943.0</ele>
        <time>2016-09-23T16:10:23Z</time>
      </trkpt>
      <trkpt lat="36.736534" lon="-5.210616">
        <ele>1943.0</ele>
        <time>2016-09-23T16:10:26Z</time>
      </trkpt>
      <trkpt lat="36.736268" lon="-5.210383">
        <ele>1941.0</ele>
        <time>2016-09-23T16:10:29Z</time>
      </trkpt>
      <trkpt lat="36.736015" lon="-5.210133">
        <ele>1938.0</ele>
        <time>2016-09-23T16:10:32Z</time>
      </trkpt>
      <trkpt lat="36.735732" lon="-5.209917">
        <ele>1937.0</ele>
        <time>2016-09-23T16:10:35Z</time>
      </trkpt>
      <trkpt lat="36.735486" lon="-5.209750">
        <ele>1936.0</ele>
        <time>2016-09-23T16:10:38Z</time>
      </trkpt>
      <trkpt lat="36.735233" lon="-5.209567">
        <ele>1933.0</ele>
        <time>2016-09-23T16:10:41Z</time>
      </trkpt>
      <trkpt lat="36.734950" lon="-5.209383">
        <ele>1930.0</ele>
        <time>2016-09-23T16:10:44Z</time>
      </trkpt>
      <trkpt lat="36.734701" lon="-5.209183">
        <ele>1927.0</ele>
        <time>2016-09-23T16:10:47Z</time>
      </trkpt>
      <trkpt lat="36.734465" lon="-5.208933">
        <ele>1924.0</ele>
        <time>2016-09-23T16:10:50Z</time>
      </trkpt>
      <trkpt lat="36.734250" lon="-5.208666">
        <ele>1920.0</ele>
        <time>2016-09-23T16:10:53Z</time>
      </trkpt>
      <trkpt lat="36.734035" lon="-5.208416">
        <ele>1919.0</ele>
        <time>2016-09-23T16:10:56Z</time>
      </trkpt>
      <trkpt lat="36.733867" lon="-5.208200">
        <ele>1920.0</ele>
        <time>2016-09-23T16:10:59Z</time>
      </trkpt>
      <trkpt lat="36.733700" lon="-5.207966">
        <ele>1917.0</ele>
        <time>2016-09-23T16:11:02Z</time>
      </trkpt>
      <trkpt lat="36.733550" lon="-5.207717">
        <ele>1913.0</ele>
        <time>2016-09-23T16:11:05Z</time>
      </trkpt>
      <trkpt lat="36.733399" lon="-5.207433">
        <ele>1908.0</ele>
        <time>2016-09-23T16:11:08Z</time>
      </trkpt>
      <trkpt lat="36.733317" lon="-5.207133">
        <ele>1903.0</ele>
        <time>2016-09-23T16:11:11Z</time>
      </trkpt>
      <trkpt lat="36.733249" lon="-5.206783">
        <ele>1901.0</ele>
        <time>2016-09-23T16:11:14Z</time>
      </trkpt>
      <trkpt lat="36.733136" lon="-5.206333">
        <ele>1900.0</ele>
        <time>2016-09-23T16:11:18Z</time>
      </trkpt>
      <trkpt lat="36.733051" lon="-5.206000">
        <ele>1896.0</ele>
        <time>2016-09-23T16:11:21Z</time>
      </trkpt>
      <trkpt lat="36.732932" lon="-5.205700">
        <ele>1895.0</ele>
        <time>2016-09-23T16:11:24Z</time>
      </trkpt>
      <trkpt lat="36.732833" lon="-5.205400">
        <ele>1891.0</ele>
        <time>2016-09-23T16:11:27Z</time>
      </trkpt>
      <trkpt lat="36.732733" lon="-5.205084">
        <ele>1888.0</ele>
        <time>2016-09-23T16:11:30Z</time>
      </trkpt>
      <trkpt lat="36.732600" lon="-5.204750">
        <ele>1884.0</ele>
        <time>2016-09-23T16:11:33Z</time>
      </trkpt>
      <trkpt lat="36.732453" lon="-5.204450">
        <ele>1881.0</ele>
        <time>2016-09-23T16:11:36Z</time>
      </trkpt>
      <trkpt lat="36.732320" lon="-5.204133">
        <ele>1877.0</ele>
        <time>2016-09-23T16:11:39Z</time>
      </trkpt>
      <trkpt lat="36.732201" lon="-5.203866">
        <ele>1876.0</ele>
        <time>2016-09-23T16:11:42Z</time>
      </trkpt>
      <trkpt lat="36.732102" lon="-5.203617">
        <ele>1871.0</ele>
        <time>2016-09-23T16:11:45Z</time>
      </trkpt>
      <trkpt lat="36.731934" lon="-5.203366">
        <ele>1870.0</ele>
        <time>2016-09-23T16:11:48Z</time>
      </trkpt>
      <trkpt lat="36.731750" lon="-5.203183">
        <ele>1864.0</ele>
        <time>2016-09-23T16:11:51Z</time>
      </trkpt>
      <trkpt lat="36.731497" lon="-5.202983">
        <ele>1862.0</ele>
        <time>2016-09-23T16:11:54Z</time>
      </trkpt>
      <trkpt lat="36.731285" lon="-5.202816">
        <ele>1858.0</ele>
        <time>2016-09-23T16:11:57Z</time>
      </trkpt>
      <trkpt lat="36.730985" lon="-5.202533">
        <ele>1857.0</ele>
        <time>2016-09-23T16:12:01Z</time>
      </trkpt>
      <trkpt lat="36.730766" lon="-5.202299">
        <ele>1853.0</ele>
        <time>2016-09-23T16:12:04Z</time>
      </trkpt>
      <trkpt lat="36.730548" lon="-5.202050">
        <ele>1850.0</ele>
        <time>2016-09-23T16:12:07Z</time>
      </trkpt>
      <trkpt lat="36.730350" lon="-5.201850">
        <ele>1845.0</ele>
        <time>2016-09-23T16:12:10Z</time>
      </trkpt>
      <trkpt lat="36.730152" lon="-5.201650">
        <ele>1834.0</ele>
        <time>2016-09-23T16:12:13Z</time>
      </trkpt>
      <trkpt lat="36.729984" lon="-5.201433">
        <ele>1826.0</ele>
        <time>2016-09-23T16:12:16Z</time>
      </trkpt>
      <trkpt lat="36.729865" lon="-5.201200">
        <ele>1816.0</ele>
        <time>2016-09-23T16:12:19Z</time>
      </trkpt>
      <trkpt lat="36.729684" lon="-5.200983">
        <ele>1806.0</ele>
        <time>2016-09-23T16:12:22Z</time>
      </trkpt>
      <trkpt lat="36.729533" lon="-5.200750">
        <ele>1790.0</ele>
        <time>2016-09-23T16:12:25Z</time>
      </trkpt>
      <trkpt lat="36.729349" lon="-5.200500">
        <ele>1781.0</ele>
        <time>2016-09-23T16:12:28Z</time>
      </trkpt>
      <trkpt lat="36.729182" lon="-5.200233">
        <ele>1776.0</ele>
        <time>2016-09-23T16:12:31Z</time>
      </trkpt>
      <trkpt lat="36.729014" lon="-5.199984">
        <ele>1767.0</ele>
        <time>2016-09-23T16:12:34Z</time>
      </trkpt>
      <trkpt lat="36.728833" lon="-5.199700">
        <ele>1762.0</ele>
        <time>2016-09-23T16:12:37Z</time>
      </trkpt>
      <trkpt lat="36.728598" lon="-5.199417">
        <ele>1757.0</ele>
        <time>2016-09-23T16:12:41Z</time>
      </trkpt>
      <trkpt lat="36.728434" lon="-5.199234">
        <ele>1750.0</ele>
        <time>2016-09-23T16:12:44Z</time>
      </trkpt>
      <trkpt lat="36.728318" lon="-5.199033">
        <ele>1744.0</ele>
        <time>2016-09-23T16:12:47Z</time>
      </trkpt>
      <trkpt lat="36.728301" lon="-5.198750">
        <ele>1738.0</ele>
        <time>2016-09-23T16:12:50Z</time>
      </trkpt>
      <trkpt lat="36.728318" lon="-5.198467">
        <ele>1732.0</ele>
        <time>2016-09-23T16:12:53Z</time>
      </trkpt>
      <trkpt lat="36.728266" lon="-5.198217">
        <ele>1723.0</ele>
        <time>2016-09-23T16:12:56Z</time>
      </trkpt>
      <trkpt lat="36.728266" lon="-5.197917">
        <ele>1718.0</ele>
        <time>2016-09-23T16:12:59Z</time>
      </trkpt>
      <trkpt lat="36.728318" lon="-5.197616">
        <ele>1711.0</ele>
        <time>2016-09-23T16:13:02Z</time>
      </trkpt>
      <trkpt lat="36.728352" lon="-5.197266">
        <ele>1706.0</ele>
        <time>2016-09-23T16:13:05Z</time>
      </trkpt>
      <trkpt lat="36.728352" lon="-5.196967">
        <ele>1701.0</ele>
        <time>2016-09-23T16:13:08Z</time>
      </trkpt>
      <trkpt lat="36.728331" lon="-5.196667">
        <ele>1697.0</ele>
        <time>2016-09-23T16:13:11Z</time>
      </trkpt>
      <trkpt lat="36.728301" lon="-5.196367">
        <ele>1693.0</ele>
        <time>2016-09-23T16:13:14Z</time>
      </trkpt>
      <trkpt lat="36.728284" lon="-5.196067">
        <ele>1688.0</ele>
        <time>2016-09-23T16:13:17Z</time>
      </trkpt>
      <trkpt lat="36.728266" lon="-5.195616">
        <ele>1682.0</ele>
        <time>2016-09-23T16:13:21Z</time>
      </trkpt>
      <trkpt lat="36.728198" lon="-5.195267">
        <ele>1674.0</ele>
        <time>2016-09-23T16:13:24Z</time>
      </trkpt>
      <trkpt lat="36.728167" lon="-5.194917">
        <ele>1669.0</ele>
        <time>2016-09-23T16:13:27Z</time>
      </trkpt>
      <trkpt lat="36.728099" lon="-5.194600">
        <ele>1660.0</ele>
        <time>2016-09-23T16:13:30Z</time>
      </trkpt>
      <trkpt lat="36.727966" lon="-5.194283">
        <ele>1654.0</ele>
        <time>2016-09-23T16:13:33Z</time>
      </trkpt>
      <trkpt lat="36.727833" lon="-5.194017">
        <ele>1647.0</ele>
        <time>2016-09-23T16:13:36Z</time>
      </trkpt>
      <trkpt lat="36.727669" lon="-5.193750">
        <ele>1642.0</ele>
        <time>2016-09-23T16:13:39Z</time>
      </trkpt>
      <trkpt lat="36.727502" lon="-5.193533">
        <ele>1640.0</ele>
        <time>2016-09-23T16:13:42Z</time>
      </trkpt>
      <trkpt lat="36.727317" lon="-5.193350">
        <ele>1635.0</ele>
        <time>2016-09-23T16:13:45Z</time>
      </trkpt>
      <trkpt lat="36.727184" lon="-5.193133">
        <ele>1631.0</ele>
        <time>2016-09-23T16:13:48Z</time>
      </trkpt>
      <trkpt lat="36.727017" lon="-5.192900">
        <ele>1629.0</ele>
        <time>2016-09-23T16:13:51Z</time>
      </trkpt>
      <trkpt lat="36.726832" lon="-5.192717">
        <ele>1627.0</ele>
        <time>2016-09-23T16:13:54Z</time>
      </trkpt>
      <trkpt lat="36.726651" lon="-5.192583">
        <ele>1628.0</ele>
        <time>2016-09-23T16:13:57Z</time>
      </trkpt>
      <trkpt lat="36.726480" lon="-5.192467">
        <ele>1627.0</ele>
        <time>2016-09-23T16:14:00Z</time>
      </trkpt>
      <trkpt lat="36.726248" lon="-5.192300">
        <ele>1625.0</ele>
        <time>2016-09-23T16:14:04Z</time>
      </trkpt>
      <trkpt lat="36.726084" lon="-5.192117">
        <ele>1623.0</ele>
        <time>2016-09-23T16:14:07Z</time>
      </trkpt>
      <trkpt lat="36.725917" lon="-5.191950">
        <ele>1623.0</ele>
        <time>2016-09-23T16:14:10Z</time>
      </trkpt>
      <trkpt lat="36.725801" lon="-5.191767">
        <ele>1620.0</ele>
        <time>2016-09-23T16:14:13Z</time>
      </trkpt>
      <trkpt lat="36.725651" lon="-5.191584">
        <ele>1614.0</ele>
        <time>2016-09-23T16:14:16Z</time>
      </trkpt>
      <trkpt lat="36.725466" lon="-5.191417">
        <ele>1611.0</ele>
        <time>2016-09-23T16:14:19Z</time>
      </trkpt>
      <trkpt lat="36.725285" lon="-5.191234">
        <ele>1612.0</ele>
        <time>2016-09-23T16:14:22Z</time>
      </trkpt>
      <trkpt lat="36.725118" lon="-5.191067">
        <ele>1612.0</ele>
        <time>2016-09-23T16:14:25Z</time>
      </trkpt>
      <trkpt lat="36.724920" lon="-5.190867">
        <ele>1610.0</ele>
        <time>2016-09-23T16:14:28Z</time>
      </trkpt>
      <trkpt lat="36.724715" lon="-5.190667">
        <ele>1610.0</ele>
        <time>2016-09-23T16:14:31Z</time>
      </trkpt>
      <trkpt lat="36.724551" lon="-5.190500">
        <ele>1604.0</ele>
        <time>2016-09-23T16:14:34Z</time>
      </trkpt>
      <trkpt lat="36.724302" lon="-5.190333">
        <ele>1603.0</ele>
        <time>2016-09-23T16:14:37Z</time>
      </trkpt>
      <trkpt lat="36.724066" lon="-5.190233">
        <ele>1597.0</ele>
        <time>2016-09-23T16:14:40Z</time>
      </trkpt>
      <trkpt lat="36.723800" lon="-5.190084">
        <ele>1593.0</ele>
        <time>2016-09-23T16:14:43Z</time>
      </trkpt>
      <trkpt lat="36.723520" lon="-5.189900">
        <ele>1587.0</ele>
        <time>2016-09-23T16:14:47Z</time>
      </trkpt>
      <trkpt lat="36.723349" lon="-5.189650">
        <ele>1584.0</ele>
        <time>2016-09-23T16:14:50Z</time>
      </trkpt>
      <trkpt lat="36.723202" lon="-5.189467">
        <ele>1578.0</ele>
        <time>2016-09-23T16:14:53Z</time>
      </trkpt>
      <trkpt lat="36.723017" lon="-5.189217">
        <ele>1573.0</ele>
        <time>2016-09-23T16:14:56Z</time>
      </trkpt>
      <trkpt lat="36.722837" lon="-5.188916">
        <ele>1572.0</ele>
        <time>2016-09-23T16:14:59Z</time>
      </trkpt>
      <trkpt lat="36.722683" lon="-5.188667">
        <ele>1577.0</ele>
        <time>2016-09-23T16:15:02Z</time>
      </trkpt>
      <trkpt lat="36.722550" lon="-5.188433">
        <ele>1578.0</ele>
        <time>2016-09-23T16:15:05Z</time>
      </trkpt>
      <trkpt lat="36.722365" lon="-5.188350">
        <ele>1581.0</ele>
        <time>2016-09-23T16:15:08Z</time>
      </trkpt>
      <trkpt lat="36.722300" lon="-5.188500">
        <ele>1583.0</ele>
        <time>2016-09-23T16:15:11Z</time>
      </trkpt>
      <trkpt lat="36.722331" lon="-5.188683">
        <ele>1587.0</ele>
        <time>2016-09-23T16:15:14Z</time>
      </trkpt>
      <trkpt lat="36.722485" lon="-5.188850">
        <ele>1592.0</ele>
        <time>2016-09-23T16:15:17Z</time>
      </trkpt>
      <trkpt lat="36.722751" lon="-5.188883">
        <ele>1593.0</ele>
        <time>2016-09-23T16:15:20Z</time>
      </trkpt>
      <trkpt lat="36.723048" lon="-5.188750">
        <ele>1594.0</ele>
        <time>2016-09-23T16:15:23Z</time>
      </trkpt>
      <trkpt lat="36.723349" lon="-5.188367">
        <ele>1597.0</ele>
        <time>2016-09-23T16:15:27Z</time>
      </trkpt>
      <trkpt lat="36.723499" lon="-5.188034">
        <ele>1599.0</ele>
        <time>2016-09-23T16:15:30Z</time>
      </trkpt>
      <trkpt lat="36.723520" lon="-5.187650">
        <ele>1597.0</ele>
        <time>2016-09-23T16:15:33Z</time>
      </trkpt>
      <trkpt lat="36.723335" lon="-5.187483">
        <ele>1598.0</ele>
        <time>2016-09-23T16:15:36Z</time>
      </trkpt>
      <trkpt lat="36.723134" lon="-5.187467">
        <ele>1601.0</ele>
        <time>2016-09-23T16:15:39Z</time>
      </trkpt>
      <trkpt lat="36.722949" lon="-5.187500">
        <ele>1603.0</ele>
        <time>2016-09-23T16:15:42Z</time>
      </trkpt>
      <trkpt lat="36.722782" lon="-5.187617">
        <ele>1607.0</ele>
        <time>2016-09-23T16:15:45Z</time>
      </trkpt>
      <trkpt lat="36.722666" lon="-5.187700">
        <ele>1613.0</ele>
        <time>2016-09-23T16:15:48Z</time>
      </trkpt>
      <trkpt lat="36.722567" lon="-5.187850">
        <ele>1616.0</ele>
        <time>2016-09-23T16:15:51Z</time>
      </trkpt>
      <trkpt lat="36.722498" lon="-5.188017">
        <ele>1622.0</ele>
        <time>2016-09-23T16:15:54Z</time>
      </trkpt>
      <trkpt lat="36.722464" lon="-5.188200">
        <ele>1625.0</ele>
        <time>2016-09-23T16:15:57Z</time>
      </trkpt>
      <trkpt lat="36.722567" lon="-5.188433">
        <ele>1629.0</ele>
        <time>2016-09-23T16:16:00Z</time>
      </trkpt>
      <trkpt lat="36.722782" lon="-5.188550">
        <ele>1629.0</ele>
        <time>2016-09-23T16:16:03Z</time>
      </trkpt>
      <trkpt lat="36.723117" lon="-5.188250">
        <ele>1629.0</ele>
        <time>2016-09-23T16:16:07Z</time>
      </trkpt>
      <trkpt lat="36.723168" lon="-5.188017">
        <ele>1626.0</ele>
        <time>2016-09-23T16:16:09Z</time>
      </trkpt>
      <trkpt lat="36.723048" lon="-5.187567">
        <ele>1624.0</ele>
        <time>2016-09-23T16:16:13Z</time>
      </trkpt>
      <trkpt lat="36.722850" lon="-5.187400">
        <ele>1628.0</ele>
        <time>2016-09-23T16:16:16Z</time>
      </trkpt>
      <trkpt lat="36.722703" lon="-5.187334">
        <ele>1634.0</ele>
        <time>2016-09-23T16:16:19Z</time>
      </trkpt>
      <trkpt lat="36.722550" lon="-5.187383">
        <ele>1632.0</ele>
        <time>2016-09-23T16:16:22Z</time>
      </trkpt>
      <trkpt lat="36.722352" lon="-5.187500">
        <ele>1635.0</ele>
        <time>2016-09-23T16:16:25Z</time>
      </trkpt>
      <trkpt lat="36.722201" lon="-5.187667">
        <ele>1639.0</ele>
        <time>2016-09-23T16:16:28Z</time>
      </trkpt>
      <trkpt lat="36.722013" lon="-5.187783">
        <ele>1646.0</ele>
        <time>2016-09-23T16:16:31Z</time>
      </trkpt>
      <trkpt lat="36.721884" lon="-5.187883">
        <ele>1654.0</ele>
        <time>2016-09-23T16:16:34Z</time>
      </trkpt>
      <trkpt lat="36.721733" lon="-5.187983">
        <ele>1660.0</ele>
        <time>2016-09-23T16:16:37Z</time>
      </trkpt>
      <trkpt lat="36.721634" lon="-5.188150">
        <ele>1666.0</ele>
        <time>2016-09-23T16:16:40Z</time>
      </trkpt>
      <trkpt lat="36.721549" lon="-5.188333">
        <ele>1671.0</ele>
        <time>2016-09-23T16:16:43Z</time>
      </trkpt>
      <trkpt lat="36.721549" lon="-5.188583">
        <ele>1676.0</ele>
        <time>2016-09-23T16:16:46Z</time>
      </trkpt>
      <trkpt lat="36.721815" lon="-5.188817">
        <ele>1675.0</ele>
        <time>2016-09-23T16:16:50Z</time>
      </trkpt>
      <trkpt lat="36.722099" lon="-5.188617">
        <ele>1674.0</ele>
        <time>2016-09-23T16:16:53Z</time>
      </trkpt>
      <trkpt lat="36.722150" lon="-5.188267">
        <ele>1676.0</ele>
        <time>2016-09-23T16:16:56Z</time>
      </trkpt>
      <trkpt lat="36.722099" lon="-5.187983">
        <ele>1680.0</ele>
        <time>2016-09-23T16:16:59Z</time>
      </trkpt>
      <trkpt lat="36.721914" lon="-5.187816">
        <ele>1683.0</ele>
        <time>2016-09-23T16:17:02Z</time>
      </trkpt>
      <trkpt lat="36.721716" lon="-5.187850">
        <ele>1688.0</ele>
        <time>2016-09-23T16:17:05Z</time>
      </trkpt>
      <trkpt lat="36.721535" lon="-5.187917">
        <ele>1692.0</ele>
        <time>2016-09-23T16:17:08Z</time>
      </trkpt>
      <trkpt lat="36.721334" lon="-5.188000">
        <ele>1698.0</ele>
        <time>2016-09-23T16:17:11Z</time>
      </trkpt>
      <trkpt lat="36.721170" lon="-5.188050">
        <ele>1698.0</ele>
        <time>2016-09-23T16:17:14Z</time>
      </trkpt>
      <trkpt lat="36.720999" lon="-5.188200">
        <ele>1694.0</ele>
        <time>2016-09-23T16:17:17Z</time>
      </trkpt>
      <trkpt lat="36.720832" lon="-5.188350">
        <ele>1687.0</ele>
        <time>2016-09-23T16:17:20Z</time>
      </trkpt>
      <trkpt lat="36.720699" lon="-5.188583">
        <ele>1683.0</ele>
        <time>2016-09-23T16:17:23Z</time>
      </trkpt>
      <trkpt lat="36.720699" lon="-5.188850">
        <ele>1679.0</ele>
        <time>2016-09-23T16:17:26Z</time>
      </trkpt>
      <trkpt lat="36.720733" lon="-5.189183">
        <ele>1674.0</ele>
        <time>2016-09-23T16:17:29Z</time>
      </trkpt>
      <trkpt lat="36.720900" lon="-5.189600">
        <ele>1677.0</ele>
        <time>2016-09-23T16:17:33Z</time>
      </trkpt>
      <trkpt lat="36.721016" lon="-5.189866">
        <ele>1677.0</ele>
        <time>2016-09-23T16:17:36Z</time>
      </trkpt>
      <trkpt lat="36.721170" lon="-5.190150">
        <ele>1675.0</ele>
        <time>2016-09-23T16:17:39Z</time>
      </trkpt>
      <trkpt lat="36.721436" lon="-5.190250">
        <ele>1673.0</ele>
        <time>2016-09-23T16:17:42Z</time>
      </trkpt>
      <trkpt lat="36.721716" lon="-5.190216">
        <ele>1670.0</ele>
        <time>2016-09-23T16:17:45Z</time>
      </trkpt>
      <trkpt lat="36.722000" lon="-5.190017">
        <ele>1666.0</ele>
        <time>2016-09-23T16:17:48Z</time>
      </trkpt>
      <trkpt lat="36.722133" lon="-5.189650">
        <ele>1665.0</ele>
        <time>2016-09-23T16:17:51Z</time>
      </trkpt>
      <trkpt lat="36.722201" lon="-5.189283">
        <ele>1666.0</ele>
        <time>2016-09-23T16:17:54Z</time>
      </trkpt>
      <trkpt lat="36.722201" lon="-5.188950">
        <ele>1664.0</ele>
        <time>2016-09-23T16:17:57Z</time>
      </trkpt>
      <trkpt lat="36.722119" lon="-5.188633">
        <ele>1666.0</ele>
        <time>2016-09-23T16:18:00Z</time>
      </trkpt>
      <trkpt lat="36.722068" lon="-5.188384">
        <ele>1662.0</ele>
        <time>2016-09-23T16:18:03Z</time>
      </trkpt>
      <trkpt lat="36.721966" lon="-5.188117">
        <ele>1658.0</ele>
        <time>2016-09-23T16:18:06Z</time>
      </trkpt>
      <trkpt lat="36.721781" lon="-5.187867">
        <ele>1657.0</ele>
        <time>2016-09-23T16:18:09Z</time>
      </trkpt>
      <trkpt lat="36.721583" lon="-5.187783">
        <ele>1658.0</ele>
        <time>2016-09-23T16:18:12Z</time>
      </trkpt>
      <trkpt lat="36.721334" lon="-5.187617">
        <ele>1650.0</ele>
        <time>2016-09-23T16:18:16Z</time>
      </trkpt>
      <trkpt lat="36.721170" lon="-5.187400">
        <ele>1646.0</ele>
        <time>2016-09-23T16:18:19Z</time>
      </trkpt>
      <trkpt lat="36.721033" lon="-5.187100">
        <ele>1641.0</ele>
        <time>2016-09-23T16:18:22Z</time>
      </trkpt>
      <trkpt lat="36.720852" lon="-5.186883">
        <ele>1642.0</ele>
        <time>2016-09-23T16:18:25Z</time>
      </trkpt>
      <trkpt lat="36.720685" lon="-5.186650">
        <ele>1636.0</ele>
        <time>2016-09-23T16:18:28Z</time>
      </trkpt>
      <trkpt lat="36.720487" lon="-5.186333">
        <ele>1638.0</ele>
        <time>2016-09-23T16:18:31Z</time>
      </trkpt>
      <trkpt lat="36.720333" lon="-5.186067">
        <ele>1637.0</ele>
        <time>2016-09-23T16:18:34Z</time>
      </trkpt>
      <trkpt lat="36.720183" lon="-5.185817">
        <ele>1631.0</ele>
        <time>2016-09-23T16:18:37Z</time>
      </trkpt>
      <trkpt lat="36.720067" lon="-5.185500">
        <ele>1627.0</ele>
        <time>2016-09-23T16:18:40Z</time>
      </trkpt>
      <trkpt lat="36.719903" lon="-5.185200">
        <ele>1623.0</ele>
        <time>2016-09-23T16:18:43Z</time>
      </trkpt>
      <trkpt lat="36.719719" lon="-5.184933">
        <ele>1621.0</ele>
        <time>2016-09-23T16:18:46Z</time>
      </trkpt>
      <trkpt lat="36.719551" lon="-5.184633">
        <ele>1621.0</ele>
        <time>2016-09-23T16:18:49Z</time>
      </trkpt>
      <trkpt lat="36.719333" lon="-5.184383">
        <ele>1616.0</ele>
        <time>2016-09-23T16:18:52Z</time>
      </trkpt>
      <trkpt lat="36.719117" lon="-5.184134">
        <ele>1614.0</ele>
        <time>2016-09-23T16:18:55Z</time>
      </trkpt>
      <trkpt lat="36.718899" lon="-5.183750">
        <ele>1612.0</ele>
        <time>2016-09-23T16:18:59Z</time>
      </trkpt>
      <trkpt lat="36.718800" lon="-5.183366">
        <ele>1611.0</ele>
        <time>2016-09-23T16:19:02Z</time>
      </trkpt>
      <trkpt lat="36.718714" lon="-5.182967">
        <ele>1609.0</ele>
        <time>2016-09-23T16:19:05Z</time>
      </trkpt>
      <trkpt lat="36.718636" lon="-5.182583">
        <ele>1607.0</ele>
        <time>2016-09-23T16:19:08Z</time>
      </trkpt>
      <trkpt lat="36.718516" lon="-5.182233">
        <ele>1602.0</ele>
        <time>2016-09-23T16:19:11Z</time>
      </trkpt>
      <trkpt lat="36.718417" lon="-5.181833">
        <ele>1598.0</ele>
        <time>2016-09-23T16:19:14Z</time>
      </trkpt>
      <trkpt lat="36.718264" lon="-5.181466">
        <ele>1591.0</ele>
        <time>2016-09-23T16:19:17Z</time>
      </trkpt>
      <trkpt lat="36.718083" lon="-5.181100">
        <ele>1589.0</ele>
        <time>2016-09-23T16:19:20Z</time>
      </trkpt>
      <trkpt lat="36.717898" lon="-5.180766">
        <ele>1583.0</ele>
        <time>2016-09-23T16:19:23Z</time>
      </trkpt>
      <trkpt lat="36.717700" lon="-5.180450">
        <ele>1579.0</ele>
        <time>2016-09-23T16:19:26Z</time>
      </trkpt>
      <trkpt lat="36.717468" lon="-5.180150">
        <ele>1575.0</ele>
        <time>2016-09-23T16:19:29Z</time>
      </trkpt>
      <trkpt lat="36.717284" lon="-5.179849">
        <ele>1570.0</ele>
        <time>2016-09-23T16:19:32Z</time>
      </trkpt>
      <trkpt lat="36.717068" lon="-5.179383">
        <ele>1563.0</ele>
        <time>2016-09-23T16:19:36Z</time>
      </trkpt>
      <trkpt lat="36.716901" lon="-5.179083">
        <ele>1556.0</ele>
        <time>2016-09-23T16:19:39Z</time>
      </trkpt>
      <trkpt lat="36.716730" lon="-5.178833">
        <ele>1549.0</ele>
        <time>2016-09-23T16:19:42Z</time>
      </trkpt>
      <trkpt lat="36.716549" lon="-5.178583">
        <ele>1539.0</ele>
        <time>2016-09-23T16:19:45Z</time>
      </trkpt>
      <trkpt lat="36.716334" lon="-5.178283">
        <ele>1529.0</ele>
        <time>2016-09-23T16:19:48Z</time>
      </trkpt>
      <trkpt lat="36.716153" lon="-5.177950">
        <ele>1524.0</ele>
        <time>2016-09-23T16:19:51Z</time>
      </trkpt>
      <trkpt lat="36.716020" lon="-5.177616">
        <ele>1517.0</ele>
        <time>2016-09-23T16:19:54Z</time>
      </trkpt>
      <trkpt lat="36.715969" lon="-5.177250">
        <ele>1516.0</ele>
        <time>2016-09-23T16:19:57Z</time>
      </trkpt>
      <trkpt lat="36.715982" lon="-5.176900">
        <ele>1515.0</ele>
        <time>2016-09-23T16:20:00Z</time>
      </trkpt>
      <trkpt lat="36.716047" lon="-5.176583">
        <ele>1516.0</ele>
        <time>2016-09-23T16:20:03Z</time>
      </trkpt>
      <trkpt lat="36.716201" lon="-5.176283">
        <ele>1515.0</ele>
        <time>2016-09-23T16:20:06Z</time>
      </trkpt>
      <trkpt lat="36.716399" lon="-5.175950">
        <ele>1518.0</ele>
        <time>2016-09-23T16:20:09Z</time>
      </trkpt>
      <trkpt lat="36.716549" lon="-5.175650">
        <ele>1519.0</ele>
        <time>2016-09-23T16:20:12Z</time>
      </trkpt>
      <trkpt lat="36.716683" lon="-5.175300">
        <ele>1525.0</ele>
        <time>2016-09-23T16:20:15Z</time>
      </trkpt>
      <trkpt lat="36.716717" lon="-5.175033">
        <ele>1524.0</ele>
        <time>2016-09-23T16:20:18Z</time>
      </trkpt>
      <trkpt lat="36.716549" lon="-5.174733">
        <ele>1522.0</ele>
        <time>2016-09-23T16:20:22Z</time>
      </trkpt>
      <trkpt lat="36.716334" lon="-5.174700">
        <ele>1525.0</ele>
        <time>2016-09-23T16:20:25Z</time>
      </trkpt>
      <trkpt lat="36.716133" lon="-5.174683">
        <ele>1526.0</ele>
        <time>2016-09-23T16:20:28Z</time>
      </trkpt>
      <trkpt lat="36.715969" lon="-5.174583">
        <ele>1530.0</ele>
        <time>2016-09-23T16:20:31Z</time>
      </trkpt>
      <trkpt lat="36.715815" lon="-5.174450">
        <ele>1532.0</ele>
        <time>2016-09-23T16:20:34Z</time>
      </trkpt>
      <trkpt lat="36.715784" lon="-5.174249">
        <ele>1533.0</ele>
        <time>2016-09-23T16:20:37Z</time>
      </trkpt>
      <trkpt lat="36.715836" lon="-5.173983">
        <ele>1532.0</ele>
        <time>2016-09-23T16:20:40Z</time>
      </trkpt>
      <trkpt lat="36.716085" lon="-5.173800">
        <ele>1534.0</ele>
        <time>2016-09-23T16:20:43Z</time>
      </trkpt>
      <trkpt lat="36.716385" lon="-5.173817">
        <ele>1538.0</ele>
        <time>2016-09-23T16:20:46Z</time>
      </trkpt>
      <trkpt lat="36.716652" lon="-5.173933">
        <ele>1545.0</ele>
        <time>2016-09-23T16:20:49Z</time>
      </trkpt>
      <trkpt lat="36.716850" lon="-5.174117">
        <ele>1549.0</ele>
        <time>2016-09-23T16:20:52Z</time>
      </trkpt>
      <trkpt lat="36.717017" lon="-5.174317">
        <ele>1549.0</ele>
        <time>2016-09-23T16:20:55Z</time>
      </trkpt>
      <trkpt lat="36.717167" lon="-5.174649">
        <ele>1549.0</ele>
        <time>2016-09-23T16:20:59Z</time>
      </trkpt>
      <trkpt lat="36.717215" lon="-5.174950">
        <ele>1548.0</ele>
        <time>2016-09-23T16:21:02Z</time>
      </trkpt>
      <trkpt lat="36.717133" lon="-5.175217">
        <ele>1551.0</ele>
        <time>2016-09-23T16:21:05Z</time>
      </trkpt>
      <trkpt lat="36.717034" lon="-5.175400">
        <ele>1555.0</ele>
        <time>2016-09-23T16:21:08Z</time>
      </trkpt>
      <trkpt lat="36.716836" lon="-5.175500">
        <ele>1557.0</ele>
        <time>2016-09-23T16:21:11Z</time>
      </trkpt>
      <trkpt lat="36.716652" lon="-5.175400">
        <ele>1560.0</ele>
        <time>2016-09-23T16:21:14Z</time>
      </trkpt>
      <trkpt lat="36.716498" lon="-5.175300">
        <ele>1560.0</ele>
        <time>2016-09-23T16:21:17Z</time>
      </trkpt>
      <trkpt lat="36.716334" lon="-5.175283">
        <ele>1562.0</ele>
        <time>2016-09-23T16:21:20Z</time>
      </trkpt>
      <trkpt lat="36.716153" lon="-5.175233">
        <ele>1564.0</ele>
        <time>2016-09-23T16:21:23Z</time>
      </trkpt>
      <trkpt lat="36.715999" lon="-5.175117">
        <ele>1570.0</ele>
        <time>2016-09-23T16:21:26Z</time>
      </trkpt>
      <trkpt lat="36.715866" lon="-5.174917">
        <ele>1578.0</ele>
        <time>2016-09-23T16:21:29Z</time>
      </trkpt>
      <trkpt lat="36.715801" lon="-5.174667">
        <ele>1583.0</ele>
        <time>2016-09-23T16:21:32Z</time>
      </trkpt>
      <trkpt lat="36.715801" lon="-5.174400">
        <ele>1587.0</ele>
        <time>2016-09-23T16:21:35Z</time>
      </trkpt>
      <trkpt lat="36.715969" lon="-5.174133">
        <ele>1595.0</ele>
        <time>2016-09-23T16:21:38Z</time>
      </trkpt>
      <trkpt lat="36.716365" lon="-5.174117">
        <ele>1600.0</ele>
        <time>2016-09-23T16:21:42Z</time>
      </trkpt>
      <trkpt lat="36.716618" lon="-5.174350">
        <ele>1603.0</ele>
        <time>2016-09-23T16:21:45Z</time>
      </trkpt>
      <trkpt lat="36.716700" lon="-5.174667">
        <ele>1605.0</ele>
        <time>2016-09-23T16:21:48Z</time>
      </trkpt>
      <trkpt lat="36.716549" lon="-5.174883">
        <ele>1605.0</ele>
        <time>2016-09-23T16:21:51Z</time>
      </trkpt>
      <trkpt lat="36.716385" lon="-5.174833">
        <ele>1610.0</ele>
        <time>2016-09-23T16:21:54Z</time>
      </trkpt>
      <trkpt lat="36.716252" lon="-5.174633">
        <ele>1611.0</ele>
        <time>2016-09-23T16:21:57Z</time>
      </trkpt>
      <trkpt lat="36.716300" lon="-5.174283">
        <ele>1620.0</ele>
        <time>2016-09-23T16:22:00Z</time>
      </trkpt>
      <trkpt lat="36.716519" lon="-5.174033">
        <ele>1628.0</ele>
        <time>2016-09-23T16:22:03Z</time>
      </trkpt>
      <trkpt lat="36.716816" lon="-5.173983">
        <ele>1635.0</ele>
        <time>2016-09-23T16:22:06Z</time>
      </trkpt>
      <trkpt lat="36.717068" lon="-5.174233">
        <ele>1643.0</ele>
        <time>2016-09-23T16:22:09Z</time>
      </trkpt>
      <trkpt lat="36.717103" lon="-5.174566">
        <ele>1646.0</ele>
        <time>2016-09-23T16:22:12Z</time>
      </trkpt>
      <trkpt lat="36.716983" lon="-5.174783">
        <ele>1648.0</ele>
        <time>2016-09-23T16:22:15Z</time>
      </trkpt>
      <trkpt lat="36.716802" lon="-5.174750">
        <ele>1653.0</ele>
        <time>2016-09-23T16:22:18Z</time>
      </trkpt>
      <trkpt lat="36.716717" lon="-5.174466">
        <ele>1655.0</ele>
        <time>2016-09-23T16:22:21Z</time>
      </trkpt>
      <trkpt lat="36.716850" lon="-5.174083">
        <ele>1663.0</ele>
        <time>2016-09-23T16:22:24Z</time>
      </trkpt>
      <trkpt lat="36.717236" lon="-5.173950">
        <ele>1670.0</ele>
        <time>2016-09-23T16:22:28Z</time>
      </trkpt>
      <trkpt lat="36.717499" lon="-5.174183">
        <ele>1675.0</ele>
        <time>2016-09-23T16:22:31Z</time>
      </trkpt>
      <trkpt lat="36.717499" lon="-5.174500">
        <ele>1678.0</ele>
        <time>2016-09-23T16:22:34Z</time>
      </trkpt>
      <trkpt lat="36.717348" lon="-5.174616">
        <ele>1683.0</ele>
        <time>2016-09-23T16:22:37Z</time>
      </trkpt>
      <trkpt lat="36.717181" lon="-5.174466">
        <ele>1687.0</ele>
        <time>2016-09-23T16:22:40Z</time>
      </trkpt>
      <trkpt lat="36.717202" lon="-5.174183">
        <ele>1694.0</ele>
        <time>2016-09-23T16:22:43Z</time>
      </trkpt>
      <trkpt lat="36.717369" lon="-5.173883">
        <ele>1701.0</ele>
        <time>2016-09-23T16:22:46Z</time>
      </trkpt>
      <trkpt lat="36.717687" lon="-5.173750">
        <ele>1706.0</ele>
        <time>2016-09-23T16:22:49Z</time>
      </trkpt>
      <trkpt lat="36.717984" lon="-5.173883">
        <ele>1712.0</ele>
        <time>2016-09-23T16:22:52Z</time>
      </trkpt>
      <trkpt lat="36.718083" lon="-5.174233">
        <ele>1716.0</ele>
        <time>2016-09-23T16:22:55Z</time>
      </trkpt>
      <trkpt lat="36.718001" lon="-5.174433">
        <ele>1721.0</ele>
        <time>2016-09-23T16:22:58Z</time>
      </trkpt>
      <trkpt lat="36.717833" lon="-5.174450">
        <ele>1723.0</ele>
        <time>2016-09-23T16:23:01Z</time>
      </trkpt>
      <trkpt lat="36.717734" lon="-5.174233">
        <ele>1730.0</ele>
        <time>2016-09-23T16:23:04Z</time>
      </trkpt>
      <trkpt lat="36.717950" lon="-5.173850">
        <ele>1733.0</ele>
        <time>2016-09-23T16:23:08Z</time>
      </trkpt>
      <trkpt lat="36.718318" lon="-5.173883">
        <ele>1741.0</ele>
        <time>2016-09-23T16:23:11Z</time>
      </trkpt>
      <trkpt lat="36.718533" lon="-5.174133">
        <ele>1741.0</ele>
        <time>2016-09-23T16:23:14Z</time>
      </trkpt>
      <trkpt lat="36.718551" lon="-5.174450">
        <ele>1740.0</ele>
        <time>2016-09-23T16:23:17Z</time>
      </trkpt>
      <trkpt lat="36.718383" lon="-5.174550">
        <ele>1742.0</ele>
        <time>2016-09-23T16:23:20Z</time>
      </trkpt>
      <trkpt lat="36.718216" lon="-5.174400">
        <ele>1746.0</ele>
        <time>2016-09-23T16:23:23Z</time>
      </trkpt>
      <trkpt lat="36.718250" lon="-5.174050">
        <ele>1754.0</ele>
        <time>2016-09-23T16:23:26Z</time>
      </trkpt>
      <trkpt lat="36.718469" lon="-5.173817">
        <ele>1758.0</ele>
        <time>2016-09-23T16:23:29Z</time>
      </trkpt>
      <trkpt lat="36.718800" lon="-5.173916">
        <ele>1760.0</ele>
        <time>2016-09-23T16:23:32Z</time>
      </trkpt>
      <trkpt lat="36.719001" lon="-5.174216">
        <ele>1763.0</ele>
        <time>2016-09-23T16:23:35Z</time>
      </trkpt>
      <trkpt lat="36.719032" lon="-5.174550">
        <ele>1764.0</ele>
        <time>2016-09-23T16:23:38Z</time>
      </trkpt>
      <trkpt lat="36.718916" lon="-5.174800">
        <ele>1768.0</ele>
        <time>2016-09-23T16:23:41Z</time>
      </trkpt>
      <trkpt lat="36.718714" lon="-5.174883">
        <ele>1770.0</ele>
        <time>2016-09-23T16:23:44Z</time>
      </trkpt>
      <trkpt lat="36.718482" lon="-5.174850">
        <ele>1772.0</ele>
        <time>2016-09-23T16:23:47Z</time>
      </trkpt>
      <trkpt lat="36.718151" lon="-5.174816">
        <ele>1774.0</ele>
        <time>2016-09-23T16:23:51Z</time>
      </trkpt>
      <trkpt lat="36.717950" lon="-5.174717">
        <ele>1780.0</ele>
        <time>2016-09-23T16:23:54Z</time>
      </trkpt>
      <trkpt lat="36.717734" lon="-5.174683">
        <ele>1776.0</ele>
        <time>2016-09-23T16:23:57Z</time>
      </trkpt>
      <trkpt lat="36.717482" lon="-5.174683">
        <ele>1779.0</ele>
        <time>2016-09-23T16:24:00Z</time>
      </trkpt>
      <trkpt lat="36.717301" lon="-5.174583">
        <ele>1787.0</ele>
        <time>2016-09-23T16:24:03Z</time>
      </trkpt>
      <trkpt lat="36.717150" lon="-5.174416">
        <ele>1798.0</ele>
        <time>2016-09-23T16:24:06Z</time>
      </trkpt>
      <trkpt lat="36.717082" lon="-5.174167">
        <ele>1807.0</ele>
        <time>2016-09-23T16:24:09Z</time>
      </trkpt>
      <trkpt lat="36.717202" lon="-5.173866">
        <ele>1814.0</ele>
        <time>2016-09-23T16:24:12Z</time>
      </trkpt>
      <trkpt lat="36.717468" lon="-5.173767">
        <ele>1822.0</ele>
        <time>2016-09-23T16:24:15Z</time>
      </trkpt>
      <trkpt lat="36.717765" lon="-5.173750">
        <ele>1827.0</ele>
        <time>2016-09-23T16:24:18Z</time>
      </trkpt>
      <trkpt lat="36.718066" lon="-5.173916">
        <ele>1839.0</ele>
        <time>2016-09-23T16:24:21Z</time>
      </trkpt>
      <trkpt lat="36.718264" lon="-5.174167">
        <ele>1847.0</ele>
        <time>2016-09-23T16:24:24Z</time>
      </trkpt>
      <trkpt lat="36.718383" lon="-5.174450">
        <ele>1847.0</ele>
        <time>2016-09-23T16:24:27Z</time>
      </trkpt>
      <trkpt lat="36.718400" lon="-5.174850">
        <ele>1849.0</ele>
        <time>2016-09-23T16:24:31Z</time>
      </trkpt>
      <trkpt lat="36.718318" lon="-5.175117">
        <ele>1851.0</ele>
        <time>2016-09-23T16:24:34Z</time>
      </trkpt>
      <trkpt lat="36.718165" lon="-5.175350">
        <ele>1848.0</ele>
        <time>2016-09-23T16:24:37Z</time>
      </trkpt>
      <trkpt lat="36.717932" lon="-5.175433">
        <ele>1848.0</ele>
        <time>2016-09-23T16:24:40Z</time>
      </trkpt>
      <trkpt lat="36.717666" lon="-5.175350">
        <ele>1846.0</ele>
        <time>2016-09-23T16:24:43Z</time>
      </trkpt>
      <trkpt lat="36.717482" lon="-5.175117">
        <ele>1848.0</ele>
        <time>2016-09-23T16:24:46Z</time>
      </trkpt>
      <trkpt lat="36.717348" lon="-5.174833">
        <ele>1851.0</ele>
        <time>2016-09-23T16:24:49Z</time>
      </trkpt>
      <trkpt lat="36.717266" lon="-5.174550">
        <ele>1856.0</ele>
        <time>2016-09-23T16:24:52Z</time>
      </trkpt>
      <trkpt lat="36.717133" lon="-5.174283">
        <ele>1859.0</ele>
        <time>2016-09-23T16:24:55Z</time>
      </trkpt>
      <trkpt lat="36.716884" lon="-5.174200">
        <ele>1864.0</ele>
        <time>2016-09-23T16:24:58Z</time>
      </trkpt>
      <trkpt lat="36.716717" lon="-5.174367">
        <ele>1866.0</ele>
        <time>2016-09-23T16:25:01Z</time>
      </trkpt>
      <trkpt lat="36.716764" lon="-5.174700">
        <ele>1866.0</ele>
        <time>2016-09-23T16:25:04Z</time>
      </trkpt>
      <trkpt lat="36.717000" lon="-5.174883">
        <ele>1872.0</ele>
        <time>2016-09-23T16:25:07Z</time>
      </trkpt>
      <trkpt lat="36.717215" lon="-5.175033">
        <ele>1879.0</ele>
        <time>2016-09-23T16:25:10Z</time>
      </trkpt>
      <trkpt lat="36.717519" lon="-5.175000">
        <ele>1883.0</ele>
        <time>2016-09-23T16:25:14Z</time>
      </trkpt>
      <trkpt lat="36.717700" lon="-5.174833">
        <ele>1886.0</ele>
        <time>2016-09-23T16:25:17Z</time>
      </trkpt>
      <trkpt lat="36.717919" lon="-5.174583">
        <ele>1891.0</ele>
        <time>2016-09-23T16:25:20Z</time>
      </trkpt>
      <trkpt lat="36.718031" lon="-5.174317">
        <ele>1898.0</ele>
        <time>2016-09-23T16:25:23Z</time>
      </trkpt>
      <trkpt lat="36.718052" lon="-5.174033">
        <ele>1907.0</ele>
        <time>2016-09-23T16:25:26Z</time>
      </trkpt>
      <trkpt lat="36.717967" lon="-5.173800">
        <ele>1910.0</ele>
        <time>2016-09-23T16:25:29Z</time>
      </trkpt>
      <trkpt lat="36.717799" lon="-5.173666">
        <ele>1914.0</ele>
        <time>2016-09-23T16:25:32Z</time>
      </trkpt>
      <trkpt lat="36.717601" lon="-5.173750">
        <ele>1915.0</ele>
        <time>2016-09-23T16:25:35Z</time>
      </trkpt>
      <trkpt lat="36.717434" lon="-5.173933">
        <ele>1916.0</ele>
        <time>2016-09-23T16:25:38Z</time>
      </trkpt>
      <trkpt lat="36.717434" lon="-5.174233">
        <ele>1912.0</ele>
        <time>2016-09-23T16:25:41Z</time>
      </trkpt>
      <trkpt lat="36.717499" lon="-5.174600">
        <ele>1919.0</ele>
        <time>2016-09-23T16:25:44Z</time>
      </trkpt>
      <trkpt lat="36.717533" lon="-5.174850">
        <ele>1927.0</ele>
        <time>2016-09-23T16:25:47Z</time>
      </trkpt>
      <trkpt lat="36.717553" lon="-5.175067">
        <ele>1928.0</ele>
        <time>2016-09-23T16:25:50Z</time>
      </trkpt>
      <trkpt lat="36.717751" lon="-5.175300">
        <ele>1929.0</ele>
        <time>2016-09-23T16:25:54Z</time>
      </trkpt>
      <trkpt lat="36.717950" lon="-5.175250">
        <ele>1930.0</ele>
        <time>2016-09-23T16:25:57Z</time>
      </trkpt>
      <trkpt lat="36.718117" lon="-5.175016">
        <ele>1931.0</ele>
        <time>2016-09-23T16:26:00Z</time>
      </trkpt>
      <trkpt lat="36.718216" lon="-5.174750">
        <ele>1933.0</ele>
        <time>2016-09-23T16:26:03Z</time>
      </trkpt>
      <trkpt lat="36.718370" lon="-5.174500">
        <ele>1933.0</ele>
        <time>2016-09-23T16:26:06Z</time>
      </trkpt>
      <trkpt lat="36.718568" lon="-5.174283">
        <ele>1937.0</ele>
        <time>2016-09-23T16:26:09Z</time>
      </trkpt>
      <trkpt lat="36.718783" lon="-5.174100">
        <ele>1940.0</ele>
        <time>2016-09-23T16:26:12Z</time>
      </trkpt>
      <trkpt lat="36.719032" lon="-5.173967">
        <ele>1949.0</ele>
        <time>2016-09-23T16:26:15Z</time>
      </trkpt>
      <trkpt lat="36.719285" lon="-5.173866">
        <ele>1956.0</ele>
        <time>2016-09-23T16:26:18Z</time>
      </trkpt>
      <trkpt lat="36.719466" lon="-5.173633">
        <ele>1964.0</ele>
        <time>2016-09-23T16:26:21Z</time>
      </trkpt>
      <trkpt lat="36.719483" lon="-5.173350">
        <ele>1974.0</ele>
        <time>2016-09-23T16:26:24Z</time>
      </trkpt>
      <trkpt lat="36.719333" lon="-5.173150">
        <ele>1978.0</ele>
        <time>2016-09-23T16:26:27Z</time>
      </trkpt>
      <trkpt lat="36.719135" lon="-5.173233">
        <ele>1984.0</ele>
        <time>2016-09-23T16:26:30Z</time>
      </trkpt>
      <trkpt lat="36.719135" lon="-5.173566">
        <ele>1994.0</ele>
        <time>2016-09-23T16:26:34Z</time>
      </trkpt>
      <trkpt lat="36.719217" lon="-5.173800">
        <ele>2001.0</ele>
        <time>2016-09-23T16:26:37Z</time>
      </trkpt>
      <trkpt lat="36.719432" lon="-5.173950">
        <ele>2005.0</ele>
        <time>2016-09-23T16:26:40Z</time>
      </trkpt>
      <trkpt lat="36.719719" lon="-5.173833">
        <ele>2008.0</ele>
        <time>2016-09-23T16:26:43Z</time>
      </trkpt>
      <trkpt lat="36.719917" lon="-5.173583">
        <ele>2018.0</ele>
        <time>2016-09-23T16:26:46Z</time>
      </trkpt>
      <trkpt lat="36.720036" lon="-5.173316">
        <ele>2025.0</ele>
        <time>2016-09-23T16:26:49Z</time>
      </trkpt>
      <trkpt lat="36.720002" lon="-5.173017">
        <ele>2032.0</ele>
        <time>2016-09-23T16:26:52Z</time>
      </trkpt>
      <trkpt lat="36.719797" lon="-5.172950">
        <ele>2034.0</ele>
        <time>2016-09-23T16:26:55Z</time>
      </trkpt>
      <trkpt lat="36.719585" lon="-5.173033">
        <ele>2036.0</ele>
        <time>2016-09-23T16:26:58Z</time>
      </trkpt>
      <trkpt lat="36.719418" lon="-5.173266">
        <ele>2037.0</ele>
        <time>2016-09-23T16:27:01Z</time>
      </trkpt>
      <trkpt lat="36.719350" lon="-5.173533">
        <ele>2051.0</ele>
        <time>2016-09-23T16:27:04Z</time>
      </trkpt>
      <trkpt lat="36.719333" lon="-5.173716">
        <ele>2056.0</ele>
        <time>2016-09-23T16:27:07Z</time>
      </trkpt>
      <trkpt lat="36.719367" lon="-5.173950">
        <ele>2058.0</ele>
        <time>2016-09-23T16:27:10Z</time>
      </trkpt>
      <trkpt lat="36.719585" lon="-5.174050">
        <ele>2060.0</ele>
        <time>2016-09-23T16:27:13Z</time>
      </trkpt>
      <trkpt lat="36.719848" lon="-5.173950">
        <ele>2063.0</ele>
        <time>2016-09-23T16:27:16Z</time>
      </trkpt>
      <trkpt lat="36.720002" lon="-5.173516">
        <ele>2070.0</ele>
        <time>2016-09-23T16:27:20Z</time>
      </trkpt>
      <trkpt lat="36.720036" lon="-5.173283">
        <ele>2079.0</ele>
        <time>2016-09-23T16:27:23Z</time>
      </trkpt>
      <trkpt lat="36.719917" lon="-5.173083">
        <ele>2076.0</ele>
        <time>2016-09-23T16:27:26Z</time>
      </trkpt>
      <trkpt lat="36.719736" lon="-5.172950">
        <ele>2077.0</ele>
        <time>2016-09-23T16:27:29Z</time>
      </trkpt>
      <trkpt lat="36.719616" lon="-5.172700">
        <ele>2076.0</ele>
        <time>2016-09-23T16:27:32Z</time>
      </trkpt>
      <trkpt lat="36.719452" lon="-5.172466">
        <ele>2077.0</ele>
        <time>2016-09-23T16:27:35Z</time>
      </trkpt>
      <trkpt lat="36.719333" lon="-5.172216">
        <ele>2080.0</ele>
        <time>2016-09-23T16:27:38Z</time>
      </trkpt>
      <trkpt lat="36.719199" lon="-5.171967">
        <ele>2079.0</ele>
        <time>2016-09-23T16:27:41Z</time>
      </trkpt>
      <trkpt lat="36.719100" lon="-5.171683">
        <ele>2076.0</ele>
        <time>2016-09-23T16:27:44Z</time>
      </trkpt>
      <trkpt lat="36.718967" lon="-5.171416">
        <ele>2076.0</ele>
        <time>2016-09-23T16:27:47Z</time>
      </trkpt>
      <trkpt lat="36.718868" lon="-5.171167">
        <ele>2071.0</ele>
        <time>2016-09-23T16:27:50Z</time>
      </trkpt>
      <trkpt lat="36.718783" lon="-5.170833">
        <ele>2065.0</ele>
        <time>2016-09-23T16:27:53Z</time>
      </trkpt>
      <trkpt lat="36.718714" lon="-5.170516">
        <ele>2062.0</ele>
        <time>2016-09-23T16:27:56Z</time>
      </trkpt>
      <trkpt lat="36.718667" lon="-5.170100">
        <ele>2061.0</ele>
        <time>2016-09-23T16:28:00Z</time>
      </trkpt>
      <trkpt lat="36.718636" lon="-5.169816">
        <ele>2060.0</ele>
        <time>2016-09-23T16:28:03Z</time>
      </trkpt>
      <trkpt lat="36.718581" lon="-5.169500">
        <ele>2058.0</ele>
        <time>2016-09-23T16:28:06Z</time>
      </trkpt>
      <trkpt lat="36.718581" lon="-5.169200">
        <ele>2056.0</ele>
        <time>2016-09-23T16:28:09Z</time>
      </trkpt>
      <trkpt lat="36.718684" lon="-5.168817">
        <ele>2053.0</ele>
        <time>2016-09-23T16:28:12Z</time>
      </trkpt>
      <trkpt lat="36.718749" lon="-5.168450">
        <ele>2057.0</ele>
        <time>2016-09-23T16:28:15Z</time>
      </trkpt>
      <trkpt lat="36.718817" lon="-5.168150">
        <ele>2057.0</ele>
        <time>2016-09-23T16:28:18Z</time>
      </trkpt>
      <trkpt lat="36.718882" lon="-5.167800">
        <ele>2054.0</ele>
        <time>2016-09-23T16:28:21Z</time>
      </trkpt>
      <trkpt lat="36.718916" lon="-5.167433">
        <ele>2054.0</ele>
        <time>2016-09-23T16:28:24Z</time>
      </trkpt>
      <trkpt lat="36.718916" lon="-5.167117">
        <ele>2059.0</ele>
        <time>2016-09-23T16:28:27Z</time>
      </trkpt>
      <trkpt lat="36.718916" lon="-5.166783">
        <ele>2062.0</ele>
        <time>2016-09-23T16:28:30Z</time>
      </trkpt>
      <trkpt lat="36.718800" lon="-5.166500">
        <ele>2065.0</ele>
        <time>2016-09-23T16:28:33Z</time>
      </trkpt>
      <trkpt lat="36.718602" lon="-5.166400">
        <ele>2069.0</ele>
        <time>2016-09-23T16:28:36Z</time>
      </trkpt>
      <trkpt lat="36.718448" lon="-5.166567">
        <ele>2073.0</ele>
        <time>2016-09-23T16:28:39Z</time>
      </trkpt>
      <trkpt lat="36.718551" lon="-5.166900">
        <ele>2076.0</ele>
        <time>2016-09-23T16:28:43Z</time>
      </trkpt>
      <trkpt lat="36.718800" lon="-5.167050">
        <ele>2080.0</ele>
        <time>2016-09-23T16:28:46Z</time>
      </trkpt>
      <trkpt lat="36.719100" lon="-5.166966">
        <ele>2082.0</ele>
        <time>2016-09-23T16:28:49Z</time>
      </trkpt>
      <trkpt lat="36.719367" lon="-5.166817">
        <ele>2086.0</ele>
        <time>2016-09-23T16:28:52Z</time>
      </trkpt>
      <trkpt lat="36.719616" lon="-5.166600">
        <ele>2089.0</ele>
        <time>2016-09-23T16:28:55Z</time>
      </trkpt>
      <trkpt lat="36.719749" lon="-5.166267">
        <ele>2092.0</ele>
        <time>2016-09-23T16:28:58Z</time>
      </trkpt>
      <trkpt lat="36.719719" lon="-5.165950">
        <ele>2094.0</ele>
        <time>2016-09-23T16:29:01Z</time>
      </trkpt>
      <trkpt lat="36.719565" lon="-5.165733">
        <ele>2097.0</ele>
        <time>2016-09-23T16:29:04Z</time>
      </trkpt>
      <trkpt lat="36.719367" lon="-5.165667">
        <ele>2100.0</ele>
        <time>2016-09-23T16:29:07Z</time>
      </trkpt>
      <trkpt lat="36.719152" lon="-5.165683">
        <ele>2106.0</ele>
        <time>2016-09-23T16:29:10Z</time>
      </trkpt>
      <trkpt lat="36.718967" lon="-5.165716">
        <ele>2111.0</ele>
        <time>2016-09-23T16:29:13Z</time>
      </trkpt>
      <trkpt lat="36.718783" lon="-5.165800">
        <ele>2119.0</ele>
        <time>2016-09-23T16:29:16Z</time>
      </trkpt>
      <trkpt lat="36.718650" lon="-5.165917">
        <ele>2129.0</ele>
        <time>2016-09-23T16:29:19Z</time>
      </trkpt>
      <trkpt lat="36.718636" lon="-5.166100">
        <ele>2138.0</ele>
        <time>2016-09-23T16:29:22Z</time>
      </trkpt>
      <trkpt lat="36.718868" lon="-5.166250">
        <ele>2146.0</ele>
        <time>2016-09-23T16:29:26Z</time>
      </trkpt>
      <trkpt lat="36.719117" lon="-5.166300">
        <ele>2151.0</ele>
        <time>2016-09-23T16:29:29Z</time>
      </trkpt>
      <trkpt lat="36.719350" lon="-5.166150">
        <ele>2155.0</ele>
        <time>2016-09-23T16:29:32Z</time>
      </trkpt>
      <trkpt lat="36.719452" lon="-5.165817">
        <ele>2159.0</ele>
        <time>2016-09-23T16:29:35Z</time>
      </trkpt>
      <trkpt lat="36.719418" lon="-5.165517">
        <ele>2162.0</ele>
        <time>2016-09-23T16:29:38Z</time>
      </trkpt>
      <trkpt lat="36.719268" lon="-5.165234">
        <ele>2166.0</ele>
        <time>2016-09-23T16:29:41Z</time>
      </trkpt>
      <trkpt lat="36.719066" lon="-5.165033">
        <ele>2173.0</ele>
        <time>2016-09-23T16:29:44Z</time>
      </trkpt>
      <trkpt lat="36.718848" lon="-5.164950">
        <ele>2182.0</ele>
        <time>2016-09-23T16:29:47Z</time>
      </trkpt>
      <trkpt lat="36.718684" lon="-5.165000">
        <ele>2192.0</ele>
        <time>2016-09-23T16:29:50Z</time>
      </trkpt>
      <trkpt lat="36.718568" lon="-5.165167">
        <ele>2199.0</ele>
        <time>2016-09-23T16:29:53Z</time>
      </trkpt>
      <trkpt lat="36.718581" lon="-5.165400">
        <ele>2207.0</ele>
        <time>2016-09-23T16:29:56Z</time>
      </trkpt>
      <trkpt lat="36.718769" lon="-5.165567">
        <ele>2213.0</ele>
        <time>2016-09-23T16:29:59Z</time>
      </trkpt>
      <trkpt lat="36.719066" lon="-5.165500">
        <ele>2220.0</ele>
        <time>2016-09-23T16:30:02Z</time>
      </trkpt>
      <trkpt lat="36.719319" lon="-5.165067">
        <ele>2231.0</ele>
        <time>2016-09-23T16:30:06Z</time>
      </trkpt>
      <trkpt lat="36.719350" lon="-5.164717">
        <ele>2238.0</ele>
        <time>2016-09-23T16:30:09Z</time>
      </trkpt>
      <trkpt lat="36.719251" lon="-5.164400">
        <ele>2244.0</ele>
        <time>2016-09-23T16:30:12Z</time>
      </trkpt>
      <trkpt lat="36.719053" lon="-5.164250">
        <ele>2251.0</ele>
        <time>2016-09-23T16:30:15Z</time>
      </trkpt>
      <trkpt lat="36.718868" lon="-5.164317">
        <ele>2258.0</ele>
        <time>2016-09-23T16:30:18Z</time>
      </trkpt>
      <trkpt lat="36.718817" lon="-5.164550">
        <ele>2266.0</ele>
        <time>2016-09-23T16:30:21Z</time>
      </trkpt>
      <trkpt lat="36.718933" lon="-5.164783">
        <ele>2276.0</ele>
        <time>2016-09-23T16:30:24Z</time>
      </trkpt>
      <trkpt lat="36.719165" lon="-5.164834">
        <ele>2284.0</ele>
        <time>2016-09-23T16:30:27Z</time>
      </trkpt>
      <trkpt lat="36.719432" lon="-5.164633">
        <ele>2293.0</ele>
        <time>2016-09-23T16:30:30Z</time>
      </trkpt>
      <trkpt lat="36.719517" lon="-5.164267">
        <ele>2301.0</ele>
        <time>2016-09-23T16:30:33Z</time>
      </trkpt>
      <trkpt lat="36.719367" lon="-5.164017">
        <ele>2306.0</ele>
        <time>2016-09-23T16:30:36Z</time>
      </trkpt>
      <trkpt lat="36.719152" lon="-5.163933">
        <ele>2313.0</ele>
        <time>2016-09-23T16:30:39Z</time>
      </trkpt>
      <trkpt lat="36.718933" lon="-5.163967">
        <ele>2323.0</ele>
        <time>2016-09-23T16:30:42Z</time>
      </trkpt>
      <trkpt lat="36.718769" lon="-5.164150">
        <ele>2328.0</ele>
        <time>2016-09-23T16:30:46Z</time>
      </trkpt>
      <trkpt lat="36.718868" lon="-5.164417">
        <ele>2335.0</ele>
        <time>2016-09-23T16:30:49Z</time>
      </trkpt>
      <trkpt lat="36.719100" lon="-5.164433">
        <ele>2344.0</ele>
        <time>2016-09-23T16:30:52Z</time>
      </trkpt>
      <trkpt lat="36.719333" lon="-5.164283">
        <ele>2352.0</ele>
        <time>2016-09-23T16:30:55Z</time>
      </trkpt>
      <trkpt lat="36.719466" lon="-5.163983">
        <ele>2356.0</ele>
        <time>2016-09-23T16:30:58Z</time>
      </trkpt>
      <trkpt lat="36.719401" lon="-5.163650">
        <ele>2360.0</ele>
        <time>2016-09-23T16:31:01Z</time>
      </trkpt>
      <trkpt lat="36.719217" lon="-5.163384">
        <ele>2364.0</ele>
        <time>2016-09-23T16:31:04Z</time>
      </trkpt>
      <trkpt lat="36.718967" lon="-5.163183">
        <ele>2372.0</ele>
        <time>2016-09-23T16:31:07Z</time>
      </trkpt>
      <trkpt lat="36.718735" lon="-5.163100">
        <ele>2376.0</ele>
        <time>2016-09-23T16:31:10Z</time>
      </trkpt>
      <trkpt lat="36.718482" lon="-5.163117">
        <ele>2380.0</ele>
        <time>2016-09-23T16:31:13Z</time>
      </trkpt>
      <trkpt lat="36.718318" lon="-5.163283">
        <ele>2385.0</ele>
        <time>2016-09-23T16:31:16Z</time>
      </trkpt>
      <trkpt lat="36.718400" lon="-5.163517">
        <ele>2386.0</ele>
        <time>2016-09-23T16:31:19Z</time>
      </trkpt>
      <trkpt lat="36.718636" lon="-5.163500">
        <ele>2392.0</ele>
        <time>2016-09-23T16:31:22Z</time>
      </trkpt>
      <trkpt lat="36.718800" lon="-5.163283">
        <ele>2394.0</ele>
        <time>2016-09-23T16:31:25Z</time>
      </trkpt>
      <trkpt lat="36.718834" lon="-5.162784">
        <ele>2400.0</ele>
        <time>2016-09-23T16:31:29Z</time>
      </trkpt>
      <trkpt lat="36.718749" lon="-5.162467">
        <ele>2403.0</ele>
        <time>2016-09-23T16:31:32Z</time>
      </trkpt>
      <trkpt lat="36.718551" lon="-5.162133">
        <ele>2404.0</ele>
        <time>2016-09-23T16:31:35Z</time>
      </trkpt>
      <trkpt lat="36.718284" lon="-5.161967">
        <ele>2408.0</ele>
        <time>2016-09-23T16:31:38Z</time>
      </trkpt>
      <trkpt lat="36.718001" lon="-5.161883">
        <ele>2407.0</ele>
        <time>2016-09-23T16:31:41Z</time>
      </trkpt>
      <trkpt lat="36.717700" lon="-5.161900">
        <ele>2406.0</ele>
        <time>2016-09-23T16:31:44Z</time>
      </trkpt>
      <trkpt lat="36.717383" lon="-5.161983">
        <ele>2402.0</ele>
        <time>2016-09-23T16:31:47Z</time>
      </trkpt>
      <trkpt lat="36.717103" lon="-5.162100">
        <ele>2398.0</ele>
        <time>2016-09-23T16:31:50Z</time>
      </trkpt>
      <trkpt lat="36.716802" lon="-5.162000">
        <ele>2391.0</ele>
        <time>2016-09-23T16:31:53Z</time>
      </trkpt>
      <trkpt lat="36.716532" lon="-5.161800">
        <ele>2385.0</ele>
        <time>2016-09-23T16:31:56Z</time>
      </trkpt>
      <trkpt lat="36.716232" lon="-5.161600">
        <ele>2380.0</ele>
        <time>2016-09-23T16:31:59Z</time>
      </trkpt>
      <trkpt lat="36.715935" lon="-5.161400">
        <ele>2374.0</ele>
        <time>2016-09-23T16:32:02Z</time>
      </trkpt>
      <trkpt lat="36.715651" lon="-5.161167">
        <ele>2370.0</ele>
        <time>2016-09-23T16:32:05Z</time>
      </trkpt>
      <trkpt lat="36.715385" lon="-5.160934">
        <ele>2361.0</ele>
        <time>2016-09-23T16:32:08Z</time>
      </trkpt>
      <trkpt lat="36.714965" lon="-5.160567">
        <ele>2353.0</ele>
        <time>2016-09-23T16:32:12Z</time>
      </trkpt>
      <trkpt lat="36.714650" lon="-5.160350">
        <ele>2345.0</ele>
        <time>2016-09-23T16:32:15Z</time>
      </trkpt>
      <trkpt lat="36.714302" lon="-5.160133">
        <ele>2335.0</ele>
        <time>2016-09-23T16:32:18Z</time>
      </trkpt>
      <trkpt lat="36.713950" lon="-5.159950">
        <ele>2330.0</ele>
        <time>2016-09-23T16:32:21Z</time>
      </trkpt>
      <trkpt lat="36.713667" lon="-5.159817">
        <ele>2325.0</ele>
        <time>2016-09-23T16:32:24Z</time>
      </trkpt>
      <trkpt lat="36.713319" lon="-5.159683">
        <ele>2314.0</ele>
        <time>2016-09-23T16:32:27Z</time>
      </trkpt>
      <trkpt lat="36.712950" lon="-5.159567">
        <ele>2316.0</ele>
        <time>2016-09-23T16:32:30Z</time>
      </trkpt>
      <trkpt lat="36.712701" lon="-5.159400">
        <ele>2316.0</ele>
        <time>2016-09-23T16:32:33Z</time>
      </trkpt>
      <trkpt lat="36.712403" lon="-5.159284">
        <ele>2314.0</ele>
        <time>2016-09-23T16:32:36Z</time>
      </trkpt>
      <trkpt lat="36.712117" lon="-5.159233">
        <ele>2312.0</ele>
        <time>2016-09-23T16:32:39Z</time>
      </trkpt>
      <trkpt lat="36.711819" lon="-5.159167">
        <ele>2310.0</ele>
        <time>2016-09-23T16:32:42Z</time>
      </trkpt>
      <trkpt lat="36.711515" lon="-5.159067">
        <ele>2306.0</ele>
        <time>2016-09-23T16:32:45Z</time>
      </trkpt>
      <trkpt lat="36.711215" lon="-5.158934">
        <ele>2303.0</ele>
        <time>2016-09-23T16:32:48Z</time>
      </trkpt>
      <trkpt lat="36.710918" lon="-5.158783">
        <ele>2299.0</ele>
        <time>2016-09-23T16:32:51Z</time>
      </trkpt>
      <trkpt lat="36.710532" lon="-5.158550">
        <ele>2292.0</ele>
        <time>2016-09-23T16:32:55Z</time>
      </trkpt>
      <trkpt lat="36.710235" lon="-5.158383">
        <ele>2288.0</ele>
        <time>2016-09-23T16:32:58Z</time>
      </trkpt>
      <trkpt lat="36.709968" lon="-5.158217">
        <ele>2281.0</ele>
        <time>2016-09-23T16:33:01Z</time>
      </trkpt>
      <trkpt lat="36.709668" lon="-5.158017">
        <ele>2274.0</ele>
        <time>2016-09-23T16:33:04Z</time>
      </trkpt>
      <trkpt lat="36.709364" lon="-5.157850">
        <ele>2269.0</ele>
        <time>2016-09-23T16:33:07Z</time>
      </trkpt>
      <trkpt lat="36.709050" lon="-5.157700">
        <ele>2261.0</ele>
        <time>2016-09-23T16:33:10Z</time>
      </trkpt>
      <trkpt lat="36.708684" lon="-5.157600">
        <ele>2256.0</ele>
        <time>2016-09-23T16:33:13Z</time>
      </trkpt>
      <trkpt lat="36.708350" lon="-5.157600">
        <ele>2251.0</ele>
        <time>2016-09-23T16:33:16Z</time>
      </trkpt>
      <trkpt lat="36.708018" lon="-5.157600">
        <ele>2240.0</ele>
        <time>2016-09-23T16:33:19Z</time>
      </trkpt>
      <trkpt lat="36.707667" lon="-5.157600">
        <ele>2236.0</ele>
        <time>2016-09-23T16:33:22Z</time>
      </trkpt>
      <trkpt lat="36.707352" lon="-5.157617">
        <ele>2227.0</ele>
        <time>2016-09-23T16:33:25Z</time>
      </trkpt>
      <trkpt lat="36.706967" lon="-5.157600">
        <ele>2225.0</ele>
        <time>2016-09-23T16:33:28Z</time>
      </trkpt>
      <trkpt lat="36.706635" lon="-5.157667">
        <ele>2220.0</ele>
        <time>2016-09-23T16:33:31Z</time>
      </trkpt>
      <trkpt lat="36.706185" lon="-5.157650">
        <ele>2215.0</ele>
        <time>2016-09-23T16:33:35Z</time>
      </trkpt>
      <trkpt lat="36.705819" lon="-5.157566">
        <ele>2214.0</ele>
        <time>2016-09-23T16:33:38Z</time>
      </trkpt>
      <trkpt lat="36.705481" lon="-5.157434">
        <ele>2215.0</ele>
        <time>2016-09-23T16:33:41Z</time>
      </trkpt>
      <trkpt lat="36.705201" lon="-5.157283">
        <ele>2214.0</ele>
        <time>2016-09-23T16:33:44Z</time>
      </trkpt>
      <trkpt lat="36.704904" lon="-5.157167">
        <ele>2212.0</ele>
        <time>2016-09-23T16:33:47Z</time>
      </trkpt>
      <trkpt lat="36.704583" lon="-5.157017">
        <ele>2211.0</ele>
        <time>2016-09-23T16:33:50Z</time>
      </trkpt>
      <trkpt lat="36.704299" lon="-5.156900">
        <ele>2208.0</ele>
        <time>2016-09-23T16:33:53Z</time>
      </trkpt>
      <trkpt lat="36.703982" lon="-5.156817">
        <ele>2204.0</ele>
        <time>2016-09-23T16:33:56Z</time>
      </trkpt>
      <trkpt lat="36.703685" lon="-5.156750">
        <ele>2197.0</ele>
        <time>2016-09-23T16:33:59Z</time>
      </trkpt>
      <trkpt lat="36.703333" lon="-5.156667">
        <ele>2193.0</ele>
        <time>2016-09-23T16:34:02Z</time>
      </trkpt>
      <trkpt lat="36.703019" lon="-5.156616">
        <ele>2194.0</ele>
        <time>2016-09-23T16:34:05Z</time>
      </trkpt>
      <trkpt lat="36.702766" lon="-5.156550">
        <ele>2186.0</ele>
        <time>2016-09-23T16:34:08Z</time>
      </trkpt>
      <trkpt lat="36.702418" lon="-5.156450">
        <ele>2180.0</ele>
        <time>2016-09-23T16:34:11Z</time>
      </trkpt>
      <trkpt lat="36.702103" lon="-5.156350">
        <ele>2179.0</ele>
        <time>2016-09-23T16:34:14Z</time>
      </trkpt>
      <trkpt lat="36.701851" lon="-5.156250">
        <ele>2175.0</ele>
        <time>2016-09-23T16:34:17Z</time>
      </trkpt>
      <trkpt lat="36.701465" lon="-5.156083">
        <ele>2174.0</ele>
        <time>2016-09-23T16:34:21Z</time>
      </trkpt>
      <trkpt lat="36.701233" lon="-5.155934">
        <ele>2170.0</ele>
        <time>2016-09-23T16:34:24Z</time>
      </trkpt>
      <trkpt lat="36.700949" lon="-5.155800">
        <ele>2164.0</ele>
        <time>2016-09-23T16:34:27Z</time>
      </trkpt>
      <trkpt lat="36.700683" lon="-5.155717">
        <ele>2157.0</ele>
        <time>2016-09-23T16:34:30Z</time>
      </trkpt>
      <trkpt lat="36.700399" lon="-5.155600">
        <ele>2151.0</ele>
        <time>2016-09-23T16:34:33Z</time>
      </trkpt>
      <trkpt lat="36.700085" lon="-5.155483">
        <ele>2151.0</ele>
        <time>2016-09-23T16:34:36Z</time>
      </trkpt>
      <trkpt lat="36.699802" lon="-5.155350">
        <ele>2149.0</ele>
        <time>2016-09-23T16:34:39Z</time>
      </trkpt>
      <trkpt lat="36.699515" lon="-5.155233">
        <ele>2145.0</ele>
        <time>2016-09-23T16:34:42Z</time>
      </trkpt>
      <trkpt lat="36.699235" lon="-5.155166">
        <ele>2137.0</ele>
        <time>2016-09-23T16:34:45Z</time>
      </trkpt>
      <trkpt lat="36.698917" lon="-5.155084">
        <ele>2132.0</ele>
        <time>2016-09-23T16:34:48Z</time>
      </trkpt>
      <trkpt lat="36.698634" lon="-5.154950">
        <ele>2127.0</ele>
        <time>2016-09-23T16:34:51Z</time>
      </trkpt>
      <trkpt lat="36.698333" lon="-5.154783">
        <ele>2122.0</ele>
        <time>2016-09-23T16:34:54Z</time>
      </trkpt>
      <trkpt lat="36.698036" lon="-5.154667">
        <ele>2117.0</ele>
        <time>2016-09-23T16:34:57Z</time>
      </trkpt>
      <trkpt lat="36.697650" lon="-5.154483">
        <ele>2110.0</ele>
        <time>2016-09-23T16:35:01Z</time>
      </trkpt>
      <trkpt lat="36.697350" lon="-5.154367">
        <ele>2107.0</ele>
        <time>2016-09-23T16:35:04Z</time>
      </trkpt>
      <trkpt lat="36.697066" lon="-5.154233">
        <ele>2101.0</ele>
        <time>2016-09-23T16:35:07Z</time>
      </trkpt>
      <trkpt lat="36.696735" lon="-5.154100">
        <ele>2093.0</ele>
        <time>2016-09-23T16:35:10Z</time>
      </trkpt>
      <trkpt lat="36.696434" lon="-5.153917">
        <ele>2093.0</ele>
        <time>2016-09-23T16:35:13Z</time>
      </trkpt>
      <trkpt lat="36.696151" lon="-5.153783">
        <ele>2090.0</ele>
        <time>2016-09-23T16:35:16Z</time>
      </trkpt>
      <trkpt lat="36.695898" lon="-5.153534">
        <ele>2088.0</ele>
        <time>2016-09-23T16:35:19Z</time>
      </trkpt>
      <trkpt lat="36.695632" lon="-5.153317">
        <ele>2084.0</ele>
        <time>2016-09-23T16:35:22Z</time>
      </trkpt>
      <trkpt lat="36.695365" lon="-5.153083">
        <ele>2082.0</ele>
        <time>2016-09-23T16:35:25Z</time>
      </trkpt>
      <trkpt lat="36.695082" lon="-5.152883">
        <ele>2079.0</ele>
        <time>2016-09-23T16:35:28Z</time>
      </trkpt>
      <trkpt lat="36.694785" lon="-5.152716">
        <ele>2077.0</ele>
        <time>2016-09-23T16:35:31Z</time>
      </trkpt>
      <trkpt lat="36.694484" lon="-5.152600">
        <ele>2072.0</ele>
        <time>2016-09-23T16:35:34Z</time>
      </trkpt>
      <trkpt lat="36.694167" lon="-5.152483">
        <ele>2068.0</ele>
        <time>2016-09-23T16:35:37Z</time>
      </trkpt>
      <trkpt lat="36.693754" lon="-5.152366">
        <ele>2062.0</ele>
        <time>2016-09-23T16:35:41Z</time>
      </trkpt>
      <trkpt lat="36.693415" lon="-5.152234">
        <ele>2056.0</ele>
        <time>2016-09-23T16:35:44Z</time>
      </trkpt>
      <trkpt lat="36.693101" lon="-5.152083">
        <ele>2051.0</ele>
        <time>2016-09-23T16:35:47Z</time>
      </trkpt>
      <trkpt lat="36.692784" lon="-5.151900">
        <ele>2046.0</ele>
        <time>2016-09-23T16:35:50Z</time>
      </trkpt>
      <trkpt lat="36.692487" lon="-5.151717">
        <ele>2043.0</ele>
        <time>2016-09-23T16:35:53Z</time>
      </trkpt>
      <trkpt lat="36.692183" lon="-5.151550">
        <ele>2037.0</ele>
        <time>2016-09-23T16:35:56Z</time>
      </trkpt>
      <trkpt lat="36.691868" lon="-5.151417">
        <ele>2031.0</ele>
        <time>2016-09-23T16:35:59Z</time>
      </trkpt>
      <trkpt lat="36.691537" lon="-5.151317">
        <ele>2024.0</ele>
        <time>2016-09-23T16:36:02Z</time>
      </trkpt>
      <trkpt lat="36.691185" lon="-5.151266">
        <ele>2018.0</ele>
        <time>2016-09-23T16:36:05Z</time>
      </trkpt>
      <trkpt lat="36.690834" lon="-5.151233">
        <ele>2012.0</ele>
        <time>2016-09-23T16:36:08Z</time>
      </trkpt>
      <trkpt lat="36.690482" lon="-5.151250">
        <ele>2008.0</ele>
        <time>2016-09-23T16:36:11Z</time>
      </trkpt>
      <trkpt lat="36.690137" lon="-5.151250">
        <ele>2005.0</ele>
        <time>2016-09-23T16:36:14Z</time>
      </trkpt>
      <trkpt lat="36.689799" lon="-5.151266">
        <ele>1999.0</ele>
        <time>2016-09-23T16:36:17Z</time>
      </trkpt>
      <trkpt lat="36.689451" lon="-5.151283">
        <ele>1995.0</ele>
        <time>2016-09-23T16:36:20Z</time>
      </trkpt>
      <trkpt lat="36.689034" lon="-5.151150">
        <ele>1989.0</ele>
        <time>2016-09-23T16:36:24Z</time>
      </trkpt>
      <trkpt lat="36.688703" lon="-5.150967">
        <ele>1985.0</ele>
        <time>2016-09-23T16:36:27Z</time>
      </trkpt>
      <trkpt lat="36.688419" lon="-5.150767">
        <ele>1981.0</ele>
        <time>2016-09-23T16:36:30Z</time>
      </trkpt>
      <trkpt lat="36.688102" lon="-5.150567">
        <ele>1976.0</ele>
        <time>2016-09-23T16:36:33Z</time>
      </trkpt>
      <trkpt lat="36.687787" lon="-5.150417">
        <ele>1973.0</ele>
        <time>2016-09-23T16:36:36Z</time>
      </trkpt>
      <trkpt lat="36.687470" lon="-5.150317">
        <ele>1969.0</ele>
        <time>2016-09-23T16:36:39Z</time>
      </trkpt>
      <trkpt lat="36.687135" lon="-5.150183">
        <ele>1963.0</ele>
        <time>2016-09-23T16:36:42Z</time>
      </trkpt>
      <trkpt lat="36.686818" lon="-5.150050">
        <ele>1958.0</ele>
        <time>2016-09-23T16:36:45Z</time>
      </trkpt>
      <trkpt lat="36.686500" lon="-5.149900">
        <ele>1953.0</ele>
        <time>2016-09-23T16:36:48Z</time>
      </trkpt>
      <trkpt lat="36.686182" lon="-5.149766">
        <ele>1944.0</ele>
        <time>2016-09-23T16:36:51Z</time>
      </trkpt>
      <trkpt lat="36.685868" lon="-5.149634">
        <ele>1938.0</ele>
        <time>2016-09-23T16:36:54Z</time>
      </trkpt>
      <trkpt lat="36.685537" lon="-5.149500">
        <ele>1935.0</ele>
        <time>2016-09-23T16:36:57Z</time>
      </trkpt>
      <trkpt lat="36.685199" lon="-5.149383">
        <ele>1929.0</ele>
        <time>2016-09-23T16:37:00Z</time>
      </trkpt>
      <trkpt lat="36.684768" lon="-5.149216">
        <ele>1922.0</ele>
        <time>2016-09-23T16:37:04Z</time>
      </trkpt>
      <trkpt lat="36.684417" lon="-5.149083">
        <ele>1916.0</ele>
        <time>2016-09-23T16:37:07Z</time>
      </trkpt>
      <trkpt lat="36.684065" lon="-5.148950">
        <ele>1909.0</ele>
        <time>2016-09-23T16:37:10Z</time>
      </trkpt>
      <trkpt lat="36.683700" lon="-5.148883">
        <ele>1905.0</ele>
        <time>2016-09-23T16:37:13Z</time>
      </trkpt>
      <trkpt lat="36.683385" lon="-5.148816">
        <ele>1899.0</ele>
        <time>2016-09-23T16:37:16Z</time>
      </trkpt>
      <trkpt lat="36.683034" lon="-5.148717">
        <ele>1892.0</ele>
        <time>2016-09-23T16:37:19Z</time>
      </trkpt>
      <trkpt lat="36.682702" lon="-5.148600">
        <ele>1890.0</ele>
        <time>2016-09-23T16:37:22Z</time>
      </trkpt>
      <trkpt lat="36.682398" lon="-5.148500">
        <ele>1884.0</ele>
        <time>2016-09-23T16:37:25Z</time>
      </trkpt>
      <trkpt lat="36.682084" lon="-5.148400">
        <ele>1882.0</ele>
        <time>2016-09-23T16:37:28Z</time>
      </trkpt>
      <trkpt lat="36.681814" lon="-5.148283">
        <ele>1877.0</ele>
        <time>2016-09-23T16:37:31Z</time>
      </trkpt>
      <trkpt lat="36.681534" lon="-5.148116">
        <ele>1867.0</ele>
        <time>2016-09-23T16:37:34Z</time>
      </trkpt>
      <trkpt lat="36.681268" lon="-5.147933">
        <ele>1860.0</ele>
        <time>2016-09-23T16:37:37Z</time>
      </trkpt>
      <trkpt lat="36.680967" lon="-5.147716">
        <ele>1853.0</ele>
        <time>2016-09-23T16:37:40Z</time>
      </trkpt>
      <trkpt lat="36.680520" lon="-5.147550">
        <ele>1847.0</ele>
        <time>2016-09-23T16:37:44Z</time>
      </trkpt>
      <trkpt lat="36.680302" lon="-5.147467">
        <ele>1839.0</ele>
        <time>2016-09-23T16:37:46Z</time>
      </trkpt>
      <trkpt lat="36.679837" lon="-5.147333">
        <ele>1835.0</ele>
        <time>2016-09-23T16:37:50Z</time>
      </trkpt>
      <trkpt lat="36.679499" lon="-5.147216">
        <ele>1829.0</ele>
        <time>2016-09-23T16:37:53Z</time>
      </trkpt>
      <trkpt lat="36.679151" lon="-5.147083">
        <ele>1829.0</ele>
        <time>2016-09-23T16:37:56Z</time>
      </trkpt>
      <trkpt lat="36.678867" lon="-5.146966">
        <ele>1825.0</ele>
        <time>2016-09-23T16:37:59Z</time>
      </trkpt>
      <trkpt lat="36.678584" lon="-5.146800">
        <ele>1821.0</ele>
        <time>2016-09-23T16:38:02Z</time>
      </trkpt>
      <trkpt lat="36.678304" lon="-5.146633">
        <ele>1816.0</ele>
        <time>2016-09-23T16:38:05Z</time>
      </trkpt>
      <trkpt lat="36.677986" lon="-5.146467">
        <ele>1811.0</ele>
        <time>2016-09-23T16:38:08Z</time>
      </trkpt>
      <trkpt lat="36.677699" lon="-5.146283">
        <ele>1810.0</ele>
        <time>2016-09-23T16:38:11Z</time>
      </trkpt>
      <trkpt lat="36.677433" lon="-5.146066">
        <ele>1805.0</ele>
        <time>2016-09-23T16:38:14Z</time>
      </trkpt>
      <trkpt lat="36.677170" lon="-5.145833">
        <ele>1801.0</ele>
        <time>2016-09-23T16:38:17Z</time>
      </trkpt>
      <trkpt lat="36.676904" lon="-5.145600">
        <ele>1798.0</ele>
        <time>2016-09-23T16:38:20Z</time>
      </trkpt>
      <trkpt lat="36.676637" lon="-5.145367">
        <ele>1797.0</ele>
        <time>2016-09-23T16:38:23Z</time>
      </trkpt>
      <trkpt lat="36.676333" lon="-5.145083">
        <ele>1795.0</ele>
        <time>2016-09-23T16:38:27Z</time>
      </trkpt>
      <trkpt lat="36.676101" lon="-5.144933">
        <ele>1793.0</ele>
        <time>2016-09-23T16:38:30Z</time>
      </trkpt>
      <trkpt lat="36.675869" lon="-5.144749">
        <ele>1791.0</ele>
        <time>2016-09-23T16:38:33Z</time>
      </trkpt>
      <trkpt lat="36.675667" lon="-5.144583">
        <ele>1790.0</ele>
        <time>2016-09-23T16:38:36Z</time>
      </trkpt>
      <trkpt lat="36.675469" lon="-5.144399">
        <ele>1785.0</ele>
        <time>2016-09-23T16:38:39Z</time>
      </trkpt>
      <trkpt lat="36.675237" lon="-5.144250">
        <ele>1785.0</ele>
        <time>2016-09-23T16:38:42Z</time>
      </trkpt>
      <trkpt lat="36.675001" lon="-5.144150">
        <ele>1785.0</ele>
        <time>2016-09-23T16:38:45Z</time>
      </trkpt>
      <trkpt lat="36.674800" lon="-5.144034">
        <ele>1785.0</ele>
        <time>2016-09-23T16:38:48Z</time>
      </trkpt>
      <trkpt lat="36.674585" lon="-5.143933">
        <ele>1782.0</ele>
        <time>2016-09-23T16:38:51Z</time>
      </trkpt>
      <trkpt lat="36.674349" lon="-5.143850">
        <ele>1779.0</ele>
        <time>2016-09-23T16:38:54Z</time>
      </trkpt>
      <trkpt lat="36.674134" lon="-5.143733">
        <ele>1773.0</ele>
        <time>2016-09-23T16:38:57Z</time>
      </trkpt>
      <trkpt lat="36.673902" lon="-5.143633">
        <ele>1770.0</ele>
        <time>2016-09-23T16:39:00Z</time>
      </trkpt>
      <trkpt lat="36.673666" lon="-5.143500">
        <ele>1767.0</ele>
        <time>2016-09-23T16:39:03Z</time>
      </trkpt>
      <trkpt lat="36.673434" lon="-5.143400">
        <ele>1765.0</ele>
        <time>2016-09-23T16:39:06Z</time>
      </trkpt>
      <trkpt lat="36.673085" lon="-5.143217">
        <ele>1762.0</ele>
        <time>2016-09-23T16:39:10Z</time>
      </trkpt>
      <trkpt lat="36.672850" lon="-5.143066">
        <ele>1760.0</ele>
        <time>2016-09-23T16:39:13Z</time>
      </trkpt>
      <trkpt lat="36.672669" lon="-5.142883">
        <ele>1757.0</ele>
        <time>2016-09-23T16:39:16Z</time>
      </trkpt>
      <trkpt lat="36.672416" lon="-5.142716">
        <ele>1753.0</ele>
        <time>2016-09-23T16:39:19Z</time>
      </trkpt>
      <trkpt lat="36.672204" lon="-5.142600">
        <ele>1752.0</ele>
        <time>2016-09-23T16:39:22Z</time>
      </trkpt>
      <trkpt lat="36.671986" lon="-5.142466">
        <ele>1747.0</ele>
        <time>2016-09-23T16:39:25Z</time>
      </trkpt>
      <trkpt lat="36.671753" lon="-5.142366">
        <ele>1744.0</ele>
        <time>2016-09-23T16:39:28Z</time>
      </trkpt>
      <trkpt lat="36.671535" lon="-5.142267">
        <ele>1739.0</ele>
        <time>2016-09-23T16:39:31Z</time>
      </trkpt>
      <trkpt lat="36.671282" lon="-5.142200">
        <ele>1735.0</ele>
        <time>2016-09-23T16:39:34Z</time>
      </trkpt>
      <trkpt lat="36.671084" lon="-5.142100">
        <ele>1730.0</ele>
        <time>2016-09-23T16:39:37Z</time>
      </trkpt>
      <trkpt lat="36.670869" lon="-5.141966">
        <ele>1724.0</ele>
        <time>2016-09-23T16:39:40Z</time>
      </trkpt>
      <trkpt lat="36.670685" lon="-5.141817">
        <ele>1718.0</ele>
        <time>2016-09-23T16:39:43Z</time>
      </trkpt>
      <trkpt lat="36.670452" lon="-5.141650">
        <ele>1713.0</ele>
        <time>2016-09-23T16:39:46Z</time>
      </trkpt>
      <trkpt lat="36.670220" lon="-5.141533">
        <ele>1709.0</ele>
        <time>2016-09-23T16:39:49Z</time>
      </trkpt>
      <trkpt lat="36.669903" lon="-5.141350">
        <ele>1704.0</ele>
        <time>2016-09-23T16:39:53Z</time>
      </trkpt>
      <trkpt lat="36.669667" lon="-5.141200">
        <ele>1700.0</ele>
        <time>2016-09-23T16:39:56Z</time>
      </trkpt>
      <trkpt lat="36.669452" lon="-5.141050">
        <ele>1694.0</ele>
        <time>2016-09-23T16:39:59Z</time>
      </trkpt>
      <trkpt lat="36.669216" lon="-5.140883">
        <ele>1688.0</ele>
        <time>2016-09-23T16:40:02Z</time>
      </trkpt>
      <trkpt lat="36.668967" lon="-5.140733">
        <ele>1684.0</ele>
        <time>2016-09-23T16:40:05Z</time>
      </trkpt>
      <trkpt lat="36.668700" lon="-5.140633">
        <ele>1681.0</ele>
        <time>2016-09-23T16:40:08Z</time>
      </trkpt>
      <trkpt lat="36.668448" lon="-5.140483">
        <ele>1677.0</ele>
        <time>2016-09-23T16:40:11Z</time>
      </trkpt>
      <trkpt lat="36.668202" lon="-5.140367">
        <ele>1673.0</ele>
        <time>2016-09-23T16:40:14Z</time>
      </trkpt>
      <trkpt lat="36.667949" lon="-5.140233">
        <ele>1668.0</ele>
        <time>2016-09-23T16:40:17Z</time>
      </trkpt>
      <trkpt lat="36.667700" lon="-5.140100">
        <ele>1664.0</ele>
        <time>2016-09-23T16:40:20Z</time>
      </trkpt>
      <trkpt lat="36.667468" lon="-5.139950">
        <ele>1657.0</ele>
        <time>2016-09-23T16:40:23Z</time>
      </trkpt>
      <trkpt lat="36.667235" lon="-5.139784">
        <ele>1652.0</ele>
        <time>2016-09-23T16:40:26Z</time>
      </trkpt>
      <trkpt lat="36.667000" lon="-5.139650">
        <ele>1646.0</ele>
        <time>2016-09-23T16:40:29Z</time>
      </trkpt>
      <trkpt lat="36.666785" lon="-5.139467">
        <ele>1642.0</ele>
        <time>2016-09-23T16:40:32Z</time>
      </trkpt>
      <trkpt lat="36.666470" lon="-5.139283">
        <ele>1637.0</ele>
        <time>2016-09-23T16:40:36Z</time>
      </trkpt>
      <trkpt lat="36.666183" lon="-5.139233">
        <ele>1632.0</ele>
        <time>2016-09-23T16:40:39Z</time>
      </trkpt>
      <trkpt lat="36.665900" lon="-5.139216">
        <ele>1629.0</ele>
        <time>2016-09-23T16:40:42Z</time>
      </trkpt>
      <trkpt lat="36.665654" lon="-5.139166">
        <ele>1625.0</ele>
        <time>2016-09-23T16:40:45Z</time>
      </trkpt>
      <trkpt lat="36.665401" lon="-5.139034">
        <ele>1618.0</ele>
        <time>2016-09-23T16:40:48Z</time>
      </trkpt>
      <trkpt lat="36.665135" lon="-5.138900">
        <ele>1614.0</ele>
        <time>2016-09-23T16:40:51Z</time>
      </trkpt>
      <trkpt lat="36.664886" lon="-5.138767">
        <ele>1610.0</ele>
        <time>2016-09-23T16:40:54Z</time>
      </trkpt>
      <trkpt lat="36.664619" lon="-5.138650">
        <ele>1604.0</ele>
        <time>2016-09-23T16:40:57Z</time>
      </trkpt>
      <trkpt lat="36.664353" lon="-5.138517">
        <ele>1599.0</ele>
        <time>2016-09-23T16:41:00Z</time>
      </trkpt>
      <trkpt lat="36.664100" lon="-5.138433">
        <ele>1594.0</ele>
        <time>2016-09-23T16:41:03Z</time>
      </trkpt>
      <trkpt lat="36.663834" lon="-5.138333">
        <ele>1590.0</ele>
        <time>2016-09-23T16:41:06Z</time>
      </trkpt>
      <trkpt lat="36.663585" lon="-5.138216">
        <ele>1584.0</ele>
        <time>2016-09-23T16:41:09Z</time>
      </trkpt>
      <trkpt lat="36.663318" lon="-5.138083">
        <ele>1580.0</ele>
        <time>2016-09-23T16:41:12Z</time>
      </trkpt>
      <trkpt lat="36.663001" lon="-5.137883">
        <ele>1575.0</ele>
        <time>2016-09-23T16:41:16Z</time>
      </trkpt>
      <trkpt lat="36.662751" lon="-5.137717">
        <ele>1569.0</ele>
        <time>2016-09-23T16:41:19Z</time>
      </trkpt>
      <trkpt lat="36.662502" lon="-5.137550">
        <ele>1566.0</ele>
        <time>2016-09-23T16:41:22Z</time>
      </trkpt>
      <trkpt lat="36.662249" lon="-5.137383">
        <ele>1559.0</ele>
        <time>2016-09-23T16:41:25Z</time>
      </trkpt>
      <trkpt lat="36.662003" lon="-5.137183">
        <ele>1555.0</ele>
        <time>2016-09-23T16:41:28Z</time>
      </trkpt>
      <trkpt lat="36.661785" lon="-5.137000">
        <ele>1550.0</ele>
        <time>2016-09-23T16:41:31Z</time>
      </trkpt>
      <trkpt lat="36.661566" lon="-5.136783">
        <ele>1545.0</ele>
        <time>2016-09-23T16:41:34Z</time>
      </trkpt>
      <trkpt lat="36.661399" lon="-5.136550">
        <ele>1540.0</ele>
        <time>2016-09-23T16:41:37Z</time>
      </trkpt>
      <trkpt lat="36.661201" lon="-5.136300">
        <ele>1535.0</ele>
        <time>2016-09-23T16:41:40Z</time>
      </trkpt>
      <trkpt lat="36.661003" lon="-5.136066">
        <ele>1528.0</ele>
        <time>2016-09-23T16:41:43Z</time>
      </trkpt>
      <trkpt lat="36.660818" lon="-5.135816">
        <ele>1524.0</ele>
        <time>2016-09-23T16:41:46Z</time>
      </trkpt>
      <trkpt lat="36.660634" lon="-5.135583">
        <ele>1521.0</ele>
        <time>2016-09-23T16:41:49Z</time>
      </trkpt>
      <trkpt lat="36.660450" lon="-5.135367">
        <ele>1518.0</ele>
        <time>2016-09-23T16:41:52Z</time>
      </trkpt>
      <trkpt lat="36.660286" lon="-5.135066">
        <ele>1515.0</ele>
        <time>2016-09-23T16:41:56Z</time>
      </trkpt>
      <trkpt lat="36.660152" lon="-5.134833">
        <ele>1512.0</ele>
        <time>2016-09-23T16:41:59Z</time>
      </trkpt>
      <trkpt lat="36.660053" lon="-5.134583">
        <ele>1508.0</ele>
        <time>2016-09-23T16:42:02Z</time>
      </trkpt>
      <trkpt lat="36.659934" lon="-5.134350">
        <ele>1503.0</ele>
        <time>2016-09-23T16:42:05Z</time>
      </trkpt>
      <trkpt lat="36.659767" lon="-5.134117">
        <ele>1496.0</ele>
        <time>2016-09-23T16:42:08Z</time>
      </trkpt>
      <trkpt lat="36.659603" lon="-5.133883">
        <ele>1492.0</ele>
        <time>2016-09-23T16:42:11Z</time>
      </trkpt>
      <trkpt lat="36.659435" lon="-5.133633">
        <ele>1486.0</ele>
        <time>2016-09-23T16:42:14Z</time>
      </trkpt>
      <trkpt lat="36.659251" lon="-5.133416">
        <ele>1481.0</ele>
        <time>2016-09-23T16:42:17Z</time>
      </trkpt>
      <trkpt lat="36.659104" lon="-5.133167">
        <ele>1479.0</ele>
        <time>2016-09-23T16:42:20Z</time>
      </trkpt>
      <trkpt lat="36.658985" lon="-5.132900">
        <ele>1478.0</ele>
        <time>2016-09-23T16:42:23Z</time>
      </trkpt>
      <trkpt lat="36.658865" lon="-5.132634">
        <ele>1477.0</ele>
        <time>2016-09-23T16:42:26Z</time>
      </trkpt>
      <trkpt lat="36.658766" lon="-5.132400">
        <ele>1475.0</ele>
        <time>2016-09-23T16:42:29Z</time>
      </trkpt>
      <trkpt lat="36.658633" lon="-5.132167">
        <ele>1471.0</ele>
        <time>2016-09-23T16:42:32Z</time>
      </trkpt>
      <trkpt lat="36.658500" lon="-5.131950">
        <ele>1467.0</ele>
        <time>2016-09-23T16:42:35Z</time>
      </trkpt>
      <trkpt lat="36.658301" lon="-5.131683">
        <ele>1462.0</ele>
        <time>2016-09-23T16:42:39Z</time>
      </trkpt>
      <trkpt lat="36.658148" lon="-5.131467">
        <ele>1458.0</ele>
        <time>2016-09-23T16:42:42Z</time>
      </trkpt>
      <trkpt lat="36.657984" lon="-5.131300">
        <ele>1452.0</ele>
        <time>2016-09-23T16:42:45Z</time>
      </trkpt>
      <trkpt lat="36.657803" lon="-5.131100">
        <ele>1447.0</ele>
        <time>2016-09-23T16:42:48Z</time>
      </trkpt>
      <trkpt lat="36.657618" lon="-5.130933">
        <ele>1443.0</ele>
        <time>2016-09-23T16:42:51Z</time>
      </trkpt>
      <trkpt lat="36.657417" lon="-5.130767">
        <ele>1439.0</ele>
        <time>2016-09-23T16:42:54Z</time>
      </trkpt>
      <trkpt lat="36.657219" lon="-5.130617">
        <ele>1437.0</ele>
        <time>2016-09-23T16:42:57Z</time>
      </trkpt>
      <trkpt lat="36.657017" lon="-5.130500">
        <ele>1432.0</ele>
        <time>2016-09-23T16:43:00Z</time>
      </trkpt>
      <trkpt lat="36.656802" lon="-5.130334">
        <ele>1429.0</ele>
        <time>2016-09-23T16:43:03Z</time>
      </trkpt>
      <trkpt lat="36.656635" lon="-5.130150">
        <ele>1424.0</ele>
        <time>2016-09-23T16:43:06Z</time>
      </trkpt>
      <trkpt lat="36.656433" lon="-5.129983">
        <ele>1422.0</ele>
        <time>2016-09-23T16:43:09Z</time>
      </trkpt>
      <trkpt lat="36.656270" lon="-5.129817">
        <ele>1417.0</ele>
        <time>2016-09-23T16:43:12Z</time>
      </trkpt>
      <trkpt lat="36.656068" lon="-5.129617">
        <ele>1415.0</ele>
        <time>2016-09-23T16:43:15Z</time>
      </trkpt>
      <trkpt lat="36.655904" lon="-5.129434">
        <ele>1410.0</ele>
        <time>2016-09-23T16:43:18Z</time>
      </trkpt>
      <trkpt lat="36.655634" lon="-5.129200">
        <ele>1407.0</ele>
        <time>2016-09-23T16:43:22Z</time>
      </trkpt>
      <trkpt lat="36.655433" lon="-5.129034">
        <ele>1404.0</ele>
        <time>2016-09-23T16:43:25Z</time>
      </trkpt>
      <trkpt lat="36.655235" lon="-5.128867">
        <ele>1399.0</ele>
        <time>2016-09-23T16:43:28Z</time>
      </trkpt>
      <trkpt lat="36.655050" lon="-5.128684">
        <ele>1394.0</ele>
        <time>2016-09-23T16:43:31Z</time>
      </trkpt>
      <trkpt lat="36.654869" lon="-5.128467">
        <ele>1390.0</ele>
        <time>2016-09-23T16:43:34Z</time>
      </trkpt>
      <trkpt lat="36.654736" lon="-5.128233">
        <ele>1386.0</ele>
        <time>2016-09-23T16:43:37Z</time>
      </trkpt>
      <trkpt lat="36.654603" lon="-5.127983">
        <ele>1381.0</ele>
        <time>2016-09-23T16:43:40Z</time>
      </trkpt>
      <trkpt lat="36.654518" lon="-5.127733">
        <ele>1379.0</ele>
        <time>2016-09-23T16:43:43Z</time>
      </trkpt>
      <trkpt lat="36.654398" lon="-5.127500">
        <ele>1377.0</ele>
        <time>2016-09-23T16:43:46Z</time>
      </trkpt>
      <trkpt lat="36.654299" lon="-5.127267">
        <ele>1374.0</ele>
        <time>2016-09-23T16:43:49Z</time>
      </trkpt>
      <trkpt lat="36.654166" lon="-5.127050">
        <ele>1372.0</ele>
        <time>2016-09-23T16:43:52Z</time>
      </trkpt>
      <trkpt lat="36.654053" lon="-5.126850">
        <ele>1368.0</ele>
        <time>2016-09-23T16:43:55Z</time>
      </trkpt>
      <trkpt lat="36.653920" lon="-5.126667">
        <ele>1365.0</ele>
        <time>2016-09-23T16:43:58Z</time>
      </trkpt>
      <trkpt lat="36.653766" lon="-5.126483">
        <ele>1363.0</ele>
        <time>2016-09-23T16:44:01Z</time>
      </trkpt>
      <trkpt lat="36.653534" lon="-5.126267">
        <ele>1360.0</ele>
        <time>2016-09-23T16:44:05Z</time>
      </trkpt>
      <trkpt lat="36.653336" lon="-5.126133">
        <ele>1359.0</ele>
        <time>2016-09-23T16:44:08Z</time>
      </trkpt>
      <trkpt lat="36.653134" lon="-5.126016">
        <ele>1356.0</ele>
        <time>2016-09-23T16:44:11Z</time>
      </trkpt>
      <trkpt lat="36.652950" lon="-5.125884">
        <ele>1354.0</ele>
        <time>2016-09-23T16:44:14Z</time>
      </trkpt>
      <trkpt lat="36.652735" lon="-5.125783">
        <ele>1350.0</ele>
        <time>2016-09-23T16:44:17Z</time>
      </trkpt>
      <trkpt lat="36.652499" lon="-5.125650">
        <ele>1347.0</ele>
        <time>2016-09-23T16:44:20Z</time>
      </trkpt>
      <trkpt lat="36.652253" lon="-5.125567">
        <ele>1347.0</ele>
        <time>2016-09-23T16:44:23Z</time>
      </trkpt>
      <trkpt lat="36.652035" lon="-5.125484">
        <ele>1346.0</ele>
        <time>2016-09-23T16:44:26Z</time>
      </trkpt>
      <trkpt lat="36.651782" lon="-5.125417">
        <ele>1347.0</ele>
        <time>2016-09-23T16:44:29Z</time>
      </trkpt>
      <trkpt lat="36.651536" lon="-5.125367">
        <ele>1348.0</ele>
        <time>2016-09-23T16:44:32Z</time>
      </trkpt>
      <trkpt lat="36.651338" lon="-5.125367">
        <ele>1350.0</ele>
        <time>2016-09-23T16:44:35Z</time>
      </trkpt>
      <trkpt lat="36.651120" lon="-5.125500">
        <ele>1350.0</ele>
        <time>2016-09-23T16:44:38Z</time>
      </trkpt>
      <trkpt lat="36.650966" lon="-5.125733">
        <ele>1350.0</ele>
        <time>2016-09-23T16:44:41Z</time>
      </trkpt>
      <trkpt lat="36.650952" lon="-5.126100">
        <ele>1351.0</ele>
        <time>2016-09-23T16:44:44Z</time>
      </trkpt>
      <trkpt lat="36.651167" lon="-5.126450">
        <ele>1349.0</ele>
        <time>2016-09-23T16:44:48Z</time>
      </trkpt>
      <trkpt lat="36.651437" lon="-5.126550">
        <ele>1347.0</ele>
        <time>2016-09-23T16:44:51Z</time>
      </trkpt>
      <trkpt lat="36.651683" lon="-5.126434">
        <ele>1347.0</ele>
        <time>2016-09-23T16:44:54Z</time>
      </trkpt>
      <trkpt lat="36.651837" lon="-5.126234">
        <ele>1347.0</ele>
        <time>2016-09-23T16:44:57Z</time>
      </trkpt>
      <trkpt lat="36.651902" lon="-5.125950">
        <ele>1347.0</ele>
        <time>2016-09-23T16:45:00Z</time>
      </trkpt>
      <trkpt lat="36.651885" lon="-5.125666">
        <ele>1348.0</ele>
        <time>2016-09-23T16:45:03Z</time>
      </trkpt>
      <trkpt lat="36.651837" lon="-5.125417">
        <ele>1349.0</ele>
        <time>2016-09-23T16:45:06Z</time>
      </trkpt>
      <trkpt lat="36.651717" lon="-5.125233">
        <ele>1351.0</ele>
        <time>2016-09-23T16:45:09Z</time>
      </trkpt>
      <trkpt lat="36.651550" lon="-5.125167">
        <ele>1347.0</ele>
        <time>2016-09-23T16:45:12Z</time>
      </trkpt>
      <trkpt lat="36.651318" lon="-5.125167">
        <ele>1347.0</ele>
        <time>2016-09-23T16:45:15Z</time>
      </trkpt>
      <trkpt lat="36.651120" lon="-5.125383">
        <ele>1346.0</ele>
        <time>2016-09-23T16:45:18Z</time>
      </trkpt>
      <trkpt lat="36.651020" lon="-5.125717">
        <ele>1343.0</ele>
        <time>2016-09-23T16:45:21Z</time>
      </trkpt>
      <trkpt lat="36.651133" lon="-5.126100">
        <ele>1344.0</ele>
        <time>2016-09-23T16:45:24Z</time>
      </trkpt>
      <trkpt lat="36.651485" lon="-5.126300">
        <ele>1344.0</ele>
        <time>2016-09-23T16:45:28Z</time>
      </trkpt>
      <trkpt lat="36.651751" lon="-5.126234">
        <ele>1344.0</ele>
        <time>2016-09-23T16:45:31Z</time>
      </trkpt>
      <trkpt lat="36.651915" lon="-5.126033">
        <ele>1343.0</ele>
        <time>2016-09-23T16:45:34Z</time>
      </trkpt>
      <trkpt lat="36.652001" lon="-5.125800">
        <ele>1343.0</ele>
        <time>2016-09-23T16:45:37Z</time>
      </trkpt>
      <trkpt lat="36.652018" lon="-5.125550">
        <ele>1344.0</ele>
        <time>2016-09-23T16:45:40Z</time>
      </trkpt>
      <trkpt lat="36.652001" lon="-5.125317">
        <ele>1344.0</ele>
        <time>2016-09-23T16:45:43Z</time>
      </trkpt>
      <trkpt lat="36.651915" lon="-5.125083">
        <ele>1343.0</ele>
        <time>2016-09-23T16:45:46Z</time>
      </trkpt>
      <trkpt lat="36.651782" lon="-5.124883">
        <ele>1341.0</ele>
        <time>2016-09-23T16:45:49Z</time>
      </trkpt>
      <trkpt lat="36.651635" lon="-5.124700">
        <ele>1341.0</ele>
        <time>2016-09-23T16:45:52Z</time>
      </trkpt>
      <trkpt lat="36.651464" lon="-5.124533">
        <ele>1339.0</ele>
        <time>2016-09-23T16:45:55Z</time>
      </trkpt>
      <trkpt lat="36.651283" lon="-5.124367">
        <ele>1339.0</ele>
        <time>2016-09-23T16:45:58Z</time>
      </trkpt>
      <trkpt lat="36.651120" lon="-5.124233">
        <ele>1337.0</ele>
        <time>2016-09-23T16:46:01Z</time>
      </trkpt>
      <trkpt lat="36.650952" lon="-5.124067">
        <ele>1337.0</ele>
        <time>2016-09-23T16:46:04Z</time>
      </trkpt>
      <trkpt lat="36.650785" lon="-5.123900">
        <ele>1335.0</ele>
        <time>2016-09-23T16:46:07Z</time>
      </trkpt>
      <trkpt lat="36.650600" lon="-5.123733">
        <ele>1333.0</ele>
        <time>2016-09-23T16:46:10Z</time>
      </trkpt>
      <trkpt lat="36.650382" lon="-5.123467">
        <ele>1331.0</ele>
        <time>2016-09-23T16:46:14Z</time>
      </trkpt>
      <trkpt lat="36.650235" lon="-5.123250">
        <ele>1329.0</ele>
        <time>2016-09-23T16:46:17Z</time>
      </trkpt>
      <trkpt lat="36.650085" lon="-5.123050">
        <ele>1326.0</ele>
        <time>2016-09-23T16:46:20Z</time>
      </trkpt>
      <trkpt lat="36.649904" lon="-5.122850">
        <ele>1323.0</ele>
        <time>2016-09-23T16:46:23Z</time>
      </trkpt>
      <trkpt lat="36.649754" lon="-5.122667">
        <ele>1320.0</ele>
        <time>2016-09-23T16:46:26Z</time>
      </trkpt>
      <trkpt lat="36.649586" lon="-5.122450">
        <ele>1318.0</ele>
        <time>2016-09-23T16:46:29Z</time>
      </trkpt>
      <trkpt lat="36.649419" lon="-5.122267">
        <ele>1316.0</ele>
        <time>2016-09-23T16:46:32Z</time>
      </trkpt>
      <trkpt lat="36.649248" lon="-5.122084">
        <ele>1311.0</ele>
        <time>2016-09-23T16:46:35Z</time>
      </trkpt>
      <trkpt lat="36.649050" lon="-5.121933">
        <ele>1307.0</ele>
        <time>2016-09-23T16:46:38Z</time>
      </trkpt>
      <trkpt lat="36.648835" lon="-5.121800">
        <ele>1303.0</ele>
        <time>2016-09-23T16:46:41Z</time>
      </trkpt>
      <trkpt lat="36.648616" lon="-5.121700">
        <ele>1299.0</ele>
        <time>2016-09-23T16:46:44Z</time>
      </trkpt>
      <trkpt lat="36.648405" lon="-5.121600">
        <ele>1295.0</ele>
        <time>2016-09-23T16:46:47Z</time>
      </trkpt>
      <trkpt lat="36.648152" lon="-5.121433">
        <ele>1291.0</ele>
        <time>2016-09-23T16:46:51Z</time>
      </trkpt>
      <trkpt lat="36.647954" lon="-5.121300">
        <ele>1286.0</ele>
        <time>2016-09-23T16:46:54Z</time>
      </trkpt>
      <trkpt lat="36.647752" lon="-5.121183">
        <ele>1282.0</ele>
        <time>2016-09-23T16:46:57Z</time>
      </trkpt>
      <trkpt lat="36.647585" lon="-5.121050">
        <ele>1278.0</ele>
        <time>2016-09-23T16:47:00Z</time>
      </trkpt>
      <trkpt lat="36.647400" lon="-5.120917">
        <ele>1273.0</ele>
        <time>2016-09-23T16:47:03Z</time>
      </trkpt>
      <trkpt lat="36.647250" lon="-5.120733">
        <ele>1269.0</ele>
        <time>2016-09-23T16:47:06Z</time>
      </trkpt>
      <trkpt lat="36.647103" lon="-5.120567">
        <ele>1266.0</ele>
        <time>2016-09-23T16:47:09Z</time>
      </trkpt>
      <trkpt lat="36.646953" lon="-5.120417">
        <ele>1262.0</ele>
        <time>2016-09-23T16:47:12Z</time>
      </trkpt>
      <trkpt lat="36.646834" lon="-5.120233">
        <ele>1257.0</ele>
        <time>2016-09-23T16:47:15Z</time>
      </trkpt>
      <trkpt lat="36.646687" lon="-5.120066">
        <ele>1250.0</ele>
        <time>2016-09-23T16:47:18Z</time>
      </trkpt>
      <trkpt lat="36.646519" lon="-5.119850">
        <ele>1245.0</ele>
        <time>2016-09-23T16:47:22Z</time>
      </trkpt>
      <trkpt lat="36.646352" lon="-5.119700">
        <ele>1240.0</ele>
        <time>2016-09-23T16:47:25Z</time>
      </trkpt>
      <trkpt lat="36.646236" lon="-5.119550">
        <ele>1236.0</ele>
        <time>2016-09-23T16:47:28Z</time>
      </trkpt>
      <trkpt lat="36.646082" lon="-5.119367">
        <ele>1228.0</ele>
        <time>2016-09-23T16:47:31Z</time>
      </trkpt>
      <trkpt lat="36.645970" lon="-5.119184">
        <ele>1225.0</ele>
        <time>2016-09-23T16:47:34Z</time>
      </trkpt>
      <trkpt lat="36.645816" lon="-5.119033">
        <ele>1219.0</ele>
        <time>2016-09-23T16:47:37Z</time>
      </trkpt>
      <trkpt lat="36.645669" lon="-5.118884">
        <ele>1214.0</ele>
        <time>2016-09-23T16:47:40Z</time>
      </trkpt>
      <trkpt lat="36.645553" lon="-5.118717">
        <ele>1210.0</ele>
        <time>2016-09-23T16:47:43Z</time>
      </trkpt>
      <trkpt lat="36.645471" lon="-5.118534">
        <ele>1205.0</ele>
        <time>2016-09-23T16:47:46Z</time>
      </trkpt>
      <trkpt lat="36.645399" lon="-5.118317">
        <ele>1198.0</ele>
        <time>2016-09-23T16:47:49Z</time>
      </trkpt>
      <trkpt lat="36.645317" lon="-5.118067">
        <ele>1193.0</ele>
        <time>2016-09-23T16:47:52Z</time>
      </trkpt>
      <trkpt lat="36.645218" lon="-5.117850">
        <ele>1189.0</ele>
        <time>2016-09-23T16:47:55Z</time>
      </trkpt>
      <trkpt lat="36.645119" lon="-5.117667">
        <ele>1183.0</ele>
        <time>2016-09-23T16:47:58Z</time>
      </trkpt>
      <trkpt lat="36.645000" lon="-5.117483">
        <ele>1176.0</ele>
        <time>2016-09-23T16:48:01Z</time>
      </trkpt>
      <trkpt lat="36.644887" lon="-5.117317">
        <ele>1170.0</ele>
        <time>2016-09-23T16:48:04Z</time>
      </trkpt>
      <trkpt lat="36.644819" lon="-5.117117">
        <ele>1164.0</ele>
        <time>2016-09-23T16:48:07Z</time>
      </trkpt>
      <trkpt lat="36.644819" lon="-5.116867">
        <ele>1159.0</ele>
        <time>2016-09-23T16:48:10Z</time>
      </trkpt>
      <trkpt lat="36.644853" lon="-5.116633">
        <ele>1152.0</ele>
        <time>2016-09-23T16:48:13Z</time>
      </trkpt>
      <trkpt lat="36.644836" lon="-5.116300">
        <ele>1147.0</ele>
        <time>2016-09-23T16:48:17Z</time>
      </trkpt>
      <trkpt lat="36.644901" lon="-5.116083">
        <ele>1141.0</ele>
        <time>2016-09-23T16:48:20Z</time>
      </trkpt>
      <trkpt lat="36.645068" lon="-5.115867">
        <ele>1134.0</ele>
        <time>2016-09-23T16:48:23Z</time>
      </trkpt>
      <trkpt lat="36.645252" lon="-5.115649">
        <ele>1126.0</ele>
        <time>2016-09-23T16:48:26Z</time>
      </trkpt>
      <trkpt lat="36.645471" lon="-5.115350">
        <ele>1118.0</ele>
        <time>2016-09-23T16:48:29Z</time>
      </trkpt>
      <trkpt lat="36.645618" lon="-5.115083">
        <ele>1123.0</ele>
        <time>2016-09-23T16:48:32Z</time>
      </trkpt>
      <trkpt lat="36.645816" lon="-5.114917">
        <ele>1126.0</ele>
        <time>2016-09-23T16:48:35Z</time>
      </trkpt>
      <trkpt lat="36.646051" lon="-5.114767">
        <ele>1126.0</ele>
        <time>2016-09-23T16:48:38Z</time>
      </trkpt>
      <trkpt lat="36.646352" lon="-5.114767">
        <ele>1122.0</ele>
        <time>2016-09-23T16:48:41Z</time>
      </trkpt>
      <trkpt lat="36.646618" lon="-5.114966">
        <ele>1114.0</ele>
        <time>2016-09-23T16:48:44Z</time>
      </trkpt>
      <trkpt lat="36.646735" lon="-5.115300">
        <ele>1104.0</ele>
        <time>2016-09-23T16:48:47Z</time>
      </trkpt>
      <trkpt lat="36.646567" lon="-5.115383">
        <ele>1101.0</ele>
        <time>2016-09-23T16:48:50Z</time>
      </trkpt>
      <trkpt lat="36.646502" lon="-5.115317">
        <ele>1099.0</ele>
        <time>2016-09-23T16:48:53Z</time>
      </trkpt>
      <trkpt lat="36.646352" lon="-5.115250">
        <ele>1100.0</ele>
        <time>2016-09-23T16:48:57Z</time>
      </trkpt>
      <trkpt lat="36.646420" lon="-5.114966">
        <ele>1103.0</ele>
        <time>2016-09-23T16:49:00Z</time>
      </trkpt>
      <trkpt lat="36.646584" lon="-5.114716">
        <ele>1103.0</ele>
        <time>2016-09-23T16:49:03Z</time>
      </trkpt>
      <trkpt lat="36.646868" lon="-5.114567">
        <ele>1099.0</ele>
        <time>2016-09-23T16:49:06Z</time>
      </trkpt>
      <trkpt lat="36.647151" lon="-5.114467">
        <ele>1095.0</ele>
        <time>2016-09-23T16:49:09Z</time>
      </trkpt>
      <trkpt lat="36.647418" lon="-5.114333">
        <ele>1087.0</ele>
        <time>2016-09-23T16:49:12Z</time>
      </trkpt>
      <trkpt lat="36.647636" lon="-5.114133">
        <ele>1082.0</ele>
        <time>2016-09-23T16:49:15Z</time>
      </trkpt>
      <trkpt lat="36.647851" lon="-5.113916">
        <ele>1077.0</ele>
        <time>2016-09-23T16:49:18Z</time>
      </trkpt>
      <trkpt lat="36.648101" lon="-5.113717">
        <ele>1071.0</ele>
        <time>2016-09-23T16:49:21Z</time>
      </trkpt>
      <trkpt lat="36.648299" lon="-5.113450">
        <ele>1067.0</ele>
        <time>2016-09-23T16:49:24Z</time>
      </trkpt>
      <trkpt lat="36.648469" lon="-5.113216">
        <ele>1062.0</ele>
        <time>2016-09-23T16:49:27Z</time>
      </trkpt>
      <trkpt lat="36.648616" lon="-5.112950">
        <ele>1059.0</ele>
        <time>2016-09-23T16:49:30Z</time>
      </trkpt>
      <trkpt lat="36.648835" lon="-5.112783">
        <ele>1054.0</ele>
        <time>2016-09-23T16:49:33Z</time>
      </trkpt>
      <trkpt lat="36.649122" lon="-5.112666">
        <ele>1052.0</ele>
        <time>2016-09-23T16:49:36Z</time>
      </trkpt>
      <trkpt lat="36.649436" lon="-5.112633">
        <ele>1049.0</ele>
        <time>2016-09-23T16:49:39Z</time>
      </trkpt>
      <trkpt lat="36.649883" lon="-5.112616">
        <ele>1046.0</ele>
        <time>2016-09-23T16:49:43Z</time>
      </trkpt>
      <trkpt lat="36.650150" lon="-5.112566">
        <ele>1044.0</ele>
        <time>2016-09-23T16:49:46Z</time>
      </trkpt>
      <trkpt lat="36.650467" lon="-5.112583">
        <ele>1036.0</ele>
        <time>2016-09-23T16:49:49Z</time>
      </trkpt>
      <trkpt lat="36.650754" lon="-5.112633">
        <ele>1031.0</ele>
        <time>2016-09-23T16:49:52Z</time>
      </trkpt>
      <trkpt lat="36.651051" lon="-5.112666">
        <ele>1025.0</ele>
        <time>2016-09-23T16:49:55Z</time>
      </trkpt>
      <trkpt lat="36.651352" lon="-5.112600">
        <ele>1026.0</ele>
        <time>2016-09-23T16:49:58Z</time>
      </trkpt>
      <trkpt lat="36.651584" lon="-5.112400">
        <ele>1023.0</ele>
        <time>2016-09-23T16:50:01Z</time>
      </trkpt>
      <trkpt lat="36.651703" lon="-5.112183">
        <ele>1024.0</ele>
        <time>2016-09-23T16:50:04Z</time>
      </trkpt>
      <trkpt lat="36.651885" lon="-5.112033">
        <ele>1019.0</ele>
        <time>2016-09-23T16:50:07Z</time>
      </trkpt>
      <trkpt lat="36.652103" lon="-5.111900">
        <ele>1014.0</ele>
        <time>2016-09-23T16:50:10Z</time>
      </trkpt>
      <trkpt lat="36.652287" lon="-5.111816">
        <ele>1009.0</ele>
        <time>2016-09-23T16:50:13Z</time>
      </trkpt>
      <trkpt lat="36.652520" lon="-5.111783">
        <ele>1007.0</ele>
        <time>2016-09-23T16:50:16Z</time>
      </trkpt>
      <trkpt lat="36.652752" lon="-5.111816">
        <ele>999.0</ele>
        <time>2016-09-23T16:50:19Z</time>
      </trkpt>
      <trkpt lat="36.652970" lon="-5.111983">
        <ele>995.0</ele>
        <time>2016-09-23T16:50:22Z</time>
      </trkpt>
      <trkpt lat="36.653251" lon="-5.112116">
        <ele>992.0</ele>
        <time>2016-09-23T16:50:26Z</time>
      </trkpt>
      <trkpt lat="36.653469" lon="-5.112200">
        <ele>990.0</ele>
        <time>2016-09-23T16:50:29Z</time>
      </trkpt>
      <trkpt lat="36.653654" lon="-5.112283">
        <ele>987.0</ele>
        <time>2016-09-23T16:50:32Z</time>
      </trkpt>
      <trkpt lat="36.653821" lon="-5.112367">
        <ele>985.0</ele>
        <time>2016-09-23T16:50:35Z</time>
      </trkpt>
      <trkpt lat="36.654019" lon="-5.112417">
        <ele>980.0</ele>
        <time>2016-09-23T16:50:38Z</time>
      </trkpt>
      <trkpt lat="36.654251" lon="-5.112483">
        <ele>976.0</ele>
        <time>2016-09-23T16:50:41Z</time>
      </trkpt>
      <trkpt lat="36.654436" lon="-5.112683">
        <ele>976.0</ele>
        <time>2016-09-23T16:50:44Z</time>
      </trkpt>
      <trkpt lat="36.654504" lon="-5.112816">
        <ele>982.0</ele>
        <time>2016-09-23T16:50:47Z</time>
      </trkpt>
      <trkpt lat="36.654453" lon="-5.112983">
        <ele>976.0</ele>
        <time>2016-09-23T16:50:50Z</time>
      </trkpt>
      <trkpt lat="36.654371" lon="-5.113100">
        <ele>975.0</ele>
        <time>2016-09-23T16:50:53Z</time>
      </trkpt>
      <trkpt lat="36.654265" lon="-5.113183">
        <ele>974.0</ele>
        <time>2016-09-23T16:50:56Z</time>
      </trkpt>
      <trkpt lat="36.654166" lon="-5.113250">
        <ele>973.0</ele>
        <time>2016-09-23T16:50:59Z</time>
      </trkpt>
      <trkpt lat="36.654019" lon="-5.113333">
        <ele>973.0</ele>
        <time>2016-09-23T16:51:03Z</time>
      </trkpt>
      <trkpt lat="36.653920" lon="-5.113400">
        <ele>971.0</ele>
        <time>2016-09-23T16:51:06Z</time>
      </trkpt>
      <trkpt lat="36.653869" lon="-5.113533">
        <ele>968.0</ele>
        <time>2016-09-23T16:51:09Z</time>
      </trkpt>
      <trkpt lat="36.653736" lon="-5.113533">
        <ele>965.0</ele>
        <time>2016-09-23T16:51:12Z</time>
      </trkpt>
      <trkpt lat="36.653602" lon="-5.113533">
        <ele>963.0</ele>
        <time>2016-09-23T16:51:15Z</time>
      </trkpt>
      <trkpt lat="36.653469" lon="-5.113550">
        <ele>961.0</ele>
        <time>2016-09-23T16:51:18Z</time>
      </trkpt>
      <trkpt lat="36.653336" lon="-5.113517">
        <ele>957.0</ele>
        <time>2016-09-23T16:51:21Z</time>
      </trkpt>
      <trkpt lat="36.653203" lon="-5.113500">
        <ele>955.0</ele>
        <time>2016-09-23T16:51:24Z</time>
      </trkpt>
      <trkpt lat="36.653104" lon="-5.113500">
        <ele>951.0</ele>
        <time>2016-09-23T16:51:27Z</time>
      </trkpt>
      <trkpt lat="36.652950" lon="-5.113500">
        <ele>946.0</ele>
        <time>2016-09-23T16:51:30Z</time>
      </trkpt>
      <trkpt lat="36.652834" lon="-5.113533">
        <ele>948.0</ele>
        <time>2016-09-23T16:51:33Z</time>
      </trkpt>
      <trkpt lat="36.652752" lon="-5.113600">
        <ele>946.0</ele>
        <time>2016-09-23T16:51:36Z</time>
      </trkpt>
      <trkpt lat="36.652653" lon="-5.113633">
        <ele>946.0</ele>
        <time>2016-09-23T16:51:39Z</time>
      </trkpt>
      <trkpt lat="36.652653" lon="-5.113633">
        <ele>946.0</ele>
        <time>2016-09-23T16:51:42Z</time>
      </trkpt>
      <trkpt lat="36.652653" lon="-5.113633">
        <ele>946.0</ele>
        <time>2016-09-23T16:51:46Z</time>
      </trkpt>
      <trkpt lat="36.652653" lon="-5.113633">
        <ele>946.0</ele>
        <time>2016-09-23T16:51:49Z</time>
      </trkpt>
      <trkpt lat="36.652653" lon="-5.113633">
        <ele>946.0</ele>
        <time>2016-09-23T16:51:52Z</time>
      </trkpt>
      <trkpt lat="36.652653" lon="-5.113633">
        <ele>946.0</ele>
        <time>2016-09-23T16:51:55Z</time>
      </trkpt>
      <trkpt lat="36.652653" lon="-5.113633">
        <ele>946.0</ele>
        <time>2016-09-23T16:51:58Z</time>
      </trkpt>
      <trkpt lat="36.652653" lon="-5.113633">
        <ele>946.0</ele>
        <time>2016-09-23T16:52:01Z</time>
      </trkpt>
      <trkpt lat="36.652653" lon="-5.113633">
        <ele>946.0</ele>
        <time>2016-09-23T16:52:04Z</time>
      </trkpt>
      <trkpt lat="36.652653" lon="-5.113617">
        <ele>946.0</ele>
        <time>2016-09-23T16:52:07Z</time>
      </trkpt>
      <trkpt lat="36.652653" lon="-5.113617">
        <ele>946.0</ele>
        <time>2016-09-23T16:52:10Z</time>
      </trkpt>
      <trkpt lat="36.652653" lon="-5.113600">
        <ele>946.0</ele>
        <time>2016-09-23T16:52:13Z</time>
      </trkpt>
      <trkpt lat="36.652632" lon="-5.113600">
        <ele>946.0</ele>
        <time>2016-09-23T16:52:16Z</time>
      </trkpt>
      <trkpt lat="36.652632" lon="-5.113583">
        <ele>946.0</ele>
        <time>2016-09-23T16:52:19Z</time>
      </trkpt>
      <trkpt lat="36.652632" lon="-5.113583">
        <ele>946.0</ele>
        <time>2016-09-23T16:52:22Z</time>
      </trkpt>
      <trkpt lat="36.652632" lon="-5.113583">
        <ele>946.0</ele>
        <time>2016-09-23T16:52:26Z</time>
      </trkpt>
      <trkpt lat="36.652632" lon="-5.113583">
        <ele>946.0</ele>
        <time>2016-09-23T16:52:29Z</time>
      </trkpt>
      <trkpt lat="36.652632" lon="-5.113583">
        <ele>946.0</ele>
        <time>2016-09-23T16:52:32Z</time>
      </trkpt>
      <trkpt lat="36.652632" lon="-5.113583">
        <ele>946.0</ele>
        <time>2016-09-23T16:52:35Z</time>
      </trkpt>
      <trkpt lat="36.652632" lon="-5.113583">
        <ele>946.0</ele>
        <time>2016-09-23T16:52:38Z</time>
      </trkpt>
    </trkseg>
  </trk>
</gpx>
